<?xml version="1.0" encoding="ISO-8859-1" standalone="yes"?>
<gpx
  version="1.1"
  creator="Touratech QV 4.0.127 Standard - http://www.ttqv.com"
  xmlns:xsi="http://www.w3.org/2001/XMLSchema-instance"  xmlns:topografix="http://www.topografix.com/GPX/Private/TopoGrafix/0/1"
  xmlns="http://www.topografix.com/GPX/1/1"
  xsi:schemaLocation="http://www.topografix.com/GPX/1/1 http://www.topografix.com/GPX/1/1/gpx.xsd">
<metadata>
  <time>2012-05-11T16:18:23Z</time>
  <bounds minlat="46.510619" minlon="9.856138" maxlat="46.800875" maxlon="10.302999"/>
</metadata>
<trk>
  <name>Tag 4</name>
  <trkseg>
    <trkpt lat="46.797874" lon="10.302131">
    <ele>1182</ele>
    <time>2010-09-09T04:51:33Z</time>
    </trkpt>
    <trkpt lat="46.797874" lon="10.302131">
    <ele>1178</ele>
    <time>2010-09-09T04:51:34Z</time>
    </trkpt>
    <trkpt lat="46.797874" lon="10.302131">
    <ele>1181</ele>
    <time>2010-09-09T04:51:35Z</time>
    </trkpt>
    <trkpt lat="46.797874" lon="10.302131">
    <ele>1177</ele>
    <time>2010-09-09T04:51:48Z</time>
    </trkpt>
    <trkpt lat="46.798158" lon="10.302677">
    <ele>1181</ele>
    <time>2010-09-09T06:48:56Z</time>
    </trkpt>
    <trkpt lat="46.798155" lon="10.302606">
    <ele>1180</ele>
    <time>2010-09-09T06:49:07Z</time>
    </trkpt>
    <trkpt lat="46.798137" lon="10.302639">
    <ele>1181</ele>
    <time>2010-09-09T06:49:16Z</time>
    </trkpt>
    <trkpt lat="46.798096" lon="10.302601">
    <ele>1182</ele>
    <time>2010-09-09T06:49:30Z</time>
    </trkpt>
    <trkpt lat="46.798093" lon="10.302588">
    <ele>1186</ele>
    <time>2010-09-09T06:49:43Z</time>
    </trkpt>
    <trkpt lat="46.798094" lon="10.302593">
    <ele>1182</ele>
    <time>2010-09-09T06:49:46Z</time>
    </trkpt>
    <trkpt lat="46.798093" lon="10.302593">
    <ele>1182</ele>
    <time>2010-09-09T06:49:47Z</time>
    </trkpt>
    <trkpt lat="46.798125" lon="10.302548">
    <ele>1186</ele>
    <time>2010-09-09T06:50:24Z</time>
    </trkpt>
    <trkpt lat="46.798113" lon="10.302552">
    <ele>1185</ele>
    <time>2010-09-09T06:50:54Z</time>
    </trkpt>
    <trkpt lat="46.798136" lon="10.302514">
    <ele>1188</ele>
    <time>2010-09-09T06:52:04Z</time>
    </trkpt>
    <trkpt lat="46.798145" lon="10.302518">
    <ele>1188</ele>
    <time>2010-09-09T06:52:26Z</time>
    </trkpt>
    <trkpt lat="46.798145" lon="10.302522">
    <ele>1189</ele>
    <time>2010-09-09T06:52:39Z</time>
    </trkpt>
    <trkpt lat="46.798146" lon="10.302533">
    <ele>1190</ele>
    <time>2010-09-09T06:53:32Z</time>
    </trkpt>
    <trkpt lat="46.798143" lon="10.302531">
    <ele>1191</ele>
    <time>2010-09-09T06:53:53Z</time>
    </trkpt>
    <trkpt lat="46.798137" lon="10.302529">
    <ele>1194</ele>
    <time>2010-09-09T06:55:03Z</time>
    </trkpt>
    <trkpt lat="46.79812" lon="10.302537">
    <ele>1194</ele>
    <time>2010-09-09T06:55:29Z</time>
    </trkpt>
    <trkpt lat="46.798161" lon="10.302603">
    <ele>1195</ele>
    <time>2010-09-09T06:55:36Z</time>
    </trkpt>
    <trkpt lat="46.798316" lon="10.302564">
    <ele>1198</ele>
    <time>2010-09-09T06:55:49Z</time>
    </trkpt>
    <trkpt lat="46.798505" lon="10.302498">
    <ele>1200</ele>
    <time>2010-09-09T06:56:02Z</time>
    </trkpt>
    <trkpt lat="46.798569" lon="10.302502">
    <ele>1201</ele>
    <time>2010-09-09T06:56:07Z</time>
    </trkpt>
    <trkpt lat="46.798577" lon="10.302532">
    <ele>1201</ele>
    <time>2010-09-09T06:56:09Z</time>
    </trkpt>
    <trkpt lat="46.798633" lon="10.302913">
    <ele>1201</ele>
    <time>2010-09-09T06:56:19Z</time>
    </trkpt>
    <trkpt lat="46.798661" lon="10.302952">
    <ele>1201</ele>
    <time>2010-09-09T06:56:20Z</time>
    </trkpt>
    <trkpt lat="46.798706" lon="10.302982">
    <ele>1201</ele>
    <time>2010-09-09T06:56:21Z</time>
    </trkpt>
    <trkpt lat="46.798736" lon="10.302995">
    <ele>1201</ele>
    <time>2010-09-09T06:56:22Z</time>
    </trkpt>
    <trkpt lat="46.798766" lon="10.302999">
    <ele>1201</ele>
    <time>2010-09-09T06:56:23Z</time>
    </trkpt>
    <trkpt lat="46.799097" lon="10.302975">
    <ele>1204</ele>
    <time>2010-09-09T06:56:36Z</time>
    </trkpt>
    <trkpt lat="46.799353" lon="10.302974">
    <ele>1207</ele>
    <time>2010-09-09T06:56:48Z</time>
    </trkpt>
    <trkpt lat="46.799603" lon="10.302866">
    <ele>1210</ele>
    <time>2010-09-09T06:57:03Z</time>
    </trkpt>
    <trkpt lat="46.799782" lon="10.302652">
    <ele>1213</ele>
    <time>2010-09-09T06:57:17Z</time>
    </trkpt>
    <trkpt lat="46.799963" lon="10.302484">
    <ele>1216</ele>
    <time>2010-09-09T06:57:30Z</time>
    </trkpt>
    <trkpt lat="46.800169" lon="10.302351">
    <ele>1220</ele>
    <time>2010-09-09T06:57:43Z</time>
    </trkpt>
    <trkpt lat="46.800269" lon="10.302265">
    <ele>1221</ele>
    <time>2010-09-09T06:57:50Z</time>
    </trkpt>
    <trkpt lat="46.800415" lon="10.30211">
    <ele>1223</ele>
    <time>2010-09-09T06:58:02Z</time>
    </trkpt>
    <trkpt lat="46.800426" lon="10.302019">
    <ele>1223</ele>
    <time>2010-09-09T06:58:06Z</time>
    </trkpt>
    <trkpt lat="46.800419" lon="10.301919">
    <ele>1223</ele>
    <time>2010-09-09T06:58:10Z</time>
    </trkpt>
    <trkpt lat="46.800488" lon="10.301844">
    <ele>1224</ele>
    <time>2010-09-09T06:58:16Z</time>
    </trkpt>
    <trkpt lat="46.800579" lon="10.301783">
    <ele>1226</ele>
    <time>2010-09-09T06:58:26Z</time>
    </trkpt>
    <trkpt lat="46.800767" lon="10.301703">
    <ele>1229</ele>
    <time>2010-09-09T06:58:38Z</time>
    </trkpt>
    <trkpt lat="46.80086" lon="10.301616">
    <ele>1230</ele>
    <time>2010-09-09T06:58:45Z</time>
    </trkpt>
    <trkpt lat="46.800875" lon="10.301564">
    <ele>1231</ele>
    <time>2010-09-09T06:58:48Z</time>
    </trkpt>
    <trkpt lat="46.800788" lon="10.301593">
    <ele>1233</ele>
    <time>2010-09-09T06:58:57Z</time>
    </trkpt>
    <trkpt lat="46.800763" lon="10.301614">
    <ele>1233</ele>
    <time>2010-09-09T06:59:00Z</time>
    </trkpt>
    <trkpt lat="46.800754" lon="10.301604">
    <ele>1234</ele>
    <time>2010-09-09T06:59:20Z</time>
    </trkpt>
    <trkpt lat="46.800756" lon="10.301601">
    <ele>1236</ele>
    <time>2010-09-09T07:01:51Z</time>
    </trkpt>
    <trkpt lat="46.800755" lon="10.301603">
    <ele>1239</ele>
    <time>2010-09-09T07:04:00Z</time>
    </trkpt>
    <trkpt lat="46.800756" lon="10.301594">
    <ele>1243</ele>
    <time>2010-09-09T07:06:06Z</time>
    </trkpt>
    <trkpt lat="46.800775" lon="10.301646">
    <ele>1245</ele>
    <time>2010-09-09T07:07:06Z</time>
    </trkpt>
    <trkpt lat="46.80074" lon="10.301605">
    <ele>1246</ele>
    <time>2010-09-09T07:07:21Z</time>
    </trkpt>
    <trkpt lat="46.80052" lon="10.301512">
    <ele>1248</ele>
    <time>2010-09-09T07:07:33Z</time>
    </trkpt>
    <trkpt lat="46.800388" lon="10.301443">
    <ele>1249</ele>
    <time>2010-09-09T07:07:43Z</time>
    </trkpt>
    <trkpt lat="46.800225" lon="10.301498">
    <ele>1252</ele>
    <time>2010-09-09T07:07:56Z</time>
    </trkpt>
    <trkpt lat="46.800098" lon="10.30163">
    <ele>1254</ele>
    <time>2010-09-09T07:08:07Z</time>
    </trkpt>
    <trkpt lat="46.800054" lon="10.30165">
    <ele>1254</ele>
    <time>2010-09-09T07:08:09Z</time>
    </trkpt>
    <trkpt lat="46.799941" lon="10.301515">
    <ele>1255</ele>
    <time>2010-09-09T07:08:17Z</time>
    </trkpt>
    <trkpt lat="46.799812" lon="10.301029">
    <ele>1257</ele>
    <time>2010-09-09T07:08:35Z</time>
    </trkpt>
    <trkpt lat="46.799752" lon="10.300576">
    <ele>1258</ele>
    <time>2010-09-09T07:08:50Z</time>
    </trkpt>
    <trkpt lat="46.799764" lon="10.300072">
    <ele>1261</ele>
    <time>2010-09-09T07:09:08Z</time>
    </trkpt>
    <trkpt lat="46.799817" lon="10.29964">
    <ele>1264</ele>
    <time>2010-09-09T07:09:24Z</time>
    </trkpt>
    <trkpt lat="46.79984" lon="10.299162">
    <ele>1267</ele>
    <time>2010-09-09T07:09:40Z</time>
    </trkpt>
    <trkpt lat="46.799793" lon="10.298622">
    <ele>1269</ele>
    <time>2010-09-09T07:09:58Z</time>
    </trkpt>
    <trkpt lat="46.799736" lon="10.298111">
    <ele>1272</ele>
    <time>2010-09-09T07:10:15Z</time>
    </trkpt>
    <trkpt lat="46.799707" lon="10.297606">
    <ele>1274</ele>
    <time>2010-09-09T07:10:32Z</time>
    </trkpt>
    <trkpt lat="46.799788" lon="10.297106">
    <ele>1277</ele>
    <time>2010-09-09T07:10:48Z</time>
    </trkpt>
    <trkpt lat="46.799859" lon="10.29671">
    <ele>1279</ele>
    <time>2010-09-09T07:11:01Z</time>
    </trkpt>
    <trkpt lat="46.799866" lon="10.296586">
    <ele>1280</ele>
    <time>2010-09-09T07:11:05Z</time>
    </trkpt>
    <trkpt lat="46.799831" lon="10.296371">
    <ele>1281</ele>
    <time>2010-09-09T07:11:12Z</time>
    </trkpt>
    <trkpt lat="46.799598" lon="10.295979">
    <ele>1284</ele>
    <time>2010-09-09T07:11:29Z</time>
    </trkpt>
    <trkpt lat="46.799404" lon="10.295675">
    <ele>1286</ele>
    <time>2010-09-09T07:11:43Z</time>
    </trkpt>
    <trkpt lat="46.799198" lon="10.295457">
    <ele>1289</ele>
    <time>2010-09-09T07:11:57Z</time>
    </trkpt>
    <trkpt lat="46.79903" lon="10.295173">
    <ele>1291</ele>
    <time>2010-09-09T07:12:12Z</time>
    </trkpt>
    <trkpt lat="46.798899" lon="10.294839">
    <ele>1295</ele>
    <time>2010-09-09T07:12:27Z</time>
    </trkpt>
    <trkpt lat="46.79879" lon="10.294522">
    <ele>1297</ele>
    <time>2010-09-09T07:12:42Z</time>
    </trkpt>
    <trkpt lat="46.798679" lon="10.294208">
    <ele>1300</ele>
    <time>2010-09-09T07:12:56Z</time>
    </trkpt>
    <trkpt lat="46.798585" lon="10.293837">
    <ele>1303</ele>
    <time>2010-09-09T07:13:11Z</time>
    </trkpt>
    <trkpt lat="46.798518" lon="10.293436">
    <ele>1306</ele>
    <time>2010-09-09T07:13:27Z</time>
    </trkpt>
    <trkpt lat="46.798511" lon="10.293411">
    <ele>1306</ele>
    <time>2010-09-09T07:13:28Z</time>
    </trkpt>
    <trkpt lat="46.798426" lon="10.293126">
    <ele>1308</ele>
    <time>2010-09-09T07:13:42Z</time>
    </trkpt>
    <trkpt lat="46.798339" lon="10.292779">
    <ele>1311</ele>
    <time>2010-09-09T07:13:57Z</time>
    </trkpt>
    <trkpt lat="46.798301" lon="10.292645">
    <ele>1312</ele>
    <time>2010-09-09T07:14:03Z</time>
    </trkpt>
    <trkpt lat="46.798241" lon="10.292441">
    <ele>1314</ele>
    <time>2010-09-09T07:14:13Z</time>
    </trkpt>
    <trkpt lat="46.798157" lon="10.292183">
    <ele>1316</ele>
    <time>2010-09-09T07:14:24Z</time>
    </trkpt>
    <trkpt lat="46.798247" lon="10.292177">
    <ele>1318</ele>
    <time>2010-09-09T07:14:32Z</time>
    </trkpt>
    <trkpt lat="46.798417" lon="10.292364">
    <ele>1321</ele>
    <time>2010-09-09T07:14:47Z</time>
    </trkpt>
    <trkpt lat="46.798641" lon="10.292502">
    <ele>1324</ele>
    <time>2010-09-09T07:15:03Z</time>
    </trkpt>
    <trkpt lat="46.798787" lon="10.29263">
    <ele>1326</ele>
    <time>2010-09-09T07:15:16Z</time>
    </trkpt>
    <trkpt lat="46.798929" lon="10.292789">
    <ele>1328</ele>
    <time>2010-09-09T07:15:27Z</time>
    </trkpt>
    <trkpt lat="46.799128" lon="10.292947">
    <ele>1331</ele>
    <time>2010-09-09T07:15:42Z</time>
    </trkpt>
    <trkpt lat="46.799352" lon="10.293058">
    <ele>1334</ele>
    <time>2010-09-09T07:15:56Z</time>
    </trkpt>
    <trkpt lat="46.799605" lon="10.293142">
    <ele>1337</ele>
    <time>2010-09-09T07:16:13Z</time>
    </trkpt>
    <trkpt lat="46.799849" lon="10.293158">
    <ele>1339</ele>
    <time>2010-09-09T07:16:28Z</time>
    </trkpt>
    <trkpt lat="46.800033" lon="10.293314">
    <ele>1343</ele>
    <time>2010-09-09T07:16:42Z</time>
    </trkpt>
    <trkpt lat="46.80028" lon="10.293451">
    <ele>1345</ele>
    <time>2010-09-09T07:16:58Z</time>
    </trkpt>
    <trkpt lat="46.800565" lon="10.293595">
    <ele>1348</ele>
    <time>2010-09-09T07:17:17Z</time>
    </trkpt>
    <trkpt lat="46.800709" lon="10.293471">
    <ele>1350</ele>
    <time>2010-09-09T07:17:32Z</time>
    </trkpt>
    <trkpt lat="46.800698" lon="10.293189">
    <ele>1353</ele>
    <time>2010-09-09T07:17:47Z</time>
    </trkpt>
    <trkpt lat="46.800747" lon="10.29295">
    <ele>1355</ele>
    <time>2010-09-09T07:17:59Z</time>
    </trkpt>
    <trkpt lat="46.800725" lon="10.292588">
    <ele>1358</ele>
    <time>2010-09-09T07:18:15Z</time>
    </trkpt>
    <trkpt lat="46.800592" lon="10.292228">
    <ele>1358</ele>
    <time>2010-09-09T07:18:28Z</time>
    </trkpt>
    <trkpt lat="46.800398" lon="10.291656">
    <ele>1361</ele>
    <time>2010-09-09T07:18:48Z</time>
    </trkpt>
    <trkpt lat="46.800304" lon="10.291333">
    <ele>1364</ele>
    <time>2010-09-09T07:19:02Z</time>
    </trkpt>
    <trkpt lat="46.80021" lon="10.291077">
    <ele>1367</ele>
    <time>2010-09-09T07:19:16Z</time>
    </trkpt>
    <trkpt lat="46.800065" lon="10.290727">
    <ele>1370</ele>
    <time>2010-09-09T07:19:34Z</time>
    </trkpt>
    <trkpt lat="46.79996" lon="10.290389">
    <ele>1373</ele>
    <time>2010-09-09T07:19:50Z</time>
    </trkpt>
    <trkpt lat="46.799956" lon="10.290106">
    <ele>1375</ele>
    <time>2010-09-09T07:20:04Z</time>
    </trkpt>
    <trkpt lat="46.800111" lon="10.289852">
    <ele>1378</ele>
    <time>2010-09-09T07:20:18Z</time>
    </trkpt>
    <trkpt lat="46.800328" lon="10.289532">
    <ele>1378</ele>
    <time>2010-09-09T07:20:31Z</time>
    </trkpt>
    <trkpt lat="46.800359" lon="10.289384">
    <ele>1380</ele>
    <time>2010-09-09T07:20:39Z</time>
    </trkpt>
    <trkpt lat="46.800329" lon="10.289309">
    <ele>1381</ele>
    <time>2010-09-09T07:20:43Z</time>
    </trkpt>
    <trkpt lat="46.8002" lon="10.289183">
    <ele>1384</ele>
    <time>2010-09-09T07:20:56Z</time>
    </trkpt>
    <trkpt lat="46.800153" lon="10.289124">
    <ele>1385</ele>
    <time>2010-09-09T07:21:01Z</time>
    </trkpt>
    <trkpt lat="46.80016" lon="10.288982">
    <ele>1388</ele>
    <time>2010-09-09T07:21:10Z</time>
    </trkpt>
    <trkpt lat="46.800145" lon="10.288902">
    <ele>1389</ele>
    <time>2010-09-09T07:21:15Z</time>
    </trkpt>
    <trkpt lat="46.800109" lon="10.288786">
    <ele>1391</ele>
    <time>2010-09-09T07:21:24Z</time>
    </trkpt>
    <trkpt lat="46.80008" lon="10.28854">
    <ele>1394</ele>
    <time>2010-09-09T07:21:39Z</time>
    </trkpt>
    <trkpt lat="46.800085" lon="10.288455">
    <ele>1395</ele>
    <time>2010-09-09T07:21:44Z</time>
    </trkpt>
    <trkpt lat="46.800051" lon="10.288172">
    <ele>1399</ele>
    <time>2010-09-09T07:22:00Z</time>
    </trkpt>
    <trkpt lat="46.799924" lon="10.287842">
    <ele>1402</ele>
    <time>2010-09-09T07:22:19Z</time>
    </trkpt>
    <trkpt lat="46.799768" lon="10.287563">
    <ele>1404</ele>
    <time>2010-09-09T07:22:36Z</time>
    </trkpt>
    <trkpt lat="46.799628" lon="10.287291">
    <ele>1407</ele>
    <time>2010-09-09T07:22:52Z</time>
    </trkpt>
    <trkpt lat="46.799537" lon="10.286991">
    <ele>1410</ele>
    <time>2010-09-09T07:23:09Z</time>
    </trkpt>
    <trkpt lat="46.799521" lon="10.286898">
    <ele>1410</ele>
    <time>2010-09-09T07:23:14Z</time>
    </trkpt>
    <trkpt lat="46.799485" lon="10.286668">
    <ele>1413</ele>
    <time>2010-09-09T07:23:27Z</time>
    </trkpt>
    <trkpt lat="46.799445" lon="10.286447">
    <ele>1416</ele>
    <time>2010-09-09T07:23:41Z</time>
    </trkpt>
    <trkpt lat="46.79943" lon="10.286323">
    <ele>1418</ele>
    <time>2010-09-09T07:23:48Z</time>
    </trkpt>
    <trkpt lat="46.799475" lon="10.286138">
    <ele>1420</ele>
    <time>2010-09-09T07:23:59Z</time>
    </trkpt>
    <trkpt lat="46.799503" lon="10.285774">
    <ele>1422</ele>
    <time>2010-09-09T07:24:17Z</time>
    </trkpt>
    <trkpt lat="46.799419" lon="10.285476">
    <ele>1425</ele>
    <time>2010-09-09T07:24:34Z</time>
    </trkpt>
    <trkpt lat="46.799386" lon="10.285426">
    <ele>1425</ele>
    <time>2010-09-09T07:24:38Z</time>
    </trkpt>
    <trkpt lat="46.799252" lon="10.285272">
    <ele>1429</ele>
    <time>2010-09-09T07:24:52Z</time>
    </trkpt>
    <trkpt lat="46.799117" lon="10.285121">
    <ele>1432</ele>
    <time>2010-09-09T07:25:07Z</time>
    </trkpt>
    <trkpt lat="46.799095" lon="10.285064">
    <ele>1433</ele>
    <time>2010-09-09T07:25:11Z</time>
    </trkpt>
    <trkpt lat="46.799049" lon="10.28487">
    <ele>1436</ele>
    <time>2010-09-09T07:25:23Z</time>
    </trkpt>
    <trkpt lat="46.799135" lon="10.284555">
    <ele>1438</ele>
    <time>2010-09-09T07:25:39Z</time>
    </trkpt>
    <trkpt lat="46.799278" lon="10.284257">
    <ele>1438</ele>
    <time>2010-09-09T07:25:53Z</time>
    </trkpt>
    <trkpt lat="46.799281" lon="10.283964">
    <ele>1441</ele>
    <time>2010-09-09T07:26:06Z</time>
    </trkpt>
    <trkpt lat="46.799282" lon="10.283935">
    <ele>1442</ele>
    <time>2010-09-09T07:26:08Z</time>
    </trkpt>
    <trkpt lat="46.799322" lon="10.283876">
    <ele>1443</ele>
    <time>2010-09-09T07:26:13Z</time>
    </trkpt>
    <trkpt lat="46.799448" lon="10.283772">
    <ele>1445</ele>
    <time>2010-09-09T07:26:25Z</time>
    </trkpt>
    <trkpt lat="46.79938" lon="10.283689">
    <ele>1446</ele>
    <time>2010-09-09T07:26:35Z</time>
    </trkpt>
    <trkpt lat="46.799299" lon="10.283689">
    <ele>1447</ele>
    <time>2010-09-09T07:26:41Z</time>
    </trkpt>
    <trkpt lat="46.799205" lon="10.283443">
    <ele>1449</ele>
    <time>2010-09-09T07:26:53Z</time>
    </trkpt>
    <trkpt lat="46.799198" lon="10.28341">
    <ele>1449</ele>
    <time>2010-09-09T07:26:54Z</time>
    </trkpt>
    <trkpt lat="46.799102" lon="10.283303">
    <ele>1448</ele>
    <time>2010-09-09T07:26:59Z</time>
    </trkpt>
    <trkpt lat="46.798946" lon="10.28321">
    <ele>1448</ele>
    <time>2010-09-09T07:27:06Z</time>
    </trkpt>
    <trkpt lat="46.798705" lon="10.282913">
    <ele>1448</ele>
    <time>2010-09-09T07:27:17Z</time>
    </trkpt>
    <trkpt lat="46.798483" lon="10.282792">
    <ele>1448</ele>
    <time>2010-09-09T07:27:27Z</time>
    </trkpt>
    <trkpt lat="46.798185" lon="10.282664">
    <ele>1449</ele>
    <time>2010-09-09T07:27:40Z</time>
    </trkpt>
    <trkpt lat="46.798143" lon="10.282625">
    <ele>1450</ele>
    <time>2010-09-09T07:27:42Z</time>
    </trkpt>
    <trkpt lat="46.797961" lon="10.282148">
    <ele>1452</ele>
    <time>2010-09-09T07:27:58Z</time>
    </trkpt>
    <trkpt lat="46.797858" lon="10.281659">
    <ele>1454</ele>
    <time>2010-09-09T07:28:14Z</time>
    </trkpt>
    <trkpt lat="46.797731" lon="10.281245">
    <ele>1456</ele>
    <time>2010-09-09T07:28:28Z</time>
    </trkpt>
    <trkpt lat="46.79749" lon="10.280826">
    <ele>1458</ele>
    <time>2010-09-09T07:28:45Z</time>
    </trkpt>
    <trkpt lat="46.797351" lon="10.280459">
    <ele>1460</ele>
    <time>2010-09-09T07:29:01Z</time>
    </trkpt>
    <trkpt lat="46.797297" lon="10.280183">
    <ele>1463</ele>
    <time>2010-09-09T07:29:14Z</time>
    </trkpt>
    <trkpt lat="46.797164" lon="10.279928">
    <ele>1467</ele>
    <time>2010-09-09T07:29:30Z</time>
    </trkpt>
    <trkpt lat="46.797021" lon="10.279618">
    <ele>1469</ele>
    <time>2010-09-09T07:29:46Z</time>
    </trkpt>
    <trkpt lat="46.796955" lon="10.279275">
    <ele>1472</ele>
    <time>2010-09-09T07:30:03Z</time>
    </trkpt>
    <trkpt lat="46.796958" lon="10.279249">
    <ele>1472</ele>
    <time>2010-09-09T07:30:13Z</time>
    </trkpt>
    <trkpt lat="46.79696" lon="10.279222">
    <ele>1473</ele>
    <time>2010-09-09T07:30:26Z</time>
    </trkpt>
    <trkpt lat="46.796961" lon="10.279226">
    <ele>1472</ele>
    <time>2010-09-09T07:30:46Z</time>
    </trkpt>
    <trkpt lat="46.796947" lon="10.279283">
    <ele>1472</ele>
    <time>2010-09-09T07:30:59Z</time>
    </trkpt>
    <trkpt lat="46.796912" lon="10.279336">
    <ele>1471</ele>
    <time>2010-09-09T07:31:10Z</time>
    </trkpt>
    <trkpt lat="46.796848" lon="10.27947">
    <ele>1470</ele>
    <time>2010-09-09T07:31:22Z</time>
    </trkpt>
    <trkpt lat="46.79683" lon="10.279506">
    <ele>1470</ele>
    <time>2010-09-09T07:31:42Z</time>
    </trkpt>
    <trkpt lat="46.796799" lon="10.279552">
    <ele>1469</ele>
    <time>2010-09-09T07:32:01Z</time>
    </trkpt>
    <trkpt lat="46.79679" lon="10.279579">
    <ele>1469</ele>
    <time>2010-09-09T07:32:04Z</time>
    </trkpt>
    <trkpt lat="46.796797" lon="10.279614">
    <ele>1469</ele>
    <time>2010-09-09T07:32:16Z</time>
    </trkpt>
    <trkpt lat="46.7968" lon="10.279609">
    <ele>1469</ele>
    <time>2010-09-09T07:32:48Z</time>
    </trkpt>
    <trkpt lat="46.796785" lon="10.279615">
    <ele>1470</ele>
    <time>2010-09-09T07:34:08Z</time>
    </trkpt>
    <trkpt lat="46.796775" lon="10.279634">
    <ele>1469</ele>
    <time>2010-09-09T07:35:16Z</time>
    </trkpt>
    <trkpt lat="46.79677" lon="10.279628">
    <ele>1470</ele>
    <time>2010-09-09T07:36:20Z</time>
    </trkpt>
    <trkpt lat="46.796772" lon="10.279606">
    <ele>1470</ele>
    <time>2010-09-09T07:36:39Z</time>
    </trkpt>
    <trkpt lat="46.796811" lon="10.279479">
    <ele>1471</ele>
    <time>2010-09-09T07:36:52Z</time>
    </trkpt>
    <trkpt lat="46.796859" lon="10.279361">
    <ele>1473</ele>
    <time>2010-09-09T07:37:04Z</time>
    </trkpt>
    <trkpt lat="46.7969" lon="10.279294">
    <ele>1474</ele>
    <time>2010-09-09T07:37:13Z</time>
    </trkpt>
    <trkpt lat="46.796919" lon="10.279238">
    <ele>1474</ele>
    <time>2010-09-09T07:37:18Z</time>
    </trkpt>
    <trkpt lat="46.796928" lon="10.279202">
    <ele>1475</ele>
    <time>2010-09-09T07:37:34Z</time>
    </trkpt>
    <trkpt lat="46.796934" lon="10.279209">
    <ele>1475</ele>
    <time>2010-09-09T07:37:36Z</time>
    </trkpt>
    <trkpt lat="46.796934" lon="10.279264">
    <ele>1474</ele>
    <time>2010-09-09T07:37:43Z</time>
    </trkpt>
    <trkpt lat="46.796932" lon="10.279284">
    <ele>1474</ele>
    <time>2010-09-09T07:38:01Z</time>
    </trkpt>
    <trkpt lat="46.79693" lon="10.279239">
    <ele>1475</ele>
    <time>2010-09-09T07:38:07Z</time>
    </trkpt>
    <trkpt lat="46.796929" lon="10.279197">
    <ele>1475</ele>
    <time>2010-09-09T07:38:19Z</time>
    </trkpt>
    <trkpt lat="46.796936" lon="10.279186">
    <ele>1475</ele>
    <time>2010-09-09T07:38:36Z</time>
    </trkpt>
    <trkpt lat="46.796935" lon="10.279184">
    <ele>1475</ele>
    <time>2010-09-09T07:38:48Z</time>
    </trkpt>
    <trkpt lat="46.797004" lon="10.278973">
    <ele>1475</ele>
    <time>2010-09-09T07:38:54Z</time>
    </trkpt>
    <trkpt lat="46.797073" lon="10.278723">
    <ele>1474</ele>
    <time>2010-09-09T07:38:58Z</time>
    </trkpt>
    <trkpt lat="46.797017" lon="10.27839">
    <ele>1474</ele>
    <time>2010-09-09T07:39:04Z</time>
    </trkpt>
    <trkpt lat="46.796881" lon="10.278348">
    <ele>1476</ele>
    <time>2010-09-09T07:39:11Z</time>
    </trkpt>
    <trkpt lat="46.796838" lon="10.278306">
    <ele>1477</ele>
    <time>2010-09-09T07:39:15Z</time>
    </trkpt>
    <trkpt lat="46.796682" lon="10.278232">
    <ele>1480</ele>
    <time>2010-09-09T07:39:29Z</time>
    </trkpt>
    <trkpt lat="46.796534" lon="10.278228">
    <ele>1483</ele>
    <time>2010-09-09T07:39:43Z</time>
    </trkpt>
    <trkpt lat="46.796498" lon="10.278203">
    <ele>1484</ele>
    <time>2010-09-09T07:39:47Z</time>
    </trkpt>
    <trkpt lat="46.796451" lon="10.277865">
    <ele>1487</ele>
    <time>2010-09-09T07:40:04Z</time>
    </trkpt>
    <trkpt lat="46.796352" lon="10.277565">
    <ele>1490</ele>
    <time>2010-09-09T07:40:22Z</time>
    </trkpt>
    <trkpt lat="46.796244" lon="10.2773">
    <ele>1491</ele>
    <time>2010-09-09T07:40:36Z</time>
    </trkpt>
    <trkpt lat="46.796129" lon="10.276942">
    <ele>1494</ele>
    <time>2010-09-09T07:40:53Z</time>
    </trkpt>
    <trkpt lat="46.796025" lon="10.276545">
    <ele>1496</ele>
    <time>2010-09-09T07:41:12Z</time>
    </trkpt>
    <trkpt lat="46.79596" lon="10.27622">
    <ele>1499</ele>
    <time>2010-09-09T07:41:29Z</time>
    </trkpt>
    <trkpt lat="46.795932" lon="10.275913">
    <ele>1502</ele>
    <time>2010-09-09T07:41:45Z</time>
    </trkpt>
    <trkpt lat="46.795882" lon="10.275617">
    <ele>1504</ele>
    <time>2010-09-09T07:42:01Z</time>
    </trkpt>
    <trkpt lat="46.795839" lon="10.275264">
    <ele>1507</ele>
    <time>2010-09-09T07:42:18Z</time>
    </trkpt>
    <trkpt lat="46.795832" lon="10.274943">
    <ele>1509</ele>
    <time>2010-09-09T07:42:33Z</time>
    </trkpt>
    <trkpt lat="46.795818" lon="10.274914">
    <ele>1510</ele>
    <time>2010-09-09T07:42:35Z</time>
    </trkpt>
    <trkpt lat="46.795748" lon="10.274852">
    <ele>1510</ele>
    <time>2010-09-09T07:42:41Z</time>
    </trkpt>
    <trkpt lat="46.795617" lon="10.274648">
    <ele>1513</ele>
    <time>2010-09-09T07:42:56Z</time>
    </trkpt>
    <trkpt lat="46.795599" lon="10.274573">
    <ele>1514</ele>
    <time>2010-09-09T07:43:00Z</time>
    </trkpt>
    <trkpt lat="46.795523" lon="10.274267">
    <ele>1518</ele>
    <time>2010-09-09T07:43:16Z</time>
    </trkpt>
    <trkpt lat="46.795493" lon="10.274133">
    <ele>1519</ele>
    <time>2010-09-09T07:43:23Z</time>
    </trkpt>
    <trkpt lat="46.795393" lon="10.273829">
    <ele>1521</ele>
    <time>2010-09-09T07:43:40Z</time>
    </trkpt>
    <trkpt lat="46.795351" lon="10.273581">
    <ele>1524</ele>
    <time>2010-09-09T07:43:53Z</time>
    </trkpt>
    <trkpt lat="46.795295" lon="10.273401">
    <ele>1526</ele>
    <time>2010-09-09T07:44:05Z</time>
    </trkpt>
    <trkpt lat="46.795268" lon="10.273278">
    <ele>1527</ele>
    <time>2010-09-09T07:44:12Z</time>
    </trkpt>
    <trkpt lat="46.795267" lon="10.27324">
    <ele>1528</ele>
    <time>2010-09-09T07:44:14Z</time>
    </trkpt>
    <trkpt lat="46.795218" lon="10.272978">
    <ele>1531</ele>
    <time>2010-09-09T07:44:29Z</time>
    </trkpt>
    <trkpt lat="46.795167" lon="10.272778">
    <ele>1533</ele>
    <time>2010-09-09T07:44:42Z</time>
    </trkpt>
    <trkpt lat="46.795101" lon="10.272533">
    <ele>1535</ele>
    <time>2010-09-09T07:44:57Z</time>
    </trkpt>
    <trkpt lat="46.795048" lon="10.272235">
    <ele>1538</ele>
    <time>2010-09-09T07:45:13Z</time>
    </trkpt>
    <trkpt lat="46.79498" lon="10.271923">
    <ele>1541</ele>
    <time>2010-09-09T07:45:29Z</time>
    </trkpt>
    <trkpt lat="46.794926" lon="10.271696">
    <ele>1544</ele>
    <time>2010-09-09T07:45:44Z</time>
    </trkpt>
    <trkpt lat="46.794849" lon="10.271398">
    <ele>1546</ele>
    <time>2010-09-09T07:46:02Z</time>
    </trkpt>
    <trkpt lat="46.794812" lon="10.271103">
    <ele>1549</ele>
    <time>2010-09-09T07:46:19Z</time>
    </trkpt>
    <trkpt lat="46.794804" lon="10.270882">
    <ele>1552</ele>
    <time>2010-09-09T07:46:33Z</time>
    </trkpt>
    <trkpt lat="46.794806" lon="10.270626">
    <ele>1555</ele>
    <time>2010-09-09T07:46:49Z</time>
    </trkpt>
    <trkpt lat="46.794854" lon="10.270388">
    <ele>1558</ele>
    <time>2010-09-09T07:47:04Z</time>
    </trkpt>
    <trkpt lat="46.794957" lon="10.270161">
    <ele>1561</ele>
    <time>2010-09-09T07:47:19Z</time>
    </trkpt>
    <trkpt lat="46.794972" lon="10.270131">
    <ele>1561</ele>
    <time>2010-09-09T07:47:21Z</time>
    </trkpt>
    <trkpt lat="46.795008" lon="10.270024">
    <ele>1563</ele>
    <time>2010-09-09T07:47:28Z</time>
    </trkpt>
    <trkpt lat="46.795081" lon="10.269832">
    <ele>1566</ele>
    <time>2010-09-09T07:47:42Z</time>
    </trkpt>
    <trkpt lat="46.795159" lon="10.269618">
    <ele>1569</ele>
    <time>2010-09-09T07:47:57Z</time>
    </trkpt>
    <trkpt lat="46.795267" lon="10.269435">
    <ele>1572</ele>
    <time>2010-09-09T07:48:12Z</time>
    </trkpt>
    <trkpt lat="46.795352" lon="10.26924">
    <ele>1575</ele>
    <time>2010-09-09T07:48:25Z</time>
    </trkpt>
    <trkpt lat="46.795403" lon="10.269135">
    <ele>1575</ele>
    <time>2010-09-09T07:48:31Z</time>
    </trkpt>
    <trkpt lat="46.795508" lon="10.26897">
    <ele>1577</ele>
    <time>2010-09-09T07:48:42Z</time>
    </trkpt>
    <trkpt lat="46.795717" lon="10.268737">
    <ele>1578</ele>
    <time>2010-09-09T07:48:59Z</time>
    </trkpt>
    <trkpt lat="46.795753" lon="10.26864">
    <ele>1579</ele>
    <time>2010-09-09T07:49:03Z</time>
    </trkpt>
    <trkpt lat="46.795755" lon="10.268494">
    <ele>1580</ele>
    <time>2010-09-09T07:49:10Z</time>
    </trkpt>
    <trkpt lat="46.795776" lon="10.268386">
    <ele>1581</ele>
    <time>2010-09-09T07:49:15Z</time>
    </trkpt>
    <trkpt lat="46.795799" lon="10.268284">
    <ele>1581</ele>
    <time>2010-09-09T07:49:20Z</time>
    </trkpt>
    <trkpt lat="46.795742" lon="10.268172">
    <ele>1582</ele>
    <time>2010-09-09T07:49:26Z</time>
    </trkpt>
    <trkpt lat="46.79551" lon="10.268132">
    <ele>1584</ele>
    <time>2010-09-09T07:49:40Z</time>
    </trkpt>
    <trkpt lat="46.795338" lon="10.267941">
    <ele>1586</ele>
    <time>2010-09-09T07:49:54Z</time>
    </trkpt>
    <trkpt lat="46.795045" lon="10.267619">
    <ele>1588</ele>
    <time>2010-09-09T07:50:13Z</time>
    </trkpt>
    <trkpt lat="46.794776" lon="10.267407">
    <ele>1590</ele>
    <time>2010-09-09T07:50:28Z</time>
    </trkpt>
    <trkpt lat="46.794592" lon="10.267151">
    <ele>1591</ele>
    <time>2010-09-09T07:50:42Z</time>
    </trkpt>
    <trkpt lat="46.794379" lon="10.267002">
    <ele>1592</ele>
    <time>2010-09-09T07:50:55Z</time>
    </trkpt>
    <trkpt lat="46.794053" lon="10.267049">
    <ele>1592</ele>
    <time>2010-09-09T07:51:07Z</time>
    </trkpt>
    <trkpt lat="46.793719" lon="10.266735">
    <ele>1591</ele>
    <time>2010-09-09T07:51:18Z</time>
    </trkpt>
    <trkpt lat="46.793555" lon="10.266112">
    <ele>1593</ele>
    <time>2010-09-09T07:51:34Z</time>
    </trkpt>
    <trkpt lat="46.793409" lon="10.265527">
    <ele>1595</ele>
    <time>2010-09-09T07:51:50Z</time>
    </trkpt>
    <trkpt lat="46.793304" lon="10.264907">
    <ele>1596</ele>
    <time>2010-09-09T07:52:06Z</time>
    </trkpt>
    <trkpt lat="46.793282" lon="10.264321">
    <ele>1598</ele>
    <time>2010-09-09T07:52:22Z</time>
    </trkpt>
    <trkpt lat="46.79347" lon="10.263963">
    <ele>1601</ele>
    <time>2010-09-09T07:52:39Z</time>
    </trkpt>
    <trkpt lat="46.79357" lon="10.263651">
    <ele>1605</ele>
    <time>2010-09-09T07:52:54Z</time>
    </trkpt>
    <trkpt lat="46.793715" lon="10.263192">
    <ele>1608</ele>
    <time>2010-09-09T07:53:13Z</time>
    </trkpt>
    <trkpt lat="46.793842" lon="10.262618">
    <ele>1608</ele>
    <time>2010-09-09T07:53:27Z</time>
    </trkpt>
    <trkpt lat="46.793932" lon="10.262427">
    <ele>1607</ele>
    <time>2010-09-09T07:53:31Z</time>
    </trkpt>
    <trkpt lat="46.794151" lon="10.262138">
    <ele>1607</ele>
    <time>2010-09-09T07:53:39Z</time>
    </trkpt>
    <trkpt lat="46.794231" lon="10.261844">
    <ele>1607</ele>
    <time>2010-09-09T07:53:44Z</time>
    </trkpt>
    <trkpt lat="46.794253" lon="10.260867">
    <ele>1606</ele>
    <time>2010-09-09T07:53:58Z</time>
    </trkpt>
    <trkpt lat="46.794238" lon="10.26013">
    <ele>1610</ele>
    <time>2010-09-09T07:54:14Z</time>
    </trkpt>
    <trkpt lat="46.794219" lon="10.259579">
    <ele>1611</ele>
    <time>2010-09-09T07:54:28Z</time>
    </trkpt>
    <trkpt lat="46.794322" lon="10.258874">
    <ele>1612</ele>
    <time>2010-09-09T07:54:44Z</time>
    </trkpt>
    <trkpt lat="46.794513" lon="10.258171">
    <ele>1615</ele>
    <time>2010-09-09T07:55:02Z</time>
    </trkpt>
    <trkpt lat="46.794655" lon="10.257795">
    <ele>1618</ele>
    <time>2010-09-09T07:55:18Z</time>
    </trkpt>
    <trkpt lat="46.794844" lon="10.257278">
    <ele>1620</ele>
    <time>2010-09-09T07:55:38Z</time>
    </trkpt>
    <trkpt lat="46.794946" lon="10.256726">
    <ele>1621</ele>
    <time>2010-09-09T07:55:55Z</time>
    </trkpt>
    <trkpt lat="46.794906" lon="10.256116">
    <ele>1623</ele>
    <time>2010-09-09T07:56:13Z</time>
    </trkpt>
    <trkpt lat="46.79488" lon="10.255556">
    <ele>1624</ele>
    <time>2010-09-09T07:56:30Z</time>
    </trkpt>
    <trkpt lat="46.794994" lon="10.255152">
    <ele>1626</ele>
    <time>2010-09-09T07:56:44Z</time>
    </trkpt>
    <trkpt lat="46.795039" lon="10.254723">
    <ele>1629</ele>
    <time>2010-09-09T07:57:00Z</time>
    </trkpt>
    <trkpt lat="46.795051" lon="10.254313">
    <ele>1632</ele>
    <time>2010-09-09T07:57:16Z</time>
    </trkpt>
    <trkpt lat="46.795213" lon="10.25422">
    <ele>1635</ele>
    <time>2010-09-09T07:57:29Z</time>
    </trkpt>
    <trkpt lat="46.795302" lon="10.254169">
    <ele>1637</ele>
    <time>2010-09-09T07:57:37Z</time>
    </trkpt>
    <trkpt lat="46.795398" lon="10.254074">
    <ele>1639</ele>
    <time>2010-09-09T07:57:47Z</time>
    </trkpt>
    <trkpt lat="46.795407" lon="10.254061">
    <ele>1639</ele>
    <time>2010-09-09T07:58:03Z</time>
    </trkpt>
    <trkpt lat="46.79541" lon="10.254088">
    <ele>1639</ele>
    <time>2010-09-09T07:58:13Z</time>
    </trkpt>
    <trkpt lat="46.795391" lon="10.254075">
    <ele>1640</ele>
    <time>2010-09-09T07:58:39Z</time>
    </trkpt>
    <trkpt lat="46.795392" lon="10.254071">
    <ele>1644</ele>
    <time>2010-09-09T07:58:44Z</time>
    </trkpt>
    <trkpt lat="46.795392" lon="10.254071">
    <ele>1640</ele>
    <time>2010-09-09T07:58:45Z</time>
    </trkpt>
    <trkpt lat="46.795391" lon="10.254075">
    <ele>1640</ele>
    <time>2010-09-09T07:59:16Z</time>
    </trkpt>
    <trkpt lat="46.795399" lon="10.254076">
    <ele>1640</ele>
    <time>2010-09-09T07:59:38Z</time>
    </trkpt>
    <trkpt lat="46.795402" lon="10.254078">
    <ele>1641</ele>
    <time>2010-09-09T08:00:20Z</time>
    </trkpt>
    <trkpt lat="46.795403" lon="10.254072">
    <ele>1641</ele>
    <time>2010-09-09T08:00:45Z</time>
    </trkpt>
    <trkpt lat="46.795399" lon="10.25408">
    <ele>1642</ele>
    <time>2010-09-09T08:01:31Z</time>
    </trkpt>
    <trkpt lat="46.795387" lon="10.25409">
    <ele>1641</ele>
    <time>2010-09-09T08:01:44Z</time>
    </trkpt>
    <trkpt lat="46.795385" lon="10.254047">
    <ele>1642</ele>
    <time>2010-09-09T08:02:04Z</time>
    </trkpt>
    <trkpt lat="46.795387" lon="10.254049">
    <ele>1643</ele>
    <time>2010-09-09T08:03:00Z</time>
    </trkpt>
    <trkpt lat="46.795393" lon="10.254041">
    <ele>1643</ele>
    <time>2010-09-09T08:04:32Z</time>
    </trkpt>
    <trkpt lat="46.795416" lon="10.253986">
    <ele>1644</ele>
    <time>2010-09-09T08:05:40Z</time>
    </trkpt>
    <trkpt lat="46.795408" lon="10.25393">
    <ele>1644</ele>
    <time>2010-09-09T08:05:44Z</time>
    </trkpt>
    <trkpt lat="46.795369" lon="10.253554">
    <ele>1645</ele>
    <time>2010-09-09T08:06:02Z</time>
    </trkpt>
    <trkpt lat="46.795374" lon="10.253436">
    <ele>1646</ele>
    <time>2010-09-09T08:06:08Z</time>
    </trkpt>
    <trkpt lat="46.795407" lon="10.253377">
    <ele>1646</ele>
    <time>2010-09-09T08:06:12Z</time>
    </trkpt>
    <trkpt lat="46.795556" lon="10.253341">
    <ele>1648</ele>
    <time>2010-09-09T08:06:24Z</time>
    </trkpt>
    <trkpt lat="46.795587" lon="10.253347">
    <ele>1648</ele>
    <time>2010-09-09T08:06:26Z</time>
    </trkpt>
    <trkpt lat="46.795649" lon="10.253356">
    <ele>1649</ele>
    <time>2010-09-09T08:06:31Z</time>
    </trkpt>
    <trkpt lat="46.795724" lon="10.253383">
    <ele>1650</ele>
    <time>2010-09-09T08:06:36Z</time>
    </trkpt>
    <trkpt lat="46.795855" lon="10.253402">
    <ele>1652</ele>
    <time>2010-09-09T08:06:46Z</time>
    </trkpt>
    <trkpt lat="46.79593" lon="10.253261">
    <ele>1653</ele>
    <time>2010-09-09T08:06:54Z</time>
    </trkpt>
    <trkpt lat="46.796009" lon="10.253224">
    <ele>1654</ele>
    <time>2010-09-09T08:07:01Z</time>
    </trkpt>
    <trkpt lat="46.796051" lon="10.253235">
    <ele>1655</ele>
    <time>2010-09-09T08:07:04Z</time>
    </trkpt>
    <trkpt lat="46.796118" lon="10.253006">
    <ele>1656</ele>
    <time>2010-09-09T08:07:16Z</time>
    </trkpt>
    <trkpt lat="46.796132" lon="10.252844">
    <ele>1656</ele>
    <time>2010-09-09T08:07:24Z</time>
    </trkpt>
    <trkpt lat="46.796165" lon="10.252764">
    <ele>1657</ele>
    <time>2010-09-09T08:07:29Z</time>
    </trkpt>
    <trkpt lat="46.796275" lon="10.252558">
    <ele>1661</ele>
    <time>2010-09-09T08:07:43Z</time>
    </trkpt>
    <trkpt lat="46.796351" lon="10.25238">
    <ele>1664</ele>
    <time>2010-09-09T08:07:55Z</time>
    </trkpt>
    <trkpt lat="46.796443" lon="10.252164">
    <ele>1665</ele>
    <time>2010-09-09T08:08:07Z</time>
    </trkpt>
    <trkpt lat="46.796387" lon="10.251863">
    <ele>1667</ele>
    <time>2010-09-09T08:08:22Z</time>
    </trkpt>
    <trkpt lat="46.79633" lon="10.251493">
    <ele>1669</ele>
    <time>2010-09-09T08:08:37Z</time>
    </trkpt>
    <trkpt lat="46.796327" lon="10.250977">
    <ele>1670</ele>
    <time>2010-09-09T08:08:55Z</time>
    </trkpt>
    <trkpt lat="46.796342" lon="10.250339">
    <ele>1672</ele>
    <time>2010-09-09T08:09:17Z</time>
    </trkpt>
    <trkpt lat="46.796325" lon="10.249748">
    <ele>1672</ele>
    <time>2010-09-09T08:09:31Z</time>
    </trkpt>
    <trkpt lat="46.796243" lon="10.249407">
    <ele>1673</ele>
    <time>2010-09-09T08:09:41Z</time>
    </trkpt>
    <trkpt lat="46.796097" lon="10.24924">
    <ele>1676</ele>
    <time>2010-09-09T08:09:54Z</time>
    </trkpt>
    <trkpt lat="46.795964" lon="10.249064">
    <ele>1680</ele>
    <time>2010-09-09T08:10:09Z</time>
    </trkpt>
    <trkpt lat="46.795837" lon="10.248777">
    <ele>1682</ele>
    <time>2010-09-09T08:10:27Z</time>
    </trkpt>
    <trkpt lat="46.795748" lon="10.248495">
    <ele>1685</ele>
    <time>2010-09-09T08:10:43Z</time>
    </trkpt>
    <trkpt lat="46.795602" lon="10.248118">
    <ele>1686</ele>
    <time>2010-09-09T08:11:00Z</time>
    </trkpt>
    <trkpt lat="46.795539" lon="10.24761">
    <ele>1688</ele>
    <time>2010-09-09T08:11:19Z</time>
    </trkpt>
    <trkpt lat="46.795582" lon="10.247229">
    <ele>1689</ele>
    <time>2010-09-09T08:11:33Z</time>
    </trkpt>
    <trkpt lat="46.795531" lon="10.246837">
    <ele>1686</ele>
    <time>2010-09-09T08:11:38Z</time>
    </trkpt>
    <trkpt lat="46.795506" lon="10.246755">
    <ele>1686</ele>
    <time>2010-09-09T08:11:39Z</time>
    </trkpt>
    <trkpt lat="46.795475" lon="10.246682">
    <ele>1685</ele>
    <time>2010-09-09T08:11:40Z</time>
    </trkpt>
    <trkpt lat="46.795353" lon="10.246438">
    <ele>1682</ele>
    <time>2010-09-09T08:11:45Z</time>
    </trkpt>
    <trkpt lat="46.795319" lon="10.24638">
    <ele>1681</ele>
    <time>2010-09-09T08:11:47Z</time>
    </trkpt>
    <trkpt lat="46.795174" lon="10.246191">
    <ele>1678</ele>
    <time>2010-09-09T08:11:59Z</time>
    </trkpt>
    <trkpt lat="46.795076" lon="10.246146">
    <ele>1676</ele>
    <time>2010-09-09T08:12:12Z</time>
    </trkpt>
    <trkpt lat="46.795075" lon="10.246141">
    <ele>1676</ele>
    <time>2010-09-09T08:12:31Z</time>
    </trkpt>
    <trkpt lat="46.795074" lon="10.246144">
    <ele>1676</ele>
    <time>2010-09-09T08:13:03Z</time>
    </trkpt>
    <trkpt lat="46.795074" lon="10.246144">
    <ele>1677</ele>
    <time>2010-09-09T08:13:08Z</time>
    </trkpt>
    <trkpt lat="46.795061" lon="10.246137">
    <ele>1677</ele>
    <time>2010-09-09T08:13:09Z</time>
    </trkpt>
    <trkpt lat="46.795044" lon="10.246122">
    <ele>1677</ele>
    <time>2010-09-09T08:13:10Z</time>
    </trkpt>
    <trkpt lat="46.795022" lon="10.246113">
    <ele>1677</ele>
    <time>2010-09-09T08:13:11Z</time>
    </trkpt>
    <trkpt lat="46.794996" lon="10.246107">
    <ele>1676</ele>
    <time>2010-09-09T08:13:12Z</time>
    </trkpt>
    <trkpt lat="46.794791" lon="10.24603">
    <ele>1674</ele>
    <time>2010-09-09T08:13:18Z</time>
    </trkpt>
    <trkpt lat="46.794758" lon="10.245986">
    <ele>1674</ele>
    <time>2010-09-09T08:13:19Z</time>
    </trkpt>
    <trkpt lat="46.79473" lon="10.245928">
    <ele>1673</ele>
    <time>2010-09-09T08:13:20Z</time>
    </trkpt>
    <trkpt lat="46.794712" lon="10.245857">
    <ele>1673</ele>
    <time>2010-09-09T08:13:21Z</time>
    </trkpt>
    <trkpt lat="46.794704" lon="10.245779">
    <ele>1673</ele>
    <time>2010-09-09T08:13:22Z</time>
    </trkpt>
    <trkpt lat="46.794696" lon="10.245698">
    <ele>1672</ele>
    <time>2010-09-09T08:13:23Z</time>
    </trkpt>
    <trkpt lat="46.794687" lon="10.24562">
    <ele>1672</ele>
    <time>2010-09-09T08:13:24Z</time>
    </trkpt>
    <trkpt lat="46.794673" lon="10.245552">
    <ele>1671</ele>
    <time>2010-09-09T08:13:25Z</time>
    </trkpt>
    <trkpt lat="46.794651" lon="10.245502">
    <ele>1670</ele>
    <time>2010-09-09T08:13:26Z</time>
    </trkpt>
    <trkpt lat="46.79462" lon="10.245477">
    <ele>1670</ele>
    <time>2010-09-09T08:13:27Z</time>
    </trkpt>
    <trkpt lat="46.794585" lon="10.245486">
    <ele>1669</ele>
    <time>2010-09-09T08:13:28Z</time>
    </trkpt>
    <trkpt lat="46.794554" lon="10.245525">
    <ele>1669</ele>
    <time>2010-09-09T08:13:29Z</time>
    </trkpt>
    <trkpt lat="46.794538" lon="10.245588">
    <ele>1669</ele>
    <time>2010-09-09T08:13:30Z</time>
    </trkpt>
    <trkpt lat="46.794536" lon="10.24566">
    <ele>1668</ele>
    <time>2010-09-09T08:13:31Z</time>
    </trkpt>
    <trkpt lat="46.794541" lon="10.245734">
    <ele>1668</ele>
    <time>2010-09-09T08:13:32Z</time>
    </trkpt>
    <trkpt lat="46.794539" lon="10.246192">
    <ele>1664</ele>
    <time>2010-09-09T08:13:38Z</time>
    </trkpt>
    <trkpt lat="46.794527" lon="10.246271">
    <ele>1664</ele>
    <time>2010-09-09T08:13:39Z</time>
    </trkpt>
    <trkpt lat="46.794503" lon="10.246356">
    <ele>1664</ele>
    <time>2010-09-09T08:13:40Z</time>
    </trkpt>
    <trkpt lat="46.794447" lon="10.246517">
    <ele>1662</ele>
    <time>2010-09-09T08:13:42Z</time>
    </trkpt>
    <trkpt lat="46.794401" lon="10.246668">
    <ele>1661</ele>
    <time>2010-09-09T08:13:44Z</time>
    </trkpt>
    <trkpt lat="46.79438" lon="10.246753">
    <ele>1660</ele>
    <time>2010-09-09T08:13:45Z</time>
    </trkpt>
    <trkpt lat="46.794371" lon="10.24684">
    <ele>1659</ele>
    <time>2010-09-09T08:13:46Z</time>
    </trkpt>
    <trkpt lat="46.794373" lon="10.246929">
    <ele>1658</ele>
    <time>2010-09-09T08:13:47Z</time>
    </trkpt>
    <trkpt lat="46.794382" lon="10.247011">
    <ele>1657</ele>
    <time>2010-09-09T08:13:48Z</time>
    </trkpt>
    <trkpt lat="46.794397" lon="10.247089">
    <ele>1656</ele>
    <time>2010-09-09T08:13:49Z</time>
    </trkpt>
    <trkpt lat="46.794403" lon="10.247168">
    <ele>1656</ele>
    <time>2010-09-09T08:13:50Z</time>
    </trkpt>
    <trkpt lat="46.794394" lon="10.247242">
    <ele>1656</ele>
    <time>2010-09-09T08:13:51Z</time>
    </trkpt>
    <trkpt lat="46.794369" lon="10.247299">
    <ele>1655</ele>
    <time>2010-09-09T08:13:52Z</time>
    </trkpt>
    <trkpt lat="46.794329" lon="10.247327">
    <ele>1654</ele>
    <time>2010-09-09T08:13:53Z</time>
    </trkpt>
    <trkpt lat="46.794277" lon="10.247323">
    <ele>1653</ele>
    <time>2010-09-09T08:13:54Z</time>
    </trkpt>
    <trkpt lat="46.794232" lon="10.24728">
    <ele>1652</ele>
    <time>2010-09-09T08:13:55Z</time>
    </trkpt>
    <trkpt lat="46.794198" lon="10.247211">
    <ele>1651</ele>
    <time>2010-09-09T08:13:56Z</time>
    </trkpt>
    <trkpt lat="46.79418" lon="10.247129">
    <ele>1650</ele>
    <time>2010-09-09T08:13:57Z</time>
    </trkpt>
    <trkpt lat="46.79417" lon="10.247046">
    <ele>1649</ele>
    <time>2010-09-09T08:13:58Z</time>
    </trkpt>
    <trkpt lat="46.794153" lon="10.246972">
    <ele>1649</ele>
    <time>2010-09-09T08:13:59Z</time>
    </trkpt>
    <trkpt lat="46.794122" lon="10.246909">
    <ele>1648</ele>
    <time>2010-09-09T08:14:00Z</time>
    </trkpt>
    <trkpt lat="46.794081" lon="10.246862">
    <ele>1647</ele>
    <time>2010-09-09T08:14:01Z</time>
    </trkpt>
    <trkpt lat="46.794033" lon="10.24683">
    <ele>1647</ele>
    <time>2010-09-09T08:14:02Z</time>
    </trkpt>
    <trkpt lat="46.793982" lon="10.246809">
    <ele>1646</ele>
    <time>2010-09-09T08:14:03Z</time>
    </trkpt>
    <trkpt lat="46.793939" lon="10.246784">
    <ele>1645</ele>
    <time>2010-09-09T08:14:04Z</time>
    </trkpt>
    <trkpt lat="46.79391" lon="10.246735">
    <ele>1644</ele>
    <time>2010-09-09T08:14:05Z</time>
    </trkpt>
    <trkpt lat="46.7939" lon="10.246666">
    <ele>1644</ele>
    <time>2010-09-09T08:14:06Z</time>
    </trkpt>
    <trkpt lat="46.793906" lon="10.246593">
    <ele>1644</ele>
    <time>2010-09-09T08:14:07Z</time>
    </trkpt>
    <trkpt lat="46.793917" lon="10.246528">
    <ele>1644</ele>
    <time>2010-09-09T08:14:08Z</time>
    </trkpt>
    <trkpt lat="46.793996" lon="10.246131">
    <ele>1645</ele>
    <time>2010-09-09T08:14:19Z</time>
    </trkpt>
    <trkpt lat="46.794025" lon="10.24574">
    <ele>1648</ele>
    <time>2010-09-09T08:14:33Z</time>
    </trkpt>
    <trkpt lat="46.794024" lon="10.245712">
    <ele>1648</ele>
    <time>2010-09-09T08:14:34Z</time>
    </trkpt>
    <trkpt lat="46.794026" lon="10.245685">
    <ele>1648</ele>
    <time>2010-09-09T08:14:35Z</time>
    </trkpt>
    <trkpt lat="46.794075" lon="10.245317">
    <ele>1651</ele>
    <time>2010-09-09T08:14:50Z</time>
    </trkpt>
    <trkpt lat="46.794026" lon="10.244921">
    <ele>1654</ele>
    <time>2010-09-09T08:15:08Z</time>
    </trkpt>
    <trkpt lat="46.793892" lon="10.244564">
    <ele>1656</ele>
    <time>2010-09-09T08:15:25Z</time>
    </trkpt>
    <trkpt lat="46.793825" lon="10.24425">
    <ele>1659</ele>
    <time>2010-09-09T08:15:40Z</time>
    </trkpt>
    <trkpt lat="46.793783" lon="10.24398">
    <ele>1661</ele>
    <time>2010-09-09T08:15:53Z</time>
    </trkpt>
    <trkpt lat="46.793564" lon="10.243902">
    <ele>1664</ele>
    <time>2010-09-09T08:16:09Z</time>
    </trkpt>
    <trkpt lat="46.793408" lon="10.243682">
    <ele>1667</ele>
    <time>2010-09-09T08:16:24Z</time>
    </trkpt>
    <trkpt lat="46.793232" lon="10.243364">
    <ele>1669</ele>
    <time>2010-09-09T08:16:42Z</time>
    </trkpt>
    <trkpt lat="46.793066" lon="10.243014">
    <ele>1672</ele>
    <time>2010-09-09T08:17:00Z</time>
    </trkpt>
    <trkpt lat="46.792905" lon="10.242712">
    <ele>1675</ele>
    <time>2010-09-09T08:17:17Z</time>
    </trkpt>
    <trkpt lat="46.792721" lon="10.242501">
    <ele>1678</ele>
    <time>2010-09-09T08:17:32Z</time>
    </trkpt>
    <trkpt lat="46.792553" lon="10.242207">
    <ele>1681</ele>
    <time>2010-09-09T08:17:48Z</time>
    </trkpt>
    <trkpt lat="46.792446" lon="10.241877">
    <ele>1684</ele>
    <time>2010-09-09T08:18:04Z</time>
    </trkpt>
    <trkpt lat="46.792418" lon="10.241455">
    <ele>1686</ele>
    <time>2010-09-09T08:18:22Z</time>
    </trkpt>
    <trkpt lat="46.792378" lon="10.241136">
    <ele>1690</ele>
    <time>2010-09-09T08:18:36Z</time>
    </trkpt>
    <trkpt lat="46.792254" lon="10.240759">
    <ele>1693</ele>
    <time>2010-09-09T08:18:54Z</time>
    </trkpt>
    <trkpt lat="46.792074" lon="10.240472">
    <ele>1696</ele>
    <time>2010-09-09T08:19:11Z</time>
    </trkpt>
    <trkpt lat="46.791937" lon="10.240201">
    <ele>1699</ele>
    <time>2010-09-09T08:19:25Z</time>
    </trkpt>
    <trkpt lat="46.791949" lon="10.24003">
    <ele>1699</ele>
    <time>2010-09-09T08:19:38Z</time>
    </trkpt>
    <trkpt lat="46.791962" lon="10.240074">
    <ele>1699</ele>
    <time>2010-09-09T08:19:51Z</time>
    </trkpt>
    <trkpt lat="46.791947" lon="10.240044">
    <ele>1700</ele>
    <time>2010-09-09T08:19:58Z</time>
    </trkpt>
    <trkpt lat="46.79196" lon="10.24004">
    <ele>1699</ele>
    <time>2010-09-09T08:20:07Z</time>
    </trkpt>
    <trkpt lat="46.791959" lon="10.240029">
    <ele>1700</ele>
    <time>2010-09-09T08:20:28Z</time>
    </trkpt>
    <trkpt lat="46.791955" lon="10.240028">
    <ele>1699</ele>
    <time>2010-09-09T08:20:40Z</time>
    </trkpt>
    <trkpt lat="46.791938" lon="10.240034">
    <ele>1699</ele>
    <time>2010-09-09T08:20:53Z</time>
    </trkpt>
    <trkpt lat="46.791928" lon="10.240015">
    <ele>1700</ele>
    <time>2010-09-09T08:21:09Z</time>
    </trkpt>
    <trkpt lat="46.791917" lon="10.239993">
    <ele>1699</ele>
    <time>2010-09-09T08:21:10Z</time>
    </trkpt>
    <trkpt lat="46.791903" lon="10.239958">
    <ele>1699</ele>
    <time>2010-09-09T08:21:11Z</time>
    </trkpt>
    <trkpt lat="46.79189" lon="10.239917">
    <ele>1699</ele>
    <time>2010-09-09T08:21:12Z</time>
    </trkpt>
    <trkpt lat="46.791879" lon="10.239875">
    <ele>1699</ele>
    <time>2010-09-09T08:21:13Z</time>
    </trkpt>
    <trkpt lat="46.791589" lon="10.239279">
    <ele>1698</ele>
    <time>2010-09-09T08:21:28Z</time>
    </trkpt>
    <trkpt lat="46.791556" lon="10.239212">
    <ele>1698</ele>
    <time>2010-09-09T08:21:29Z</time>
    </trkpt>
    <trkpt lat="46.791406" lon="10.238391">
    <ele>1697</ele>
    <time>2010-09-09T08:21:40Z</time>
    </trkpt>
    <trkpt lat="46.791195" lon="10.237946">
    <ele>1697</ele>
    <time>2010-09-09T08:21:48Z</time>
    </trkpt>
    <trkpt lat="46.79082" lon="10.237487">
    <ele>1699</ele>
    <time>2010-09-09T08:22:03Z</time>
    </trkpt>
    <trkpt lat="46.790591" lon="10.237211">
    <ele>1698</ele>
    <time>2010-09-09T08:22:11Z</time>
    </trkpt>
    <trkpt lat="46.790286" lon="10.236658">
    <ele>1695</ele>
    <time>2010-09-09T08:22:20Z</time>
    </trkpt>
    <trkpt lat="46.79016" lon="10.236379">
    <ele>1693</ele>
    <time>2010-09-09T08:22:24Z</time>
    </trkpt>
    <trkpt lat="46.789915" lon="10.235902">
    <ele>1688</ele>
    <time>2010-09-09T08:22:30Z</time>
    </trkpt>
    <trkpt lat="46.789873" lon="10.235832">
    <ele>1687</ele>
    <time>2010-09-09T08:22:31Z</time>
    </trkpt>
    <trkpt lat="46.789788" lon="10.235741">
    <ele>1686</ele>
    <time>2010-09-09T08:22:33Z</time>
    </trkpt>
    <trkpt lat="46.789664" lon="10.235734">
    <ele>1685</ele>
    <time>2010-09-09T08:22:36Z</time>
    </trkpt>
    <trkpt lat="46.789629" lon="10.235763">
    <ele>1683</ele>
    <time>2010-09-09T08:22:37Z</time>
    </trkpt>
    <trkpt lat="46.789432" lon="10.235933">
    <ele>1679</ele>
    <time>2010-09-09T08:22:42Z</time>
    </trkpt>
    <trkpt lat="46.789348" lon="10.235964">
    <ele>1678</ele>
    <time>2010-09-09T08:22:44Z</time>
    </trkpt>
    <trkpt lat="46.789206" lon="10.235936">
    <ele>1678</ele>
    <time>2010-09-09T08:22:48Z</time>
    </trkpt>
    <trkpt lat="46.789065" lon="10.235898">
    <ele>1677</ele>
    <time>2010-09-09T08:22:54Z</time>
    </trkpt>
    <trkpt lat="46.788954" lon="10.236045">
    <ele>1681</ele>
    <time>2010-09-09T08:23:06Z</time>
    </trkpt>
    <trkpt lat="46.788836" lon="10.236139">
    <ele>1684</ele>
    <time>2010-09-09T08:23:15Z</time>
    </trkpt>
    <trkpt lat="46.788708" lon="10.236253">
    <ele>1681</ele>
    <time>2010-09-09T08:23:24Z</time>
    </trkpt>
    <trkpt lat="46.788689" lon="10.236194">
    <ele>1681</ele>
    <time>2010-09-09T08:23:28Z</time>
    </trkpt>
    <trkpt lat="46.788545" lon="10.23604">
    <ele>1680</ele>
    <time>2010-09-09T08:23:39Z</time>
    </trkpt>
    <trkpt lat="46.7885" lon="10.236008">
    <ele>1679</ele>
    <time>2010-09-09T08:23:54Z</time>
    </trkpt>
    <trkpt lat="46.788501" lon="10.236013">
    <ele>1680</ele>
    <time>2010-09-09T08:25:02Z</time>
    </trkpt>
    <trkpt lat="46.788484" lon="10.235995">
    <ele>1680</ele>
    <time>2010-09-09T08:25:34Z</time>
    </trkpt>
    <trkpt lat="46.788466" lon="10.235964">
    <ele>1680</ele>
    <time>2010-09-09T08:25:36Z</time>
    </trkpt>
    <trkpt lat="46.788335" lon="10.235861">
    <ele>1678</ele>
    <time>2010-09-09T08:25:44Z</time>
    </trkpt>
    <trkpt lat="46.788178" lon="10.235675">
    <ele>1674</ele>
    <time>2010-09-09T08:25:51Z</time>
    </trkpt>
    <trkpt lat="46.788119" lon="10.235563">
    <ele>1671</ele>
    <time>2010-09-09T08:25:55Z</time>
    </trkpt>
    <trkpt lat="46.788088" lon="10.235454">
    <ele>1670</ele>
    <time>2010-09-09T08:25:57Z</time>
    </trkpt>
    <trkpt lat="46.788027" lon="10.235224">
    <ele>1666</ele>
    <time>2010-09-09T08:26:01Z</time>
    </trkpt>
    <trkpt lat="46.787999" lon="10.235116">
    <ele>1665</ele>
    <time>2010-09-09T08:26:03Z</time>
    </trkpt>
    <trkpt lat="46.787931" lon="10.234875">
    <ele>1662</ele>
    <time>2010-09-09T08:26:10Z</time>
    </trkpt>
    <trkpt lat="46.787873" lon="10.234719">
    <ele>1660</ele>
    <time>2010-09-09T08:26:15Z</time>
    </trkpt>
    <trkpt lat="46.787788" lon="10.234565">
    <ele>1656</ele>
    <time>2010-09-09T08:26:21Z</time>
    </trkpt>
    <trkpt lat="46.787722" lon="10.234244">
    <ele>1654</ele>
    <time>2010-09-09T08:26:28Z</time>
    </trkpt>
    <trkpt lat="46.787596" lon="10.23369">
    <ele>1652</ele>
    <time>2010-09-09T08:26:38Z</time>
    </trkpt>
    <trkpt lat="46.78755" lon="10.233612">
    <ele>1652</ele>
    <time>2010-09-09T08:26:40Z</time>
    </trkpt>
    <trkpt lat="46.787456" lon="10.233504">
    <ele>1651</ele>
    <time>2010-09-09T08:26:43Z</time>
    </trkpt>
    <trkpt lat="46.787328" lon="10.233668">
    <ele>1650</ele>
    <time>2010-09-09T08:26:52Z</time>
    </trkpt>
    <trkpt lat="46.787318" lon="10.233692">
    <ele>1649</ele>
    <time>2010-09-09T08:26:55Z</time>
    </trkpt>
    <trkpt lat="46.787308" lon="10.233701">
    <ele>1649</ele>
    <time>2010-09-09T08:27:02Z</time>
    </trkpt>
    <trkpt lat="46.787298" lon="10.233834">
    <ele>1648</ele>
    <time>2010-09-09T08:27:09Z</time>
    </trkpt>
    <trkpt lat="46.787289" lon="10.233889">
    <ele>1648</ele>
    <time>2010-09-09T08:27:26Z</time>
    </trkpt>
    <trkpt lat="46.787294" lon="10.233907">
    <ele>1649</ele>
    <time>2010-09-09T08:29:23Z</time>
    </trkpt>
    <trkpt lat="46.787225" lon="10.233889">
    <ele>1649</ele>
    <time>2010-09-09T08:29:27Z</time>
    </trkpt>
    <trkpt lat="46.787108" lon="10.233782">
    <ele>1646</ele>
    <time>2010-09-09T08:29:31Z</time>
    </trkpt>
    <trkpt lat="46.786972" lon="10.233623">
    <ele>1644</ele>
    <time>2010-09-09T08:29:35Z</time>
    </trkpt>
    <trkpt lat="46.786881" lon="10.233888">
    <ele>1641</ele>
    <time>2010-09-09T08:29:42Z</time>
    </trkpt>
    <trkpt lat="46.786897" lon="10.233959">
    <ele>1640</ele>
    <time>2010-09-09T08:29:43Z</time>
    </trkpt>
    <trkpt lat="46.786951" lon="10.234256">
    <ele>1638</ele>
    <time>2010-09-09T08:29:47Z</time>
    </trkpt>
    <trkpt lat="46.786951" lon="10.234335">
    <ele>1637</ele>
    <time>2010-09-09T08:29:49Z</time>
    </trkpt>
    <trkpt lat="46.78696" lon="10.234359">
    <ele>1636</ele>
    <time>2010-09-09T08:29:51Z</time>
    </trkpt>
    <trkpt lat="46.78698" lon="10.234402">
    <ele>1636</ele>
    <time>2010-09-09T08:30:01Z</time>
    </trkpt>
    <trkpt lat="46.786975" lon="10.234417">
    <ele>1636</ele>
    <time>2010-09-09T08:30:13Z</time>
    </trkpt>
    <trkpt lat="46.786968" lon="10.234414">
    <ele>1636</ele>
    <time>2010-09-09T08:30:45Z</time>
    </trkpt>
    <trkpt lat="46.786937" lon="10.234345">
    <ele>1636</ele>
    <time>2010-09-09T08:30:53Z</time>
    </trkpt>
    <trkpt lat="46.786778" lon="10.233855">
    <ele>1637</ele>
    <time>2010-09-09T08:31:05Z</time>
    </trkpt>
    <trkpt lat="46.786647" lon="10.233285">
    <ele>1639</ele>
    <time>2010-09-09T08:31:18Z</time>
    </trkpt>
    <trkpt lat="46.786634" lon="10.232686">
    <ele>1640</ele>
    <time>2010-09-09T08:31:32Z</time>
    </trkpt>
    <trkpt lat="46.786608" lon="10.232464">
    <ele>1640</ele>
    <time>2010-09-09T08:31:36Z</time>
    </trkpt>
    <trkpt lat="46.786765" lon="10.232038">
    <ele>1638</ele>
    <time>2010-09-09T08:31:42Z</time>
    </trkpt>
    <trkpt lat="46.786856" lon="10.231429">
    <ele>1641</ele>
    <time>2010-09-09T08:31:55Z</time>
    </trkpt>
    <trkpt lat="46.787004" lon="10.230862">
    <ele>1644</ele>
    <time>2010-09-09T08:32:10Z</time>
    </trkpt>
    <trkpt lat="46.787074" lon="10.230634">
    <ele>1643</ele>
    <time>2010-09-09T08:32:15Z</time>
    </trkpt>
    <trkpt lat="46.787155" lon="10.229683">
    <ele>1643</ele>
    <time>2010-09-09T08:32:32Z</time>
    </trkpt>
    <trkpt lat="46.787172" lon="10.229285">
    <ele>1642</ele>
    <time>2010-09-09T08:32:39Z</time>
    </trkpt>
    <trkpt lat="46.787241" lon="10.228981">
    <ele>1641</ele>
    <time>2010-09-09T08:32:43Z</time>
    </trkpt>
    <trkpt lat="46.787273" lon="10.228909">
    <ele>1640</ele>
    <time>2010-09-09T08:32:44Z</time>
    </trkpt>
    <trkpt lat="46.787477" lon="10.228441">
    <ele>1643</ele>
    <time>2010-09-09T08:32:55Z</time>
    </trkpt>
    <trkpt lat="46.787491" lon="10.22842">
    <ele>1643</ele>
    <time>2010-09-09T08:32:56Z</time>
    </trkpt>
    <trkpt lat="46.787541" lon="10.228347">
    <ele>1644</ele>
    <time>2010-09-09T08:33:00Z</time>
    </trkpt>
    <trkpt lat="46.78759" lon="10.228087">
    <ele>1646</ele>
    <time>2010-09-09T08:33:11Z</time>
    </trkpt>
    <trkpt lat="46.787648" lon="10.227948">
    <ele>1645</ele>
    <time>2010-09-09T08:33:15Z</time>
    </trkpt>
    <trkpt lat="46.787658" lon="10.227874">
    <ele>1645</ele>
    <time>2010-09-09T08:33:17Z</time>
    </trkpt>
    <trkpt lat="46.787654" lon="10.227811">
    <ele>1646</ele>
    <time>2010-09-09T08:33:19Z</time>
    </trkpt>
    <trkpt lat="46.787633" lon="10.227676">
    <ele>1647</ele>
    <time>2010-09-09T08:33:23Z</time>
    </trkpt>
    <trkpt lat="46.787582" lon="10.227446">
    <ele>1647</ele>
    <time>2010-09-09T08:33:29Z</time>
    </trkpt>
    <trkpt lat="46.787517" lon="10.227085">
    <ele>1648</ele>
    <time>2010-09-09T08:33:40Z</time>
    </trkpt>
    <trkpt lat="46.787395" lon="10.226996">
    <ele>1647</ele>
    <time>2010-09-09T08:33:45Z</time>
    </trkpt>
    <trkpt lat="46.787216" lon="10.226741">
    <ele>1647</ele>
    <time>2010-09-09T08:33:54Z</time>
    </trkpt>
    <trkpt lat="46.787048" lon="10.226391">
    <ele>1646</ele>
    <time>2010-09-09T08:34:04Z</time>
    </trkpt>
    <trkpt lat="46.787004" lon="10.22634">
    <ele>1645</ele>
    <time>2010-09-09T08:34:06Z</time>
    </trkpt>
    <trkpt lat="46.786884" lon="10.226131">
    <ele>1643</ele>
    <time>2010-09-09T08:34:11Z</time>
    </trkpt>
    <trkpt lat="46.786824" lon="10.225951">
    <ele>1642</ele>
    <time>2010-09-09T08:34:17Z</time>
    </trkpt>
    <trkpt lat="46.786739" lon="10.225594">
    <ele>1642</ele>
    <time>2010-09-09T08:34:29Z</time>
    </trkpt>
    <trkpt lat="46.78667" lon="10.225479">
    <ele>1640</ele>
    <time>2010-09-09T08:34:34Z</time>
    </trkpt>
    <trkpt lat="46.786658" lon="10.2254">
    <ele>1637</ele>
    <time>2010-09-09T08:34:54Z</time>
    </trkpt>
    <trkpt lat="46.78665" lon="10.22538">
    <ele>1637</ele>
    <time>2010-09-09T08:35:15Z</time>
    </trkpt>
    <trkpt lat="46.78658" lon="10.225308">
    <ele>1636</ele>
    <time>2010-09-09T08:35:19Z</time>
    </trkpt>
    <trkpt lat="46.786485" lon="10.225115">
    <ele>1632</ele>
    <time>2010-09-09T08:35:25Z</time>
    </trkpt>
    <trkpt lat="46.786424" lon="10.225006">
    <ele>1631</ele>
    <time>2010-09-09T08:35:28Z</time>
    </trkpt>
    <trkpt lat="46.786373" lon="10.224751">
    <ele>1634</ele>
    <time>2010-09-09T08:35:38Z</time>
    </trkpt>
    <trkpt lat="46.786331" lon="10.22447">
    <ele>1637</ele>
    <time>2010-09-09T08:35:51Z</time>
    </trkpt>
    <trkpt lat="46.786295" lon="10.22426">
    <ele>1640</ele>
    <time>2010-09-09T08:36:02Z</time>
    </trkpt>
    <trkpt lat="46.786333" lon="10.223968">
    <ele>1641</ele>
    <time>2010-09-09T08:36:16Z</time>
    </trkpt>
    <trkpt lat="46.786348" lon="10.223792">
    <ele>1642</ele>
    <time>2010-09-09T08:36:22Z</time>
    </trkpt>
    <trkpt lat="46.786392" lon="10.223643">
    <ele>1643</ele>
    <time>2010-09-09T08:36:28Z</time>
    </trkpt>
    <trkpt lat="46.786417" lon="10.22331">
    <ele>1644</ele>
    <time>2010-09-09T08:36:40Z</time>
    </trkpt>
    <trkpt lat="46.78647" lon="10.223036">
    <ele>1644</ele>
    <time>2010-09-09T08:36:50Z</time>
    </trkpt>
    <trkpt lat="46.786512" lon="10.222794">
    <ele>1646</ele>
    <time>2010-09-09T08:40:02Z</time>
    </trkpt>
    <trkpt lat="46.786566" lon="10.222443">
    <ele>1647</ele>
    <time>2010-09-09T08:40:12Z</time>
    </trkpt>
    <trkpt lat="46.786626" lon="10.221983">
    <ele>1645</ele>
    <time>2010-09-09T08:40:19Z</time>
    </trkpt>
    <trkpt lat="46.786656" lon="10.221905">
    <ele>1644</ele>
    <time>2010-09-09T08:40:20Z</time>
    </trkpt>
    <trkpt lat="46.786693" lon="10.221835">
    <ele>1644</ele>
    <time>2010-09-09T08:40:21Z</time>
    </trkpt>
    <trkpt lat="46.786733" lon="10.221772">
    <ele>1644</ele>
    <time>2010-09-09T08:40:22Z</time>
    </trkpt>
    <trkpt lat="46.786773" lon="10.221711">
    <ele>1644</ele>
    <time>2010-09-09T08:40:23Z</time>
    </trkpt>
    <trkpt lat="46.786807" lon="10.221642">
    <ele>1644</ele>
    <time>2010-09-09T08:40:24Z</time>
    </trkpt>
    <trkpt lat="46.786836" lon="10.221569">
    <ele>1643</ele>
    <time>2010-09-09T08:40:25Z</time>
    </trkpt>
    <trkpt lat="46.786856" lon="10.221497">
    <ele>1644</ele>
    <time>2010-09-09T08:40:26Z</time>
    </trkpt>
    <trkpt lat="46.78687" lon="10.221432">
    <ele>1643</ele>
    <time>2010-09-09T08:40:27Z</time>
    </trkpt>
    <trkpt lat="46.786892" lon="10.221375">
    <ele>1643</ele>
    <time>2010-09-09T08:40:28Z</time>
    </trkpt>
    <trkpt lat="46.786975" lon="10.221231">
    <ele>1643</ele>
    <time>2010-09-09T08:40:31Z</time>
    </trkpt>
    <trkpt lat="46.787025" lon="10.221122">
    <ele>1642</ele>
    <time>2010-09-09T08:40:33Z</time>
    </trkpt>
    <trkpt lat="46.787049" lon="10.221073">
    <ele>1642</ele>
    <time>2010-09-09T08:40:34Z</time>
    </trkpt>
    <trkpt lat="46.787071" lon="10.221031">
    <ele>1642</ele>
    <time>2010-09-09T08:40:35Z</time>
    </trkpt>
    <trkpt lat="46.787095" lon="10.220985">
    <ele>1642</ele>
    <time>2010-09-09T08:40:36Z</time>
    </trkpt>
    <trkpt lat="46.787125" lon="10.220932">
    <ele>1642</ele>
    <time>2010-09-09T08:40:37Z</time>
    </trkpt>
    <trkpt lat="46.787253" lon="10.220675">
    <ele>1641</ele>
    <time>2010-09-09T08:40:41Z</time>
    </trkpt>
    <trkpt lat="46.78728" lon="10.220596">
    <ele>1640</ele>
    <time>2010-09-09T08:40:42Z</time>
    </trkpt>
    <trkpt lat="46.787305" lon="10.220516">
    <ele>1640</ele>
    <time>2010-09-09T08:40:43Z</time>
    </trkpt>
    <trkpt lat="46.787383" lon="10.220225">
    <ele>1641</ele>
    <time>2010-09-09T08:40:51Z</time>
    </trkpt>
    <trkpt lat="46.787428" lon="10.219992">
    <ele>1643</ele>
    <time>2010-09-09T08:41:02Z</time>
    </trkpt>
    <trkpt lat="46.78741" lon="10.219626">
    <ele>1643</ele>
    <time>2010-09-09T08:41:12Z</time>
    </trkpt>
    <trkpt lat="46.787372" lon="10.219437">
    <ele>1644</ele>
    <time>2010-09-09T08:41:17Z</time>
    </trkpt>
    <trkpt lat="46.787276" lon="10.219007">
    <ele>1644</ele>
    <time>2010-09-09T08:41:28Z</time>
    </trkpt>
    <trkpt lat="46.787264" lon="10.218972">
    <ele>1644</ele>
    <time>2010-09-09T08:41:29Z</time>
    </trkpt>
    <trkpt lat="46.787252" lon="10.218931">
    <ele>1644</ele>
    <time>2010-09-09T08:41:30Z</time>
    </trkpt>
    <trkpt lat="46.787243" lon="10.218887">
    <ele>1644</ele>
    <time>2010-09-09T08:41:31Z</time>
    </trkpt>
    <trkpt lat="46.787232" lon="10.218849">
    <ele>1645</ele>
    <time>2010-09-09T08:41:32Z</time>
    </trkpt>
    <trkpt lat="46.787218" lon="10.218816">
    <ele>1644</ele>
    <time>2010-09-09T08:41:33Z</time>
    </trkpt>
    <trkpt lat="46.787196" lon="10.218785">
    <ele>1644</ele>
    <time>2010-09-09T08:41:34Z</time>
    </trkpt>
    <trkpt lat="46.787172" lon="10.218738">
    <ele>1644</ele>
    <time>2010-09-09T08:41:35Z</time>
    </trkpt>
    <trkpt lat="46.787147" lon="10.218689">
    <ele>1644</ele>
    <time>2010-09-09T08:41:36Z</time>
    </trkpt>
    <trkpt lat="46.787139" lon="10.218265">
    <ele>1643</ele>
    <time>2010-09-09T08:41:44Z</time>
    </trkpt>
    <trkpt lat="46.787189" lon="10.217826">
    <ele>1644</ele>
    <time>2010-09-09T08:41:53Z</time>
    </trkpt>
    <trkpt lat="46.787352" lon="10.217511">
    <ele>1644</ele>
    <time>2010-09-09T08:42:02Z</time>
    </trkpt>
    <trkpt lat="46.787434" lon="10.217071">
    <ele>1643</ele>
    <time>2010-09-09T08:42:09Z</time>
    </trkpt>
    <trkpt lat="46.78755" lon="10.216747">
    <ele>1643</ele>
    <time>2010-09-09T08:42:15Z</time>
    </trkpt>
    <trkpt lat="46.787588" lon="10.216568">
    <ele>1641</ele>
    <time>2010-09-09T08:42:17Z</time>
    </trkpt>
    <trkpt lat="46.787631" lon="10.216417">
    <ele>1641</ele>
    <time>2010-09-09T08:42:19Z</time>
    </trkpt>
    <trkpt lat="46.787664" lon="10.216258">
    <ele>1640</ele>
    <time>2010-09-09T08:42:21Z</time>
    </trkpt>
    <trkpt lat="46.787679" lon="10.216192">
    <ele>1640</ele>
    <time>2010-09-09T08:42:22Z</time>
    </trkpt>
    <trkpt lat="46.787725" lon="10.215956">
    <ele>1638</ele>
    <time>2010-09-09T08:42:25Z</time>
    </trkpt>
    <trkpt lat="46.787752" lon="10.215861">
    <ele>1637</ele>
    <time>2010-09-09T08:42:26Z</time>
    </trkpt>
    <trkpt lat="46.78781" lon="10.215669">
    <ele>1635</ele>
    <time>2010-09-09T08:42:28Z</time>
    </trkpt>
    <trkpt lat="46.787878" lon="10.215513">
    <ele>1633</ele>
    <time>2010-09-09T08:42:30Z</time>
    </trkpt>
    <trkpt lat="46.787908" lon="10.215451">
    <ele>1633</ele>
    <time>2010-09-09T08:42:31Z</time>
    </trkpt>
    <trkpt lat="46.78794" lon="10.215397">
    <ele>1632</ele>
    <time>2010-09-09T08:42:32Z</time>
    </trkpt>
    <trkpt lat="46.788021" lon="10.215294">
    <ele>1630</ele>
    <time>2010-09-09T08:42:34Z</time>
    </trkpt>
    <trkpt lat="46.788074" lon="10.215245">
    <ele>1630</ele>
    <time>2010-09-09T08:42:35Z</time>
    </trkpt>
    <trkpt lat="46.788125" lon="10.215198">
    <ele>1629</ele>
    <time>2010-09-09T08:42:36Z</time>
    </trkpt>
    <trkpt lat="46.788323" lon="10.21499">
    <ele>1628</ele>
    <time>2010-09-09T08:42:40Z</time>
    </trkpt>
    <trkpt lat="46.788368" lon="10.214957">
    <ele>1628</ele>
    <time>2010-09-09T08:42:41Z</time>
    </trkpt>
    <trkpt lat="46.788415" lon="10.214936">
    <ele>1628</ele>
    <time>2010-09-09T08:42:42Z</time>
    </trkpt>
    <trkpt lat="46.788457" lon="10.214904">
    <ele>1627</ele>
    <time>2010-09-09T08:42:43Z</time>
    </trkpt>
    <trkpt lat="46.788488" lon="10.214858">
    <ele>1627</ele>
    <time>2010-09-09T08:42:44Z</time>
    </trkpt>
    <trkpt lat="46.788502" lon="10.214813">
    <ele>1628</ele>
    <time>2010-09-09T08:42:45Z</time>
    </trkpt>
    <trkpt lat="46.788507" lon="10.214767">
    <ele>1627</ele>
    <time>2010-09-09T08:42:46Z</time>
    </trkpt>
    <trkpt lat="46.788517" lon="10.214729">
    <ele>1627</ele>
    <time>2010-09-09T08:42:47Z</time>
    </trkpt>
    <trkpt lat="46.78854" lon="10.214682">
    <ele>1626</ele>
    <time>2010-09-09T08:42:48Z</time>
    </trkpt>
    <trkpt lat="46.788566" lon="10.214637">
    <ele>1626</ele>
    <time>2010-09-09T08:42:49Z</time>
    </trkpt>
    <trkpt lat="46.788596" lon="10.214597">
    <ele>1626</ele>
    <time>2010-09-09T08:42:50Z</time>
    </trkpt>
    <trkpt lat="46.788636" lon="10.214559">
    <ele>1625</ele>
    <time>2010-09-09T08:42:51Z</time>
    </trkpt>
    <trkpt lat="46.788846" lon="10.214297">
    <ele>1622</ele>
    <time>2010-09-09T08:42:56Z</time>
    </trkpt>
    <trkpt lat="46.788876" lon="10.214236">
    <ele>1622</ele>
    <time>2010-09-09T08:42:57Z</time>
    </trkpt>
    <trkpt lat="46.788901" lon="10.21418">
    <ele>1622</ele>
    <time>2010-09-09T08:42:58Z</time>
    </trkpt>
    <trkpt lat="46.788925" lon="10.214138">
    <ele>1622</ele>
    <time>2010-09-09T08:42:59Z</time>
    </trkpt>
    <trkpt lat="46.788976" lon="10.214076">
    <ele>1622</ele>
    <time>2010-09-09T08:43:01Z</time>
    </trkpt>
    <trkpt lat="46.789059" lon="10.21399">
    <ele>1621</ele>
    <time>2010-09-09T08:43:04Z</time>
    </trkpt>
    <trkpt lat="46.789083" lon="10.213928">
    <ele>1621</ele>
    <time>2010-09-09T08:43:05Z</time>
    </trkpt>
    <trkpt lat="46.789135" lon="10.213803">
    <ele>1620</ele>
    <time>2010-09-09T08:43:07Z</time>
    </trkpt>
    <trkpt lat="46.789159" lon="10.213753">
    <ele>1619</ele>
    <time>2010-09-09T08:43:08Z</time>
    </trkpt>
    <trkpt lat="46.789178" lon="10.213694">
    <ele>1619</ele>
    <time>2010-09-09T08:43:09Z</time>
    </trkpt>
    <trkpt lat="46.78926" lon="10.213462">
    <ele>1616</ele>
    <time>2010-09-09T08:43:13Z</time>
    </trkpt>
    <trkpt lat="46.789303" lon="10.213401">
    <ele>1614</ele>
    <time>2010-09-09T08:43:16Z</time>
    </trkpt>
    <trkpt lat="46.789319" lon="10.213393">
    <ele>1614</ele>
    <time>2010-09-09T08:43:37Z</time>
    </trkpt>
    <trkpt lat="46.789343" lon="10.213415">
    <ele>1614</ele>
    <time>2010-09-09T08:44:38Z</time>
    </trkpt>
    <trkpt lat="46.789464" lon="10.213097">
    <ele>1613</ele>
    <time>2010-09-09T08:44:47Z</time>
    </trkpt>
    <trkpt lat="46.789532" lon="10.212826">
    <ele>1609</ele>
    <time>2010-09-09T08:44:52Z</time>
    </trkpt>
    <trkpt lat="46.78962" lon="10.212577">
    <ele>1606</ele>
    <time>2010-09-09T08:44:56Z</time>
    </trkpt>
    <trkpt lat="46.789634" lon="10.212521">
    <ele>1605</ele>
    <time>2010-09-09T08:44:57Z</time>
    </trkpt>
    <trkpt lat="46.789684" lon="10.212273">
    <ele>1601</ele>
    <time>2010-09-09T08:45:01Z</time>
    </trkpt>
    <trkpt lat="46.789683" lon="10.212205">
    <ele>1600</ele>
    <time>2010-09-09T08:45:02Z</time>
    </trkpt>
    <trkpt lat="46.789657" lon="10.212023">
    <ele>1597</ele>
    <time>2010-09-09T08:45:07Z</time>
    </trkpt>
    <trkpt lat="46.789595" lon="10.212075">
    <ele>1596</ele>
    <time>2010-09-09T08:45:09Z</time>
    </trkpt>
    <trkpt lat="46.789524" lon="10.212145">
    <ele>1595</ele>
    <time>2010-09-09T08:45:11Z</time>
    </trkpt>
    <trkpt lat="46.789435" lon="10.212311">
    <ele>1594</ele>
    <time>2010-09-09T08:45:14Z</time>
    </trkpt>
    <trkpt lat="46.789355" lon="10.212414">
    <ele>1593</ele>
    <time>2010-09-09T08:45:16Z</time>
    </trkpt>
    <trkpt lat="46.789301" lon="10.212441">
    <ele>1593</ele>
    <time>2010-09-09T08:45:17Z</time>
    </trkpt>
    <trkpt lat="46.789244" lon="10.212469">
    <ele>1592</ele>
    <time>2010-09-09T08:45:18Z</time>
    </trkpt>
    <trkpt lat="46.789189" lon="10.212507">
    <ele>1591</ele>
    <time>2010-09-09T08:45:19Z</time>
    </trkpt>
    <trkpt lat="46.789138" lon="10.212554">
    <ele>1591</ele>
    <time>2010-09-09T08:45:20Z</time>
    </trkpt>
    <trkpt lat="46.78909" lon="10.212603">
    <ele>1591</ele>
    <time>2010-09-09T08:45:21Z</time>
    </trkpt>
    <trkpt lat="46.788997" lon="10.212693">
    <ele>1589</ele>
    <time>2010-09-09T08:45:23Z</time>
    </trkpt>
    <trkpt lat="46.788861" lon="10.212964">
    <ele>1588</ele>
    <time>2010-09-09T08:45:27Z</time>
    </trkpt>
    <trkpt lat="46.788707" lon="10.213126">
    <ele>1585</ele>
    <time>2010-09-09T08:45:32Z</time>
    </trkpt>
    <trkpt lat="46.788671" lon="10.213103">
    <ele>1585</ele>
    <time>2010-09-09T08:45:33Z</time>
    </trkpt>
    <trkpt lat="46.788634" lon="10.213078">
    <ele>1585</ele>
    <time>2010-09-09T08:45:34Z</time>
    </trkpt>
    <trkpt lat="46.788326" lon="10.212857">
    <ele>1584</ele>
    <time>2010-09-09T08:45:44Z</time>
    </trkpt>
    <trkpt lat="46.788024" lon="10.212752">
    <ele>1584</ele>
    <time>2010-09-09T08:45:55Z</time>
    </trkpt>
    <trkpt lat="46.787863" lon="10.212888">
    <ele>1584</ele>
    <time>2010-09-09T08:46:06Z</time>
    </trkpt>
    <trkpt lat="46.787843" lon="10.212907">
    <ele>1584</ele>
    <time>2010-09-09T08:46:08Z</time>
    </trkpt>
    <trkpt lat="46.787831" lon="10.212917">
    <ele>1584</ele>
    <time>2010-09-09T08:46:09Z</time>
    </trkpt>
    <trkpt lat="46.787761" lon="10.212988">
    <ele>1584</ele>
    <time>2010-09-09T08:46:20Z</time>
    </trkpt>
    <trkpt lat="46.78774" lon="10.213014">
    <ele>1584</ele>
    <time>2010-09-09T08:46:22Z</time>
    </trkpt>
    <trkpt lat="46.787668" lon="10.213065">
    <ele>1584</ele>
    <time>2010-09-09T08:46:30Z</time>
    </trkpt>
    <trkpt lat="46.787614" lon="10.21308">
    <ele>1584</ele>
    <time>2010-09-09T08:47:17Z</time>
    </trkpt>
    <trkpt lat="46.787608" lon="10.213085">
    <ele>1584</ele>
    <time>2010-09-09T08:47:36Z</time>
    </trkpt>
    <trkpt lat="46.787457" lon="10.21322">
    <ele>1584</ele>
    <time>2010-09-09T08:47:50Z</time>
    </trkpt>
    <trkpt lat="46.787192" lon="10.213332">
    <ele>1585</ele>
    <time>2010-09-09T08:48:00Z</time>
    </trkpt>
    <trkpt lat="46.786894" lon="10.213308">
    <ele>1586</ele>
    <time>2010-09-09T08:48:12Z</time>
    </trkpt>
    <trkpt lat="46.786637" lon="10.21353">
    <ele>1587</ele>
    <time>2010-09-09T08:48:22Z</time>
    </trkpt>
    <trkpt lat="46.786329" lon="10.213777">
    <ele>1588</ele>
    <time>2010-09-09T08:48:32Z</time>
    </trkpt>
    <trkpt lat="46.786298" lon="10.213809">
    <ele>1588</ele>
    <time>2010-09-09T08:48:33Z</time>
    </trkpt>
    <trkpt lat="46.786101" lon="10.214087">
    <ele>1588</ele>
    <time>2010-09-09T08:48:41Z</time>
    </trkpt>
    <trkpt lat="46.786086" lon="10.214121">
    <ele>1588</ele>
    <time>2010-09-09T08:48:42Z</time>
    </trkpt>
    <trkpt lat="46.786072" lon="10.214149">
    <ele>1588</ele>
    <time>2010-09-09T08:48:43Z</time>
    </trkpt>
    <trkpt lat="46.78605" lon="10.214199">
    <ele>1589</ele>
    <time>2010-09-09T08:48:46Z</time>
    </trkpt>
    <trkpt lat="46.785845" lon="10.214388">
    <ele>1590</ele>
    <time>2010-09-09T08:48:56Z</time>
    </trkpt>
    <trkpt lat="46.785675" lon="10.214563">
    <ele>1590</ele>
    <time>2010-09-09T08:49:03Z</time>
    </trkpt>
    <trkpt lat="46.785482" lon="10.214639">
    <ele>1590</ele>
    <time>2010-09-09T08:49:07Z</time>
    </trkpt>
    <trkpt lat="46.785463" lon="10.214644">
    <ele>1590</ele>
    <time>2010-09-09T08:49:08Z</time>
    </trkpt>
    <trkpt lat="46.785451" lon="10.214647">
    <ele>1591</ele>
    <time>2010-09-09T08:49:09Z</time>
    </trkpt>
    <trkpt lat="46.785427" lon="10.214664">
    <ele>1592</ele>
    <time>2010-09-09T08:49:11Z</time>
    </trkpt>
    <trkpt lat="46.78541" lon="10.214679">
    <ele>1592</ele>
    <time>2010-09-09T08:49:12Z</time>
    </trkpt>
    <trkpt lat="46.785316" lon="10.214794">
    <ele>1593</ele>
    <time>2010-09-09T08:49:21Z</time>
    </trkpt>
    <trkpt lat="46.785086" lon="10.215037">
    <ele>1595</ele>
    <time>2010-09-09T08:49:35Z</time>
    </trkpt>
    <trkpt lat="46.785005" lon="10.215154">
    <ele>1596</ele>
    <time>2010-09-09T08:49:43Z</time>
    </trkpt>
    <trkpt lat="46.784992" lon="10.215168">
    <ele>1597</ele>
    <time>2010-09-09T08:49:44Z</time>
    </trkpt>
    <trkpt lat="46.784977" lon="10.215181">
    <ele>1597</ele>
    <time>2010-09-09T08:49:45Z</time>
    </trkpt>
    <trkpt lat="46.784959" lon="10.21519">
    <ele>1598</ele>
    <time>2010-09-09T08:49:46Z</time>
    </trkpt>
    <trkpt lat="46.784816" lon="10.215285">
    <ele>1598</ele>
    <time>2010-09-09T08:49:50Z</time>
    </trkpt>
    <trkpt lat="46.784806" lon="10.215306">
    <ele>1598</ele>
    <time>2010-09-09T08:49:51Z</time>
    </trkpt>
    <trkpt lat="46.784796" lon="10.215323">
    <ele>1598</ele>
    <time>2010-09-09T08:49:52Z</time>
    </trkpt>
    <trkpt lat="46.784783" lon="10.215338">
    <ele>1598</ele>
    <time>2010-09-09T08:49:53Z</time>
    </trkpt>
    <trkpt lat="46.78477" lon="10.215354">
    <ele>1598</ele>
    <time>2010-09-09T08:49:54Z</time>
    </trkpt>
    <trkpt lat="46.784647" lon="10.215463">
    <ele>1600</ele>
    <time>2010-09-09T08:50:03Z</time>
    </trkpt>
    <trkpt lat="46.784586" lon="10.215498">
    <ele>1602</ele>
    <time>2010-09-09T08:50:10Z</time>
    </trkpt>
    <trkpt lat="46.784553" lon="10.215513">
    <ele>1602</ele>
    <time>2010-09-09T08:50:12Z</time>
    </trkpt>
    <trkpt lat="46.784359" lon="10.215666">
    <ele>1604</ele>
    <time>2010-09-09T08:50:25Z</time>
    </trkpt>
    <trkpt lat="46.784228" lon="10.215727">
    <ele>1606</ele>
    <time>2010-09-09T08:50:34Z</time>
    </trkpt>
    <trkpt lat="46.78417" lon="10.215803">
    <ele>1607</ele>
    <time>2010-09-09T08:50:38Z</time>
    </trkpt>
    <trkpt lat="46.784086" lon="10.215916">
    <ele>1609</ele>
    <time>2010-09-09T08:50:47Z</time>
    </trkpt>
    <trkpt lat="46.783994" lon="10.216149">
    <ele>1608</ele>
    <time>2010-09-09T08:50:55Z</time>
    </trkpt>
    <trkpt lat="46.783771" lon="10.21653">
    <ele>1607</ele>
    <time>2010-09-09T08:51:04Z</time>
    </trkpt>
    <trkpt lat="46.783674" lon="10.216839">
    <ele>1608</ele>
    <time>2010-09-09T08:51:13Z</time>
    </trkpt>
    <trkpt lat="46.783553" lon="10.217104">
    <ele>1609</ele>
    <time>2010-09-09T08:51:23Z</time>
    </trkpt>
    <trkpt lat="46.783393" lon="10.217271">
    <ele>1612</ele>
    <time>2010-09-09T08:51:36Z</time>
    </trkpt>
    <trkpt lat="46.783298" lon="10.21725">
    <ele>1613</ele>
    <time>2010-09-09T08:51:43Z</time>
    </trkpt>
    <trkpt lat="46.783148" lon="10.217279">
    <ele>1615</ele>
    <time>2010-09-09T08:51:49Z</time>
    </trkpt>
    <trkpt lat="46.78275" lon="10.217134">
    <ele>1616</ele>
    <time>2010-09-09T08:52:05Z</time>
    </trkpt>
    <trkpt lat="46.782468" lon="10.216938">
    <ele>1619</ele>
    <time>2010-09-09T08:52:19Z</time>
    </trkpt>
    <trkpt lat="46.782233" lon="10.216528">
    <ele>1620</ele>
    <time>2010-09-09T08:52:32Z</time>
    </trkpt>
    <trkpt lat="46.782086" lon="10.216009">
    <ele>1621</ele>
    <time>2010-09-09T08:52:46Z</time>
    </trkpt>
    <trkpt lat="46.781839" lon="10.215418">
    <ele>1621</ele>
    <time>2010-09-09T08:53:01Z</time>
    </trkpt>
    <trkpt lat="46.781669" lon="10.214976">
    <ele>1624</ele>
    <time>2010-09-09T08:53:15Z</time>
    </trkpt>
    <trkpt lat="46.781512" lon="10.214592">
    <ele>1626</ele>
    <time>2010-09-09T08:53:28Z</time>
    </trkpt>
    <trkpt lat="46.781351" lon="10.214283">
    <ele>1626</ele>
    <time>2010-09-09T08:53:42Z</time>
    </trkpt>
    <trkpt lat="46.78135" lon="10.214282">
    <ele>1625</ele>
    <time>2010-09-09T08:53:46Z</time>
    </trkpt>
    <trkpt lat="46.781331" lon="10.214277">
    <ele>1625</ele>
    <time>2010-09-09T08:53:58Z</time>
    </trkpt>
    <trkpt lat="46.781318" lon="10.214283">
    <ele>1626</ele>
    <time>2010-09-09T08:54:23Z</time>
    </trkpt>
    <trkpt lat="46.781308" lon="10.214328">
    <ele>1627</ele>
    <time>2010-09-09T08:54:32Z</time>
    </trkpt>
    <trkpt lat="46.781286" lon="10.214313">
    <ele>1627</ele>
    <time>2010-09-09T08:54:35Z</time>
    </trkpt>
    <trkpt lat="46.781261" lon="10.214265">
    <ele>1627</ele>
    <time>2010-09-09T08:54:46Z</time>
    </trkpt>
    <trkpt lat="46.781259" lon="10.214309">
    <ele>1627</ele>
    <time>2010-09-09T08:55:08Z</time>
    </trkpt>
    <trkpt lat="46.781281" lon="10.214336">
    <ele>1627</ele>
    <time>2010-09-09T08:55:22Z</time>
    </trkpt>
    <trkpt lat="46.781282" lon="10.214341">
    <ele>1626</ele>
    <time>2010-09-09T08:55:48Z</time>
    </trkpt>
    <trkpt lat="46.781288" lon="10.214337">
    <ele>1626</ele>
    <time>2010-09-09T08:56:16Z</time>
    </trkpt>
    <trkpt lat="46.781289" lon="10.214339">
    <ele>1626</ele>
    <time>2010-09-09T08:56:31Z</time>
    </trkpt>
    <trkpt lat="46.781321" lon="10.214278">
    <ele>1625</ele>
    <time>2010-09-09T08:56:41Z</time>
    </trkpt>
    <trkpt lat="46.78133" lon="10.214281">
    <ele>1624</ele>
    <time>2010-09-09T08:56:56Z</time>
    </trkpt>
    <trkpt lat="46.781339" lon="10.214279">
    <ele>1625</ele>
    <time>2010-09-09T08:57:10Z</time>
    </trkpt>
    <trkpt lat="46.781347" lon="10.214316">
    <ele>1625</ele>
    <time>2010-09-09T08:57:26Z</time>
    </trkpt>
    <trkpt lat="46.781332" lon="10.214262">
    <ele>1625</ele>
    <time>2010-09-09T08:58:12Z</time>
    </trkpt>
    <trkpt lat="46.781308" lon="10.214212">
    <ele>1624</ele>
    <time>2010-09-09T08:58:24Z</time>
    </trkpt>
    <trkpt lat="46.781308" lon="10.214182">
    <ele>1624</ele>
    <time>2010-09-09T08:59:14Z</time>
    </trkpt>
    <trkpt lat="46.781304" lon="10.214182">
    <ele>1623</ele>
    <time>2010-09-09T09:01:31Z</time>
    </trkpt>
    <trkpt lat="46.781303" lon="10.214187">
    <ele>1623</ele>
    <time>2010-09-09T09:02:18Z</time>
    </trkpt>
    <trkpt lat="46.781226" lon="10.213808">
    <ele>1622</ele>
    <time>2010-09-09T09:02:28Z</time>
    </trkpt>
    <trkpt lat="46.781231" lon="10.213483">
    <ele>1621</ele>
    <time>2010-09-09T09:02:32Z</time>
    </trkpt>
    <trkpt lat="46.781266" lon="10.213289">
    <ele>1619</ele>
    <time>2010-09-09T09:02:34Z</time>
    </trkpt>
    <trkpt lat="46.781172" lon="10.212669">
    <ele>1614</ele>
    <time>2010-09-09T09:02:40Z</time>
    </trkpt>
    <trkpt lat="46.781087" lon="10.212284">
    <ele>1611</ele>
    <time>2010-09-09T09:02:43Z</time>
    </trkpt>
    <trkpt lat="46.781007" lon="10.211896">
    <ele>1607</ele>
    <time>2010-09-09T09:02:46Z</time>
    </trkpt>
    <trkpt lat="46.780976" lon="10.211776">
    <ele>1607</ele>
    <time>2010-09-09T09:02:47Z</time>
    </trkpt>
    <trkpt lat="46.780774" lon="10.21133">
    <ele>1604</ele>
    <time>2010-09-09T09:02:51Z</time>
    </trkpt>
    <trkpt lat="46.780667" lon="10.211106">
    <ele>1601</ele>
    <time>2010-09-09T09:02:53Z</time>
    </trkpt>
    <trkpt lat="46.780505" lon="10.210606">
    <ele>1599</ele>
    <time>2010-09-09T09:02:57Z</time>
    </trkpt>
    <trkpt lat="46.780432" lon="10.210354">
    <ele>1598</ele>
    <time>2010-09-09T09:02:59Z</time>
    </trkpt>
    <trkpt lat="46.780218" lon="10.209827">
    <ele>1596</ele>
    <time>2010-09-09T09:03:04Z</time>
    </trkpt>
    <trkpt lat="46.780134" lon="10.209483">
    <ele>1594</ele>
    <time>2010-09-09T09:03:08Z</time>
    </trkpt>
    <trkpt lat="46.780126" lon="10.20933">
    <ele>1594</ele>
    <time>2010-09-09T09:03:10Z</time>
    </trkpt>
    <trkpt lat="46.780057" lon="10.209053">
    <ele>1592</ele>
    <time>2010-09-09T09:03:14Z</time>
    </trkpt>
    <trkpt lat="46.779801" lon="10.20838">
    <ele>1587</ele>
    <time>2010-09-09T09:03:22Z</time>
    </trkpt>
    <trkpt lat="46.779694" lon="10.208124">
    <ele>1583</ele>
    <time>2010-09-09T09:03:25Z</time>
    </trkpt>
    <trkpt lat="46.77953" lon="10.207756">
    <ele>1579</ele>
    <time>2010-09-09T09:03:29Z</time>
    </trkpt>
    <trkpt lat="46.779462" lon="10.20719">
    <ele>1574</ele>
    <time>2010-09-09T09:03:34Z</time>
    </trkpt>
    <trkpt lat="46.779443" lon="10.206987">
    <ele>1571</ele>
    <time>2010-09-09T09:03:36Z</time>
    </trkpt>
    <trkpt lat="46.779365" lon="10.206563">
    <ele>1568</ele>
    <time>2010-09-09T09:03:40Z</time>
    </trkpt>
    <trkpt lat="46.779306" lon="10.206211">
    <ele>1567</ele>
    <time>2010-09-09T09:03:43Z</time>
    </trkpt>
    <trkpt lat="46.779091" lon="10.20573">
    <ele>1563</ele>
    <time>2010-09-09T09:03:48Z</time>
    </trkpt>
    <trkpt lat="46.778834" lon="10.205326">
    <ele>1560</ele>
    <time>2010-09-09T09:03:53Z</time>
    </trkpt>
    <trkpt lat="46.778707" lon="10.204691">
    <ele>1556</ele>
    <time>2010-09-09T09:03:59Z</time>
    </trkpt>
    <trkpt lat="46.778696" lon="10.20457">
    <ele>1556</ele>
    <time>2010-09-09T09:04:00Z</time>
    </trkpt>
    <trkpt lat="46.778717" lon="10.204274">
    <ele>1556</ele>
    <time>2010-09-09T09:04:03Z</time>
    </trkpt>
    <trkpt lat="46.778738" lon="10.204228">
    <ele>1555</ele>
    <time>2010-09-09T09:04:04Z</time>
    </trkpt>
    <trkpt lat="46.77876" lon="10.204199">
    <ele>1555</ele>
    <time>2010-09-09T09:04:05Z</time>
    </trkpt>
    <trkpt lat="46.778778" lon="10.204182">
    <ele>1555</ele>
    <time>2010-09-09T09:04:06Z</time>
    </trkpt>
    <trkpt lat="46.77879" lon="10.204164">
    <ele>1556</ele>
    <time>2010-09-09T09:04:07Z</time>
    </trkpt>
    <trkpt lat="46.778793" lon="10.204145">
    <ele>1556</ele>
    <time>2010-09-09T09:04:08Z</time>
    </trkpt>
    <trkpt lat="46.778798" lon="10.20412">
    <ele>1556</ele>
    <time>2010-09-09T09:04:09Z</time>
    </trkpt>
    <trkpt lat="46.778803" lon="10.204095">
    <ele>1556</ele>
    <time>2010-09-09T09:04:10Z</time>
    </trkpt>
    <trkpt lat="46.778871" lon="10.203745">
    <ele>1559</ele>
    <time>2010-09-09T09:04:26Z</time>
    </trkpt>
    <trkpt lat="46.77888" lon="10.203387">
    <ele>1562</ele>
    <time>2010-09-09T09:04:42Z</time>
    </trkpt>
    <trkpt lat="46.778893" lon="10.20298">
    <ele>1565</ele>
    <time>2010-09-09T09:04:58Z</time>
    </trkpt>
    <trkpt lat="46.778971" lon="10.20248">
    <ele>1566</ele>
    <time>2010-09-09T09:05:16Z</time>
    </trkpt>
    <trkpt lat="46.778906" lon="10.201928">
    <ele>1568</ele>
    <time>2010-09-09T09:05:34Z</time>
    </trkpt>
    <trkpt lat="46.77889" lon="10.201451">
    <ele>1570</ele>
    <time>2010-09-09T09:05:51Z</time>
    </trkpt>
    <trkpt lat="46.778913" lon="10.200968">
    <ele>1572</ele>
    <time>2010-09-09T09:06:08Z</time>
    </trkpt>
    <trkpt lat="46.778989" lon="10.200495">
    <ele>1575</ele>
    <time>2010-09-09T09:06:26Z</time>
    </trkpt>
    <trkpt lat="46.779059" lon="10.2001">
    <ele>1578</ele>
    <time>2010-09-09T09:06:42Z</time>
    </trkpt>
    <trkpt lat="46.779089" lon="10.199786">
    <ele>1581</ele>
    <time>2010-09-09T09:06:56Z</time>
    </trkpt>
    <trkpt lat="46.778992" lon="10.199496">
    <ele>1583</ele>
    <time>2010-09-09T09:07:10Z</time>
    </trkpt>
    <trkpt lat="46.778899" lon="10.199357">
    <ele>1584</ele>
    <time>2010-09-09T09:07:18Z</time>
    </trkpt>
    <trkpt lat="46.778792" lon="10.199369">
    <ele>1585</ele>
    <time>2010-09-09T09:07:24Z</time>
    </trkpt>
    <trkpt lat="46.778592" lon="10.199459">
    <ele>1587</ele>
    <time>2010-09-09T09:07:36Z</time>
    </trkpt>
    <trkpt lat="46.778393" lon="10.199161">
    <ele>1589</ele>
    <time>2010-09-09T09:07:51Z</time>
    </trkpt>
    <trkpt lat="46.778342" lon="10.198865">
    <ele>1591</ele>
    <time>2010-09-09T09:08:05Z</time>
    </trkpt>
    <trkpt lat="46.778355" lon="10.198756">
    <ele>1591</ele>
    <time>2010-09-09T09:08:17Z</time>
    </trkpt>
    <trkpt lat="46.778346" lon="10.198655">
    <ele>1590</ele>
    <time>2010-09-09T09:08:21Z</time>
    </trkpt>
    <trkpt lat="46.778217" lon="10.198278">
    <ele>1591</ele>
    <time>2010-09-09T09:08:34Z</time>
    </trkpt>
    <trkpt lat="46.778173" lon="10.198208">
    <ele>1591</ele>
    <time>2010-09-09T09:08:37Z</time>
    </trkpt>
    <trkpt lat="46.778102" lon="10.198075">
    <ele>1592</ele>
    <time>2010-09-09T09:08:43Z</time>
    </trkpt>
    <trkpt lat="46.778012" lon="10.197471">
    <ele>1592</ele>
    <time>2010-09-09T09:08:59Z</time>
    </trkpt>
    <trkpt lat="46.777905" lon="10.19685">
    <ele>1592</ele>
    <time>2010-09-09T09:09:14Z</time>
    </trkpt>
    <trkpt lat="46.777829" lon="10.196321">
    <ele>1592</ele>
    <time>2010-09-09T09:09:28Z</time>
    </trkpt>
    <trkpt lat="46.777687" lon="10.195764">
    <ele>1591</ele>
    <time>2010-09-09T09:09:41Z</time>
    </trkpt>
    <trkpt lat="46.777617" lon="10.195407">
    <ele>1589</ele>
    <time>2010-09-09T09:09:51Z</time>
    </trkpt>
    <trkpt lat="46.777561" lon="10.195179">
    <ele>1588</ele>
    <time>2010-09-09T09:09:55Z</time>
    </trkpt>
    <trkpt lat="46.77747" lon="10.194905">
    <ele>1586</ele>
    <time>2010-09-09T09:09:59Z</time>
    </trkpt>
    <trkpt lat="46.77736" lon="10.194045">
    <ele>1584</ele>
    <time>2010-09-09T09:10:08Z</time>
    </trkpt>
    <trkpt lat="46.777272" lon="10.193569">
    <ele>1584</ele>
    <time>2010-09-09T09:10:14Z</time>
    </trkpt>
    <trkpt lat="46.777119" lon="10.193093">
    <ele>1585</ele>
    <time>2010-09-09T09:10:25Z</time>
    </trkpt>
    <trkpt lat="46.777064" lon="10.192951">
    <ele>1586</ele>
    <time>2010-09-09T09:10:30Z</time>
    </trkpt>
    <trkpt lat="46.777024" lon="10.192559">
    <ele>1586</ele>
    <time>2010-09-09T09:10:43Z</time>
    </trkpt>
    <trkpt lat="46.777029" lon="10.192075">
    <ele>1585</ele>
    <time>2010-09-09T09:10:57Z</time>
    </trkpt>
    <trkpt lat="46.77704" lon="10.191345">
    <ele>1585</ele>
    <time>2010-09-09T09:11:13Z</time>
    </trkpt>
    <trkpt lat="46.777022" lon="10.191077">
    <ele>1585</ele>
    <time>2010-09-09T09:11:17Z</time>
    </trkpt>
    <trkpt lat="46.776965" lon="10.190845">
    <ele>1584</ele>
    <time>2010-09-09T09:11:20Z</time>
    </trkpt>
    <trkpt lat="46.776937" lon="10.190763">
    <ele>1583</ele>
    <time>2010-09-09T09:11:21Z</time>
    </trkpt>
    <trkpt lat="46.776904" lon="10.190683">
    <ele>1583</ele>
    <time>2010-09-09T09:11:22Z</time>
    </trkpt>
    <trkpt lat="46.776771" lon="10.190414">
    <ele>1582</ele>
    <time>2010-09-09T09:11:26Z</time>
    </trkpt>
    <trkpt lat="46.776738" lon="10.190368">
    <ele>1582</ele>
    <time>2010-09-09T09:11:27Z</time>
    </trkpt>
    <trkpt lat="46.776701" lon="10.190328">
    <ele>1582</ele>
    <time>2010-09-09T09:11:28Z</time>
    </trkpt>
    <trkpt lat="46.776668" lon="10.190289">
    <ele>1582</ele>
    <time>2010-09-09T09:11:29Z</time>
    </trkpt>
    <trkpt lat="46.776643" lon="10.190253">
    <ele>1582</ele>
    <time>2010-09-09T09:11:30Z</time>
    </trkpt>
    <trkpt lat="46.776624" lon="10.190219">
    <ele>1582</ele>
    <time>2010-09-09T09:11:31Z</time>
    </trkpt>
    <trkpt lat="46.776608" lon="10.190188">
    <ele>1582</ele>
    <time>2010-09-09T09:11:32Z</time>
    </trkpt>
    <trkpt lat="46.776586" lon="10.190046">
    <ele>1582</ele>
    <time>2010-09-09T09:11:42Z</time>
    </trkpt>
    <trkpt lat="46.776583" lon="10.189996">
    <ele>1582</ele>
    <time>2010-09-09T09:11:46Z</time>
    </trkpt>
    <trkpt lat="46.776578" lon="10.189975">
    <ele>1582</ele>
    <time>2010-09-09T09:11:47Z</time>
    </trkpt>
    <trkpt lat="46.776574" lon="10.189952">
    <ele>1582</ele>
    <time>2010-09-09T09:11:48Z</time>
    </trkpt>
    <trkpt lat="46.776575" lon="10.189938">
    <ele>1582</ele>
    <time>2010-09-09T09:11:49Z</time>
    </trkpt>
    <trkpt lat="46.776576" lon="10.189923">
    <ele>1582</ele>
    <time>2010-09-09T09:11:50Z</time>
    </trkpt>
    <trkpt lat="46.776575" lon="10.189905">
    <ele>1582</ele>
    <time>2010-09-09T09:11:51Z</time>
    </trkpt>
    <trkpt lat="46.776597" lon="10.189567">
    <ele>1582</ele>
    <time>2010-09-09T09:12:03Z</time>
    </trkpt>
    <trkpt lat="46.776634" lon="10.189222">
    <ele>1582</ele>
    <time>2010-09-09T09:12:13Z</time>
    </trkpt>
    <trkpt lat="46.776644" lon="10.189188">
    <ele>1582</ele>
    <time>2010-09-09T09:12:14Z</time>
    </trkpt>
    <trkpt lat="46.77674" lon="10.188659">
    <ele>1582</ele>
    <time>2010-09-09T09:12:28Z</time>
    </trkpt>
    <trkpt lat="46.776906" lon="10.188141">
    <ele>1581</ele>
    <time>2010-09-09T09:12:37Z</time>
    </trkpt>
    <trkpt lat="46.77723" lon="10.186959">
    <ele>1579</ele>
    <time>2010-09-09T09:12:54Z</time>
    </trkpt>
    <trkpt lat="46.777314" lon="10.186288">
    <ele>1579</ele>
    <time>2010-09-09T09:13:04Z</time>
    </trkpt>
    <trkpt lat="46.77731" lon="10.186221">
    <ele>1579</ele>
    <time>2010-09-09T09:13:05Z</time>
    </trkpt>
    <trkpt lat="46.777275" lon="10.185882">
    <ele>1579</ele>
    <time>2010-09-09T09:13:10Z</time>
    </trkpt>
    <trkpt lat="46.777274" lon="10.185807">
    <ele>1579</ele>
    <time>2010-09-09T09:13:11Z</time>
    </trkpt>
    <trkpt lat="46.77728" lon="10.185729">
    <ele>1579</ele>
    <time>2010-09-09T09:13:12Z</time>
    </trkpt>
    <trkpt lat="46.777292" lon="10.185053">
    <ele>1577</ele>
    <time>2010-09-09T09:13:20Z</time>
    </trkpt>
    <trkpt lat="46.777303" lon="10.184962">
    <ele>1577</ele>
    <time>2010-09-09T09:13:21Z</time>
    </trkpt>
    <trkpt lat="46.777322" lon="10.184874">
    <ele>1576</ele>
    <time>2010-09-09T09:13:22Z</time>
    </trkpt>
    <trkpt lat="46.777348" lon="10.184788">
    <ele>1576</ele>
    <time>2010-09-09T09:13:23Z</time>
    </trkpt>
    <trkpt lat="46.777376" lon="10.184706">
    <ele>1576</ele>
    <time>2010-09-09T09:13:24Z</time>
    </trkpt>
    <trkpt lat="46.777406" lon="10.184627">
    <ele>1576</ele>
    <time>2010-09-09T09:13:25Z</time>
    </trkpt>
    <trkpt lat="46.777475" lon="10.184485">
    <ele>1576</ele>
    <time>2010-09-09T09:13:27Z</time>
    </trkpt>
    <trkpt lat="46.777517" lon="10.184423">
    <ele>1576</ele>
    <time>2010-09-09T09:13:28Z</time>
    </trkpt>
    <trkpt lat="46.777648" lon="10.184264">
    <ele>1575</ele>
    <time>2010-09-09T09:13:31Z</time>
    </trkpt>
    <trkpt lat="46.777682" lon="10.184199">
    <ele>1576</ele>
    <time>2010-09-09T09:13:32Z</time>
    </trkpt>
    <trkpt lat="46.777698" lon="10.184127">
    <ele>1576</ele>
    <time>2010-09-09T09:13:33Z</time>
    </trkpt>
    <trkpt lat="46.777695" lon="10.184058">
    <ele>1576</ele>
    <time>2010-09-09T09:13:34Z</time>
    </trkpt>
    <trkpt lat="46.777676" lon="10.183995">
    <ele>1577</ele>
    <time>2010-09-09T09:13:35Z</time>
    </trkpt>
    <trkpt lat="46.777649" lon="10.183946">
    <ele>1576</ele>
    <time>2010-09-09T09:13:36Z</time>
    </trkpt>
    <trkpt lat="46.77762" lon="10.183912">
    <ele>1576</ele>
    <time>2010-09-09T09:13:37Z</time>
    </trkpt>
    <trkpt lat="46.77759" lon="10.183882">
    <ele>1576</ele>
    <time>2010-09-09T09:13:38Z</time>
    </trkpt>
    <trkpt lat="46.777218" lon="10.183527">
    <ele>1578</ele>
    <time>2010-09-09T09:13:51Z</time>
    </trkpt>
    <trkpt lat="46.777146" lon="10.183163">
    <ele>1582</ele>
    <time>2010-09-09T09:14:04Z</time>
    </trkpt>
    <trkpt lat="46.777327" lon="10.182876">
    <ele>1585</ele>
    <time>2010-09-09T09:14:18Z</time>
    </trkpt>
    <trkpt lat="46.777517" lon="10.182489">
    <ele>1588</ele>
    <time>2010-09-09T09:14:36Z</time>
    </trkpt>
    <trkpt lat="46.777383" lon="10.182142">
    <ele>1591</ele>
    <time>2010-09-09T09:14:51Z</time>
    </trkpt>
    <trkpt lat="46.77732" lon="10.181576">
    <ele>1593</ele>
    <time>2010-09-09T09:15:09Z</time>
    </trkpt>
    <trkpt lat="46.777315" lon="10.181096">
    <ele>1595</ele>
    <time>2010-09-09T09:15:24Z</time>
    </trkpt>
    <trkpt lat="46.777447" lon="10.180667">
    <ele>1597</ele>
    <time>2010-09-09T09:15:41Z</time>
    </trkpt>
    <trkpt lat="46.777454" lon="10.180112">
    <ele>1600</ele>
    <time>2010-09-09T09:15:59Z</time>
    </trkpt>
    <trkpt lat="46.777316" lon="10.179683">
    <ele>1603</ele>
    <time>2010-09-09T09:16:15Z</time>
    </trkpt>
    <trkpt lat="46.777328" lon="10.179149">
    <ele>1605</ele>
    <time>2010-09-09T09:16:31Z</time>
    </trkpt>
    <trkpt lat="46.777387" lon="10.178663">
    <ele>1608</ele>
    <time>2010-09-09T09:16:47Z</time>
    </trkpt>
    <trkpt lat="46.777418" lon="10.178268">
    <ele>1610</ele>
    <time>2010-09-09T09:16:59Z</time>
    </trkpt>
    <trkpt lat="46.777488" lon="10.177812">
    <ele>1613</ele>
    <time>2010-09-09T09:17:15Z</time>
    </trkpt>
    <trkpt lat="46.777429" lon="10.177465">
    <ele>1615</ele>
    <time>2010-09-09T09:17:28Z</time>
    </trkpt>
    <trkpt lat="46.777374" lon="10.176976">
    <ele>1617</ele>
    <time>2010-09-09T09:17:44Z</time>
    </trkpt>
    <trkpt lat="46.777384" lon="10.17657">
    <ele>1620</ele>
    <time>2010-09-09T09:17:58Z</time>
    </trkpt>
    <trkpt lat="46.777442" lon="10.176193">
    <ele>1623</ele>
    <time>2010-09-09T09:18:13Z</time>
    </trkpt>
    <trkpt lat="46.777467" lon="10.175823">
    <ele>1626</ele>
    <time>2010-09-09T09:18:28Z</time>
    </trkpt>
    <trkpt lat="46.777452" lon="10.175514">
    <ele>1629</ele>
    <time>2010-09-09T09:18:42Z</time>
    </trkpt>
    <trkpt lat="46.777455" lon="10.175449">
    <ele>1630</ele>
    <time>2010-09-09T09:18:45Z</time>
    </trkpt>
    <trkpt lat="46.777454" lon="10.175432">
    <ele>1630</ele>
    <time>2010-09-09T09:18:46Z</time>
    </trkpt>
    <trkpt lat="46.777467" lon="10.175081">
    <ele>1632</ele>
    <time>2010-09-09T09:19:01Z</time>
    </trkpt>
    <trkpt lat="46.777448" lon="10.174767">
    <ele>1635</ele>
    <time>2010-09-09T09:19:15Z</time>
    </trkpt>
    <trkpt lat="46.77742" lon="10.174423">
    <ele>1639</ele>
    <time>2010-09-09T09:19:31Z</time>
    </trkpt>
    <trkpt lat="46.777405" lon="10.17433">
    <ele>1640</ele>
    <time>2010-09-09T09:19:36Z</time>
    </trkpt>
    <trkpt lat="46.777406" lon="10.174306">
    <ele>1640</ele>
    <time>2010-09-09T09:19:37Z</time>
    </trkpt>
    <trkpt lat="46.777406" lon="10.174282">
    <ele>1640</ele>
    <time>2010-09-09T09:19:38Z</time>
    </trkpt>
    <trkpt lat="46.777403" lon="10.17426">
    <ele>1640</ele>
    <time>2010-09-09T09:19:39Z</time>
    </trkpt>
    <trkpt lat="46.777399" lon="10.174241">
    <ele>1640</ele>
    <time>2010-09-09T09:19:40Z</time>
    </trkpt>
    <trkpt lat="46.777394" lon="10.174219">
    <ele>1641</ele>
    <time>2010-09-09T09:19:41Z</time>
    </trkpt>
    <trkpt lat="46.777389" lon="10.174198">
    <ele>1641</ele>
    <time>2010-09-09T09:19:42Z</time>
    </trkpt>
    <trkpt lat="46.777383" lon="10.174178">
    <ele>1641</ele>
    <time>2010-09-09T09:19:43Z</time>
    </trkpt>
    <trkpt lat="46.777377" lon="10.174158">
    <ele>1641</ele>
    <time>2010-09-09T09:19:44Z</time>
    </trkpt>
    <trkpt lat="46.777372" lon="10.174137">
    <ele>1641</ele>
    <time>2010-09-09T09:19:45Z</time>
    </trkpt>
    <trkpt lat="46.777366" lon="10.174115">
    <ele>1642</ele>
    <time>2010-09-09T09:19:46Z</time>
    </trkpt>
    <trkpt lat="46.777313" lon="10.173759">
    <ele>1644</ele>
    <time>2010-09-09T09:20:03Z</time>
    </trkpt>
    <trkpt lat="46.777318" lon="10.173564">
    <ele>1646</ele>
    <time>2010-09-09T09:20:13Z</time>
    </trkpt>
    <trkpt lat="46.777323" lon="10.173539">
    <ele>1646</ele>
    <time>2010-09-09T09:20:14Z</time>
    </trkpt>
    <trkpt lat="46.777418" lon="10.173228">
    <ele>1649</ele>
    <time>2010-09-09T09:20:30Z</time>
    </trkpt>
    <trkpt lat="46.777435" lon="10.173167">
    <ele>1650</ele>
    <time>2010-09-09T09:20:33Z</time>
    </trkpt>
    <trkpt lat="46.777438" lon="10.173145">
    <ele>1650</ele>
    <time>2010-09-09T09:20:34Z</time>
    </trkpt>
    <trkpt lat="46.777441" lon="10.173121">
    <ele>1650</ele>
    <time>2010-09-09T09:20:35Z</time>
    </trkpt>
    <trkpt lat="46.77744" lon="10.173096">
    <ele>1650</ele>
    <time>2010-09-09T09:20:36Z</time>
    </trkpt>
    <trkpt lat="46.77744" lon="10.173074">
    <ele>1651</ele>
    <time>2010-09-09T09:20:37Z</time>
    </trkpt>
    <trkpt lat="46.777438" lon="10.173051">
    <ele>1651</ele>
    <time>2010-09-09T09:20:38Z</time>
    </trkpt>
    <trkpt lat="46.777436" lon="10.17303">
    <ele>1651</ele>
    <time>2010-09-09T09:20:39Z</time>
    </trkpt>
    <trkpt lat="46.777431" lon="10.173011">
    <ele>1651</ele>
    <time>2010-09-09T09:20:40Z</time>
    </trkpt>
    <trkpt lat="46.77743" lon="10.172992">
    <ele>1651</ele>
    <time>2010-09-09T09:20:41Z</time>
    </trkpt>
    <trkpt lat="46.777431" lon="10.172974">
    <ele>1652</ele>
    <time>2010-09-09T09:20:42Z</time>
    </trkpt>
    <trkpt lat="46.777429" lon="10.172956">
    <ele>1652</ele>
    <time>2010-09-09T09:20:43Z</time>
    </trkpt>
    <trkpt lat="46.777384" lon="10.172795">
    <ele>1653</ele>
    <time>2010-09-09T09:20:52Z</time>
    </trkpt>
    <trkpt lat="46.777376" lon="10.172779">
    <ele>1654</ele>
    <time>2010-09-09T09:20:53Z</time>
    </trkpt>
    <trkpt lat="46.77727" lon="10.172469">
    <ele>1656</ele>
    <time>2010-09-09T09:21:09Z</time>
    </trkpt>
    <trkpt lat="46.777234" lon="10.172144">
    <ele>1659</ele>
    <time>2010-09-09T09:21:23Z</time>
    </trkpt>
    <trkpt lat="46.777217" lon="10.171688">
    <ele>1661</ele>
    <time>2010-09-09T09:21:41Z</time>
    </trkpt>
    <trkpt lat="46.777094" lon="10.171347">
    <ele>1664</ele>
    <time>2010-09-09T09:21:56Z</time>
    </trkpt>
    <trkpt lat="46.777143" lon="10.170877">
    <ele>1665</ele>
    <time>2010-09-09T09:22:11Z</time>
    </trkpt>
    <trkpt lat="46.777189" lon="10.170413">
    <ele>1667</ele>
    <time>2010-09-09T09:22:27Z</time>
    </trkpt>
    <trkpt lat="46.77724" lon="10.169918">
    <ele>1669</ele>
    <time>2010-09-09T09:22:43Z</time>
    </trkpt>
    <trkpt lat="46.777173" lon="10.169472">
    <ele>1672</ele>
    <time>2010-09-09T09:23:00Z</time>
    </trkpt>
    <trkpt lat="46.777172" lon="10.169444">
    <ele>1672</ele>
    <time>2010-09-09T09:23:01Z</time>
    </trkpt>
    <trkpt lat="46.777169" lon="10.169416">
    <ele>1673</ele>
    <time>2010-09-09T09:23:02Z</time>
    </trkpt>
    <trkpt lat="46.777163" lon="10.169386">
    <ele>1673</ele>
    <time>2010-09-09T09:23:03Z</time>
    </trkpt>
    <trkpt lat="46.777158" lon="10.169357">
    <ele>1673</ele>
    <time>2010-09-09T09:23:04Z</time>
    </trkpt>
    <trkpt lat="46.777153" lon="10.169328">
    <ele>1673</ele>
    <time>2010-09-09T09:23:05Z</time>
    </trkpt>
    <trkpt lat="46.777145" lon="10.169302">
    <ele>1673</ele>
    <time>2010-09-09T09:23:06Z</time>
    </trkpt>
    <trkpt lat="46.777138" lon="10.169278">
    <ele>1673</ele>
    <time>2010-09-09T09:23:07Z</time>
    </trkpt>
    <trkpt lat="46.777065" lon="10.16893">
    <ele>1675</ele>
    <time>2010-09-09T09:23:20Z</time>
    </trkpt>
    <trkpt lat="46.777075" lon="10.168799">
    <ele>1673</ele>
    <time>2010-09-09T09:23:28Z</time>
    </trkpt>
    <trkpt lat="46.777085" lon="10.168789">
    <ele>1673</ele>
    <time>2010-09-09T09:23:29Z</time>
    </trkpt>
    <trkpt lat="46.777085" lon="10.16875">
    <ele>1673</ele>
    <time>2010-09-09T09:23:37Z</time>
    </trkpt>
    <trkpt lat="46.77709" lon="10.16875">
    <ele>1673</ele>
    <time>2010-09-09T09:23:48Z</time>
    </trkpt>
    <trkpt lat="46.777087" lon="10.168752">
    <ele>1672</ele>
    <time>2010-09-09T09:24:12Z</time>
    </trkpt>
    <trkpt lat="46.777102" lon="10.168737">
    <ele>1672</ele>
    <time>2010-09-09T09:24:28Z</time>
    </trkpt>
    <trkpt lat="46.777115" lon="10.168738">
    <ele>1672</ele>
    <time>2010-09-09T09:24:43Z</time>
    </trkpt>
    <trkpt lat="46.777117" lon="10.168734">
    <ele>1672</ele>
    <time>2010-09-09T09:25:01Z</time>
    </trkpt>
    <trkpt lat="46.777123" lon="10.16875">
    <ele>1672</ele>
    <time>2010-09-09T09:25:27Z</time>
    </trkpt>
    <trkpt lat="46.777127" lon="10.16875">
    <ele>1672</ele>
    <time>2010-09-09T09:26:22Z</time>
    </trkpt>
    <trkpt lat="46.777127" lon="10.16875">
    <ele>1672</ele>
    <time>2010-09-09T09:26:24Z</time>
    </trkpt>
    <trkpt lat="46.777301" lon="10.168628">
    <ele>1672</ele>
    <time>2010-09-09T09:26:31Z</time>
    </trkpt>
    <trkpt lat="46.777369" lon="10.168567">
    <ele>1671</ele>
    <time>2010-09-09T09:26:33Z</time>
    </trkpt>
    <trkpt lat="46.777452" lon="10.168472">
    <ele>1671</ele>
    <time>2010-09-09T09:26:35Z</time>
    </trkpt>
    <trkpt lat="46.777494" lon="10.168407">
    <ele>1671</ele>
    <time>2010-09-09T09:26:36Z</time>
    </trkpt>
    <trkpt lat="46.777543" lon="10.168355">
    <ele>1671</ele>
    <time>2010-09-09T09:26:37Z</time>
    </trkpt>
    <trkpt lat="46.778158" lon="10.167665">
    <ele>1668</ele>
    <time>2010-09-09T09:26:50Z</time>
    </trkpt>
    <trkpt lat="46.778855" lon="10.166732">
    <ele>1667</ele>
    <time>2010-09-09T09:27:05Z</time>
    </trkpt>
    <trkpt lat="46.779685" lon="10.165955">
    <ele>1664</ele>
    <time>2010-09-09T09:27:20Z</time>
    </trkpt>
    <trkpt lat="46.78026" lon="10.165211">
    <ele>1662</ele>
    <time>2010-09-09T09:27:31Z</time>
    </trkpt>
    <trkpt lat="46.780499" lon="10.164642">
    <ele>1661</ele>
    <time>2010-09-09T09:27:38Z</time>
    </trkpt>
    <trkpt lat="46.7805" lon="10.164549">
    <ele>1661</ele>
    <time>2010-09-09T09:27:39Z</time>
    </trkpt>
    <trkpt lat="46.780483" lon="10.164457">
    <ele>1660</ele>
    <time>2010-09-09T09:27:40Z</time>
    </trkpt>
    <trkpt lat="46.780407" lon="10.164185">
    <ele>1660</ele>
    <time>2010-09-09T09:27:43Z</time>
    </trkpt>
    <trkpt lat="46.780345" lon="10.164039">
    <ele>1660</ele>
    <time>2010-09-09T09:27:45Z</time>
    </trkpt>
    <trkpt lat="46.780234" lon="10.163854">
    <ele>1659</ele>
    <time>2010-09-09T09:27:48Z</time>
    </trkpt>
    <trkpt lat="46.780202" lon="10.163802">
    <ele>1659</ele>
    <time>2010-09-09T09:27:49Z</time>
    </trkpt>
    <trkpt lat="46.780169" lon="10.163751">
    <ele>1659</ele>
    <time>2010-09-09T09:27:50Z</time>
    </trkpt>
    <trkpt lat="46.780006" lon="10.163485">
    <ele>1659</ele>
    <time>2010-09-09T09:27:55Z</time>
    </trkpt>
    <trkpt lat="46.779976" lon="10.16342">
    <ele>1659</ele>
    <time>2010-09-09T09:27:56Z</time>
    </trkpt>
    <trkpt lat="46.779941" lon="10.163363">
    <ele>1658</ele>
    <time>2010-09-09T09:27:57Z</time>
    </trkpt>
    <trkpt lat="46.77942" lon="10.162815">
    <ele>1658</ele>
    <time>2010-09-09T09:28:09Z</time>
    </trkpt>
    <trkpt lat="46.779331" lon="10.162734">
    <ele>1657</ele>
    <time>2010-09-09T09:28:11Z</time>
    </trkpt>
    <trkpt lat="46.779204" lon="10.162589">
    <ele>1657</ele>
    <time>2010-09-09T09:28:14Z</time>
    </trkpt>
    <trkpt lat="46.779163" lon="10.162533">
    <ele>1657</ele>
    <time>2010-09-09T09:28:15Z</time>
    </trkpt>
    <trkpt lat="46.779121" lon="10.162478">
    <ele>1657</ele>
    <time>2010-09-09T09:28:16Z</time>
    </trkpt>
    <trkpt lat="46.778996" lon="10.162309">
    <ele>1656</ele>
    <time>2010-09-09T09:28:19Z</time>
    </trkpt>
    <trkpt lat="46.778947" lon="10.162253">
    <ele>1656</ele>
    <time>2010-09-09T09:28:20Z</time>
    </trkpt>
    <trkpt lat="46.778901" lon="10.162189">
    <ele>1656</ele>
    <time>2010-09-09T09:28:21Z</time>
    </trkpt>
    <trkpt lat="46.778863" lon="10.16212">
    <ele>1656</ele>
    <time>2010-09-09T09:28:22Z</time>
    </trkpt>
    <trkpt lat="46.778824" lon="10.16205">
    <ele>1656</ele>
    <time>2010-09-09T09:28:23Z</time>
    </trkpt>
    <trkpt lat="46.778779" lon="10.161987">
    <ele>1656</ele>
    <time>2010-09-09T09:28:24Z</time>
    </trkpt>
    <trkpt lat="46.778735" lon="10.161928">
    <ele>1656</ele>
    <time>2010-09-09T09:28:25Z</time>
    </trkpt>
    <trkpt lat="46.778699" lon="10.161866">
    <ele>1655</ele>
    <time>2010-09-09T09:28:26Z</time>
    </trkpt>
    <trkpt lat="46.778665" lon="10.161804">
    <ele>1655</ele>
    <time>2010-09-09T09:28:27Z</time>
    </trkpt>
    <trkpt lat="46.77862" lon="10.161739">
    <ele>1655</ele>
    <time>2010-09-09T09:28:28Z</time>
    </trkpt>
    <trkpt lat="46.778567" lon="10.161679">
    <ele>1655</ele>
    <time>2010-09-09T09:28:29Z</time>
    </trkpt>
    <trkpt lat="46.778513" lon="10.161622">
    <ele>1655</ele>
    <time>2010-09-09T09:28:30Z</time>
    </trkpt>
    <trkpt lat="46.7782" lon="10.161335">
    <ele>1656</ele>
    <time>2010-09-09T09:28:36Z</time>
    </trkpt>
    <trkpt lat="46.778158" lon="10.161289">
    <ele>1655</ele>
    <time>2010-09-09T09:28:37Z</time>
    </trkpt>
    <trkpt lat="46.778123" lon="10.161243">
    <ele>1656</ele>
    <time>2010-09-09T09:28:38Z</time>
    </trkpt>
    <trkpt lat="46.778086" lon="10.1612">
    <ele>1656</ele>
    <time>2010-09-09T09:28:39Z</time>
    </trkpt>
    <trkpt lat="46.778045" lon="10.161151">
    <ele>1656</ele>
    <time>2010-09-09T09:28:40Z</time>
    </trkpt>
    <trkpt lat="46.777971" lon="10.161038">
    <ele>1656</ele>
    <time>2010-09-09T09:28:42Z</time>
    </trkpt>
    <trkpt lat="46.777939" lon="10.160976">
    <ele>1656</ele>
    <time>2010-09-09T09:28:43Z</time>
    </trkpt>
    <trkpt lat="46.777903" lon="10.160918">
    <ele>1655</ele>
    <time>2010-09-09T09:28:44Z</time>
    </trkpt>
    <trkpt lat="46.777824" lon="10.160817">
    <ele>1656</ele>
    <time>2010-09-09T09:28:46Z</time>
    </trkpt>
    <trkpt lat="46.777776" lon="10.160774">
    <ele>1656</ele>
    <time>2010-09-09T09:28:47Z</time>
    </trkpt>
    <trkpt lat="46.777502" lon="10.16057">
    <ele>1655</ele>
    <time>2010-09-09T09:28:52Z</time>
    </trkpt>
    <trkpt lat="46.77696" lon="10.160163">
    <ele>1658</ele>
    <time>2010-09-09T09:29:06Z</time>
    </trkpt>
    <trkpt lat="46.776789" lon="10.159784">
    <ele>1661</ele>
    <time>2010-09-09T09:29:18Z</time>
    </trkpt>
    <trkpt lat="46.776822" lon="10.1591">
    <ele>1664</ele>
    <time>2010-09-09T09:29:35Z</time>
    </trkpt>
    <trkpt lat="46.776852" lon="10.158377">
    <ele>1667</ele>
    <time>2010-09-09T09:29:55Z</time>
    </trkpt>
    <trkpt lat="46.776591" lon="10.157681">
    <ele>1667</ele>
    <time>2010-09-09T09:30:13Z</time>
    </trkpt>
    <trkpt lat="46.776296" lon="10.157155">
    <ele>1670</ele>
    <time>2010-09-09T09:30:29Z</time>
    </trkpt>
    <trkpt lat="46.776113" lon="10.156863">
    <ele>1673</ele>
    <time>2010-09-09T09:30:40Z</time>
    </trkpt>
    <trkpt lat="46.776088" lon="10.15629">
    <ele>1676</ele>
    <time>2010-09-09T09:30:57Z</time>
    </trkpt>
    <trkpt lat="46.776074" lon="10.155766">
    <ele>1676</ele>
    <time>2010-09-09T09:31:10Z</time>
    </trkpt>
    <trkpt lat="46.776046" lon="10.155443">
    <ele>1675</ele>
    <time>2010-09-09T09:31:20Z</time>
    </trkpt>
    <trkpt lat="46.77601" lon="10.155432">
    <ele>1675</ele>
    <time>2010-09-09T09:32:01Z</time>
    </trkpt>
    <trkpt lat="46.775999" lon="10.155423">
    <ele>1675</ele>
    <time>2010-09-09T09:32:04Z</time>
    </trkpt>
    <trkpt lat="46.775988" lon="10.155403">
    <ele>1675</ele>
    <time>2010-09-09T09:32:05Z</time>
    </trkpt>
    <trkpt lat="46.775965" lon="10.155348">
    <ele>1675</ele>
    <time>2010-09-09T09:32:07Z</time>
    </trkpt>
    <trkpt lat="46.775961" lon="10.15531">
    <ele>1675</ele>
    <time>2010-09-09T09:32:08Z</time>
    </trkpt>
    <trkpt lat="46.775965" lon="10.155264">
    <ele>1675</ele>
    <time>2010-09-09T09:32:09Z</time>
    </trkpt>
    <trkpt lat="46.775972" lon="10.155216">
    <ele>1674</ele>
    <time>2010-09-09T09:32:10Z</time>
    </trkpt>
    <trkpt lat="46.77598" lon="10.155169">
    <ele>1674</ele>
    <time>2010-09-09T09:32:11Z</time>
    </trkpt>
    <trkpt lat="46.775987" lon="10.155122">
    <ele>1674</ele>
    <time>2010-09-09T09:32:12Z</time>
    </trkpt>
    <trkpt lat="46.775991" lon="10.155073">
    <ele>1673</ele>
    <time>2010-09-09T09:32:13Z</time>
    </trkpt>
    <trkpt lat="46.775991" lon="10.155023">
    <ele>1673</ele>
    <time>2010-09-09T09:32:14Z</time>
    </trkpt>
    <trkpt lat="46.775887" lon="10.154491">
    <ele>1669</ele>
    <time>2010-09-09T09:32:26Z</time>
    </trkpt>
    <trkpt lat="46.775673" lon="10.154124">
    <ele>1668</ele>
    <time>2010-09-09T09:32:36Z</time>
    </trkpt>
    <trkpt lat="46.775627" lon="10.154042">
    <ele>1667</ele>
    <time>2010-09-09T09:32:39Z</time>
    </trkpt>
    <trkpt lat="46.775479" lon="10.154118">
    <ele>1666</ele>
    <time>2010-09-09T09:32:47Z</time>
    </trkpt>
    <trkpt lat="46.775487" lon="10.154142">
    <ele>1666</ele>
    <time>2010-09-09T09:33:07Z</time>
    </trkpt>
    <trkpt lat="46.775506" lon="10.15419">
    <ele>1668</ele>
    <time>2010-09-09T09:33:20Z</time>
    </trkpt>
    <trkpt lat="46.775503" lon="10.154187">
    <ele>1665</ele>
    <time>2010-09-09T09:33:21Z</time>
    </trkpt>
    <trkpt lat="46.775503" lon="10.154187">
    <ele>1670</ele>
    <time>2010-09-09T10:07:59Z</time>
    </trkpt>
    <trkpt lat="46.775503" lon="10.154187">
    <ele>1665</ele>
    <time>2010-09-09T10:08:00Z</time>
    </trkpt>
    <trkpt lat="46.775425" lon="10.154238">
    <ele>1665</ele>
    <time>2010-09-09T10:08:02Z</time>
    </trkpt>
    <trkpt lat="46.775375" lon="10.154159">
    <ele>1667</ele>
    <time>2010-09-09T10:08:10Z</time>
    </trkpt>
    <trkpt lat="46.775371" lon="10.15411">
    <ele>1666</ele>
    <time>2010-09-09T10:08:22Z</time>
    </trkpt>
    <trkpt lat="46.775398" lon="10.154131">
    <ele>1667</ele>
    <time>2010-09-09T10:08:28Z</time>
    </trkpt>
    <trkpt lat="46.775389" lon="10.154115">
    <ele>1666</ele>
    <time>2010-09-09T10:08:46Z</time>
    </trkpt>
    <trkpt lat="46.775356" lon="10.154052">
    <ele>1667</ele>
    <time>2010-09-09T10:08:58Z</time>
    </trkpt>
    <trkpt lat="46.775332" lon="10.154102">
    <ele>1667</ele>
    <time>2010-09-09T10:09:17Z</time>
    </trkpt>
    <trkpt lat="46.775339" lon="10.154069">
    <ele>1667</ele>
    <time>2010-09-09T10:09:43Z</time>
    </trkpt>
    <trkpt lat="46.775399" lon="10.15408">
    <ele>1667</ele>
    <time>2010-09-09T10:09:51Z</time>
    </trkpt>
    <trkpt lat="46.775414" lon="10.154062">
    <ele>1668</ele>
    <time>2010-09-09T10:10:11Z</time>
    </trkpt>
    <trkpt lat="46.77542" lon="10.154053">
    <ele>1667</ele>
    <time>2010-09-09T10:10:35Z</time>
    </trkpt>
    <trkpt lat="46.775447" lon="10.15405">
    <ele>1667</ele>
    <time>2010-09-09T10:11:15Z</time>
    </trkpt>
    <trkpt lat="46.775472" lon="10.154033">
    <ele>1667</ele>
    <time>2010-09-09T10:11:17Z</time>
    </trkpt>
    <trkpt lat="46.775525" lon="10.154007">
    <ele>1668</ele>
    <time>2010-09-09T10:11:21Z</time>
    </trkpt>
    <trkpt lat="46.775553" lon="10.153925">
    <ele>1667</ele>
    <time>2010-09-09T10:11:25Z</time>
    </trkpt>
    <trkpt lat="46.775542" lon="10.153812">
    <ele>1667</ele>
    <time>2010-09-09T10:11:29Z</time>
    </trkpt>
    <trkpt lat="46.775485" lon="10.153359">
    <ele>1665</ele>
    <time>2010-09-09T10:11:41Z</time>
    </trkpt>
    <trkpt lat="46.775466" lon="10.153239">
    <ele>1664</ele>
    <time>2010-09-09T10:11:44Z</time>
    </trkpt>
    <trkpt lat="46.77542" lon="10.153184">
    <ele>1662</ele>
    <time>2010-09-09T10:11:52Z</time>
    </trkpt>
    <trkpt lat="46.77538" lon="10.152958">
    <ele>1660</ele>
    <time>2010-09-09T10:11:56Z</time>
    </trkpt>
    <trkpt lat="46.775325" lon="10.152829">
    <ele>1660</ele>
    <time>2010-09-09T10:11:58Z</time>
    </trkpt>
    <trkpt lat="46.775274" lon="10.152742">
    <ele>1659</ele>
    <time>2010-09-09T10:11:59Z</time>
    </trkpt>
    <trkpt lat="46.775237" lon="10.152665">
    <ele>1659</ele>
    <time>2010-09-09T10:12:00Z</time>
    </trkpt>
    <trkpt lat="46.775182" lon="10.152474">
    <ele>1657</ele>
    <time>2010-09-09T10:12:03Z</time>
    </trkpt>
    <trkpt lat="46.775145" lon="10.152431">
    <ele>1657</ele>
    <time>2010-09-09T10:12:04Z</time>
    </trkpt>
    <trkpt lat="46.775055" lon="10.15232">
    <ele>1656</ele>
    <time>2010-09-09T10:12:06Z</time>
    </trkpt>
    <trkpt lat="46.775027" lon="10.152258">
    <ele>1656</ele>
    <time>2010-09-09T10:12:07Z</time>
    </trkpt>
    <trkpt lat="46.77502" lon="10.152186">
    <ele>1656</ele>
    <time>2010-09-09T10:12:08Z</time>
    </trkpt>
    <trkpt lat="46.775015" lon="10.152114">
    <ele>1655</ele>
    <time>2010-09-09T10:12:09Z</time>
    </trkpt>
    <trkpt lat="46.775012" lon="10.152038">
    <ele>1654</ele>
    <time>2010-09-09T10:12:10Z</time>
    </trkpt>
    <trkpt lat="46.775005" lon="10.151878">
    <ele>1653</ele>
    <time>2010-09-09T10:12:12Z</time>
    </trkpt>
    <trkpt lat="46.775048" lon="10.151467">
    <ele>1649</ele>
    <time>2010-09-09T10:12:17Z</time>
    </trkpt>
    <trkpt lat="46.775064" lon="10.151382">
    <ele>1649</ele>
    <time>2010-09-09T10:12:18Z</time>
    </trkpt>
    <trkpt lat="46.775094" lon="10.1513">
    <ele>1647</ele>
    <time>2010-09-09T10:12:19Z</time>
    </trkpt>
    <trkpt lat="46.775125" lon="10.15121">
    <ele>1646</ele>
    <time>2010-09-09T10:12:20Z</time>
    </trkpt>
    <trkpt lat="46.77515" lon="10.151113">
    <ele>1645</ele>
    <time>2010-09-09T10:12:21Z</time>
    </trkpt>
    <trkpt lat="46.775235" lon="10.150832">
    <ele>1643</ele>
    <time>2010-09-09T10:12:24Z</time>
    </trkpt>
    <trkpt lat="46.775275" lon="10.150746">
    <ele>1643</ele>
    <time>2010-09-09T10:12:25Z</time>
    </trkpt>
    <trkpt lat="46.775349" lon="10.150455">
    <ele>1641</ele>
    <time>2010-09-09T10:12:28Z</time>
    </trkpt>
    <trkpt lat="46.775503" lon="10.149794">
    <ele>1637</ele>
    <time>2010-09-09T10:12:35Z</time>
    </trkpt>
    <trkpt lat="46.775559" lon="10.149448">
    <ele>1633</ele>
    <time>2010-09-09T10:12:39Z</time>
    </trkpt>
    <trkpt lat="46.775576" lon="10.149366">
    <ele>1633</ele>
    <time>2010-09-09T10:12:40Z</time>
    </trkpt>
    <trkpt lat="46.775597" lon="10.149284">
    <ele>1632</ele>
    <time>2010-09-09T10:12:41Z</time>
    </trkpt>
    <trkpt lat="46.775634" lon="10.149106">
    <ele>1631</ele>
    <time>2010-09-09T10:12:43Z</time>
    </trkpt>
    <trkpt lat="46.77564" lon="10.149007">
    <ele>1630</ele>
    <time>2010-09-09T10:12:44Z</time>
    </trkpt>
    <trkpt lat="46.775658" lon="10.148543">
    <ele>1627</ele>
    <time>2010-09-09T10:12:48Z</time>
    </trkpt>
    <trkpt lat="46.775664" lon="10.147939">
    <ele>1623</ele>
    <time>2010-09-09T10:12:53Z</time>
    </trkpt>
    <trkpt lat="46.77559" lon="10.147433">
    <ele>1619</ele>
    <time>2010-09-09T10:12:57Z</time>
    </trkpt>
    <trkpt lat="46.775512" lon="10.146918">
    <ele>1616</ele>
    <time>2010-09-09T10:13:01Z</time>
    </trkpt>
    <trkpt lat="46.775457" lon="10.146549">
    <ele>1613</ele>
    <time>2010-09-09T10:13:04Z</time>
    </trkpt>
    <trkpt lat="46.775441" lon="10.146312">
    <ele>1610</ele>
    <time>2010-09-09T10:13:06Z</time>
    </trkpt>
    <trkpt lat="46.775456" lon="10.146201">
    <ele>1610</ele>
    <time>2010-09-09T10:13:07Z</time>
    </trkpt>
    <trkpt lat="46.775484" lon="10.146089">
    <ele>1609</ele>
    <time>2010-09-09T10:13:08Z</time>
    </trkpt>
    <trkpt lat="46.775524" lon="10.145976">
    <ele>1608</ele>
    <time>2010-09-09T10:13:09Z</time>
    </trkpt>
    <trkpt lat="46.775568" lon="10.145863">
    <ele>1607</ele>
    <time>2010-09-09T10:13:10Z</time>
    </trkpt>
    <trkpt lat="46.775676" lon="10.145525">
    <ele>1605</ele>
    <time>2010-09-09T10:13:13Z</time>
    </trkpt>
    <trkpt lat="46.775687" lon="10.145411">
    <ele>1604</ele>
    <time>2010-09-09T10:13:14Z</time>
    </trkpt>
    <trkpt lat="46.775677" lon="10.145302">
    <ele>1604</ele>
    <time>2010-09-09T10:13:15Z</time>
    </trkpt>
    <trkpt lat="46.775648" lon="10.145205">
    <ele>1603</ele>
    <time>2010-09-09T10:13:16Z</time>
    </trkpt>
    <trkpt lat="46.775618" lon="10.145118">
    <ele>1602</ele>
    <time>2010-09-09T10:13:17Z</time>
    </trkpt>
    <trkpt lat="46.775587" lon="10.145033">
    <ele>1601</ele>
    <time>2010-09-09T10:13:18Z</time>
    </trkpt>
    <trkpt lat="46.775565" lon="10.144957">
    <ele>1600</ele>
    <time>2010-09-09T10:13:19Z</time>
    </trkpt>
    <trkpt lat="46.77555" lon="10.14488">
    <ele>1599</ele>
    <time>2010-09-09T10:13:20Z</time>
    </trkpt>
    <trkpt lat="46.775544" lon="10.144809">
    <ele>1598</ele>
    <time>2010-09-09T10:13:21Z</time>
    </trkpt>
    <trkpt lat="46.775542" lon="10.144741">
    <ele>1597</ele>
    <time>2010-09-09T10:13:22Z</time>
    </trkpt>
    <trkpt lat="46.775542" lon="10.144682">
    <ele>1597</ele>
    <time>2010-09-09T10:13:23Z</time>
    </trkpt>
    <trkpt lat="46.775548" lon="10.144626">
    <ele>1597</ele>
    <time>2010-09-09T10:13:24Z</time>
    </trkpt>
    <trkpt lat="46.775556" lon="10.144574">
    <ele>1596</ele>
    <time>2010-09-09T10:13:25Z</time>
    </trkpt>
    <trkpt lat="46.775566" lon="10.144528">
    <ele>1595</ele>
    <time>2010-09-09T10:13:26Z</time>
    </trkpt>
    <trkpt lat="46.775577" lon="10.14449">
    <ele>1595</ele>
    <time>2010-09-09T10:13:27Z</time>
    </trkpt>
    <trkpt lat="46.775588" lon="10.144461">
    <ele>1595</ele>
    <time>2010-09-09T10:13:28Z</time>
    </trkpt>
    <trkpt lat="46.7756" lon="10.144433">
    <ele>1594</ele>
    <time>2010-09-09T10:13:29Z</time>
    </trkpt>
    <trkpt lat="46.77567" lon="10.144293">
    <ele>1594</ele>
    <time>2010-09-09T10:13:35Z</time>
    </trkpt>
    <trkpt lat="46.775677" lon="10.144263">
    <ele>1594</ele>
    <time>2010-09-09T10:13:36Z</time>
    </trkpt>
    <trkpt lat="46.775686" lon="10.144237">
    <ele>1594</ele>
    <time>2010-09-09T10:13:37Z</time>
    </trkpt>
    <trkpt lat="46.775753" lon="10.144034">
    <ele>1592</ele>
    <time>2010-09-09T10:13:46Z</time>
    </trkpt>
    <trkpt lat="46.775739" lon="10.143997">
    <ele>1592</ele>
    <time>2010-09-09T10:14:01Z</time>
    </trkpt>
    <trkpt lat="46.775754" lon="10.143987">
    <ele>1592</ele>
    <time>2010-09-09T10:14:19Z</time>
    </trkpt>
    <trkpt lat="46.775777" lon="10.143964">
    <ele>1591</ele>
    <time>2010-09-09T10:14:20Z</time>
    </trkpt>
    <trkpt lat="46.77581" lon="10.143928">
    <ele>1591</ele>
    <time>2010-09-09T10:14:21Z</time>
    </trkpt>
    <trkpt lat="46.776027" lon="10.143584">
    <ele>1588</ele>
    <time>2010-09-09T10:14:26Z</time>
    </trkpt>
    <trkpt lat="46.776252" lon="10.143449">
    <ele>1587</ele>
    <time>2010-09-09T10:14:30Z</time>
    </trkpt>
    <trkpt lat="46.776469" lon="10.143416">
    <ele>1587</ele>
    <time>2010-09-09T10:14:35Z</time>
    </trkpt>
    <trkpt lat="46.776628" lon="10.143312">
    <ele>1585</ele>
    <time>2010-09-09T10:14:38Z</time>
    </trkpt>
    <trkpt lat="46.776948" lon="10.143178">
    <ele>1583</ele>
    <time>2010-09-09T10:14:42Z</time>
    </trkpt>
    <trkpt lat="46.777023" lon="10.143156">
    <ele>1583</ele>
    <time>2010-09-09T10:14:43Z</time>
    </trkpt>
    <trkpt lat="46.777164" lon="10.143087">
    <ele>1582</ele>
    <time>2010-09-09T10:14:45Z</time>
    </trkpt>
    <trkpt lat="46.77744" lon="10.143016">
    <ele>1582</ele>
    <time>2010-09-09T10:14:49Z</time>
    </trkpt>
    <trkpt lat="46.777811" lon="10.143053">
    <ele>1578</ele>
    <time>2010-09-09T10:14:53Z</time>
    </trkpt>
    <trkpt lat="46.778067" lon="10.143085">
    <ele>1576</ele>
    <time>2010-09-09T10:14:56Z</time>
    </trkpt>
    <trkpt lat="46.77825" lon="10.142936">
    <ele>1574</ele>
    <time>2010-09-09T10:15:00Z</time>
    </trkpt>
    <trkpt lat="46.778272" lon="10.142816">
    <ele>1574</ele>
    <time>2010-09-09T10:15:02Z</time>
    </trkpt>
    <trkpt lat="46.778048" lon="10.142564">
    <ele>1573</ele>
    <time>2010-09-09T10:15:10Z</time>
    </trkpt>
    <trkpt lat="46.777607" lon="10.142051">
    <ele>1573</ele>
    <time>2010-09-09T10:15:24Z</time>
    </trkpt>
    <trkpt lat="46.777171" lon="10.141664">
    <ele>1574</ele>
    <time>2010-09-09T10:15:38Z</time>
    </trkpt>
    <trkpt lat="46.777002" lon="10.14153">
    <ele>1575</ele>
    <time>2010-09-09T10:15:47Z</time>
    </trkpt>
    <trkpt lat="46.776658" lon="10.141336">
    <ele>1577</ele>
    <time>2010-09-09T10:16:02Z</time>
    </trkpt>
    <trkpt lat="46.776377" lon="10.141281">
    <ele>1580</ele>
    <time>2010-09-09T10:16:15Z</time>
    </trkpt>
    <trkpt lat="46.776067" lon="10.141198">
    <ele>1581</ele>
    <time>2010-09-09T10:16:27Z</time>
    </trkpt>
    <trkpt lat="46.775741" lon="10.141038">
    <ele>1583</ele>
    <time>2010-09-09T10:16:39Z</time>
    </trkpt>
    <trkpt lat="46.775453" lon="10.140788">
    <ele>1584</ele>
    <time>2010-09-09T10:16:52Z</time>
    </trkpt>
    <trkpt lat="46.775109" lon="10.140769">
    <ele>1582</ele>
    <time>2010-09-09T10:17:03Z</time>
    </trkpt>
    <trkpt lat="46.775061" lon="10.140775">
    <ele>1582</ele>
    <time>2010-09-09T10:17:04Z</time>
    </trkpt>
    <trkpt lat="46.7749" lon="10.140567">
    <ele>1579</ele>
    <time>2010-09-09T10:17:08Z</time>
    </trkpt>
    <trkpt lat="46.774826" lon="10.140166">
    <ele>1575</ele>
    <time>2010-09-09T10:17:12Z</time>
    </trkpt>
    <trkpt lat="46.774666" lon="10.139606">
    <ele>1571</ele>
    <time>2010-09-09T10:17:17Z</time>
    </trkpt>
    <trkpt lat="46.774607" lon="10.13939">
    <ele>1570</ele>
    <time>2010-09-09T10:17:19Z</time>
    </trkpt>
    <trkpt lat="46.774555" lon="10.138919">
    <ele>1566</ele>
    <time>2010-09-09T10:17:23Z</time>
    </trkpt>
    <trkpt lat="46.774516" lon="10.138416">
    <ele>1562</ele>
    <time>2010-09-09T10:17:27Z</time>
    </trkpt>
    <trkpt lat="46.774502" lon="10.138192">
    <ele>1560</ele>
    <time>2010-09-09T10:17:29Z</time>
    </trkpt>
    <trkpt lat="46.774546" lon="10.137959">
    <ele>1557</ele>
    <time>2010-09-09T10:17:32Z</time>
    </trkpt>
    <trkpt lat="46.774546" lon="10.137769">
    <ele>1556</ele>
    <time>2010-09-09T10:17:35Z</time>
    </trkpt>
    <trkpt lat="46.774527" lon="10.137566">
    <ele>1555</ele>
    <time>2010-09-09T10:17:38Z</time>
    </trkpt>
    <trkpt lat="46.774565" lon="10.137284">
    <ele>1551</ele>
    <time>2010-09-09T10:17:46Z</time>
    </trkpt>
    <trkpt lat="46.774577" lon="10.13719">
    <ele>1550</ele>
    <time>2010-09-09T10:17:59Z</time>
    </trkpt>
    <trkpt lat="46.774643" lon="10.136635">
    <ele>1547</ele>
    <time>2010-09-09T10:18:09Z</time>
    </trkpt>
    <trkpt lat="46.774821" lon="10.136094">
    <ele>1544</ele>
    <time>2010-09-09T10:18:15Z</time>
    </trkpt>
    <trkpt lat="46.774852" lon="10.136008">
    <ele>1543</ele>
    <time>2010-09-09T10:18:16Z</time>
    </trkpt>
    <trkpt lat="46.774732" lon="10.135354">
    <ele>1538</ele>
    <time>2010-09-09T10:18:23Z</time>
    </trkpt>
    <trkpt lat="46.774531" lon="10.135008">
    <ele>1534</ele>
    <time>2010-09-09T10:18:27Z</time>
    </trkpt>
    <trkpt lat="46.774447" lon="10.13482">
    <ele>1532</ele>
    <time>2010-09-09T10:18:29Z</time>
    </trkpt>
    <trkpt lat="46.774419" lon="10.13446">
    <ele>1528</ele>
    <time>2010-09-09T10:18:33Z</time>
    </trkpt>
    <trkpt lat="46.774436" lon="10.134362">
    <ele>1528</ele>
    <time>2010-09-09T10:18:34Z</time>
    </trkpt>
    <trkpt lat="46.774458" lon="10.133848">
    <ele>1524</ele>
    <time>2010-09-09T10:18:39Z</time>
    </trkpt>
    <trkpt lat="46.774477" lon="10.133331">
    <ele>1520</ele>
    <time>2010-09-09T10:18:44Z</time>
    </trkpt>
    <trkpt lat="46.774331" lon="10.133041">
    <ele>1518</ele>
    <time>2010-09-09T10:18:47Z</time>
    </trkpt>
    <trkpt lat="46.774202" lon="10.132565">
    <ele>1513</ele>
    <time>2010-09-09T10:18:51Z</time>
    </trkpt>
    <trkpt lat="46.773995" lon="10.132136">
    <ele>1508</ele>
    <time>2010-09-09T10:18:55Z</time>
    </trkpt>
    <trkpt lat="46.7736" lon="10.131614">
    <ele>1502</ele>
    <time>2010-09-09T10:19:00Z</time>
    </trkpt>
    <trkpt lat="46.773452" lon="10.131425">
    <ele>1499</ele>
    <time>2010-09-09T10:19:02Z</time>
    </trkpt>
    <trkpt lat="46.773274" lon="10.131106">
    <ele>1495</ele>
    <time>2010-09-09T10:19:05Z</time>
    </trkpt>
    <trkpt lat="46.77303" lon="10.13075">
    <ele>1492</ele>
    <time>2010-09-09T10:19:09Z</time>
    </trkpt>
    <trkpt lat="46.772788" lon="10.130343">
    <ele>1485</ele>
    <time>2010-09-09T10:19:14Z</time>
    </trkpt>
    <trkpt lat="46.772768" lon="10.130225">
    <ele>1485</ele>
    <time>2010-09-09T10:19:15Z</time>
    </trkpt>
    <trkpt lat="46.77273" lon="10.129964">
    <ele>1483</ele>
    <time>2010-09-09T10:19:17Z</time>
    </trkpt>
    <trkpt lat="46.772626" lon="10.129577">
    <ele>1480</ele>
    <time>2010-09-09T10:19:20Z</time>
    </trkpt>
    <trkpt lat="46.772391" lon="10.129367">
    <ele>1475</ele>
    <time>2010-09-09T10:19:24Z</time>
    </trkpt>
    <trkpt lat="46.772061" lon="10.129093">
    <ele>1470</ele>
    <time>2010-09-09T10:19:30Z</time>
    </trkpt>
    <trkpt lat="46.772095" lon="10.128655">
    <ele>1466</ele>
    <time>2010-09-09T10:19:34Z</time>
    </trkpt>
    <trkpt lat="46.771996" lon="10.128385">
    <ele>1464</ele>
    <time>2010-09-09T10:19:37Z</time>
    </trkpt>
    <trkpt lat="46.771934" lon="10.128324">
    <ele>1464</ele>
    <time>2010-09-09T10:19:38Z</time>
    </trkpt>
    <trkpt lat="46.77174" lon="10.127994">
    <ele>1463</ele>
    <time>2010-09-09T10:19:43Z</time>
    </trkpt>
    <trkpt lat="46.771455" lon="10.127334">
    <ele>1463</ele>
    <time>2010-09-09T10:19:56Z</time>
    </trkpt>
    <trkpt lat="46.771255" lon="10.126393">
    <ele>1464</ele>
    <time>2010-09-09T10:20:14Z</time>
    </trkpt>
    <trkpt lat="46.771068" lon="10.12571">
    <ele>1465</ele>
    <time>2010-09-09T10:20:27Z</time>
    </trkpt>
    <trkpt lat="46.771062" lon="10.125293">
    <ele>1465</ele>
    <time>2010-09-09T10:20:35Z</time>
    </trkpt>
    <trkpt lat="46.771095" lon="10.12498">
    <ele>1465</ele>
    <time>2010-09-09T10:20:41Z</time>
    </trkpt>
    <trkpt lat="46.770896" lon="10.124371">
    <ele>1466</ele>
    <time>2010-09-09T10:20:51Z</time>
    </trkpt>
    <trkpt lat="46.771008" lon="10.123178">
    <ele>1466</ele>
    <time>2010-09-09T10:21:11Z</time>
    </trkpt>
    <trkpt lat="46.771039" lon="10.12243">
    <ele>1467</ele>
    <time>2010-09-09T10:21:24Z</time>
    </trkpt>
    <trkpt lat="46.771045" lon="10.122368">
    <ele>1467</ele>
    <time>2010-09-09T10:21:25Z</time>
    </trkpt>
    <trkpt lat="46.771049" lon="10.122304">
    <ele>1467</ele>
    <time>2010-09-09T10:21:26Z</time>
    </trkpt>
    <trkpt lat="46.771055" lon="10.122243">
    <ele>1467</ele>
    <time>2010-09-09T10:21:27Z</time>
    </trkpt>
    <trkpt lat="46.771064" lon="10.122183">
    <ele>1467</ele>
    <time>2010-09-09T10:21:28Z</time>
    </trkpt>
    <trkpt lat="46.771074" lon="10.122122">
    <ele>1468</ele>
    <time>2010-09-09T10:21:29Z</time>
    </trkpt>
    <trkpt lat="46.771105" lon="10.122012">
    <ele>1467</ele>
    <time>2010-09-09T10:21:31Z</time>
    </trkpt>
    <trkpt lat="46.771145" lon="10.121906">
    <ele>1468</ele>
    <time>2010-09-09T10:21:33Z</time>
    </trkpt>
    <trkpt lat="46.771313" lon="10.121324">
    <ele>1468</ele>
    <time>2010-09-09T10:21:46Z</time>
    </trkpt>
    <trkpt lat="46.771295" lon="10.121283">
    <ele>1468</ele>
    <time>2010-09-09T10:21:52Z</time>
    </trkpt>
    <trkpt lat="46.771296" lon="10.121271">
    <ele>1468</ele>
    <time>2010-09-09T10:21:53Z</time>
    </trkpt>
    <trkpt lat="46.771293" lon="10.121254">
    <ele>1468</ele>
    <time>2010-09-09T10:21:54Z</time>
    </trkpt>
    <trkpt lat="46.771291" lon="10.121234">
    <ele>1469</ele>
    <time>2010-09-09T10:21:55Z</time>
    </trkpt>
    <trkpt lat="46.771287" lon="10.121214">
    <ele>1468</ele>
    <time>2010-09-09T10:21:56Z</time>
    </trkpt>
    <trkpt lat="46.771281" lon="10.121192">
    <ele>1469</ele>
    <time>2010-09-09T10:21:57Z</time>
    </trkpt>
    <trkpt lat="46.771278" lon="10.121169">
    <ele>1468</ele>
    <time>2010-09-09T10:21:58Z</time>
    </trkpt>
    <trkpt lat="46.771278" lon="10.121147">
    <ele>1468</ele>
    <time>2010-09-09T10:21:59Z</time>
    </trkpt>
    <trkpt lat="46.771281" lon="10.121127">
    <ele>1469</ele>
    <time>2010-09-09T10:22:00Z</time>
    </trkpt>
    <trkpt lat="46.771281" lon="10.121109">
    <ele>1468</ele>
    <time>2010-09-09T10:22:01Z</time>
    </trkpt>
    <trkpt lat="46.771282" lon="10.12109">
    <ele>1468</ele>
    <time>2010-09-09T10:22:02Z</time>
    </trkpt>
    <trkpt lat="46.771283" lon="10.121074">
    <ele>1468</ele>
    <time>2010-09-09T10:22:03Z</time>
    </trkpt>
    <trkpt lat="46.771283" lon="10.121059">
    <ele>1469</ele>
    <time>2010-09-09T10:22:04Z</time>
    </trkpt>
    <trkpt lat="46.771288" lon="10.121047">
    <ele>1469</ele>
    <time>2010-09-09T10:22:05Z</time>
    </trkpt>
    <trkpt lat="46.771306" lon="10.120836">
    <ele>1469</ele>
    <time>2010-09-09T10:22:18Z</time>
    </trkpt>
    <trkpt lat="46.771306" lon="10.120836">
    <ele>1468</ele>
    <time>2010-09-09T10:22:36Z</time>
    </trkpt>
    <trkpt lat="46.771296" lon="10.120817">
    <ele>1468</ele>
    <time>2010-09-09T10:22:37Z</time>
    </trkpt>
    <trkpt lat="46.771292" lon="10.120792">
    <ele>1468</ele>
    <time>2010-09-09T10:22:38Z</time>
    </trkpt>
    <trkpt lat="46.771287" lon="10.120764">
    <ele>1469</ele>
    <time>2010-09-09T10:22:39Z</time>
    </trkpt>
    <trkpt lat="46.771281" lon="10.120729">
    <ele>1469</ele>
    <time>2010-09-09T10:22:40Z</time>
    </trkpt>
    <trkpt lat="46.771271" lon="10.120689">
    <ele>1468</ele>
    <time>2010-09-09T10:22:41Z</time>
    </trkpt>
    <trkpt lat="46.771258" lon="10.120649">
    <ele>1468</ele>
    <time>2010-09-09T10:22:42Z</time>
    </trkpt>
    <trkpt lat="46.771117" lon="10.120176">
    <ele>1469</ele>
    <time>2010-09-09T10:22:57Z</time>
    </trkpt>
    <trkpt lat="46.771094" lon="10.120049">
    <ele>1469</ele>
    <time>2010-09-09T10:23:10Z</time>
    </trkpt>
    <trkpt lat="46.771089" lon="10.11998">
    <ele>1469</ele>
    <time>2010-09-09T10:23:21Z</time>
    </trkpt>
    <trkpt lat="46.77108" lon="10.119877">
    <ele>1469</ele>
    <time>2010-09-09T10:23:33Z</time>
    </trkpt>
    <trkpt lat="46.771084" lon="10.119795">
    <ele>1469</ele>
    <time>2010-09-09T10:23:41Z</time>
    </trkpt>
    <trkpt lat="46.771064" lon="10.119738">
    <ele>1469</ele>
    <time>2010-09-09T10:23:52Z</time>
    </trkpt>
    <trkpt lat="46.771059" lon="10.119714">
    <ele>1469</ele>
    <time>2010-09-09T10:23:53Z</time>
    </trkpt>
    <trkpt lat="46.77105" lon="10.119686">
    <ele>1469</ele>
    <time>2010-09-09T10:23:54Z</time>
    </trkpt>
    <trkpt lat="46.771043" lon="10.119654">
    <ele>1469</ele>
    <time>2010-09-09T10:23:55Z</time>
    </trkpt>
    <trkpt lat="46.771039" lon="10.119622">
    <ele>1469</ele>
    <time>2010-09-09T10:23:56Z</time>
    </trkpt>
    <trkpt lat="46.771037" lon="10.119591">
    <ele>1469</ele>
    <time>2010-09-09T10:23:57Z</time>
    </trkpt>
    <trkpt lat="46.770973" lon="10.119081">
    <ele>1470</ele>
    <time>2010-09-09T10:24:11Z</time>
    </trkpt>
    <trkpt lat="46.770868" lon="10.11863">
    <ele>1469</ele>
    <time>2010-09-09T10:24:26Z</time>
    </trkpt>
    <trkpt lat="46.770865" lon="10.118606">
    <ele>1469</ele>
    <time>2010-09-09T10:24:33Z</time>
    </trkpt>
    <trkpt lat="46.770862" lon="10.11859">
    <ele>1469</ele>
    <time>2010-09-09T10:24:34Z</time>
    </trkpt>
    <trkpt lat="46.77086" lon="10.118575">
    <ele>1469</ele>
    <time>2010-09-09T10:24:35Z</time>
    </trkpt>
    <trkpt lat="46.770864" lon="10.118528">
    <ele>1469</ele>
    <time>2010-09-09T10:24:48Z</time>
    </trkpt>
    <trkpt lat="46.770879" lon="10.118366">
    <ele>1468</ele>
    <time>2010-09-09T10:25:02Z</time>
    </trkpt>
    <trkpt lat="46.770829" lon="10.117918">
    <ele>1465</ele>
    <time>2010-09-09T10:25:20Z</time>
    </trkpt>
    <trkpt lat="46.770756" lon="10.117282">
    <ele>1461</ele>
    <time>2010-09-09T10:25:31Z</time>
    </trkpt>
    <trkpt lat="46.770736" lon="10.117177">
    <ele>1462</ele>
    <time>2010-09-09T10:25:32Z</time>
    </trkpt>
    <trkpt lat="46.77071" lon="10.117072">
    <ele>1461</ele>
    <time>2010-09-09T10:25:33Z</time>
    </trkpt>
    <trkpt lat="46.770677" lon="10.116974">
    <ele>1460</ele>
    <time>2010-09-09T10:25:34Z</time>
    </trkpt>
    <trkpt lat="46.770639" lon="10.11688">
    <ele>1459</ele>
    <time>2010-09-09T10:25:35Z</time>
    </trkpt>
    <trkpt lat="46.770598" lon="10.116785">
    <ele>1458</ele>
    <time>2010-09-09T10:25:36Z</time>
    </trkpt>
    <trkpt lat="46.770504" lon="10.116586">
    <ele>1457</ele>
    <time>2010-09-09T10:25:38Z</time>
    </trkpt>
    <trkpt lat="46.770295" lon="10.11611">
    <ele>1454</ele>
    <time>2010-09-09T10:25:43Z</time>
    </trkpt>
    <trkpt lat="46.770186" lon="10.115695">
    <ele>1451</ele>
    <time>2010-09-09T10:25:47Z</time>
    </trkpt>
    <trkpt lat="46.77017" lon="10.1156">
    <ele>1450</ele>
    <time>2010-09-09T10:25:48Z</time>
    </trkpt>
    <trkpt lat="46.770165" lon="10.115506">
    <ele>1450</ele>
    <time>2010-09-09T10:25:49Z</time>
    </trkpt>
    <trkpt lat="46.77019" lon="10.114956">
    <ele>1446</ele>
    <time>2010-09-09T10:25:54Z</time>
    </trkpt>
    <trkpt lat="46.770213" lon="10.114848">
    <ele>1445</ele>
    <time>2010-09-09T10:25:55Z</time>
    </trkpt>
    <trkpt lat="46.77024" lon="10.114747">
    <ele>1445</ele>
    <time>2010-09-09T10:25:56Z</time>
    </trkpt>
    <trkpt lat="46.770276" lon="10.114654">
    <ele>1444</ele>
    <time>2010-09-09T10:25:57Z</time>
    </trkpt>
    <trkpt lat="46.770312" lon="10.114564">
    <ele>1443</ele>
    <time>2010-09-09T10:25:58Z</time>
    </trkpt>
    <trkpt lat="46.770335" lon="10.114471">
    <ele>1443</ele>
    <time>2010-09-09T10:25:59Z</time>
    </trkpt>
    <trkpt lat="46.770347" lon="10.114376">
    <ele>1442</ele>
    <time>2010-09-09T10:26:00Z</time>
    </trkpt>
    <trkpt lat="46.770343" lon="10.114277">
    <ele>1442</ele>
    <time>2010-09-09T10:26:01Z</time>
    </trkpt>
    <trkpt lat="46.770329" lon="10.114186">
    <ele>1441</ele>
    <time>2010-09-09T10:26:02Z</time>
    </trkpt>
    <trkpt lat="46.77031" lon="10.114105">
    <ele>1440</ele>
    <time>2010-09-09T10:26:03Z</time>
    </trkpt>
    <trkpt lat="46.770293" lon="10.114023">
    <ele>1440</ele>
    <time>2010-09-09T10:26:04Z</time>
    </trkpt>
    <trkpt lat="46.77027" lon="10.113946">
    <ele>1439</ele>
    <time>2010-09-09T10:26:05Z</time>
    </trkpt>
    <trkpt lat="46.770234" lon="10.113874">
    <ele>1439</ele>
    <time>2010-09-09T10:26:06Z</time>
    </trkpt>
    <trkpt lat="46.770107" lon="10.113618">
    <ele>1438</ele>
    <time>2010-09-09T10:26:09Z</time>
    </trkpt>
    <trkpt lat="46.76985" lon="10.112875">
    <ele>1435</ele>
    <time>2010-09-09T10:26:16Z</time>
    </trkpt>
    <trkpt lat="46.769394" lon="10.112066">
    <ele>1433</ele>
    <time>2010-09-09T10:26:24Z</time>
    </trkpt>
    <trkpt lat="46.769341" lon="10.111972">
    <ele>1433</ele>
    <time>2010-09-09T10:26:25Z</time>
    </trkpt>
    <trkpt lat="46.769282" lon="10.111883">
    <ele>1433</ele>
    <time>2010-09-09T10:26:26Z</time>
    </trkpt>
    <trkpt lat="46.769222" lon="10.111801">
    <ele>1433</ele>
    <time>2010-09-09T10:26:27Z</time>
    </trkpt>
    <trkpt lat="46.769159" lon="10.111731">
    <ele>1433</ele>
    <time>2010-09-09T10:26:28Z</time>
    </trkpt>
    <trkpt lat="46.769094" lon="10.111677">
    <ele>1433</ele>
    <time>2010-09-09T10:26:29Z</time>
    </trkpt>
    <trkpt lat="46.769029" lon="10.11164">
    <ele>1433</ele>
    <time>2010-09-09T10:26:30Z</time>
    </trkpt>
    <trkpt lat="46.768364" lon="10.11119">
    <ele>1432</ele>
    <time>2010-09-09T10:26:41Z</time>
    </trkpt>
    <trkpt lat="46.768316" lon="10.111153">
    <ele>1432</ele>
    <time>2010-09-09T10:26:42Z</time>
    </trkpt>
    <trkpt lat="46.76829" lon="10.111109">
    <ele>1432</ele>
    <time>2010-09-09T10:26:43Z</time>
    </trkpt>
    <trkpt lat="46.768015" lon="10.110728">
    <ele>1432</ele>
    <time>2010-09-09T10:26:51Z</time>
    </trkpt>
    <trkpt lat="46.767875" lon="10.110498">
    <ele>1431</ele>
    <time>2010-09-09T10:26:55Z</time>
    </trkpt>
    <trkpt lat="46.767679" lon="10.110243">
    <ele>1430</ele>
    <time>2010-09-09T10:26:59Z</time>
    </trkpt>
    <trkpt lat="46.767635" lon="10.110168">
    <ele>1429</ele>
    <time>2010-09-09T10:27:00Z</time>
    </trkpt>
    <trkpt lat="46.767596" lon="10.11008">
    <ele>1429</ele>
    <time>2010-09-09T10:27:01Z</time>
    </trkpt>
    <trkpt lat="46.767558" lon="10.109993">
    <ele>1428</ele>
    <time>2010-09-09T10:27:02Z</time>
    </trkpt>
    <trkpt lat="46.767506" lon="10.109913">
    <ele>1428</ele>
    <time>2010-09-09T10:27:03Z</time>
    </trkpt>
    <trkpt lat="46.767434" lon="10.109844">
    <ele>1428</ele>
    <time>2010-09-09T10:27:04Z</time>
    </trkpt>
    <trkpt lat="46.767361" lon="10.109778">
    <ele>1427</ele>
    <time>2010-09-09T10:27:05Z</time>
    </trkpt>
    <trkpt lat="46.767298" lon="10.109725">
    <ele>1427</ele>
    <time>2010-09-09T10:27:06Z</time>
    </trkpt>
    <trkpt lat="46.76724" lon="10.109688">
    <ele>1427</ele>
    <time>2010-09-09T10:27:07Z</time>
    </trkpt>
    <trkpt lat="46.767197" lon="10.109691">
    <ele>1426</ele>
    <time>2010-09-09T10:27:08Z</time>
    </trkpt>
    <trkpt lat="46.767156" lon="10.109727">
    <ele>1425</ele>
    <time>2010-09-09T10:27:09Z</time>
    </trkpt>
    <trkpt lat="46.767117" lon="10.109785">
    <ele>1425</ele>
    <time>2010-09-09T10:27:10Z</time>
    </trkpt>
    <trkpt lat="46.767081" lon="10.109855">
    <ele>1424</ele>
    <time>2010-09-09T10:27:11Z</time>
    </trkpt>
    <trkpt lat="46.767043" lon="10.109935">
    <ele>1424</ele>
    <time>2010-09-09T10:27:12Z</time>
    </trkpt>
    <trkpt lat="46.766973" lon="10.110117">
    <ele>1421</ele>
    <time>2010-09-09T10:27:14Z</time>
    </trkpt>
    <trkpt lat="46.766982" lon="10.110218">
    <ele>1420</ele>
    <time>2010-09-09T10:27:15Z</time>
    </trkpt>
    <trkpt lat="46.767018" lon="10.110308">
    <ele>1419</ele>
    <time>2010-09-09T10:27:16Z</time>
    </trkpt>
    <trkpt lat="46.767065" lon="10.110384">
    <ele>1418</ele>
    <time>2010-09-09T10:27:17Z</time>
    </trkpt>
    <trkpt lat="46.767171" lon="10.110537">
    <ele>1416</ele>
    <time>2010-09-09T10:27:19Z</time>
    </trkpt>
    <trkpt lat="46.767203" lon="10.110634">
    <ele>1415</ele>
    <time>2010-09-09T10:27:20Z</time>
    </trkpt>
    <trkpt lat="46.767222" lon="10.11075">
    <ele>1414</ele>
    <time>2010-09-09T10:27:21Z</time>
    </trkpt>
    <trkpt lat="46.767233" lon="10.110876">
    <ele>1414</ele>
    <time>2010-09-09T10:27:22Z</time>
    </trkpt>
    <trkpt lat="46.76724" lon="10.11101">
    <ele>1413</ele>
    <time>2010-09-09T10:27:23Z</time>
    </trkpt>
    <trkpt lat="46.767259" lon="10.111298">
    <ele>1409</ele>
    <time>2010-09-09T10:27:25Z</time>
    </trkpt>
    <trkpt lat="46.767267" lon="10.111446">
    <ele>1408</ele>
    <time>2010-09-09T10:27:26Z</time>
    </trkpt>
    <trkpt lat="46.767285" lon="10.111592">
    <ele>1407</ele>
    <time>2010-09-09T10:27:27Z</time>
    </trkpt>
    <trkpt lat="46.767407" lon="10.112138">
    <ele>1405</ele>
    <time>2010-09-09T10:27:31Z</time>
    </trkpt>
    <trkpt lat="46.767484" lon="10.112391">
    <ele>1404</ele>
    <time>2010-09-09T10:27:33Z</time>
    </trkpt>
    <trkpt lat="46.767524" lon="10.112519">
    <ele>1403</ele>
    <time>2010-09-09T10:27:34Z</time>
    </trkpt>
    <trkpt lat="46.767548" lon="10.11266">
    <ele>1401</ele>
    <time>2010-09-09T10:27:35Z</time>
    </trkpt>
    <trkpt lat="46.76756" lon="10.112807">
    <ele>1400</ele>
    <time>2010-09-09T10:27:36Z</time>
    </trkpt>
    <trkpt lat="46.767553" lon="10.112946">
    <ele>1400</ele>
    <time>2010-09-09T10:27:37Z</time>
    </trkpt>
    <trkpt lat="46.767523" lon="10.113061">
    <ele>1401</ele>
    <time>2010-09-09T10:27:38Z</time>
    </trkpt>
    <trkpt lat="46.767481" lon="10.113156">
    <ele>1401</ele>
    <time>2010-09-09T10:27:39Z</time>
    </trkpt>
    <trkpt lat="46.767439" lon="10.113237">
    <ele>1401</ele>
    <time>2010-09-09T10:27:40Z</time>
    </trkpt>
    <trkpt lat="46.767322" lon="10.113443">
    <ele>1401</ele>
    <time>2010-09-09T10:27:43Z</time>
    </trkpt>
    <trkpt lat="46.767292" lon="10.113507">
    <ele>1401</ele>
    <time>2010-09-09T10:27:44Z</time>
    </trkpt>
    <trkpt lat="46.76725" lon="10.113546">
    <ele>1401</ele>
    <time>2010-09-09T10:27:45Z</time>
    </trkpt>
    <trkpt lat="46.767196" lon="10.113539">
    <ele>1401</ele>
    <time>2010-09-09T10:27:46Z</time>
    </trkpt>
    <trkpt lat="46.767154" lon="10.11352">
    <ele>1401</ele>
    <time>2010-09-09T10:27:47Z</time>
    </trkpt>
    <trkpt lat="46.76712" lon="10.113499">
    <ele>1402</ele>
    <time>2010-09-09T10:27:48Z</time>
    </trkpt>
    <trkpt lat="46.767091" lon="10.113474">
    <ele>1402</ele>
    <time>2010-09-09T10:27:49Z</time>
    </trkpt>
    <trkpt lat="46.766799" lon="10.113143">
    <ele>1403</ele>
    <time>2010-09-09T10:28:02Z</time>
    </trkpt>
    <trkpt lat="46.766563" lon="10.112873">
    <ele>1404</ele>
    <time>2010-09-09T10:28:13Z</time>
    </trkpt>
    <trkpt lat="46.76622" lon="10.112703">
    <ele>1404</ele>
    <time>2010-09-09T10:28:23Z</time>
    </trkpt>
    <trkpt lat="46.765626" lon="10.112579">
    <ele>1404</ele>
    <time>2010-09-09T10:28:38Z</time>
    </trkpt>
    <trkpt lat="46.765" lon="10.112331">
    <ele>1404</ele>
    <time>2010-09-09T10:28:53Z</time>
    </trkpt>
    <trkpt lat="46.764571" lon="10.112093">
    <ele>1405</ele>
    <time>2010-09-09T10:29:04Z</time>
    </trkpt>
    <trkpt lat="46.764052" lon="10.111516">
    <ele>1406</ele>
    <time>2010-09-09T10:29:20Z</time>
    </trkpt>
    <trkpt lat="46.763505" lon="10.111064">
    <ele>1407</ele>
    <time>2010-09-09T10:29:36Z</time>
    </trkpt>
    <trkpt lat="46.763046" lon="10.110706">
    <ele>1409</ele>
    <time>2010-09-09T10:29:50Z</time>
    </trkpt>
    <trkpt lat="46.762743" lon="10.110333">
    <ele>1410</ele>
    <time>2010-09-09T10:30:01Z</time>
    </trkpt>
    <trkpt lat="46.76267" lon="10.110236">
    <ele>1405</ele>
    <time>2010-09-09T10:30:04Z</time>
    </trkpt>
    <trkpt lat="46.762634" lon="10.110195">
    <ele>1408</ele>
    <time>2010-09-09T10:30:05Z</time>
    </trkpt>
    <trkpt lat="46.762471" lon="10.109976">
    <ele>1411</ele>
    <time>2010-09-09T10:30:12Z</time>
    </trkpt>
    <trkpt lat="46.762397" lon="10.109887">
    <ele>1408</ele>
    <time>2010-09-09T10:30:14Z</time>
    </trkpt>
    <trkpt lat="46.76216" lon="10.109678">
    <ele>1408</ele>
    <time>2010-09-09T10:30:22Z</time>
    </trkpt>
    <trkpt lat="46.761886" lon="10.109641">
    <ele>1410</ele>
    <time>2010-09-09T10:30:29Z</time>
    </trkpt>
    <trkpt lat="46.761836" lon="10.109603">
    <ele>1409</ele>
    <time>2010-09-09T10:30:30Z</time>
    </trkpt>
    <trkpt lat="46.761741" lon="10.109501">
    <ele>1408</ele>
    <time>2010-09-09T10:30:32Z</time>
    </trkpt>
    <trkpt lat="46.761694" lon="10.109438">
    <ele>1408</ele>
    <time>2010-09-09T10:30:33Z</time>
    </trkpt>
    <trkpt lat="46.761636" lon="10.109294">
    <ele>1408</ele>
    <time>2010-09-09T10:30:35Z</time>
    </trkpt>
    <trkpt lat="46.761572" lon="10.109096">
    <ele>1408</ele>
    <time>2010-09-09T10:30:38Z</time>
    </trkpt>
    <trkpt lat="46.761543" lon="10.108589">
    <ele>1408</ele>
    <time>2010-09-09T10:30:45Z</time>
    </trkpt>
    <trkpt lat="46.761518" lon="10.108314">
    <ele>1408</ele>
    <time>2010-09-09T10:30:49Z</time>
    </trkpt>
    <trkpt lat="46.761453" lon="10.108044">
    <ele>1408</ele>
    <time>2010-09-09T10:30:53Z</time>
    </trkpt>
    <trkpt lat="46.761287" lon="10.107489">
    <ele>1408</ele>
    <time>2010-09-09T10:31:02Z</time>
    </trkpt>
    <trkpt lat="46.761239" lon="10.107184">
    <ele>1409</ele>
    <time>2010-09-09T10:31:07Z</time>
    </trkpt>
    <trkpt lat="46.761231" lon="10.106998">
    <ele>1409</ele>
    <time>2010-09-09T10:31:10Z</time>
    </trkpt>
    <trkpt lat="46.761282" lon="10.105878">
    <ele>1410</ele>
    <time>2010-09-09T10:31:27Z</time>
    </trkpt>
    <trkpt lat="46.761524" lon="10.104867">
    <ele>1412</ele>
    <time>2010-09-09T10:31:44Z</time>
    </trkpt>
    <trkpt lat="46.761773" lon="10.103942">
    <ele>1415</ele>
    <time>2010-09-09T10:32:02Z</time>
    </trkpt>
    <trkpt lat="46.761909" lon="10.103509">
    <ele>1415</ele>
    <time>2010-09-09T10:32:10Z</time>
    </trkpt>
    <trkpt lat="46.762054" lon="10.102513">
    <ele>1417</ele>
    <time>2010-09-09T10:32:27Z</time>
    </trkpt>
    <trkpt lat="46.762099" lon="10.101399">
    <ele>1418</ele>
    <time>2010-09-09T10:32:46Z</time>
    </trkpt>
    <trkpt lat="46.762102" lon="10.10134">
    <ele>1419</ele>
    <time>2010-09-09T10:32:47Z</time>
    </trkpt>
    <trkpt lat="46.762013" lon="10.100121">
    <ele>1420</ele>
    <time>2010-09-09T10:33:06Z</time>
    </trkpt>
    <trkpt lat="46.761879" lon="10.099282">
    <ele>1420</ele>
    <time>2010-09-09T10:33:19Z</time>
    </trkpt>
    <trkpt lat="46.761778" lon="10.098619">
    <ele>1421</ele>
    <time>2010-09-09T10:33:30Z</time>
    </trkpt>
    <trkpt lat="46.761705" lon="10.098262">
    <ele>1422</ele>
    <time>2010-09-09T10:33:36Z</time>
    </trkpt>
    <trkpt lat="46.761565" lon="10.097946">
    <ele>1422</ele>
    <time>2010-09-09T10:33:42Z</time>
    </trkpt>
    <trkpt lat="46.761441" lon="10.097659">
    <ele>1423</ele>
    <time>2010-09-09T10:33:48Z</time>
    </trkpt>
    <trkpt lat="46.761306" lon="10.097401">
    <ele>1423</ele>
    <time>2010-09-09T10:33:55Z</time>
    </trkpt>
    <trkpt lat="46.7611" lon="10.096924">
    <ele>1426</ele>
    <time>2010-09-09T10:34:08Z</time>
    </trkpt>
    <trkpt lat="46.760971" lon="10.096573">
    <ele>1429</ele>
    <time>2010-09-09T10:34:20Z</time>
    </trkpt>
    <trkpt lat="46.760886" lon="10.096266">
    <ele>1432</ele>
    <time>2010-09-09T10:34:31Z</time>
    </trkpt>
    <trkpt lat="46.760875" lon="10.096226">
    <ele>1431</ele>
    <time>2010-09-09T10:34:33Z</time>
    </trkpt>
    <trkpt lat="46.760869" lon="10.095901">
    <ele>1434</ele>
    <time>2010-09-09T10:34:46Z</time>
    </trkpt>
    <trkpt lat="46.760779" lon="10.095518">
    <ele>1436</ele>
    <time>2010-09-09T10:34:59Z</time>
    </trkpt>
    <trkpt lat="46.760742" lon="10.095453">
    <ele>1437</ele>
    <time>2010-09-09T10:35:02Z</time>
    </trkpt>
    <trkpt lat="46.760685" lon="10.095269">
    <ele>1438</ele>
    <time>2010-09-09T10:35:09Z</time>
    </trkpt>
    <trkpt lat="46.760633" lon="10.094927">
    <ele>1441</ele>
    <time>2010-09-09T10:35:24Z</time>
    </trkpt>
    <trkpt lat="46.760529" lon="10.094617">
    <ele>1442</ele>
    <time>2010-09-09T10:35:35Z</time>
    </trkpt>
    <trkpt lat="46.760474" lon="10.094496">
    <ele>1442</ele>
    <time>2010-09-09T10:35:39Z</time>
    </trkpt>
    <trkpt lat="46.760393" lon="10.094406">
    <ele>1442</ele>
    <time>2010-09-09T10:35:44Z</time>
    </trkpt>
    <trkpt lat="46.760344" lon="10.094297">
    <ele>1444</ele>
    <time>2010-09-09T10:35:51Z</time>
    </trkpt>
    <trkpt lat="46.760335" lon="10.094156">
    <ele>1444</ele>
    <time>2010-09-09T10:35:55Z</time>
    </trkpt>
    <trkpt lat="46.760195" lon="10.093837">
    <ele>1442</ele>
    <time>2010-09-09T10:36:00Z</time>
    </trkpt>
    <trkpt lat="46.760109" lon="10.093735">
    <ele>1442</ele>
    <time>2010-09-09T10:36:02Z</time>
    </trkpt>
    <trkpt lat="46.759916" lon="10.093567">
    <ele>1441</ele>
    <time>2010-09-09T10:36:06Z</time>
    </trkpt>
    <trkpt lat="46.75977" lon="10.093383">
    <ele>1441</ele>
    <time>2010-09-09T10:36:10Z</time>
    </trkpt>
    <trkpt lat="46.759687" lon="10.093223">
    <ele>1440</ele>
    <time>2010-09-09T10:36:12Z</time>
    </trkpt>
    <trkpt lat="46.759571" lon="10.092897">
    <ele>1439</ele>
    <time>2010-09-09T10:36:16Z</time>
    </trkpt>
    <trkpt lat="46.759456" lon="10.092731">
    <ele>1439</ele>
    <time>2010-09-09T10:36:19Z</time>
    </trkpt>
    <trkpt lat="46.759365" lon="10.092614">
    <ele>1439</ele>
    <time>2010-09-09T10:36:21Z</time>
    </trkpt>
    <trkpt lat="46.759265" lon="10.092511">
    <ele>1438</ele>
    <time>2010-09-09T10:36:23Z</time>
    </trkpt>
    <trkpt lat="46.759144" lon="10.092378">
    <ele>1438</ele>
    <time>2010-09-09T10:36:25Z</time>
    </trkpt>
    <trkpt lat="46.758877" lon="10.09201">
    <ele>1435</ele>
    <time>2010-09-09T10:36:29Z</time>
    </trkpt>
    <trkpt lat="46.758613" lon="10.091625">
    <ele>1433</ele>
    <time>2010-09-09T10:36:33Z</time>
    </trkpt>
    <trkpt lat="46.758115" lon="10.090886">
    <ele>1432</ele>
    <time>2010-09-09T10:36:42Z</time>
    </trkpt>
    <trkpt lat="46.75807" lon="10.0908">
    <ele>1432</ele>
    <time>2010-09-09T10:36:43Z</time>
    </trkpt>
    <trkpt lat="46.757954" lon="10.090625">
    <ele>1432</ele>
    <time>2010-09-09T10:36:46Z</time>
    </trkpt>
    <trkpt lat="46.757702" lon="10.09045">
    <ele>1431</ele>
    <time>2010-09-09T10:36:51Z</time>
    </trkpt>
    <trkpt lat="46.757408" lon="10.090445">
    <ele>1432</ele>
    <time>2010-09-09T10:36:57Z</time>
    </trkpt>
    <trkpt lat="46.757314" lon="10.090448">
    <ele>1432</ele>
    <time>2010-09-09T10:36:59Z</time>
    </trkpt>
    <trkpt lat="46.756965" lon="10.090289">
    <ele>1430</ele>
    <time>2010-09-09T10:37:05Z</time>
    </trkpt>
    <trkpt lat="46.756772" lon="10.090094">
    <ele>1428</ele>
    <time>2010-09-09T10:37:08Z</time>
    </trkpt>
    <trkpt lat="46.756637" lon="10.089954">
    <ele>1428</ele>
    <time>2010-09-09T10:37:10Z</time>
    </trkpt>
    <trkpt lat="46.756468" lon="10.089825">
    <ele>1427</ele>
    <time>2010-09-09T10:37:12Z</time>
    </trkpt>
    <trkpt lat="46.756287" lon="10.08973">
    <ele>1425</ele>
    <time>2010-09-09T10:37:14Z</time>
    </trkpt>
    <trkpt lat="46.755787" lon="10.089437">
    <ele>1423</ele>
    <time>2010-09-09T10:37:20Z</time>
    </trkpt>
    <trkpt lat="46.755596" lon="10.089136">
    <ele>1422</ele>
    <time>2010-09-09T10:37:24Z</time>
    </trkpt>
    <trkpt lat="46.755552" lon="10.088965">
    <ele>1422</ele>
    <time>2010-09-09T10:37:26Z</time>
    </trkpt>
    <trkpt lat="46.755192" lon="10.087699">
    <ele>1423</ele>
    <time>2010-09-09T10:37:43Z</time>
    </trkpt>
    <trkpt lat="46.754923" lon="10.086635">
    <ele>1424</ele>
    <time>2010-09-09T10:38:00Z</time>
    </trkpt>
    <trkpt lat="46.754779" lon="10.086139">
    <ele>1425</ele>
    <time>2010-09-09T10:38:08Z</time>
    </trkpt>
    <trkpt lat="46.754663" lon="10.085922">
    <ele>1425</ele>
    <time>2010-09-09T10:38:12Z</time>
    </trkpt>
    <trkpt lat="46.753967" lon="10.085054">
    <ele>1426</ele>
    <time>2010-09-09T10:38:32Z</time>
    </trkpt>
    <trkpt lat="46.753187" lon="10.084114">
    <ele>1429</ele>
    <time>2010-09-09T10:38:55Z</time>
    </trkpt>
    <trkpt lat="46.752785" lon="10.083623">
    <ele>1429</ele>
    <time>2010-09-09T10:39:07Z</time>
    </trkpt>
    <trkpt lat="46.752521" lon="10.083586">
    <ele>1430</ele>
    <time>2010-09-09T10:39:14Z</time>
    </trkpt>
    <trkpt lat="46.752091" lon="10.084018">
    <ele>1433</ele>
    <time>2010-09-09T10:39:30Z</time>
    </trkpt>
    <trkpt lat="46.75199" lon="10.084062">
    <ele>1432</ele>
    <time>2010-09-09T10:39:33Z</time>
    </trkpt>
    <trkpt lat="46.751926" lon="10.083737">
    <ele>1434</ele>
    <time>2010-09-09T10:39:41Z</time>
    </trkpt>
    <trkpt lat="46.751779" lon="10.083302">
    <ele>1434</ele>
    <time>2010-09-09T10:39:50Z</time>
    </trkpt>
    <trkpt lat="46.75175" lon="10.083261">
    <ele>1434</ele>
    <time>2010-09-09T10:39:51Z</time>
    </trkpt>
    <trkpt lat="46.751521" lon="10.082961">
    <ele>1434</ele>
    <time>2010-09-09T10:39:58Z</time>
    </trkpt>
    <trkpt lat="46.751393" lon="10.082804">
    <ele>1434</ele>
    <time>2010-09-09T10:40:02Z</time>
    </trkpt>
    <trkpt lat="46.751307" lon="10.082668">
    <ele>1434</ele>
    <time>2010-09-09T10:40:05Z</time>
    </trkpt>
    <trkpt lat="46.75128" lon="10.082621">
    <ele>1434</ele>
    <time>2010-09-09T10:40:06Z</time>
    </trkpt>
    <trkpt lat="46.751257" lon="10.082573">
    <ele>1434</ele>
    <time>2010-09-09T10:40:07Z</time>
    </trkpt>
    <trkpt lat="46.751233" lon="10.082527">
    <ele>1434</ele>
    <time>2010-09-09T10:40:08Z</time>
    </trkpt>
    <trkpt lat="46.751203" lon="10.082484">
    <ele>1434</ele>
    <time>2010-09-09T10:40:09Z</time>
    </trkpt>
    <trkpt lat="46.750789" lon="10.081956">
    <ele>1436</ele>
    <time>2010-09-09T10:40:23Z</time>
    </trkpt>
    <trkpt lat="46.750554" lon="10.081589">
    <ele>1435</ele>
    <time>2010-09-09T10:40:30Z</time>
    </trkpt>
    <trkpt lat="46.750509" lon="10.081538">
    <ele>1435</ele>
    <time>2010-09-09T10:40:31Z</time>
    </trkpt>
    <trkpt lat="46.750466" lon="10.081489">
    <ele>1435</ele>
    <time>2010-09-09T10:40:32Z</time>
    </trkpt>
    <trkpt lat="46.75043" lon="10.081431">
    <ele>1435</ele>
    <time>2010-09-09T10:40:33Z</time>
    </trkpt>
    <trkpt lat="46.750399" lon="10.081347">
    <ele>1435</ele>
    <time>2010-09-09T10:40:34Z</time>
    </trkpt>
    <trkpt lat="46.750366" lon="10.081258">
    <ele>1433</ele>
    <time>2010-09-09T10:40:35Z</time>
    </trkpt>
    <trkpt lat="46.75033" lon="10.081166">
    <ele>1433</ele>
    <time>2010-09-09T10:40:36Z</time>
    </trkpt>
    <trkpt lat="46.750318" lon="10.081073">
    <ele>1432</ele>
    <time>2010-09-09T10:40:37Z</time>
    </trkpt>
    <trkpt lat="46.750325" lon="10.080973">
    <ele>1432</ele>
    <time>2010-09-09T10:40:38Z</time>
    </trkpt>
    <trkpt lat="46.750335" lon="10.080874">
    <ele>1432</ele>
    <time>2010-09-09T10:40:39Z</time>
    </trkpt>
    <trkpt lat="46.750372" lon="10.080517">
    <ele>1432</ele>
    <time>2010-09-09T10:40:43Z</time>
    </trkpt>
    <trkpt lat="46.750385" lon="10.080443">
    <ele>1432</ele>
    <time>2010-09-09T10:40:44Z</time>
    </trkpt>
    <trkpt lat="46.75041" lon="10.080284">
    <ele>1431</ele>
    <time>2010-09-09T10:40:47Z</time>
    </trkpt>
    <trkpt lat="46.750409" lon="10.080119">
    <ele>1431</ele>
    <time>2010-09-09T10:40:52Z</time>
    </trkpt>
    <trkpt lat="46.750394" lon="10.080098">
    <ele>1431</ele>
    <time>2010-09-09T10:40:53Z</time>
    </trkpt>
    <trkpt lat="46.750381" lon="10.080081">
    <ele>1430</ele>
    <time>2010-09-09T10:40:54Z</time>
    </trkpt>
    <trkpt lat="46.750374" lon="10.080054">
    <ele>1431</ele>
    <time>2010-09-09T10:40:55Z</time>
    </trkpt>
    <trkpt lat="46.750365" lon="10.080028">
    <ele>1431</ele>
    <time>2010-09-09T10:40:56Z</time>
    </trkpt>
    <trkpt lat="46.750357" lon="10.080003">
    <ele>1431</ele>
    <time>2010-09-09T10:40:57Z</time>
    </trkpt>
    <trkpt lat="46.750348" lon="10.079981">
    <ele>1431</ele>
    <time>2010-09-09T10:40:58Z</time>
    </trkpt>
    <trkpt lat="46.75034" lon="10.079961">
    <ele>1431</ele>
    <time>2010-09-09T10:40:59Z</time>
    </trkpt>
    <trkpt lat="46.750333" lon="10.079944">
    <ele>1431</ele>
    <time>2010-09-09T10:41:00Z</time>
    </trkpt>
    <trkpt lat="46.750326" lon="10.079933">
    <ele>1432</ele>
    <time>2010-09-09T10:41:01Z</time>
    </trkpt>
    <trkpt lat="46.750316" lon="10.079922">
    <ele>1431</ele>
    <time>2010-09-09T10:41:02Z</time>
    </trkpt>
    <trkpt lat="46.750105" lon="10.079609">
    <ele>1433</ele>
    <time>2010-09-09T10:41:14Z</time>
    </trkpt>
    <trkpt lat="46.749884" lon="10.079399">
    <ele>1434</ele>
    <time>2010-09-09T10:41:25Z</time>
    </trkpt>
    <trkpt lat="46.749529" lon="10.079141">
    <ele>1435</ele>
    <time>2010-09-09T10:41:38Z</time>
    </trkpt>
    <trkpt lat="46.749087" lon="10.07905">
    <ele>1435</ele>
    <time>2010-09-09T10:41:51Z</time>
    </trkpt>
    <trkpt lat="46.749038" lon="10.079075">
    <ele>1435</ele>
    <time>2010-09-09T10:41:53Z</time>
    </trkpt>
    <trkpt lat="46.749024" lon="10.079111">
    <ele>1436</ele>
    <time>2010-09-09T10:41:54Z</time>
    </trkpt>
    <trkpt lat="46.749005" lon="10.07916">
    <ele>1436</ele>
    <time>2010-09-09T10:41:55Z</time>
    </trkpt>
    <trkpt lat="46.748887" lon="10.079441">
    <ele>1434</ele>
    <time>2010-09-09T10:41:59Z</time>
    </trkpt>
    <trkpt lat="46.748866" lon="10.079523">
    <ele>1435</ele>
    <time>2010-09-09T10:42:00Z</time>
    </trkpt>
    <trkpt lat="46.748705" lon="10.080184">
    <ele>1435</ele>
    <time>2010-09-09T10:42:10Z</time>
    </trkpt>
    <trkpt lat="46.748687" lon="10.080252">
    <ele>1435</ele>
    <time>2010-09-09T10:42:11Z</time>
    </trkpt>
    <trkpt lat="46.748665" lon="10.080309">
    <ele>1435</ele>
    <time>2010-09-09T10:42:12Z</time>
    </trkpt>
    <trkpt lat="46.748641" lon="10.080357">
    <ele>1435</ele>
    <time>2010-09-09T10:42:13Z</time>
    </trkpt>
    <trkpt lat="46.748612" lon="10.080401">
    <ele>1436</ele>
    <time>2010-09-09T10:42:14Z</time>
    </trkpt>
    <trkpt lat="46.74858" lon="10.080441">
    <ele>1436</ele>
    <time>2010-09-09T10:42:15Z</time>
    </trkpt>
    <trkpt lat="46.748554" lon="10.080478">
    <ele>1436</ele>
    <time>2010-09-09T10:42:16Z</time>
    </trkpt>
    <trkpt lat="46.748525" lon="10.080503">
    <ele>1436</ele>
    <time>2010-09-09T10:42:17Z</time>
    </trkpt>
    <trkpt lat="46.74849" lon="10.080525">
    <ele>1436</ele>
    <time>2010-09-09T10:42:18Z</time>
    </trkpt>
    <trkpt lat="46.748002" lon="10.080802">
    <ele>1438</ele>
    <time>2010-09-09T10:42:31Z</time>
    </trkpt>
    <trkpt lat="46.747461" lon="10.081162">
    <ele>1438</ele>
    <time>2010-09-09T10:42:45Z</time>
    </trkpt>
    <trkpt lat="46.746795" lon="10.081591">
    <ele>1437</ele>
    <time>2010-09-09T10:42:58Z</time>
    </trkpt>
    <trkpt lat="46.746627" lon="10.081704">
    <ele>1437</ele>
    <time>2010-09-09T10:43:01Z</time>
    </trkpt>
    <trkpt lat="46.746293" lon="10.082052">
    <ele>1436</ele>
    <time>2010-09-09T10:43:08Z</time>
    </trkpt>
    <trkpt lat="46.746211" lon="10.082166">
    <ele>1436</ele>
    <time>2010-09-09T10:43:10Z</time>
    </trkpt>
    <trkpt lat="46.745969" lon="10.08261">
    <ele>1437</ele>
    <time>2010-09-09T10:43:17Z</time>
    </trkpt>
    <trkpt lat="46.745943" lon="10.082674">
    <ele>1437</ele>
    <time>2010-09-09T10:43:18Z</time>
    </trkpt>
    <trkpt lat="46.745916" lon="10.082737">
    <ele>1437</ele>
    <time>2010-09-09T10:43:19Z</time>
    </trkpt>
    <trkpt lat="46.745614" lon="10.08325">
    <ele>1437</ele>
    <time>2010-09-09T10:43:28Z</time>
    </trkpt>
    <trkpt lat="46.745577" lon="10.083305">
    <ele>1437</ele>
    <time>2010-09-09T10:43:29Z</time>
    </trkpt>
    <trkpt lat="46.745534" lon="10.083361">
    <ele>1438</ele>
    <time>2010-09-09T10:43:30Z</time>
    </trkpt>
    <trkpt lat="46.744974" lon="10.084309">
    <ele>1437</ele>
    <time>2010-09-09T10:43:44Z</time>
    </trkpt>
    <trkpt lat="46.744475" lon="10.084973">
    <ele>1439</ele>
    <time>2010-09-09T10:43:57Z</time>
    </trkpt>
    <trkpt lat="46.74433" lon="10.085112">
    <ele>1440</ele>
    <time>2010-09-09T10:44:01Z</time>
    </trkpt>
    <trkpt lat="46.744294" lon="10.085135">
    <ele>1440</ele>
    <time>2010-09-09T10:44:02Z</time>
    </trkpt>
    <trkpt lat="46.744259" lon="10.085152">
    <ele>1440</ele>
    <time>2010-09-09T10:44:03Z</time>
    </trkpt>
    <trkpt lat="46.744222" lon="10.085165">
    <ele>1440</ele>
    <time>2010-09-09T10:44:04Z</time>
    </trkpt>
    <trkpt lat="46.744181" lon="10.085171">
    <ele>1440</ele>
    <time>2010-09-09T10:44:05Z</time>
    </trkpt>
    <trkpt lat="46.744139" lon="10.085175">
    <ele>1440</ele>
    <time>2010-09-09T10:44:06Z</time>
    </trkpt>
    <trkpt lat="46.744054" lon="10.085163">
    <ele>1441</ele>
    <time>2010-09-09T10:44:08Z</time>
    </trkpt>
    <trkpt lat="46.744009" lon="10.085145">
    <ele>1441</ele>
    <time>2010-09-09T10:44:09Z</time>
    </trkpt>
    <trkpt lat="46.74397" lon="10.085118">
    <ele>1441</ele>
    <time>2010-09-09T10:44:10Z</time>
    </trkpt>
    <trkpt lat="46.743932" lon="10.085087">
    <ele>1441</ele>
    <time>2010-09-09T10:44:11Z</time>
    </trkpt>
    <trkpt lat="46.743893" lon="10.08505">
    <ele>1441</ele>
    <time>2010-09-09T10:44:12Z</time>
    </trkpt>
    <trkpt lat="46.743856" lon="10.085009">
    <ele>1441</ele>
    <time>2010-09-09T10:44:13Z</time>
    </trkpt>
    <trkpt lat="46.743817" lon="10.084967">
    <ele>1441</ele>
    <time>2010-09-09T10:44:14Z</time>
    </trkpt>
    <trkpt lat="46.743182" lon="10.084216">
    <ele>1441</ele>
    <time>2010-09-09T10:44:30Z</time>
    </trkpt>
    <trkpt lat="46.74303" lon="10.084035">
    <ele>1441</ele>
    <time>2010-09-09T10:44:34Z</time>
    </trkpt>
    <trkpt lat="46.742831" lon="10.083855">
    <ele>1441</ele>
    <time>2010-09-09T10:44:39Z</time>
    </trkpt>
    <trkpt lat="46.742616" lon="10.083729">
    <ele>1441</ele>
    <time>2010-09-09T10:44:44Z</time>
    </trkpt>
    <trkpt lat="46.741948" lon="10.083617">
    <ele>1442</ele>
    <time>2010-09-09T10:44:59Z</time>
    </trkpt>
    <trkpt lat="46.741416" lon="10.083463">
    <ele>1443</ele>
    <time>2010-09-09T10:45:11Z</time>
    </trkpt>
    <trkpt lat="46.740938" lon="10.083332">
    <ele>1446</ele>
    <time>2010-09-09T10:45:24Z</time>
    </trkpt>
    <trkpt lat="46.740462" lon="10.083101">
    <ele>1449</ele>
    <time>2010-09-09T10:45:38Z</time>
    </trkpt>
    <trkpt lat="46.739961" lon="10.082733">
    <ele>1452</ele>
    <time>2010-09-09T10:45:54Z</time>
    </trkpt>
    <trkpt lat="46.739549" lon="10.082506">
    <ele>1453</ele>
    <time>2010-09-09T10:46:06Z</time>
    </trkpt>
    <trkpt lat="46.739002" lon="10.082172">
    <ele>1454</ele>
    <time>2010-09-09T10:46:20Z</time>
    </trkpt>
    <trkpt lat="46.738619" lon="10.081893">
    <ele>1454</ele>
    <time>2010-09-09T10:46:30Z</time>
    </trkpt>
    <trkpt lat="46.738148" lon="10.081621">
    <ele>1455</ele>
    <time>2010-09-09T10:46:42Z</time>
    </trkpt>
    <trkpt lat="46.738105" lon="10.081601">
    <ele>1455</ele>
    <time>2010-09-09T10:46:43Z</time>
    </trkpt>
    <trkpt lat="46.737534" lon="10.081375">
    <ele>1456</ele>
    <time>2010-09-09T10:46:57Z</time>
    </trkpt>
    <trkpt lat="46.737231" lon="10.081291">
    <ele>1456</ele>
    <time>2010-09-09T10:47:04Z</time>
    </trkpt>
    <trkpt lat="46.737188" lon="10.081264">
    <ele>1456</ele>
    <time>2010-09-09T10:47:05Z</time>
    </trkpt>
    <trkpt lat="46.737109" lon="10.0812">
    <ele>1456</ele>
    <time>2010-09-09T10:47:07Z</time>
    </trkpt>
    <trkpt lat="46.737" lon="10.081089">
    <ele>1456</ele>
    <time>2010-09-09T10:47:10Z</time>
    </trkpt>
    <trkpt lat="46.736819" lon="10.080924">
    <ele>1456</ele>
    <time>2010-09-09T10:47:15Z</time>
    </trkpt>
    <trkpt lat="46.736776" lon="10.080903">
    <ele>1456</ele>
    <time>2010-09-09T10:47:16Z</time>
    </trkpt>
    <trkpt lat="46.736731" lon="10.080887">
    <ele>1456</ele>
    <time>2010-09-09T10:47:17Z</time>
    </trkpt>
    <trkpt lat="46.736689" lon="10.080878">
    <ele>1457</ele>
    <time>2010-09-09T10:47:18Z</time>
    </trkpt>
    <trkpt lat="46.736644" lon="10.080872">
    <ele>1456</ele>
    <time>2010-09-09T10:47:19Z</time>
    </trkpt>
    <trkpt lat="46.736593" lon="10.080866">
    <ele>1456</ele>
    <time>2010-09-09T10:47:20Z</time>
    </trkpt>
    <trkpt lat="46.736549" lon="10.080867">
    <ele>1456</ele>
    <time>2010-09-09T10:47:21Z</time>
    </trkpt>
    <trkpt lat="46.73651" lon="10.080865">
    <ele>1456</ele>
    <time>2010-09-09T10:47:22Z</time>
    </trkpt>
    <trkpt lat="46.736471" lon="10.08086">
    <ele>1456</ele>
    <time>2010-09-09T10:47:23Z</time>
    </trkpt>
    <trkpt lat="46.736428" lon="10.080855">
    <ele>1456</ele>
    <time>2010-09-09T10:47:24Z</time>
    </trkpt>
    <trkpt lat="46.736384" lon="10.080851">
    <ele>1456</ele>
    <time>2010-09-09T10:47:25Z</time>
    </trkpt>
    <trkpt lat="46.736343" lon="10.080847">
    <ele>1457</ele>
    <time>2010-09-09T10:47:26Z</time>
    </trkpt>
    <trkpt lat="46.736301" lon="10.08084">
    <ele>1457</ele>
    <time>2010-09-09T10:47:27Z</time>
    </trkpt>
    <trkpt lat="46.735903" lon="10.080668">
    <ele>1457</ele>
    <time>2010-09-09T10:47:37Z</time>
    </trkpt>
    <trkpt lat="46.735444" lon="10.08046">
    <ele>1458</ele>
    <time>2010-09-09T10:47:48Z</time>
    </trkpt>
    <trkpt lat="46.735346" lon="10.080445">
    <ele>1458</ele>
    <time>2010-09-09T10:47:50Z</time>
    </trkpt>
    <trkpt lat="46.735298" lon="10.080444">
    <ele>1458</ele>
    <time>2010-09-09T10:47:51Z</time>
    </trkpt>
    <trkpt lat="46.735252" lon="10.080449">
    <ele>1458</ele>
    <time>2010-09-09T10:47:52Z</time>
    </trkpt>
    <trkpt lat="46.734407" lon="10.080654">
    <ele>1458</ele>
    <time>2010-09-09T10:48:09Z</time>
    </trkpt>
    <trkpt lat="46.733507" lon="10.080881">
    <ele>1458</ele>
    <time>2010-09-09T10:48:25Z</time>
    </trkpt>
    <trkpt lat="46.732497" lon="10.08112">
    <ele>1458</ele>
    <time>2010-09-09T10:48:43Z</time>
    </trkpt>
    <trkpt lat="46.731569" lon="10.081145">
    <ele>1457</ele>
    <time>2010-09-09T10:48:58Z</time>
    </trkpt>
    <trkpt lat="46.730671" lon="10.080852">
    <ele>1456</ele>
    <time>2010-09-09T10:49:12Z</time>
    </trkpt>
    <trkpt lat="46.730561" lon="10.080794">
    <ele>1456</ele>
    <time>2010-09-09T10:49:14Z</time>
    </trkpt>
    <trkpt lat="46.730516" lon="10.08081">
    <ele>1456</ele>
    <time>2010-09-09T10:49:15Z</time>
    </trkpt>
    <trkpt lat="46.730453" lon="10.081009">
    <ele>1456</ele>
    <time>2010-09-09T10:49:20Z</time>
    </trkpt>
    <trkpt lat="46.730398" lon="10.081407">
    <ele>1459</ele>
    <time>2010-09-09T10:49:32Z</time>
    </trkpt>
    <trkpt lat="46.73041" lon="10.081742">
    <ele>1462</ele>
    <time>2010-09-09T10:49:44Z</time>
    </trkpt>
    <trkpt lat="46.730391" lon="10.081795">
    <ele>1463</ele>
    <time>2010-09-09T10:49:46Z</time>
    </trkpt>
    <trkpt lat="46.730215" lon="10.081936">
    <ele>1464</ele>
    <time>2010-09-09T10:49:55Z</time>
    </trkpt>
    <trkpt lat="46.730088" lon="10.081823">
    <ele>1467</ele>
    <time>2010-09-09T10:50:05Z</time>
    </trkpt>
    <trkpt lat="46.729857" lon="10.081826">
    <ele>1467</ele>
    <time>2010-09-09T10:50:13Z</time>
    </trkpt>
    <trkpt lat="46.729702" lon="10.081795">
    <ele>1466</ele>
    <time>2010-09-09T10:50:17Z</time>
    </trkpt>
    <trkpt lat="46.729482" lon="10.081687">
    <ele>1465</ele>
    <time>2010-09-09T10:50:22Z</time>
    </trkpt>
    <trkpt lat="46.72919" lon="10.081601">
    <ele>1464</ele>
    <time>2010-09-09T10:50:28Z</time>
    </trkpt>
    <trkpt lat="46.728968" lon="10.081521">
    <ele>1463</ele>
    <time>2010-09-09T10:50:32Z</time>
    </trkpt>
    <trkpt lat="46.728543" lon="10.081286">
    <ele>1464</ele>
    <time>2010-09-09T10:50:40Z</time>
    </trkpt>
    <trkpt lat="46.728387" lon="10.081161">
    <ele>1464</ele>
    <time>2010-09-09T10:50:43Z</time>
    </trkpt>
    <trkpt lat="46.728232" lon="10.080986">
    <ele>1465</ele>
    <time>2010-09-09T10:50:47Z</time>
    </trkpt>
    <trkpt lat="46.728003" lon="10.080897">
    <ele>1463</ele>
    <time>2010-09-09T10:50:52Z</time>
    </trkpt>
    <trkpt lat="46.727577" lon="10.080744">
    <ele>1460</ele>
    <time>2010-09-09T10:50:58Z</time>
    </trkpt>
    <trkpt lat="46.727495" lon="10.080721">
    <ele>1460</ele>
    <time>2010-09-09T10:50:59Z</time>
    </trkpt>
    <trkpt lat="46.727335" lon="10.080696">
    <ele>1458</ele>
    <time>2010-09-09T10:51:01Z</time>
    </trkpt>
    <trkpt lat="46.727264" lon="10.080684">
    <ele>1458</ele>
    <time>2010-09-09T10:51:02Z</time>
    </trkpt>
    <trkpt lat="46.727064" lon="10.080609">
    <ele>1458</ele>
    <time>2010-09-09T10:51:05Z</time>
    </trkpt>
    <trkpt lat="46.726782" lon="10.080386">
    <ele>1457</ele>
    <time>2010-09-09T10:51:10Z</time>
    </trkpt>
    <trkpt lat="46.726713" lon="10.080363">
    <ele>1456</ele>
    <time>2010-09-09T10:51:11Z</time>
    </trkpt>
    <trkpt lat="46.726628" lon="10.080354">
    <ele>1455</ele>
    <time>2010-09-09T10:51:12Z</time>
    </trkpt>
    <trkpt lat="46.726532" lon="10.080356">
    <ele>1454</ele>
    <time>2010-09-09T10:51:13Z</time>
    </trkpt>
    <trkpt lat="46.726429" lon="10.08036">
    <ele>1453</ele>
    <time>2010-09-09T10:51:14Z</time>
    </trkpt>
    <trkpt lat="46.725792" lon="10.080514">
    <ele>1451</ele>
    <time>2010-09-09T10:51:21Z</time>
    </trkpt>
    <trkpt lat="46.725723" lon="10.080556">
    <ele>1451</ele>
    <time>2010-09-09T10:51:22Z</time>
    </trkpt>
    <trkpt lat="46.725655" lon="10.080585">
    <ele>1451</ele>
    <time>2010-09-09T10:51:23Z</time>
    </trkpt>
    <trkpt lat="46.725589" lon="10.080598">
    <ele>1450</ele>
    <time>2010-09-09T10:51:24Z</time>
    </trkpt>
    <trkpt lat="46.72553" lon="10.080617">
    <ele>1450</ele>
    <time>2010-09-09T10:51:25Z</time>
    </trkpt>
    <trkpt lat="46.725474" lon="10.080643">
    <ele>1451</ele>
    <time>2010-09-09T10:51:26Z</time>
    </trkpt>
    <trkpt lat="46.725374" lon="10.080695">
    <ele>1451</ele>
    <time>2010-09-09T10:51:28Z</time>
    </trkpt>
    <trkpt lat="46.724957" lon="10.080873">
    <ele>1452</ele>
    <time>2010-09-09T10:51:38Z</time>
    </trkpt>
    <trkpt lat="46.724674" lon="10.080909">
    <ele>1452</ele>
    <time>2010-09-09T10:51:46Z</time>
    </trkpt>
    <trkpt lat="46.72446" lon="10.080838">
    <ele>1452</ele>
    <time>2010-09-09T10:51:52Z</time>
    </trkpt>
    <trkpt lat="46.724377" lon="10.080781">
    <ele>1452</ele>
    <time>2010-09-09T10:51:55Z</time>
    </trkpt>
    <trkpt lat="46.724367" lon="10.080746">
    <ele>1452</ele>
    <time>2010-09-09T10:51:56Z</time>
    </trkpt>
    <trkpt lat="46.724354" lon="10.080713">
    <ele>1452</ele>
    <time>2010-09-09T10:51:57Z</time>
    </trkpt>
    <trkpt lat="46.724338" lon="10.080686">
    <ele>1453</ele>
    <time>2010-09-09T10:51:58Z</time>
    </trkpt>
    <trkpt lat="46.724316" lon="10.080652">
    <ele>1453</ele>
    <time>2010-09-09T10:51:59Z</time>
    </trkpt>
    <trkpt lat="46.723976" lon="10.080246">
    <ele>1454</ele>
    <time>2010-09-09T10:52:10Z</time>
    </trkpt>
    <trkpt lat="46.723829" lon="10.079745">
    <ele>1456</ele>
    <time>2010-09-09T10:52:22Z</time>
    </trkpt>
    <trkpt lat="46.723708" lon="10.07946">
    <ele>1456</ele>
    <time>2010-09-09T10:52:28Z</time>
    </trkpt>
    <trkpt lat="46.72369" lon="10.079396">
    <ele>1456</ele>
    <time>2010-09-09T10:52:29Z</time>
    </trkpt>
    <trkpt lat="46.723678" lon="10.079337">
    <ele>1456</ele>
    <time>2010-09-09T10:52:30Z</time>
    </trkpt>
    <trkpt lat="46.723663" lon="10.07928">
    <ele>1456</ele>
    <time>2010-09-09T10:52:31Z</time>
    </trkpt>
    <trkpt lat="46.723652" lon="10.079221">
    <ele>1456</ele>
    <time>2010-09-09T10:52:32Z</time>
    </trkpt>
    <trkpt lat="46.723597" lon="10.079012">
    <ele>1456</ele>
    <time>2010-09-09T10:52:36Z</time>
    </trkpt>
    <trkpt lat="46.723576" lon="10.07896">
    <ele>1456</ele>
    <time>2010-09-09T10:52:37Z</time>
    </trkpt>
    <trkpt lat="46.723555" lon="10.07891">
    <ele>1456</ele>
    <time>2010-09-09T10:52:38Z</time>
    </trkpt>
    <trkpt lat="46.723527" lon="10.078858">
    <ele>1456</ele>
    <time>2010-09-09T10:52:39Z</time>
    </trkpt>
    <trkpt lat="46.72349" lon="10.078802">
    <ele>1457</ele>
    <time>2010-09-09T10:52:40Z</time>
    </trkpt>
    <trkpt lat="46.72346" lon="10.078746">
    <ele>1457</ele>
    <time>2010-09-09T10:52:41Z</time>
    </trkpt>
    <trkpt lat="46.723428" lon="10.078589">
    <ele>1457</ele>
    <time>2010-09-09T10:52:44Z</time>
    </trkpt>
    <trkpt lat="46.723414" lon="10.078535">
    <ele>1457</ele>
    <time>2010-09-09T10:52:45Z</time>
    </trkpt>
    <trkpt lat="46.723396" lon="10.078483">
    <ele>1457</ele>
    <time>2010-09-09T10:52:46Z</time>
    </trkpt>
    <trkpt lat="46.723373" lon="10.078435">
    <ele>1457</ele>
    <time>2010-09-09T10:52:47Z</time>
    </trkpt>
    <trkpt lat="46.723343" lon="10.07839">
    <ele>1457</ele>
    <time>2010-09-09T10:52:48Z</time>
    </trkpt>
    <trkpt lat="46.723309" lon="10.078351">
    <ele>1457</ele>
    <time>2010-09-09T10:52:49Z</time>
    </trkpt>
    <trkpt lat="46.723271" lon="10.07832">
    <ele>1457</ele>
    <time>2010-09-09T10:52:50Z</time>
    </trkpt>
    <trkpt lat="46.723234" lon="10.07829">
    <ele>1457</ele>
    <time>2010-09-09T10:52:51Z</time>
    </trkpt>
    <trkpt lat="46.722967" lon="10.078044">
    <ele>1458</ele>
    <time>2010-09-09T10:53:01Z</time>
    </trkpt>
    <trkpt lat="46.722721" lon="10.077741">
    <ele>1455</ele>
    <time>2010-09-09T10:53:07Z</time>
    </trkpt>
    <trkpt lat="46.722678" lon="10.077689">
    <ele>1454</ele>
    <time>2010-09-09T10:53:08Z</time>
    </trkpt>
    <trkpt lat="46.72263" lon="10.077654">
    <ele>1453</ele>
    <time>2010-09-09T10:53:09Z</time>
    </trkpt>
    <trkpt lat="46.722586" lon="10.077636">
    <ele>1452</ele>
    <time>2010-09-09T10:53:10Z</time>
    </trkpt>
    <trkpt lat="46.722551" lon="10.077628">
    <ele>1452</ele>
    <time>2010-09-09T10:53:11Z</time>
    </trkpt>
    <trkpt lat="46.722515" lon="10.077618">
    <ele>1452</ele>
    <time>2010-09-09T10:53:12Z</time>
    </trkpt>
    <trkpt lat="46.722472" lon="10.077608">
    <ele>1451</ele>
    <time>2010-09-09T10:53:13Z</time>
    </trkpt>
    <trkpt lat="46.722422" lon="10.077607">
    <ele>1451</ele>
    <time>2010-09-09T10:53:14Z</time>
    </trkpt>
    <trkpt lat="46.722354" lon="10.077624">
    <ele>1451</ele>
    <time>2010-09-09T10:53:15Z</time>
    </trkpt>
    <trkpt lat="46.722297" lon="10.077653">
    <ele>1451</ele>
    <time>2010-09-09T10:53:16Z</time>
    </trkpt>
    <trkpt lat="46.722256" lon="10.077671">
    <ele>1451</ele>
    <time>2010-09-09T10:53:17Z</time>
    </trkpt>
    <trkpt lat="46.72217" lon="10.077684">
    <ele>1451</ele>
    <time>2010-09-09T10:53:19Z</time>
    </trkpt>
    <trkpt lat="46.722124" lon="10.077688">
    <ele>1451</ele>
    <time>2010-09-09T10:53:20Z</time>
    </trkpt>
    <trkpt lat="46.722071" lon="10.077686">
    <ele>1451</ele>
    <time>2010-09-09T10:53:21Z</time>
    </trkpt>
    <trkpt lat="46.721982" lon="10.077687">
    <ele>1452</ele>
    <time>2010-09-09T10:53:23Z</time>
    </trkpt>
    <trkpt lat="46.721841" lon="10.077581">
    <ele>1452</ele>
    <time>2010-09-09T10:53:31Z</time>
    </trkpt>
    <trkpt lat="46.721782" lon="10.077541">
    <ele>1452</ele>
    <time>2010-09-09T10:53:33Z</time>
    </trkpt>
    <trkpt lat="46.721761" lon="10.077523">
    <ele>1452</ele>
    <time>2010-09-09T10:53:34Z</time>
    </trkpt>
    <trkpt lat="46.721737" lon="10.077514">
    <ele>1452</ele>
    <time>2010-09-09T10:53:35Z</time>
    </trkpt>
    <trkpt lat="46.721687" lon="10.077499">
    <ele>1452</ele>
    <time>2010-09-09T10:53:36Z</time>
    </trkpt>
    <trkpt lat="46.721643" lon="10.077494">
    <ele>1452</ele>
    <time>2010-09-09T10:53:37Z</time>
    </trkpt>
    <trkpt lat="46.721592" lon="10.077497">
    <ele>1452</ele>
    <time>2010-09-09T10:53:38Z</time>
    </trkpt>
    <trkpt lat="46.721559" lon="10.077499">
    <ele>1453</ele>
    <time>2010-09-09T10:53:39Z</time>
    </trkpt>
    <trkpt lat="46.721422" lon="10.077502">
    <ele>1452</ele>
    <time>2010-09-09T10:53:42Z</time>
    </trkpt>
    <trkpt lat="46.720907" lon="10.077584">
    <ele>1454</ele>
    <time>2010-09-09T10:53:52Z</time>
    </trkpt>
    <trkpt lat="46.720373" lon="10.077768">
    <ele>1454</ele>
    <time>2010-09-09T10:54:01Z</time>
    </trkpt>
    <trkpt lat="46.72014" lon="10.078067">
    <ele>1456</ele>
    <time>2010-09-09T10:54:11Z</time>
    </trkpt>
    <trkpt lat="46.720129" lon="10.078085">
    <ele>1457</ele>
    <time>2010-09-09T10:54:12Z</time>
    </trkpt>
    <trkpt lat="46.72008" lon="10.078109">
    <ele>1456</ele>
    <time>2010-09-09T10:54:14Z</time>
    </trkpt>
    <trkpt lat="46.720039" lon="10.078113">
    <ele>1457</ele>
    <time>2010-09-09T10:54:15Z</time>
    </trkpt>
    <trkpt lat="46.720004" lon="10.07812">
    <ele>1457</ele>
    <time>2010-09-09T10:54:16Z</time>
    </trkpt>
    <trkpt lat="46.719969" lon="10.078138">
    <ele>1457</ele>
    <time>2010-09-09T10:54:17Z</time>
    </trkpt>
    <trkpt lat="46.719946" lon="10.07816">
    <ele>1457</ele>
    <time>2010-09-09T10:54:18Z</time>
    </trkpt>
    <trkpt lat="46.71992" lon="10.078176">
    <ele>1457</ele>
    <time>2010-09-09T10:54:19Z</time>
    </trkpt>
    <trkpt lat="46.719885" lon="10.078189">
    <ele>1457</ele>
    <time>2010-09-09T10:54:20Z</time>
    </trkpt>
    <trkpt lat="46.719845" lon="10.078198">
    <ele>1457</ele>
    <time>2010-09-09T10:54:21Z</time>
    </trkpt>
    <trkpt lat="46.71981" lon="10.078208">
    <ele>1457</ele>
    <time>2010-09-09T10:54:22Z</time>
    </trkpt>
    <trkpt lat="46.719381" lon="10.078387">
    <ele>1455</ele>
    <time>2010-09-09T10:54:29Z</time>
    </trkpt>
    <trkpt lat="46.719341" lon="10.078455">
    <ele>1455</ele>
    <time>2010-09-09T10:54:30Z</time>
    </trkpt>
    <trkpt lat="46.719255" lon="10.078577">
    <ele>1455</ele>
    <time>2010-09-09T10:54:32Z</time>
    </trkpt>
    <trkpt lat="46.719224" lon="10.078636">
    <ele>1455</ele>
    <time>2010-09-09T10:54:33Z</time>
    </trkpt>
    <trkpt lat="46.719158" lon="10.078751">
    <ele>1455</ele>
    <time>2010-09-09T10:54:35Z</time>
    </trkpt>
    <trkpt lat="46.71913" lon="10.078804">
    <ele>1455</ele>
    <time>2010-09-09T10:54:36Z</time>
    </trkpt>
    <trkpt lat="46.719093" lon="10.078855">
    <ele>1455</ele>
    <time>2010-09-09T10:54:37Z</time>
    </trkpt>
    <trkpt lat="46.719058" lon="10.078911">
    <ele>1455</ele>
    <time>2010-09-09T10:54:38Z</time>
    </trkpt>
    <trkpt lat="46.719027" lon="10.078961">
    <ele>1455</ele>
    <time>2010-09-09T10:54:39Z</time>
    </trkpt>
    <trkpt lat="46.718995" lon="10.079016">
    <ele>1455</ele>
    <time>2010-09-09T10:54:40Z</time>
    </trkpt>
    <trkpt lat="46.718961" lon="10.079075">
    <ele>1455</ele>
    <time>2010-09-09T10:54:41Z</time>
    </trkpt>
    <trkpt lat="46.718869" lon="10.07918">
    <ele>1455</ele>
    <time>2010-09-09T10:54:43Z</time>
    </trkpt>
    <trkpt lat="46.718772" lon="10.079361">
    <ele>1455</ele>
    <time>2010-09-09T10:54:46Z</time>
    </trkpt>
    <trkpt lat="46.718429" lon="10.080026">
    <ele>1454</ele>
    <time>2010-09-09T10:54:56Z</time>
    </trkpt>
    <trkpt lat="46.718342" lon="10.080222">
    <ele>1454</ele>
    <time>2010-09-09T10:54:59Z</time>
    </trkpt>
    <trkpt lat="46.718272" lon="10.080339">
    <ele>1454</ele>
    <time>2010-09-09T10:55:01Z</time>
    </trkpt>
    <trkpt lat="46.718152" lon="10.080751">
    <ele>1455</ele>
    <time>2010-09-09T10:55:07Z</time>
    </trkpt>
    <trkpt lat="46.718109" lon="10.08107">
    <ele>1455</ele>
    <time>2010-09-09T10:55:12Z</time>
    </trkpt>
    <trkpt lat="46.718094" lon="10.08168">
    <ele>1457</ele>
    <time>2010-09-09T10:55:22Z</time>
    </trkpt>
    <trkpt lat="46.717983" lon="10.082265">
    <ele>1458</ele>
    <time>2010-09-09T10:55:34Z</time>
    </trkpt>
    <trkpt lat="46.717955" lon="10.08242">
    <ele>1459</ele>
    <time>2010-09-09T10:55:38Z</time>
    </trkpt>
    <trkpt lat="46.717887" lon="10.082593">
    <ele>1459</ele>
    <time>2010-09-09T10:55:43Z</time>
    </trkpt>
    <trkpt lat="46.717547" lon="10.082749">
    <ele>1460</ele>
    <time>2010-09-09T10:55:55Z</time>
    </trkpt>
    <trkpt lat="46.717363" lon="10.082854">
    <ele>1461</ele>
    <time>2010-09-09T10:56:06Z</time>
    </trkpt>
    <trkpt lat="46.717313" lon="10.082947">
    <ele>1460</ele>
    <time>2010-09-09T10:56:12Z</time>
    </trkpt>
    <trkpt lat="46.71724" lon="10.083059">
    <ele>1460</ele>
    <time>2010-09-09T10:56:19Z</time>
    </trkpt>
    <trkpt lat="46.717145" lon="10.083288">
    <ele>1460</ele>
    <time>2010-09-09T10:56:31Z</time>
    </trkpt>
    <trkpt lat="46.717071" lon="10.083464">
    <ele>1460</ele>
    <time>2010-09-09T10:56:43Z</time>
    </trkpt>
    <trkpt lat="46.717055" lon="10.083493">
    <ele>1460</ele>
    <time>2010-09-09T10:56:45Z</time>
    </trkpt>
    <trkpt lat="46.71704" lon="10.08353">
    <ele>1461</ele>
    <time>2010-09-09T10:56:48Z</time>
    </trkpt>
    <trkpt lat="46.717019" lon="10.083663">
    <ele>1460</ele>
    <time>2010-09-09T10:56:56Z</time>
    </trkpt>
    <trkpt lat="46.716907" lon="10.083943">
    <ele>1460</ele>
    <time>2010-09-09T10:57:09Z</time>
    </trkpt>
    <trkpt lat="46.716582" lon="10.084523">
    <ele>1460</ele>
    <time>2010-09-09T10:57:25Z</time>
    </trkpt>
    <trkpt lat="46.716287" lon="10.085159">
    <ele>1459</ele>
    <time>2010-09-09T10:57:38Z</time>
    </trkpt>
    <trkpt lat="46.71615" lon="10.08549">
    <ele>1459</ele>
    <time>2010-09-09T10:57:44Z</time>
    </trkpt>
    <trkpt lat="46.716028" lon="10.08584">
    <ele>1459</ele>
    <time>2010-09-09T10:57:50Z</time>
    </trkpt>
    <trkpt lat="46.71596" lon="10.086073">
    <ele>1459</ele>
    <time>2010-09-09T10:57:54Z</time>
    </trkpt>
    <trkpt lat="46.715889" lon="10.086306">
    <ele>1459</ele>
    <time>2010-09-09T10:57:58Z</time>
    </trkpt>
    <trkpt lat="46.715826" lon="10.086471">
    <ele>1459</ele>
    <time>2010-09-09T10:58:01Z</time>
    </trkpt>
    <trkpt lat="46.715579" lon="10.087008">
    <ele>1459</ele>
    <time>2010-09-09T10:58:11Z</time>
    </trkpt>
    <trkpt lat="46.715558" lon="10.087072">
    <ele>1458</ele>
    <time>2010-09-09T10:58:12Z</time>
    </trkpt>
    <trkpt lat="46.715467" lon="10.087291">
    <ele>1459</ele>
    <time>2010-09-09T10:58:16Z</time>
    </trkpt>
    <trkpt lat="46.715232" lon="10.087737">
    <ele>1459</ele>
    <time>2010-09-09T10:58:25Z</time>
    </trkpt>
    <trkpt lat="46.715143" lon="10.087887">
    <ele>1461</ele>
    <time>2010-09-09T10:58:29Z</time>
    </trkpt>
    <trkpt lat="46.714957" lon="10.088104">
    <ele>1463</ele>
    <time>2010-09-09T10:58:38Z</time>
    </trkpt>
    <trkpt lat="46.714891" lon="10.088184">
    <ele>1463</ele>
    <time>2010-09-09T10:58:42Z</time>
    </trkpt>
    <trkpt lat="46.714687" lon="10.088393">
    <ele>1466</ele>
    <time>2010-09-09T10:58:54Z</time>
    </trkpt>
    <trkpt lat="46.714631" lon="10.088454">
    <ele>1467</ele>
    <time>2010-09-09T10:58:58Z</time>
    </trkpt>
    <trkpt lat="46.714536" lon="10.088594">
    <ele>1468</ele>
    <time>2010-09-09T10:59:04Z</time>
    </trkpt>
    <trkpt lat="46.71433" lon="10.088941">
    <ele>1470</ele>
    <time>2010-09-09T10:59:20Z</time>
    </trkpt>
    <trkpt lat="46.714097" lon="10.089233">
    <ele>1473</ele>
    <time>2010-09-09T10:59:35Z</time>
    </trkpt>
    <trkpt lat="46.714077" lon="10.089247">
    <ele>1473</ele>
    <time>2010-09-09T10:59:36Z</time>
    </trkpt>
    <trkpt lat="46.713751" lon="10.089476">
    <ele>1473</ele>
    <time>2010-09-09T10:59:48Z</time>
    </trkpt>
    <trkpt lat="46.713677" lon="10.089538">
    <ele>1473</ele>
    <time>2010-09-09T10:59:50Z</time>
    </trkpt>
    <trkpt lat="46.713584" lon="10.089672">
    <ele>1473</ele>
    <time>2010-09-09T10:59:53Z</time>
    </trkpt>
    <trkpt lat="46.713344" lon="10.089953">
    <ele>1472</ele>
    <time>2010-09-09T11:00:00Z</time>
    </trkpt>
    <trkpt lat="46.712746" lon="10.090262">
    <ele>1473</ele>
    <time>2010-09-09T11:00:14Z</time>
    </trkpt>
    <trkpt lat="46.712278" lon="10.090452">
    <ele>1474</ele>
    <time>2010-09-09T11:00:26Z</time>
    </trkpt>
    <trkpt lat="46.711638" lon="10.090497">
    <ele>1475</ele>
    <time>2010-09-09T11:00:41Z</time>
    </trkpt>
    <trkpt lat="46.711222" lon="10.090632">
    <ele>1476</ele>
    <time>2010-09-09T11:00:52Z</time>
    </trkpt>
    <trkpt lat="46.710741" lon="10.090777">
    <ele>1478</ele>
    <time>2010-09-09T11:01:07Z</time>
    </trkpt>
    <trkpt lat="46.71046" lon="10.090909">
    <ele>1481</ele>
    <time>2010-09-09T11:01:19Z</time>
    </trkpt>
    <trkpt lat="46.710156" lon="10.091097">
    <ele>1484</ele>
    <time>2010-09-09T11:01:32Z</time>
    </trkpt>
    <trkpt lat="46.709857" lon="10.091255">
    <ele>1486</ele>
    <time>2010-09-09T11:01:44Z</time>
    </trkpt>
    <trkpt lat="46.709502" lon="10.091295">
    <ele>1488</ele>
    <time>2010-09-09T11:01:56Z</time>
    </trkpt>
    <trkpt lat="46.709115" lon="10.091361">
    <ele>1489</ele>
    <time>2010-09-09T11:02:09Z</time>
    </trkpt>
    <trkpt lat="46.708791" lon="10.091448">
    <ele>1489</ele>
    <time>2010-09-09T11:02:18Z</time>
    </trkpt>
    <trkpt lat="46.70849" lon="10.091702">
    <ele>1491</ele>
    <time>2010-09-09T11:02:29Z</time>
    </trkpt>
    <trkpt lat="46.708272" lon="10.091971">
    <ele>1493</ele>
    <time>2010-09-09T11:02:39Z</time>
    </trkpt>
    <trkpt lat="46.707986" lon="10.092282">
    <ele>1495</ele>
    <time>2010-09-09T11:02:53Z</time>
    </trkpt>
    <trkpt lat="46.707658" lon="10.09259">
    <ele>1496</ele>
    <time>2010-09-09T11:03:07Z</time>
    </trkpt>
    <trkpt lat="46.707276" lon="10.092889">
    <ele>1497</ele>
    <time>2010-09-09T11:03:22Z</time>
    </trkpt>
    <trkpt lat="46.707051" lon="10.092954">
    <ele>1496</ele>
    <time>2010-09-09T11:03:33Z</time>
    </trkpt>
    <trkpt lat="46.706801" lon="10.093085">
    <ele>1495</ele>
    <time>2010-09-09T11:03:45Z</time>
    </trkpt>
    <trkpt lat="46.706579" lon="10.093361">
    <ele>1495</ele>
    <time>2010-09-09T11:04:01Z</time>
    </trkpt>
    <trkpt lat="46.706422" lon="10.093546">
    <ele>1495</ele>
    <time>2010-09-09T11:04:14Z</time>
    </trkpt>
    <trkpt lat="46.706232" lon="10.093707">
    <ele>1495</ele>
    <time>2010-09-09T11:04:25Z</time>
    </trkpt>
    <trkpt lat="46.706046" lon="10.094065">
    <ele>1494</ele>
    <time>2010-09-09T11:04:38Z</time>
    </trkpt>
    <trkpt lat="46.705724" lon="10.094721">
    <ele>1492</ele>
    <time>2010-09-09T11:04:51Z</time>
    </trkpt>
    <trkpt lat="46.705368" lon="10.095169">
    <ele>1492</ele>
    <time>2010-09-09T11:05:04Z</time>
    </trkpt>
    <trkpt lat="46.705028" lon="10.095288">
    <ele>1493</ele>
    <time>2010-09-09T11:05:15Z</time>
    </trkpt>
    <trkpt lat="46.704642" lon="10.095361">
    <ele>1495</ele>
    <time>2010-09-09T11:05:27Z</time>
    </trkpt>
    <trkpt lat="46.704155" lon="10.095457">
    <ele>1495</ele>
    <time>2010-09-09T11:05:41Z</time>
    </trkpt>
    <trkpt lat="46.703621" lon="10.09555">
    <ele>1495</ele>
    <time>2010-09-09T11:05:53Z</time>
    </trkpt>
    <trkpt lat="46.703134" lon="10.095663">
    <ele>1496</ele>
    <time>2010-09-09T11:06:06Z</time>
    </trkpt>
    <trkpt lat="46.702559" lon="10.09581">
    <ele>1498</ele>
    <time>2010-09-09T11:06:22Z</time>
    </trkpt>
    <trkpt lat="46.702078" lon="10.095968">
    <ele>1499</ele>
    <time>2010-09-09T11:06:36Z</time>
    </trkpt>
    <trkpt lat="46.701528" lon="10.09592">
    <ele>1497</ele>
    <time>2010-09-09T11:06:49Z</time>
    </trkpt>
    <trkpt lat="46.701397" lon="10.095877">
    <ele>1495</ele>
    <time>2010-09-09T11:06:51Z</time>
    </trkpt>
    <trkpt lat="46.701125" lon="10.095778">
    <ele>1493</ele>
    <time>2010-09-09T11:06:55Z</time>
    </trkpt>
    <trkpt lat="46.700938" lon="10.095734">
    <ele>1490</ele>
    <time>2010-09-09T11:06:58Z</time>
    </trkpt>
    <trkpt lat="46.700826" lon="10.09572">
    <ele>1489</ele>
    <time>2010-09-09T11:07:00Z</time>
    </trkpt>
    <trkpt lat="46.700775" lon="10.095698">
    <ele>1488</ele>
    <time>2010-09-09T11:07:01Z</time>
    </trkpt>
    <trkpt lat="46.700731" lon="10.095667">
    <ele>1487</ele>
    <time>2010-09-09T11:07:02Z</time>
    </trkpt>
    <trkpt lat="46.700694" lon="10.095618">
    <ele>1487</ele>
    <time>2010-09-09T11:07:03Z</time>
    </trkpt>
    <trkpt lat="46.700671" lon="10.095548">
    <ele>1487</ele>
    <time>2010-09-09T11:07:04Z</time>
    </trkpt>
    <trkpt lat="46.700661" lon="10.095463">
    <ele>1486</ele>
    <time>2010-09-09T11:07:05Z</time>
    </trkpt>
    <trkpt lat="46.700658" lon="10.095372">
    <ele>1485</ele>
    <time>2010-09-09T11:07:06Z</time>
    </trkpt>
    <trkpt lat="46.700659" lon="10.095285">
    <ele>1485</ele>
    <time>2010-09-09T11:07:07Z</time>
    </trkpt>
    <trkpt lat="46.700665" lon="10.095083">
    <ele>1483</ele>
    <time>2010-09-09T11:07:10Z</time>
    </trkpt>
    <trkpt lat="46.700654" lon="10.095002">
    <ele>1482</ele>
    <time>2010-09-09T11:07:13Z</time>
    </trkpt>
    <trkpt lat="46.70062" lon="10.095001">
    <ele>1482</ele>
    <time>2010-09-09T11:07:14Z</time>
    </trkpt>
    <trkpt lat="46.700573" lon="10.095014">
    <ele>1482</ele>
    <time>2010-09-09T11:07:15Z</time>
    </trkpt>
    <trkpt lat="46.700525" lon="10.095038">
    <ele>1482</ele>
    <time>2010-09-09T11:07:16Z</time>
    </trkpt>
    <trkpt lat="46.700474" lon="10.095064">
    <ele>1482</ele>
    <time>2010-09-09T11:07:17Z</time>
    </trkpt>
    <trkpt lat="46.700346" lon="10.095119">
    <ele>1481</ele>
    <time>2010-09-09T11:07:19Z</time>
    </trkpt>
    <trkpt lat="46.700244" lon="10.095152">
    <ele>1481</ele>
    <time>2010-09-09T11:07:21Z</time>
    </trkpt>
    <trkpt lat="46.700154" lon="10.09521">
    <ele>1480</ele>
    <time>2010-09-09T11:07:23Z</time>
    </trkpt>
    <trkpt lat="46.700103" lon="10.095226">
    <ele>1480</ele>
    <time>2010-09-09T11:07:24Z</time>
    </trkpt>
    <trkpt lat="46.700068" lon="10.095228">
    <ele>1480</ele>
    <time>2010-09-09T11:07:25Z</time>
    </trkpt>
    <trkpt lat="46.700035" lon="10.095217">
    <ele>1480</ele>
    <time>2010-09-09T11:07:26Z</time>
    </trkpt>
    <trkpt lat="46.699989" lon="10.095204">
    <ele>1479</ele>
    <time>2010-09-09T11:07:27Z</time>
    </trkpt>
    <trkpt lat="46.699964" lon="10.095186">
    <ele>1479</ele>
    <time>2010-09-09T11:07:28Z</time>
    </trkpt>
    <trkpt lat="46.699945" lon="10.095164">
    <ele>1479</ele>
    <time>2010-09-09T11:07:29Z</time>
    </trkpt>
    <trkpt lat="46.699929" lon="10.095135">
    <ele>1479</ele>
    <time>2010-09-09T11:07:30Z</time>
    </trkpt>
    <trkpt lat="46.699919" lon="10.095098">
    <ele>1479</ele>
    <time>2010-09-09T11:07:31Z</time>
    </trkpt>
    <trkpt lat="46.699917" lon="10.095067">
    <ele>1479</ele>
    <time>2010-09-09T11:07:32Z</time>
    </trkpt>
    <trkpt lat="46.699926" lon="10.095004">
    <ele>1479</ele>
    <time>2010-09-09T11:07:41Z</time>
    </trkpt>
    <trkpt lat="46.699931" lon="10.094988">
    <ele>1479</ele>
    <time>2010-09-09T11:07:52Z</time>
    </trkpt>
    <trkpt lat="46.69993" lon="10.094993">
    <ele>1479</ele>
    <time>2010-09-09T11:08:09Z</time>
    </trkpt>
    <trkpt lat="46.699927" lon="10.094994">
    <ele>1479</ele>
    <time>2010-09-09T11:08:25Z</time>
    </trkpt>
    <trkpt lat="46.699931" lon="10.094998">
    <ele>1478</ele>
    <time>2010-09-09T11:08:38Z</time>
    </trkpt>
    <trkpt lat="46.699929" lon="10.095008">
    <ele>1478</ele>
    <time>2010-09-09T11:08:57Z</time>
    </trkpt>
    <trkpt lat="46.699921" lon="10.094977">
    <ele>1480</ele>
    <time>2010-09-09T11:09:19Z</time>
    </trkpt>
    <trkpt lat="46.699913" lon="10.094993">
    <ele>1478</ele>
    <time>2010-09-09T11:09:28Z</time>
    </trkpt>
    <trkpt lat="46.699913" lon="10.094993">
    <ele>1474</ele>
    <time>2010-09-09T11:09:29Z</time>
    </trkpt>
    <trkpt lat="46.699913" lon="10.094993">
    <ele>1474</ele>
    <time>2010-09-09T12:04:56Z</time>
    </trkpt>
    <trkpt lat="46.699913" lon="10.094993">
    <ele>1476</ele>
    <time>2010-09-09T12:04:57Z</time>
    </trkpt>
    <trkpt lat="46.699835" lon="10.095156">
    <ele>1477</ele>
    <time>2010-09-09T12:05:03Z</time>
    </trkpt>
    <trkpt lat="46.69988" lon="10.09515">
    <ele>1476</ele>
    <time>2010-09-09T12:05:18Z</time>
    </trkpt>
    <trkpt lat="46.699924" lon="10.095113">
    <ele>1477</ele>
    <time>2010-09-09T12:05:23Z</time>
    </trkpt>
    <trkpt lat="46.699934" lon="10.095111">
    <ele>1477</ele>
    <time>2010-09-09T12:05:35Z</time>
    </trkpt>
    <trkpt lat="46.699941" lon="10.095098">
    <ele>1477</ele>
    <time>2010-09-09T12:05:58Z</time>
    </trkpt>
    <trkpt lat="46.699948" lon="10.095058">
    <ele>1476</ele>
    <time>2010-09-09T12:06:14Z</time>
    </trkpt>
    <trkpt lat="46.699969" lon="10.095049">
    <ele>1461</ele>
    <time>2010-09-09T12:06:57Z</time>
    </trkpt>
    <trkpt lat="46.699976" lon="10.095054">
    <ele>1478</ele>
    <time>2010-09-09T12:06:58Z</time>
    </trkpt>
    <trkpt lat="46.699982" lon="10.095058">
    <ele>1474</ele>
    <time>2010-09-09T12:07:10Z</time>
    </trkpt>
    <trkpt lat="46.699982" lon="10.095058">
    <ele>1477</ele>
    <time>2010-09-09T12:07:11Z</time>
    </trkpt>
    <trkpt lat="46.699983" lon="10.095056">
    <ele>1478</ele>
    <time>2010-09-09T12:07:41Z</time>
    </trkpt>
    <trkpt lat="46.699948" lon="10.095077">
    <ele>1477</ele>
    <time>2010-09-09T12:08:27Z</time>
    </trkpt>
    <trkpt lat="46.699981" lon="10.095054">
    <ele>1477</ele>
    <time>2010-09-09T12:08:56Z</time>
    </trkpt>
    <trkpt lat="46.700056" lon="10.095023">
    <ele>1478</ele>
    <time>2010-09-09T12:09:10Z</time>
    </trkpt>
    <trkpt lat="46.70002" lon="10.095057">
    <ele>1478</ele>
    <time>2010-09-09T12:09:39Z</time>
    </trkpt>
    <trkpt lat="46.699964" lon="10.095084">
    <ele>1478</ele>
    <time>2010-09-09T12:09:52Z</time>
    </trkpt>
    <trkpt lat="46.699957" lon="10.095068">
    <ele>1479</ele>
    <time>2010-09-09T12:10:52Z</time>
    </trkpt>
    <trkpt lat="46.699987" lon="10.095016">
    <ele>1478</ele>
    <time>2010-09-09T12:10:57Z</time>
    </trkpt>
    <trkpt lat="46.700008" lon="10.094968">
    <ele>1478</ele>
    <time>2010-09-09T12:11:11Z</time>
    </trkpt>
    <trkpt lat="46.69998" lon="10.095023">
    <ele>1478</ele>
    <time>2010-09-09T12:11:31Z</time>
    </trkpt>
    <trkpt lat="46.699968" lon="10.095034">
    <ele>1479</ele>
    <time>2010-09-09T12:12:09Z</time>
    </trkpt>
    <trkpt lat="46.699955" lon="10.095049">
    <ele>1479</ele>
    <time>2010-09-09T12:12:27Z</time>
    </trkpt>
    <trkpt lat="46.699954" lon="10.095057">
    <ele>1479</ele>
    <time>2010-09-09T12:13:58Z</time>
    </trkpt>
    <trkpt lat="46.699945" lon="10.095071">
    <ele>1479</ele>
    <time>2010-09-09T12:15:11Z</time>
    </trkpt>
    <trkpt lat="46.699943" lon="10.095195">
    <ele>1480</ele>
    <time>2010-09-09T12:15:19Z</time>
    </trkpt>
    <trkpt lat="46.699954" lon="10.095212">
    <ele>1480</ele>
    <time>2010-09-09T12:15:20Z</time>
    </trkpt>
    <trkpt lat="46.700231" lon="10.095122">
    <ele>1481</ele>
    <time>2010-09-09T12:15:32Z</time>
    </trkpt>
    <trkpt lat="46.700403" lon="10.094979">
    <ele>1482</ele>
    <time>2010-09-09T12:15:41Z</time>
    </trkpt>
    <trkpt lat="46.700436" lon="10.094942">
    <ele>1482</ele>
    <time>2010-09-09T12:15:45Z</time>
    </trkpt>
    <trkpt lat="46.700354" lon="10.094694">
    <ele>1482</ele>
    <time>2010-09-09T12:15:54Z</time>
    </trkpt>
    <trkpt lat="46.700026" lon="10.094214">
    <ele>1481</ele>
    <time>2010-09-09T12:16:06Z</time>
    </trkpt>
    <trkpt lat="46.699996" lon="10.094167">
    <ele>1481</ele>
    <time>2010-09-09T12:16:07Z</time>
    </trkpt>
    <trkpt lat="46.699943" lon="10.094052">
    <ele>1481</ele>
    <time>2010-09-09T12:16:09Z</time>
    </trkpt>
    <trkpt lat="46.699876" lon="10.093933">
    <ele>1480</ele>
    <time>2010-09-09T12:16:11Z</time>
    </trkpt>
    <trkpt lat="46.699845" lon="10.093875">
    <ele>1480</ele>
    <time>2010-09-09T12:16:12Z</time>
    </trkpt>
    <trkpt lat="46.699644" lon="10.093462">
    <ele>1479</ele>
    <time>2010-09-09T12:16:18Z</time>
    </trkpt>
    <trkpt lat="46.699536" lon="10.092949">
    <ele>1479</ele>
    <time>2010-09-09T12:16:24Z</time>
    </trkpt>
    <trkpt lat="46.699539" lon="10.092864">
    <ele>1479</ele>
    <time>2010-09-09T12:16:25Z</time>
    </trkpt>
    <trkpt lat="46.699598" lon="10.09233">
    <ele>1478</ele>
    <time>2010-09-09T12:16:32Z</time>
    </trkpt>
    <trkpt lat="46.699564" lon="10.091961">
    <ele>1478</ele>
    <time>2010-09-09T12:16:38Z</time>
    </trkpt>
    <trkpt lat="46.699547" lon="10.091907">
    <ele>1478</ele>
    <time>2010-09-09T12:16:39Z</time>
    </trkpt>
    <trkpt lat="46.699529" lon="10.091857">
    <ele>1478</ele>
    <time>2010-09-09T12:16:40Z</time>
    </trkpt>
    <trkpt lat="46.699506" lon="10.091814">
    <ele>1478</ele>
    <time>2010-09-09T12:16:41Z</time>
    </trkpt>
    <trkpt lat="46.699481" lon="10.091775">
    <ele>1479</ele>
    <time>2010-09-09T12:16:42Z</time>
    </trkpt>
    <trkpt lat="46.699459" lon="10.091741">
    <ele>1479</ele>
    <time>2010-09-09T12:16:43Z</time>
    </trkpt>
    <trkpt lat="46.699158" lon="10.091358">
    <ele>1480</ele>
    <time>2010-09-09T12:16:55Z</time>
    </trkpt>
    <trkpt lat="46.698812" lon="10.091108">
    <ele>1480</ele>
    <time>2010-09-09T12:17:05Z</time>
    </trkpt>
    <trkpt lat="46.698626" lon="10.091069">
    <ele>1481</ele>
    <time>2010-09-09T12:17:09Z</time>
    </trkpt>
    <trkpt lat="46.69815" lon="10.09101">
    <ele>1481</ele>
    <time>2010-09-09T12:17:21Z</time>
    </trkpt>
    <trkpt lat="46.698106" lon="10.09099">
    <ele>1481</ele>
    <time>2010-09-09T12:17:22Z</time>
    </trkpt>
    <trkpt lat="46.698068" lon="10.090977">
    <ele>1481</ele>
    <time>2010-09-09T12:17:23Z</time>
    </trkpt>
    <trkpt lat="46.69803" lon="10.090965">
    <ele>1481</ele>
    <time>2010-09-09T12:17:24Z</time>
    </trkpt>
    <trkpt lat="46.69799" lon="10.090952">
    <ele>1481</ele>
    <time>2010-09-09T12:17:25Z</time>
    </trkpt>
    <trkpt lat="46.697575" lon="10.090857">
    <ele>1481</ele>
    <time>2010-09-09T12:17:35Z</time>
    </trkpt>
    <trkpt lat="46.697538" lon="10.090837">
    <ele>1482</ele>
    <time>2010-09-09T12:17:36Z</time>
    </trkpt>
    <trkpt lat="46.696971" lon="10.09068">
    <ele>1482</ele>
    <time>2010-09-09T12:17:51Z</time>
    </trkpt>
    <trkpt lat="46.696378" lon="10.090545">
    <ele>1484</ele>
    <time>2010-09-09T12:18:07Z</time>
    </trkpt>
    <trkpt lat="46.695866" lon="10.090413">
    <ele>1485</ele>
    <time>2010-09-09T12:18:21Z</time>
    </trkpt>
    <trkpt lat="46.695434" lon="10.090246">
    <ele>1486</ele>
    <time>2010-09-09T12:18:33Z</time>
    </trkpt>
    <trkpt lat="46.695455" lon="10.090213">
    <ele>1486</ele>
    <time>2010-09-09T12:18:34Z</time>
    </trkpt>
    <trkpt lat="46.69549" lon="10.090191">
    <ele>1486</ele>
    <time>2010-09-09T12:18:35Z</time>
    </trkpt>
    <trkpt lat="46.695616" lon="10.090119">
    <ele>1486</ele>
    <time>2010-09-09T12:18:38Z</time>
    </trkpt>
    <trkpt lat="46.695658" lon="10.09008">
    <ele>1485</ele>
    <time>2010-09-09T12:18:39Z</time>
    </trkpt>
    <trkpt lat="46.695698" lon="10.090041">
    <ele>1485</ele>
    <time>2010-09-09T12:18:40Z</time>
    </trkpt>
    <trkpt lat="46.695745" lon="10.090015">
    <ele>1485</ele>
    <time>2010-09-09T12:18:41Z</time>
    </trkpt>
    <trkpt lat="46.695798" lon="10.089984">
    <ele>1485</ele>
    <time>2010-09-09T12:18:42Z</time>
    </trkpt>
    <trkpt lat="46.695851" lon="10.08995">
    <ele>1484</ele>
    <time>2010-09-09T12:18:43Z</time>
    </trkpt>
    <trkpt lat="46.695901" lon="10.089909">
    <ele>1484</ele>
    <time>2010-09-09T12:18:44Z</time>
    </trkpt>
    <trkpt lat="46.695941" lon="10.089858">
    <ele>1484</ele>
    <time>2010-09-09T12:18:45Z</time>
    </trkpt>
    <trkpt lat="46.695969" lon="10.089786">
    <ele>1483</ele>
    <time>2010-09-09T12:18:46Z</time>
    </trkpt>
    <trkpt lat="46.695985" lon="10.089697">
    <ele>1483</ele>
    <time>2010-09-09T12:18:47Z</time>
    </trkpt>
    <trkpt lat="46.695983" lon="10.089607">
    <ele>1483</ele>
    <time>2010-09-09T12:18:48Z</time>
    </trkpt>
    <trkpt lat="46.695971" lon="10.08952">
    <ele>1483</ele>
    <time>2010-09-09T12:18:49Z</time>
    </trkpt>
    <trkpt lat="46.695952" lon="10.08944">
    <ele>1483</ele>
    <time>2010-09-09T12:18:50Z</time>
    </trkpt>
    <trkpt lat="46.695788" lon="10.088833">
    <ele>1482</ele>
    <time>2010-09-09T12:18:59Z</time>
    </trkpt>
    <trkpt lat="46.695544" lon="10.087987">
    <ele>1483</ele>
    <time>2010-09-09T12:19:15Z</time>
    </trkpt>
    <trkpt lat="46.695363" lon="10.087251">
    <ele>1481</ele>
    <time>2010-09-09T12:19:26Z</time>
    </trkpt>
    <trkpt lat="46.695283" lon="10.086268">
    <ele>1481</ele>
    <time>2010-09-09T12:19:39Z</time>
    </trkpt>
    <trkpt lat="46.695271" lon="10.086198">
    <ele>1481</ele>
    <time>2010-09-09T12:19:40Z</time>
    </trkpt>
    <trkpt lat="46.695255" lon="10.086132">
    <ele>1481</ele>
    <time>2010-09-09T12:19:41Z</time>
    </trkpt>
    <trkpt lat="46.695231" lon="10.086072">
    <ele>1481</ele>
    <time>2010-09-09T12:19:42Z</time>
    </trkpt>
    <trkpt lat="46.6952" lon="10.086015">
    <ele>1481</ele>
    <time>2010-09-09T12:19:43Z</time>
    </trkpt>
    <trkpt lat="46.695166" lon="10.085965">
    <ele>1481</ele>
    <time>2010-09-09T12:19:44Z</time>
    </trkpt>
    <trkpt lat="46.695128" lon="10.085922">
    <ele>1481</ele>
    <time>2010-09-09T12:19:45Z</time>
    </trkpt>
    <trkpt lat="46.695086" lon="10.085889">
    <ele>1481</ele>
    <time>2010-09-09T12:19:46Z</time>
    </trkpt>
    <trkpt lat="46.69504" lon="10.085869">
    <ele>1481</ele>
    <time>2010-09-09T12:19:47Z</time>
    </trkpt>
    <trkpt lat="46.694994" lon="10.085856">
    <ele>1481</ele>
    <time>2010-09-09T12:19:48Z</time>
    </trkpt>
    <trkpt lat="46.694947" lon="10.085847">
    <ele>1481</ele>
    <time>2010-09-09T12:19:49Z</time>
    </trkpt>
    <trkpt lat="46.694899" lon="10.085846">
    <ele>1481</ele>
    <time>2010-09-09T12:19:50Z</time>
    </trkpt>
    <trkpt lat="46.694851" lon="10.085851">
    <ele>1481</ele>
    <time>2010-09-09T12:19:51Z</time>
    </trkpt>
    <trkpt lat="46.694237" lon="10.086099">
    <ele>1482</ele>
    <time>2010-09-09T12:20:05Z</time>
    </trkpt>
    <trkpt lat="46.693779" lon="10.086041">
    <ele>1483</ele>
    <time>2010-09-09T12:20:17Z</time>
    </trkpt>
    <trkpt lat="46.693318" lon="10.085881">
    <ele>1483</ele>
    <time>2010-09-09T12:20:30Z</time>
    </trkpt>
    <trkpt lat="46.69274" lon="10.085883">
    <ele>1485</ele>
    <time>2010-09-09T12:20:47Z</time>
    </trkpt>
    <trkpt lat="46.692309" lon="10.08577">
    <ele>1486</ele>
    <time>2010-09-09T12:21:00Z</time>
    </trkpt>
    <trkpt lat="46.691962" lon="10.085604">
    <ele>1487</ele>
    <time>2010-09-09T12:21:11Z</time>
    </trkpt>
    <trkpt lat="46.691653" lon="10.085417">
    <ele>1489</ele>
    <time>2010-09-09T12:21:23Z</time>
    </trkpt>
    <trkpt lat="46.691243" lon="10.085129">
    <ele>1490</ele>
    <time>2010-09-09T12:21:39Z</time>
    </trkpt>
    <trkpt lat="46.690808" lon="10.084744">
    <ele>1490</ele>
    <time>2010-09-09T12:21:54Z</time>
    </trkpt>
    <trkpt lat="46.690496" lon="10.084227">
    <ele>1492</ele>
    <time>2010-09-09T12:22:09Z</time>
    </trkpt>
    <trkpt lat="46.690334" lon="10.083806">
    <ele>1495</ele>
    <time>2010-09-09T12:22:24Z</time>
    </trkpt>
    <trkpt lat="46.690082" lon="10.083542">
    <ele>1496</ele>
    <time>2010-09-09T12:22:39Z</time>
    </trkpt>
    <trkpt lat="46.689753" lon="10.083315">
    <ele>1499</ele>
    <time>2010-09-09T12:22:55Z</time>
    </trkpt>
    <trkpt lat="46.689448" lon="10.082989">
    <ele>1503</ele>
    <time>2010-09-09T12:23:15Z</time>
    </trkpt>
    <trkpt lat="46.689264" lon="10.082788">
    <ele>1505</ele>
    <time>2010-09-09T12:23:27Z</time>
    </trkpt>
    <trkpt lat="46.689062" lon="10.082563">
    <ele>1507</ele>
    <time>2010-09-09T12:23:40Z</time>
    </trkpt>
    <trkpt lat="46.688827" lon="10.082408">
    <ele>1510</ele>
    <time>2010-09-09T12:23:53Z</time>
    </trkpt>
    <trkpt lat="46.688576" lon="10.082226">
    <ele>1511</ele>
    <time>2010-09-09T12:24:07Z</time>
    </trkpt>
    <trkpt lat="46.688321" lon="10.081944">
    <ele>1512</ele>
    <time>2010-09-09T12:24:18Z</time>
    </trkpt>
    <trkpt lat="46.687911" lon="10.081567">
    <ele>1512</ele>
    <time>2010-09-09T12:24:33Z</time>
    </trkpt>
    <trkpt lat="46.687661" lon="10.081157">
    <ele>1512</ele>
    <time>2010-09-09T12:24:45Z</time>
    </trkpt>
    <trkpt lat="46.687452" lon="10.080871">
    <ele>1512</ele>
    <time>2010-09-09T12:24:54Z</time>
    </trkpt>
    <trkpt lat="46.687263" lon="10.080509">
    <ele>1512</ele>
    <time>2010-09-09T12:25:04Z</time>
    </trkpt>
    <trkpt lat="46.687082" lon="10.080129">
    <ele>1512</ele>
    <time>2010-09-09T12:25:14Z</time>
    </trkpt>
    <trkpt lat="46.686749" lon="10.079798">
    <ele>1512</ele>
    <time>2010-09-09T12:25:24Z</time>
    </trkpt>
    <trkpt lat="46.686444" lon="10.079466">
    <ele>1514</ele>
    <time>2010-09-09T12:25:37Z</time>
    </trkpt>
    <trkpt lat="46.68617" lon="10.079235">
    <ele>1517</ele>
    <time>2010-09-09T12:25:51Z</time>
    </trkpt>
    <trkpt lat="46.68597" lon="10.078955">
    <ele>1520</ele>
    <time>2010-09-09T12:26:05Z</time>
    </trkpt>
    <trkpt lat="46.685809" lon="10.078664">
    <ele>1522</ele>
    <time>2010-09-09T12:26:18Z</time>
    </trkpt>
    <trkpt lat="46.685716" lon="10.078485">
    <ele>1524</ele>
    <time>2010-09-09T12:26:26Z</time>
    </trkpt>
    <trkpt lat="46.685499" lon="10.078176">
    <ele>1526</ele>
    <time>2010-09-09T12:26:42Z</time>
    </trkpt>
    <trkpt lat="46.685335" lon="10.077956">
    <ele>1528</ele>
    <time>2010-09-09T12:26:55Z</time>
    </trkpt>
    <trkpt lat="46.685142" lon="10.077699">
    <ele>1530</ele>
    <time>2010-09-09T12:27:09Z</time>
    </trkpt>
    <trkpt lat="46.684993" lon="10.07749">
    <ele>1533</ele>
    <time>2010-09-09T12:27:21Z</time>
    </trkpt>
    <trkpt lat="46.684807" lon="10.077178">
    <ele>1536</ele>
    <time>2010-09-09T12:27:37Z</time>
    </trkpt>
    <trkpt lat="46.684627" lon="10.076906">
    <ele>1539</ele>
    <time>2010-09-09T12:27:51Z</time>
    </trkpt>
    <trkpt lat="46.684584" lon="10.076827">
    <ele>1540</ele>
    <time>2010-09-09T12:27:55Z</time>
    </trkpt>
    <trkpt lat="46.684549" lon="10.076749">
    <ele>1540</ele>
    <time>2010-09-09T12:27:59Z</time>
    </trkpt>
    <trkpt lat="46.684512" lon="10.076675">
    <ele>1541</ele>
    <time>2010-09-09T12:28:03Z</time>
    </trkpt>
    <trkpt lat="46.684491" lon="10.076631">
    <ele>1541</ele>
    <time>2010-09-09T12:28:05Z</time>
    </trkpt>
    <trkpt lat="46.684401" lon="10.076495">
    <ele>1543</ele>
    <time>2010-09-09T12:28:12Z</time>
    </trkpt>
    <trkpt lat="46.684258" lon="10.076109">
    <ele>1545</ele>
    <time>2010-09-09T12:28:27Z</time>
    </trkpt>
    <trkpt lat="46.684234" lon="10.075753">
    <ele>1546</ele>
    <time>2010-09-09T12:28:39Z</time>
    </trkpt>
    <trkpt lat="46.684178" lon="10.075415">
    <ele>1547</ele>
    <time>2010-09-09T12:28:50Z</time>
    </trkpt>
    <trkpt lat="46.684043" lon="10.074929">
    <ele>1549</ele>
    <time>2010-09-09T12:29:06Z</time>
    </trkpt>
    <trkpt lat="46.683864" lon="10.074674">
    <ele>1552</ele>
    <time>2010-09-09T12:29:19Z</time>
    </trkpt>
    <trkpt lat="46.683806" lon="10.07458">
    <ele>1552</ele>
    <time>2010-09-09T12:29:24Z</time>
    </trkpt>
    <trkpt lat="46.683759" lon="10.074502">
    <ele>1553</ele>
    <time>2010-09-09T12:29:29Z</time>
    </trkpt>
    <trkpt lat="46.683509" lon="10.074298">
    <ele>1555</ele>
    <time>2010-09-09T12:29:42Z</time>
    </trkpt>
    <trkpt lat="46.683354" lon="10.074171">
    <ele>1555</ele>
    <time>2010-09-09T12:29:50Z</time>
    </trkpt>
    <trkpt lat="46.683293" lon="10.074077">
    <ele>1556</ele>
    <time>2010-09-09T12:29:55Z</time>
    </trkpt>
    <trkpt lat="46.68326" lon="10.074027">
    <ele>1556</ele>
    <time>2010-09-09T12:29:57Z</time>
    </trkpt>
    <trkpt lat="46.683083" lon="10.073608">
    <ele>1559</ele>
    <time>2010-09-09T12:30:12Z</time>
    </trkpt>
    <trkpt lat="46.682911" lon="10.07317">
    <ele>1559</ele>
    <time>2010-09-09T12:30:28Z</time>
    </trkpt>
    <trkpt lat="46.682757" lon="10.072787">
    <ele>1562</ele>
    <time>2010-09-09T12:30:42Z</time>
    </trkpt>
    <trkpt lat="46.682593" lon="10.072459">
    <ele>1565</ele>
    <time>2010-09-09T12:30:55Z</time>
    </trkpt>
    <trkpt lat="46.682502" lon="10.072027">
    <ele>1567</ele>
    <time>2010-09-09T12:31:11Z</time>
    </trkpt>
    <trkpt lat="46.682419" lon="10.071598">
    <ele>1570</ele>
    <time>2010-09-09T12:31:28Z</time>
    </trkpt>
    <trkpt lat="46.682302" lon="10.071156">
    <ele>1572</ele>
    <time>2010-09-09T12:31:46Z</time>
    </trkpt>
    <trkpt lat="46.682198" lon="10.070777">
    <ele>1574</ele>
    <time>2010-09-09T12:32:01Z</time>
    </trkpt>
    <trkpt lat="46.682074" lon="10.070394">
    <ele>1577</ele>
    <time>2010-09-09T12:32:18Z</time>
    </trkpt>
    <trkpt lat="46.681949" lon="10.070042">
    <ele>1579</ele>
    <time>2010-09-09T12:32:34Z</time>
    </trkpt>
    <trkpt lat="46.681802" lon="10.069701">
    <ele>1582</ele>
    <time>2010-09-09T12:32:49Z</time>
    </trkpt>
    <trkpt lat="46.681692" lon="10.069327">
    <ele>1584</ele>
    <time>2010-09-09T12:33:04Z</time>
    </trkpt>
    <trkpt lat="46.681534" lon="10.069051">
    <ele>1586</ele>
    <time>2010-09-09T12:33:17Z</time>
    </trkpt>
    <trkpt lat="46.681408" lon="10.068703">
    <ele>1589</ele>
    <time>2010-09-09T12:33:32Z</time>
    </trkpt>
    <trkpt lat="46.681401" lon="10.068679">
    <ele>1588</ele>
    <time>2010-09-09T12:33:33Z</time>
    </trkpt>
    <trkpt lat="46.681199" lon="10.06832">
    <ele>1591</ele>
    <time>2010-09-09T12:33:50Z</time>
    </trkpt>
    <trkpt lat="46.680991" lon="10.067954">
    <ele>1594</ele>
    <time>2010-09-09T12:34:08Z</time>
    </trkpt>
    <trkpt lat="46.680879" lon="10.067574">
    <ele>1595</ele>
    <time>2010-09-09T12:34:23Z</time>
    </trkpt>
    <trkpt lat="46.680831" lon="10.067361">
    <ele>1596</ele>
    <time>2010-09-09T12:34:31Z</time>
    </trkpt>
    <trkpt lat="46.68064" lon="10.067116">
    <ele>1597</ele>
    <time>2010-09-09T12:34:45Z</time>
    </trkpt>
    <trkpt lat="46.680421" lon="10.06693">
    <ele>1600</ele>
    <time>2010-09-09T12:34:59Z</time>
    </trkpt>
    <trkpt lat="46.680236" lon="10.066784">
    <ele>1602</ele>
    <time>2010-09-09T12:35:11Z</time>
    </trkpt>
    <trkpt lat="46.680075" lon="10.066516">
    <ele>1604</ele>
    <time>2010-09-09T12:35:24Z</time>
    </trkpt>
    <trkpt lat="46.679874" lon="10.0662">
    <ele>1606</ele>
    <time>2010-09-09T12:35:40Z</time>
    </trkpt>
    <trkpt lat="46.679741" lon="10.065842">
    <ele>1606</ele>
    <time>2010-09-09T12:35:52Z</time>
    </trkpt>
    <trkpt lat="46.679422" lon="10.065476">
    <ele>1608</ele>
    <time>2010-09-09T12:36:08Z</time>
    </trkpt>
    <trkpt lat="46.679094" lon="10.065198">
    <ele>1611</ele>
    <time>2010-09-09T12:36:26Z</time>
    </trkpt>
    <trkpt lat="46.678942" lon="10.064748">
    <ele>1613</ele>
    <time>2010-09-09T12:36:43Z</time>
    </trkpt>
    <trkpt lat="46.678911" lon="10.064261">
    <ele>1615</ele>
    <time>2010-09-09T12:36:59Z</time>
    </trkpt>
    <trkpt lat="46.678774" lon="10.06379">
    <ele>1617</ele>
    <time>2010-09-09T12:37:16Z</time>
    </trkpt>
    <trkpt lat="46.678568" lon="10.063338">
    <ele>1619</ele>
    <time>2010-09-09T12:37:34Z</time>
    </trkpt>
    <trkpt lat="46.678412" lon="10.062876">
    <ele>1620</ele>
    <time>2010-09-09T12:37:48Z</time>
    </trkpt>
    <trkpt lat="46.678194" lon="10.062365">
    <ele>1619</ele>
    <time>2010-09-09T12:38:00Z</time>
    </trkpt>
    <trkpt lat="46.677895" lon="10.061774">
    <ele>1619</ele>
    <time>2010-09-09T12:38:15Z</time>
    </trkpt>
    <trkpt lat="46.67775" lon="10.061571">
    <ele>1619</ele>
    <time>2010-09-09T12:38:28Z</time>
    </trkpt>
    <trkpt lat="46.67771" lon="10.061478">
    <ele>1618</ele>
    <time>2010-09-09T12:42:00Z</time>
    </trkpt>
    <trkpt lat="46.677477" lon="10.061022">
    <ele>1618</ele>
    <time>2010-09-09T12:42:14Z</time>
    </trkpt>
    <trkpt lat="46.677231" lon="10.060621">
    <ele>1617</ele>
    <time>2010-09-09T12:42:27Z</time>
    </trkpt>
    <trkpt lat="46.676974" lon="10.060022">
    <ele>1617</ele>
    <time>2010-09-09T12:42:41Z</time>
    </trkpt>
    <trkpt lat="46.676705" lon="10.059593">
    <ele>1617</ele>
    <time>2010-09-09T12:42:52Z</time>
    </trkpt>
    <trkpt lat="46.676266" lon="10.059175">
    <ele>1618</ele>
    <time>2010-09-09T12:43:07Z</time>
    </trkpt>
    <trkpt lat="46.67603" lon="10.058905">
    <ele>1620</ele>
    <time>2010-09-09T12:43:21Z</time>
    </trkpt>
    <trkpt lat="46.67581" lon="10.058526">
    <ele>1622</ele>
    <time>2010-09-09T12:43:37Z</time>
    </trkpt>
    <trkpt lat="46.675597" lon="10.058174">
    <ele>1624</ele>
    <time>2010-09-09T12:43:52Z</time>
    </trkpt>
    <trkpt lat="46.675323" lon="10.057898">
    <ele>1625</ele>
    <time>2010-09-09T12:44:05Z</time>
    </trkpt>
    <trkpt lat="46.675237" lon="10.057521">
    <ele>1626</ele>
    <time>2010-09-09T12:44:16Z</time>
    </trkpt>
    <trkpt lat="46.67552" lon="10.057236">
    <ele>1626</ele>
    <time>2010-09-09T12:44:26Z</time>
    </trkpt>
    <trkpt lat="46.675595" lon="10.056811">
    <ele>1627</ele>
    <time>2010-09-09T12:44:36Z</time>
    </trkpt>
    <trkpt lat="46.675529" lon="10.056643">
    <ele>1627</ele>
    <time>2010-09-09T12:44:40Z</time>
    </trkpt>
    <trkpt lat="46.675421" lon="10.056528">
    <ele>1625</ele>
    <time>2010-09-09T12:44:43Z</time>
    </trkpt>
    <trkpt lat="46.675103" lon="10.056422">
    <ele>1623</ele>
    <time>2010-09-09T12:44:48Z</time>
    </trkpt>
    <trkpt lat="46.675025" lon="10.056401">
    <ele>1623</ele>
    <time>2010-09-09T12:44:49Z</time>
    </trkpt>
    <trkpt lat="46.674686" lon="10.056337">
    <ele>1621</ele>
    <time>2010-09-09T12:44:53Z</time>
    </trkpt>
    <trkpt lat="46.674606" lon="10.05631">
    <ele>1620</ele>
    <time>2010-09-09T12:44:54Z</time>
    </trkpt>
    <trkpt lat="46.674386" lon="10.055987">
    <ele>1619</ele>
    <time>2010-09-09T12:44:59Z</time>
    </trkpt>
    <trkpt lat="46.674209" lon="10.055334">
    <ele>1618</ele>
    <time>2010-09-09T12:45:06Z</time>
    </trkpt>
    <trkpt lat="46.673931" lon="10.05491">
    <ele>1616</ele>
    <time>2010-09-09T12:45:12Z</time>
    </trkpt>
    <trkpt lat="46.673784" lon="10.054772">
    <ele>1617</ele>
    <time>2010-09-09T12:45:16Z</time>
    </trkpt>
    <trkpt lat="46.673383" lon="10.054107">
    <ele>1615</ele>
    <time>2010-09-09T12:45:30Z</time>
    </trkpt>
    <trkpt lat="46.673203" lon="10.053762">
    <ele>1614</ele>
    <time>2010-09-09T12:45:35Z</time>
    </trkpt>
    <trkpt lat="46.672732" lon="10.05324">
    <ele>1612</ele>
    <time>2010-09-09T12:45:44Z</time>
    </trkpt>
    <trkpt lat="46.672575" lon="10.053">
    <ele>1612</ele>
    <time>2010-09-09T12:45:48Z</time>
    </trkpt>
    <trkpt lat="46.672268" lon="10.052561">
    <ele>1613</ele>
    <time>2010-09-09T12:45:57Z</time>
    </trkpt>
    <trkpt lat="46.671963" lon="10.052065">
    <ele>1612</ele>
    <time>2010-09-09T12:46:06Z</time>
    </trkpt>
    <trkpt lat="46.671629" lon="10.051754">
    <ele>1610</ele>
    <time>2010-09-09T12:46:13Z</time>
    </trkpt>
    <trkpt lat="46.671412" lon="10.051557">
    <ele>1611</ele>
    <time>2010-09-09T12:46:18Z</time>
    </trkpt>
    <trkpt lat="46.671208" lon="10.051152">
    <ele>1610</ele>
    <time>2010-09-09T12:46:26Z</time>
    </trkpt>
    <trkpt lat="46.671053" lon="10.050828">
    <ele>1610</ele>
    <time>2010-09-09T12:46:32Z</time>
    </trkpt>
    <trkpt lat="46.670863" lon="10.050485">
    <ele>1610</ele>
    <time>2010-09-09T12:46:38Z</time>
    </trkpt>
    <trkpt lat="46.670501" lon="10.050128">
    <ele>1612</ele>
    <time>2010-09-09T12:46:50Z</time>
    </trkpt>
    <trkpt lat="46.670266" lon="10.049931">
    <ele>1613</ele>
    <time>2010-09-09T12:47:00Z</time>
    </trkpt>
    <trkpt lat="46.670247" lon="10.049902">
    <ele>1613</ele>
    <time>2010-09-09T12:47:01Z</time>
    </trkpt>
    <trkpt lat="46.67027" lon="10.049716">
    <ele>1615</ele>
    <time>2010-09-09T12:47:11Z</time>
    </trkpt>
    <trkpt lat="46.670335" lon="10.049691">
    <ele>1616</ele>
    <time>2010-09-09T12:47:16Z</time>
    </trkpt>
    <trkpt lat="46.670522" lon="10.049525">
    <ele>1619</ele>
    <time>2010-09-09T12:47:32Z</time>
    </trkpt>
    <trkpt lat="46.670716" lon="10.049355">
    <ele>1621</ele>
    <time>2010-09-09T12:47:48Z</time>
    </trkpt>
    <trkpt lat="46.670809" lon="10.049192">
    <ele>1624</ele>
    <time>2010-09-09T12:47:59Z</time>
    </trkpt>
    <trkpt lat="46.670638" lon="10.048919">
    <ele>1627</ele>
    <time>2010-09-09T12:48:17Z</time>
    </trkpt>
    <trkpt lat="46.670512" lon="10.048632">
    <ele>1630</ele>
    <time>2010-09-09T12:48:34Z</time>
    </trkpt>
    <trkpt lat="46.67036" lon="10.048426">
    <ele>1632</ele>
    <time>2010-09-09T12:48:49Z</time>
    </trkpt>
    <trkpt lat="46.670315" lon="10.04837">
    <ele>1633</ele>
    <time>2010-09-09T12:48:53Z</time>
    </trkpt>
    <trkpt lat="46.670197" lon="10.048121">
    <ele>1636</ele>
    <time>2010-09-09T12:49:09Z</time>
    </trkpt>
    <trkpt lat="46.670159" lon="10.048082">
    <ele>1637</ele>
    <time>2010-09-09T12:49:13Z</time>
    </trkpt>
    <trkpt lat="46.670148" lon="10.048052">
    <ele>1638</ele>
    <time>2010-09-09T12:49:15Z</time>
    </trkpt>
    <trkpt lat="46.670047" lon="10.047742">
    <ele>1641</ele>
    <time>2010-09-09T12:49:31Z</time>
    </trkpt>
    <trkpt lat="46.66995" lon="10.047499">
    <ele>1643</ele>
    <time>2010-09-09T12:49:45Z</time>
    </trkpt>
    <trkpt lat="46.66986" lon="10.047309">
    <ele>1645</ele>
    <time>2010-09-09T12:49:56Z</time>
    </trkpt>
    <trkpt lat="46.669799" lon="10.04722">
    <ele>1647</ele>
    <time>2010-09-09T12:50:03Z</time>
    </trkpt>
    <trkpt lat="46.669726" lon="10.047007">
    <ele>1649</ele>
    <time>2010-09-09T12:50:15Z</time>
    </trkpt>
    <trkpt lat="46.669528" lon="10.046848">
    <ele>1651</ele>
    <time>2010-09-09T12:50:29Z</time>
    </trkpt>
    <trkpt lat="46.669469" lon="10.046799">
    <ele>1652</ele>
    <time>2010-09-09T12:50:33Z</time>
    </trkpt>
    <trkpt lat="46.669436" lon="10.04675">
    <ele>1653</ele>
    <time>2010-09-09T12:50:37Z</time>
    </trkpt>
    <trkpt lat="46.669312" lon="10.046491">
    <ele>1656</ele>
    <time>2010-09-09T12:50:53Z</time>
    </trkpt>
    <trkpt lat="46.669293" lon="10.046454">
    <ele>1656</ele>
    <time>2010-09-09T12:50:55Z</time>
    </trkpt>
    <trkpt lat="46.669178" lon="10.046163">
    <ele>1659</ele>
    <time>2010-09-09T12:51:11Z</time>
    </trkpt>
    <trkpt lat="46.66908" lon="10.04584">
    <ele>1661</ele>
    <time>2010-09-09T12:51:28Z</time>
    </trkpt>
    <trkpt lat="46.668983" lon="10.045522">
    <ele>1664</ele>
    <time>2010-09-09T12:51:45Z</time>
    </trkpt>
    <trkpt lat="46.668886" lon="10.045255">
    <ele>1666</ele>
    <time>2010-09-09T12:51:59Z</time>
    </trkpt>
    <trkpt lat="46.668963" lon="10.044988">
    <ele>1669</ele>
    <time>2010-09-09T12:52:12Z</time>
    </trkpt>
    <trkpt lat="46.668936" lon="10.044818">
    <ele>1669</ele>
    <time>2010-09-09T12:52:20Z</time>
    </trkpt>
    <trkpt lat="46.668766" lon="10.044493">
    <ele>1671</ele>
    <time>2010-09-09T12:52:38Z</time>
    </trkpt>
    <trkpt lat="46.668622" lon="10.044241">
    <ele>1675</ele>
    <time>2010-09-09T12:52:54Z</time>
    </trkpt>
    <trkpt lat="46.668497" lon="10.043897">
    <ele>1678</ele>
    <time>2010-09-09T12:53:12Z</time>
    </trkpt>
    <trkpt lat="46.668405" lon="10.043597">
    <ele>1681</ele>
    <time>2010-09-09T12:53:28Z</time>
    </trkpt>
    <trkpt lat="46.668316" lon="10.0433">
    <ele>1683</ele>
    <time>2010-09-09T12:53:43Z</time>
    </trkpt>
    <trkpt lat="46.668237" lon="10.042943">
    <ele>1686</ele>
    <time>2010-09-09T12:54:01Z</time>
    </trkpt>
    <trkpt lat="46.668152" lon="10.042569">
    <ele>1690</ele>
    <time>2010-09-09T12:54:20Z</time>
    </trkpt>
    <trkpt lat="46.66807" lon="10.042286">
    <ele>1693</ele>
    <time>2010-09-09T12:54:36Z</time>
    </trkpt>
    <trkpt lat="46.667918" lon="10.042094">
    <ele>1694</ele>
    <time>2010-09-09T12:54:52Z</time>
    </trkpt>
    <trkpt lat="46.667918" lon="10.042081">
    <ele>1694</ele>
    <time>2010-09-09T12:55:06Z</time>
    </trkpt>
    <trkpt lat="46.667855" lon="10.041821">
    <ele>1696</ele>
    <time>2010-09-09T12:55:19Z</time>
    </trkpt>
    <trkpt lat="46.667798" lon="10.041619">
    <ele>1699</ele>
    <time>2010-09-09T12:55:31Z</time>
    </trkpt>
    <trkpt lat="46.667711" lon="10.04139">
    <ele>1701</ele>
    <time>2010-09-09T12:55:43Z</time>
    </trkpt>
    <trkpt lat="46.667643" lon="10.041085">
    <ele>1704</ele>
    <time>2010-09-09T12:55:58Z</time>
    </trkpt>
    <trkpt lat="46.667528" lon="10.040846">
    <ele>1706</ele>
    <time>2010-09-09T12:56:14Z</time>
    </trkpt>
    <trkpt lat="46.667423" lon="10.040605">
    <ele>1708</ele>
    <time>2010-09-09T12:56:29Z</time>
    </trkpt>
    <trkpt lat="46.667325" lon="10.040337">
    <ele>1711</ele>
    <time>2010-09-09T12:56:44Z</time>
    </trkpt>
    <trkpt lat="46.667218" lon="10.0401">
    <ele>1713</ele>
    <time>2010-09-09T12:56:59Z</time>
    </trkpt>
    <trkpt lat="46.667142" lon="10.039905">
    <ele>1716</ele>
    <time>2010-09-09T12:57:12Z</time>
    </trkpt>
    <trkpt lat="46.66701" lon="10.039695">
    <ele>1718</ele>
    <time>2010-09-09T12:57:25Z</time>
    </trkpt>
    <trkpt lat="46.666864" lon="10.039446">
    <ele>1721</ele>
    <time>2010-09-09T12:57:41Z</time>
    </trkpt>
    <trkpt lat="46.666715" lon="10.039166">
    <ele>1723</ele>
    <time>2010-09-09T12:57:58Z</time>
    </trkpt>
    <trkpt lat="46.666623" lon="10.039037">
    <ele>1724</ele>
    <time>2010-09-09T12:58:12Z</time>
    </trkpt>
    <trkpt lat="46.666613" lon="10.039031">
    <ele>1723</ele>
    <time>2010-09-09T12:58:28Z</time>
    </trkpt>
    <trkpt lat="46.666615" lon="10.039051">
    <ele>1724</ele>
    <time>2010-09-09T12:58:52Z</time>
    </trkpt>
    <trkpt lat="46.666615" lon="10.039059">
    <ele>1724</ele>
    <time>2010-09-09T12:59:12Z</time>
    </trkpt>
    <trkpt lat="46.6666" lon="10.039043">
    <ele>1724</ele>
    <time>2010-09-09T12:59:22Z</time>
    </trkpt>
    <trkpt lat="46.666603" lon="10.039056">
    <ele>1724</ele>
    <time>2010-09-09T12:59:38Z</time>
    </trkpt>
    <trkpt lat="46.66657" lon="10.03904">
    <ele>1723</ele>
    <time>2010-09-09T12:59:49Z</time>
    </trkpt>
    <trkpt lat="46.666564" lon="10.039035">
    <ele>1723</ele>
    <time>2010-09-09T13:00:02Z</time>
    </trkpt>
    <trkpt lat="46.666581" lon="10.039024">
    <ele>1723</ele>
    <time>2010-09-09T13:00:15Z</time>
    </trkpt>
    <trkpt lat="46.666589" lon="10.039035">
    <ele>1723</ele>
    <time>2010-09-09T13:00:38Z</time>
    </trkpt>
    <trkpt lat="46.6666" lon="10.039023">
    <ele>1724</ele>
    <time>2010-09-09T13:01:06Z</time>
    </trkpt>
    <trkpt lat="46.666617" lon="10.039017">
    <ele>1724</ele>
    <time>2010-09-09T13:01:42Z</time>
    </trkpt>
    <trkpt lat="46.66662" lon="10.039017">
    <ele>1724</ele>
    <time>2010-09-09T13:01:59Z</time>
    </trkpt>
    <trkpt lat="46.666624" lon="10.039019">
    <ele>1724</ele>
    <time>2010-09-09T13:02:37Z</time>
    </trkpt>
    <trkpt lat="46.666601" lon="10.039032">
    <ele>1724</ele>
    <time>2010-09-09T13:02:59Z</time>
    </trkpt>
    <trkpt lat="46.666601" lon="10.03903">
    <ele>1724</ele>
    <time>2010-09-09T13:03:27Z</time>
    </trkpt>
    <trkpt lat="46.666593" lon="10.03904">
    <ele>1724</ele>
    <time>2010-09-09T13:03:37Z</time>
    </trkpt>
    <trkpt lat="46.666594" lon="10.039048">
    <ele>1723</ele>
    <time>2010-09-09T13:04:02Z</time>
    </trkpt>
    <trkpt lat="46.666412" lon="10.038703">
    <ele>1722</ele>
    <time>2010-09-09T13:04:11Z</time>
    </trkpt>
    <trkpt lat="46.666378" lon="10.03864">
    <ele>1721</ele>
    <time>2010-09-09T13:04:12Z</time>
    </trkpt>
    <trkpt lat="46.666339" lon="10.038574">
    <ele>1721</ele>
    <time>2010-09-09T13:04:13Z</time>
    </trkpt>
    <trkpt lat="46.666119" lon="10.038372">
    <ele>1721</ele>
    <time>2010-09-09T13:04:17Z</time>
    </trkpt>
    <trkpt lat="46.665659" lon="10.03821">
    <ele>1718</ele>
    <time>2010-09-09T13:04:23Z</time>
    </trkpt>
    <trkpt lat="46.665303" lon="10.037979">
    <ele>1713</ele>
    <time>2010-09-09T13:04:28Z</time>
    </trkpt>
    <trkpt lat="46.665146" lon="10.03777">
    <ele>1710</ele>
    <time>2010-09-09T13:04:31Z</time>
    </trkpt>
    <trkpt lat="46.665066" lon="10.037588">
    <ele>1707</ele>
    <time>2010-09-09T13:04:33Z</time>
    </trkpt>
    <trkpt lat="46.664749" lon="10.037332">
    <ele>1704</ele>
    <time>2010-09-09T13:04:38Z</time>
    </trkpt>
    <trkpt lat="46.664393" lon="10.037175">
    <ele>1700</ele>
    <time>2010-09-09T13:04:43Z</time>
    </trkpt>
    <trkpt lat="46.664251" lon="10.037227">
    <ele>1698</ele>
    <time>2010-09-09T13:04:45Z</time>
    </trkpt>
    <trkpt lat="46.664082" lon="10.037117">
    <ele>1696</ele>
    <time>2010-09-09T13:04:49Z</time>
    </trkpt>
    <trkpt lat="46.66408" lon="10.037041">
    <ele>1696</ele>
    <time>2010-09-09T13:04:50Z</time>
    </trkpt>
    <trkpt lat="46.664058" lon="10.036814">
    <ele>1694</ele>
    <time>2010-09-09T13:04:53Z</time>
    </trkpt>
    <trkpt lat="46.663857" lon="10.036719">
    <ele>1694</ele>
    <time>2010-09-09T13:04:57Z</time>
    </trkpt>
    <trkpt lat="46.663738" lon="10.036769">
    <ele>1694</ele>
    <time>2010-09-09T13:04:59Z</time>
    </trkpt>
    <trkpt lat="46.663542" lon="10.036801">
    <ele>1693</ele>
    <time>2010-09-09T13:05:02Z</time>
    </trkpt>
    <trkpt lat="46.663341" lon="10.036779">
    <ele>1692</ele>
    <time>2010-09-09T13:05:05Z</time>
    </trkpt>
    <trkpt lat="46.663065" lon="10.036806">
    <ele>1690</ele>
    <time>2010-09-09T13:05:09Z</time>
    </trkpt>
    <trkpt lat="46.662947" lon="10.03676">
    <ele>1690</ele>
    <time>2010-09-09T13:05:11Z</time>
    </trkpt>
    <trkpt lat="46.662687" lon="10.036578">
    <ele>1688</ele>
    <time>2010-09-09T13:05:16Z</time>
    </trkpt>
    <trkpt lat="46.662553" lon="10.036535">
    <ele>1688</ele>
    <time>2010-09-09T13:05:18Z</time>
    </trkpt>
    <trkpt lat="46.66228" lon="10.036211">
    <ele>1686</ele>
    <time>2010-09-09T13:05:23Z</time>
    </trkpt>
    <trkpt lat="46.661884" lon="10.03553">
    <ele>1683</ele>
    <time>2010-09-09T13:05:31Z</time>
    </trkpt>
    <trkpt lat="46.661783" lon="10.035264">
    <ele>1681</ele>
    <time>2010-09-09T13:05:34Z</time>
    </trkpt>
    <trkpt lat="46.661598" lon="10.034832">
    <ele>1680</ele>
    <time>2010-09-09T13:05:40Z</time>
    </trkpt>
    <trkpt lat="46.661167" lon="10.03455">
    <ele>1678</ele>
    <time>2010-09-09T13:05:47Z</time>
    </trkpt>
    <trkpt lat="46.660252" lon="10.034248">
    <ele>1675</ele>
    <time>2010-09-09T13:05:59Z</time>
    </trkpt>
    <trkpt lat="46.660176" lon="10.034218">
    <ele>1675</ele>
    <time>2010-09-09T13:06:00Z</time>
    </trkpt>
    <trkpt lat="46.660033" lon="10.034138">
    <ele>1675</ele>
    <time>2010-09-09T13:06:02Z</time>
    </trkpt>
    <trkpt lat="46.659675" lon="10.034123">
    <ele>1673</ele>
    <time>2010-09-09T13:06:07Z</time>
    </trkpt>
    <trkpt lat="46.659079" lon="10.034315">
    <ele>1671</ele>
    <time>2010-09-09T13:06:15Z</time>
    </trkpt>
    <trkpt lat="46.658534" lon="10.034203">
    <ele>1669</ele>
    <time>2010-09-09T13:06:22Z</time>
    </trkpt>
    <trkpt lat="46.658357" lon="10.03421">
    <ele>1668</ele>
    <time>2010-09-09T13:06:24Z</time>
    </trkpt>
    <trkpt lat="46.6575" lon="10.033797">
    <ele>1664</ele>
    <time>2010-09-09T13:06:34Z</time>
    </trkpt>
    <trkpt lat="46.657412" lon="10.033741">
    <ele>1664</ele>
    <time>2010-09-09T13:06:35Z</time>
    </trkpt>
    <trkpt lat="46.656838" lon="10.033461">
    <ele>1662</ele>
    <time>2010-09-09T13:06:42Z</time>
    </trkpt>
    <trkpt lat="46.656498" lon="10.033357">
    <ele>1660</ele>
    <time>2010-09-09T13:06:46Z</time>
    </trkpt>
    <trkpt lat="46.656229" lon="10.033148">
    <ele>1657</ele>
    <time>2010-09-09T13:06:51Z</time>
    </trkpt>
    <trkpt lat="46.6562" lon="10.033031">
    <ele>1659</ele>
    <time>2010-09-09T13:06:54Z</time>
    </trkpt>
    <trkpt lat="46.656037" lon="10.033051">
    <ele>1660</ele>
    <time>2010-09-09T13:07:06Z</time>
    </trkpt>
    <trkpt lat="46.655777" lon="10.032912">
    <ele>1661</ele>
    <time>2010-09-09T13:07:22Z</time>
    </trkpt>
    <trkpt lat="46.655563" lon="10.032925">
    <ele>1661</ele>
    <time>2010-09-09T13:07:33Z</time>
    </trkpt>
    <trkpt lat="46.655381" lon="10.032829">
    <ele>1661</ele>
    <time>2010-09-09T13:07:42Z</time>
    </trkpt>
    <trkpt lat="46.655325" lon="10.032775">
    <ele>1660</ele>
    <time>2010-09-09T13:07:45Z</time>
    </trkpt>
    <trkpt lat="46.654989" lon="10.032474">
    <ele>1660</ele>
    <time>2010-09-09T13:08:00Z</time>
    </trkpt>
    <trkpt lat="46.654738" lon="10.032144">
    <ele>1660</ele>
    <time>2010-09-09T13:08:12Z</time>
    </trkpt>
    <trkpt lat="46.654514" lon="10.031743">
    <ele>1660</ele>
    <time>2010-09-09T13:08:23Z</time>
    </trkpt>
    <trkpt lat="46.654262" lon="10.031527">
    <ele>1661</ele>
    <time>2010-09-09T13:08:34Z</time>
    </trkpt>
    <trkpt lat="46.653995" lon="10.031345">
    <ele>1661</ele>
    <time>2010-09-09T13:08:48Z</time>
    </trkpt>
    <trkpt lat="46.653551" lon="10.031191">
    <ele>1662</ele>
    <time>2010-09-09T13:09:02Z</time>
    </trkpt>
    <trkpt lat="46.653272" lon="10.030658">
    <ele>1664</ele>
    <time>2010-09-09T13:09:17Z</time>
    </trkpt>
    <trkpt lat="46.652938" lon="10.030468">
    <ele>1665</ele>
    <time>2010-09-09T13:09:29Z</time>
    </trkpt>
    <trkpt lat="46.652771" lon="10.029967">
    <ele>1667</ele>
    <time>2010-09-09T13:09:41Z</time>
    </trkpt>
    <trkpt lat="46.652483" lon="10.029635">
    <ele>1669</ele>
    <time>2010-09-09T13:09:52Z</time>
    </trkpt>
    <trkpt lat="46.652144" lon="10.029531">
    <ele>1665</ele>
    <time>2010-09-09T13:09:58Z</time>
    </trkpt>
    <trkpt lat="46.651956" lon="10.029562">
    <ele>1662</ele>
    <time>2010-09-09T13:10:01Z</time>
    </trkpt>
    <trkpt lat="46.651875" lon="10.029658">
    <ele>1660</ele>
    <time>2010-09-09T13:10:04Z</time>
    </trkpt>
    <trkpt lat="46.65201" lon="10.029906">
    <ele>1657</ele>
    <time>2010-09-09T13:10:09Z</time>
    </trkpt>
    <trkpt lat="46.651918" lon="10.030008">
    <ele>1656</ele>
    <time>2010-09-09T13:10:11Z</time>
    </trkpt>
    <trkpt lat="46.651691" lon="10.030129">
    <ele>1652</ele>
    <time>2010-09-09T13:10:17Z</time>
    </trkpt>
    <trkpt lat="46.651659" lon="10.030102">
    <ele>1652</ele>
    <time>2010-09-09T13:10:18Z</time>
    </trkpt>
    <trkpt lat="46.651235" lon="10.029471">
    <ele>1652</ele>
    <time>2010-09-09T13:10:34Z</time>
    </trkpt>
    <trkpt lat="46.650822" lon="10.028744">
    <ele>1652</ele>
    <time>2010-09-09T13:10:50Z</time>
    </trkpt>
    <trkpt lat="46.650654" lon="10.028371">
    <ele>1655</ele>
    <time>2010-09-09T13:11:01Z</time>
    </trkpt>
    <trkpt lat="46.650306" lon="10.028095">
    <ele>1656</ele>
    <time>2010-09-09T13:11:15Z</time>
    </trkpt>
    <trkpt lat="46.650273" lon="10.028091">
    <ele>1656</ele>
    <time>2010-09-09T13:11:16Z</time>
    </trkpt>
    <trkpt lat="46.650143" lon="10.028143">
    <ele>1656</ele>
    <time>2010-09-09T13:11:19Z</time>
    </trkpt>
    <trkpt lat="46.650089" lon="10.02815">
    <ele>1654</ele>
    <time>2010-09-09T13:11:20Z</time>
    </trkpt>
    <trkpt lat="46.649949" lon="10.028139">
    <ele>1653</ele>
    <time>2010-09-09T13:11:22Z</time>
    </trkpt>
    <trkpt lat="46.649516" lon="10.028005">
    <ele>1652</ele>
    <time>2010-09-09T13:11:28Z</time>
    </trkpt>
    <trkpt lat="46.649453" lon="10.02795">
    <ele>1651</ele>
    <time>2010-09-09T13:11:29Z</time>
    </trkpt>
    <trkpt lat="46.649178" lon="10.027629">
    <ele>1648</ele>
    <time>2010-09-09T13:11:33Z</time>
    </trkpt>
    <trkpt lat="46.649042" lon="10.027474">
    <ele>1646</ele>
    <time>2010-09-09T13:11:35Z</time>
    </trkpt>
    <trkpt lat="46.648909" lon="10.027348">
    <ele>1645</ele>
    <time>2010-09-09T13:11:37Z</time>
    </trkpt>
    <trkpt lat="46.648862" lon="10.027276">
    <ele>1645</ele>
    <time>2010-09-09T13:11:38Z</time>
    </trkpt>
    <trkpt lat="46.648832" lon="10.027203">
    <ele>1646</ele>
    <time>2010-09-09T13:11:39Z</time>
    </trkpt>
    <trkpt lat="46.648809" lon="10.027138">
    <ele>1646</ele>
    <time>2010-09-09T13:11:40Z</time>
    </trkpt>
    <trkpt lat="46.648786" lon="10.027083">
    <ele>1646</ele>
    <time>2010-09-09T13:11:41Z</time>
    </trkpt>
    <trkpt lat="46.648758" lon="10.027036">
    <ele>1646</ele>
    <time>2010-09-09T13:11:42Z</time>
    </trkpt>
    <trkpt lat="46.648732" lon="10.026998">
    <ele>1647</ele>
    <time>2010-09-09T13:11:43Z</time>
    </trkpt>
    <trkpt lat="46.648541" lon="10.02649">
    <ele>1649</ele>
    <time>2010-09-09T13:11:55Z</time>
    </trkpt>
    <trkpt lat="46.648253" lon="10.026023">
    <ele>1651</ele>
    <time>2010-09-09T13:12:09Z</time>
    </trkpt>
    <trkpt lat="46.647838" lon="10.0257">
    <ele>1655</ele>
    <time>2010-09-09T13:12:27Z</time>
    </trkpt>
    <trkpt lat="46.64745" lon="10.025328">
    <ele>1657</ele>
    <time>2010-09-09T13:12:45Z</time>
    </trkpt>
    <trkpt lat="46.647151" lon="10.024878">
    <ele>1659</ele>
    <time>2010-09-09T13:13:01Z</time>
    </trkpt>
    <trkpt lat="46.646937" lon="10.024356">
    <ele>1662</ele>
    <time>2010-09-09T13:13:18Z</time>
    </trkpt>
    <trkpt lat="46.646748" lon="10.023958">
    <ele>1664</ele>
    <time>2010-09-09T13:13:32Z</time>
    </trkpt>
    <trkpt lat="46.646504" lon="10.023569">
    <ele>1666</ele>
    <time>2010-09-09T13:13:46Z</time>
    </trkpt>
    <trkpt lat="46.646125" lon="10.023208">
    <ele>1668</ele>
    <time>2010-09-09T13:14:03Z</time>
    </trkpt>
    <trkpt lat="46.645909" lon="10.022855">
    <ele>1671</ele>
    <time>2010-09-09T13:14:20Z</time>
    </trkpt>
    <trkpt lat="46.645771" lon="10.02259">
    <ele>1674</ele>
    <time>2010-09-09T13:14:34Z</time>
    </trkpt>
    <trkpt lat="46.645632" lon="10.022327">
    <ele>1677</ele>
    <time>2010-09-09T13:14:48Z</time>
    </trkpt>
    <trkpt lat="46.645456" lon="10.022063">
    <ele>1680</ele>
    <time>2010-09-09T13:15:04Z</time>
    </trkpt>
    <trkpt lat="46.645445" lon="10.022047">
    <ele>1680</ele>
    <time>2010-09-09T13:15:05Z</time>
    </trkpt>
    <trkpt lat="46.645193" lon="10.021938">
    <ele>1683</ele>
    <time>2010-09-09T13:15:23Z</time>
    </trkpt>
    <trkpt lat="46.644969" lon="10.022034">
    <ele>1687</ele>
    <time>2010-09-09T13:15:39Z</time>
    </trkpt>
    <trkpt lat="46.644919" lon="10.022007">
    <ele>1687</ele>
    <time>2010-09-09T13:15:42Z</time>
    </trkpt>
    <trkpt lat="46.644831" lon="10.021886">
    <ele>1689</ele>
    <time>2010-09-09T13:15:50Z</time>
    </trkpt>
    <trkpt lat="46.644733" lon="10.021507">
    <ele>1692</ele>
    <time>2010-09-09T13:16:09Z</time>
    </trkpt>
    <trkpt lat="46.644566" lon="10.021172">
    <ele>1694</ele>
    <time>2010-09-09T13:16:25Z</time>
    </trkpt>
    <trkpt lat="46.644384" lon="10.020875">
    <ele>1697</ele>
    <time>2010-09-09T13:16:41Z</time>
    </trkpt>
    <trkpt lat="46.644333" lon="10.020761">
    <ele>1697</ele>
    <time>2010-09-09T13:16:52Z</time>
    </trkpt>
    <trkpt lat="46.644328" lon="10.020765">
    <ele>1696</ele>
    <time>2010-09-09T13:16:53Z</time>
    </trkpt>
    <trkpt lat="46.644321" lon="10.020803">
    <ele>1695</ele>
    <time>2010-09-09T13:17:09Z</time>
    </trkpt>
    <trkpt lat="46.644326" lon="10.020775">
    <ele>1696</ele>
    <time>2010-09-09T13:18:40Z</time>
    </trkpt>
    <trkpt lat="46.64432" lon="10.020763">
    <ele>1696</ele>
    <time>2010-09-09T13:18:59Z</time>
    </trkpt>
    <trkpt lat="46.644321" lon="10.020773">
    <ele>1696</ele>
    <time>2010-09-09T13:19:30Z</time>
    </trkpt>
    <trkpt lat="46.644319" lon="10.020786">
    <ele>1696</ele>
    <time>2010-09-09T13:19:50Z</time>
    </trkpt>
    <trkpt lat="46.644319" lon="10.020786">
    <ele>1696</ele>
    <time>2010-09-09T13:19:53Z</time>
    </trkpt>
    <trkpt lat="46.644313" lon="10.020778">
    <ele>1697</ele>
    <time>2010-09-09T13:19:55Z</time>
    </trkpt>
    <trkpt lat="46.64406" lon="10.020429">
    <ele>1696</ele>
    <time>2010-09-09T13:20:08Z</time>
    </trkpt>
    <trkpt lat="46.643538" lon="10.019856">
    <ele>1694</ele>
    <time>2010-09-09T13:20:20Z</time>
    </trkpt>
    <trkpt lat="46.643036" lon="10.019336">
    <ele>1691</ele>
    <time>2010-09-09T13:20:28Z</time>
    </trkpt>
    <trkpt lat="46.6424" lon="10.018884">
    <ele>1687</ele>
    <time>2010-09-09T13:20:36Z</time>
    </trkpt>
    <trkpt lat="46.64211" lon="10.018679">
    <ele>1684</ele>
    <time>2010-09-09T13:20:39Z</time>
    </trkpt>
    <trkpt lat="46.641813" lon="10.018504">
    <ele>1680</ele>
    <time>2010-09-09T13:20:42Z</time>
    </trkpt>
    <trkpt lat="46.641725" lon="10.018468">
    <ele>1679</ele>
    <time>2010-09-09T13:20:43Z</time>
    </trkpt>
    <trkpt lat="46.641519" lon="10.018641">
    <ele>1676</ele>
    <time>2010-09-09T13:20:48Z</time>
    </trkpt>
    <trkpt lat="46.641534" lon="10.018724">
    <ele>1675</ele>
    <time>2010-09-09T13:20:49Z</time>
    </trkpt>
    <trkpt lat="46.64157" lon="10.018893">
    <ele>1674</ele>
    <time>2010-09-09T13:20:51Z</time>
    </trkpt>
    <trkpt lat="46.641606" lon="10.019062">
    <ele>1674</ele>
    <time>2010-09-09T13:20:53Z</time>
    </trkpt>
    <trkpt lat="46.641472" lon="10.019296">
    <ele>1671</ele>
    <time>2010-09-09T13:20:58Z</time>
    </trkpt>
    <trkpt lat="46.641328" lon="10.019269">
    <ele>1670</ele>
    <time>2010-09-09T13:21:00Z</time>
    </trkpt>
    <trkpt lat="46.641086" lon="10.01928">
    <ele>1668</ele>
    <time>2010-09-09T13:21:03Z</time>
    </trkpt>
    <trkpt lat="46.640658" lon="10.019395">
    <ele>1663</ele>
    <time>2010-09-09T13:21:08Z</time>
    </trkpt>
    <trkpt lat="46.640487" lon="10.019772">
    <ele>1660</ele>
    <time>2010-09-09T13:21:13Z</time>
    </trkpt>
    <trkpt lat="46.64052" lon="10.01986">
    <ele>1659</ele>
    <time>2010-09-09T13:21:14Z</time>
    </trkpt>
    <trkpt lat="46.64054" lon="10.020492">
    <ele>1655</ele>
    <time>2010-09-09T13:21:21Z</time>
    </trkpt>
    <trkpt lat="46.640438" lon="10.020651">
    <ele>1654</ele>
    <time>2010-09-09T13:21:23Z</time>
    </trkpt>
    <trkpt lat="46.64038" lon="10.020707">
    <ele>1653</ele>
    <time>2010-09-09T13:21:24Z</time>
    </trkpt>
    <trkpt lat="46.640307" lon="10.020744">
    <ele>1652</ele>
    <time>2010-09-09T13:21:25Z</time>
    </trkpt>
    <trkpt lat="46.640229" lon="10.020778">
    <ele>1651</ele>
    <time>2010-09-09T13:21:26Z</time>
    </trkpt>
    <trkpt lat="46.640149" lon="10.020816">
    <ele>1651</ele>
    <time>2010-09-09T13:21:27Z</time>
    </trkpt>
    <trkpt lat="46.639934" lon="10.02092">
    <ele>1648</ele>
    <time>2010-09-09T13:21:30Z</time>
    </trkpt>
    <trkpt lat="46.6398" lon="10.021001">
    <ele>1647</ele>
    <time>2010-09-09T13:21:32Z</time>
    </trkpt>
    <trkpt lat="46.639571" lon="10.021123">
    <ele>1643</ele>
    <time>2010-09-09T13:21:36Z</time>
    </trkpt>
    <trkpt lat="46.639525" lon="10.021115">
    <ele>1642</ele>
    <time>2010-09-09T13:21:37Z</time>
    </trkpt>
    <trkpt lat="46.639485" lon="10.021081">
    <ele>1642</ele>
    <time>2010-09-09T13:21:38Z</time>
    </trkpt>
    <trkpt lat="46.639461" lon="10.021038">
    <ele>1642</ele>
    <time>2010-09-09T13:21:39Z</time>
    </trkpt>
    <trkpt lat="46.639446" lon="10.021003">
    <ele>1642</ele>
    <time>2010-09-09T13:21:40Z</time>
    </trkpt>
    <trkpt lat="46.639415" lon="10.020903">
    <ele>1643</ele>
    <time>2010-09-09T13:21:44Z</time>
    </trkpt>
    <trkpt lat="46.639304" lon="10.020639">
    <ele>1644</ele>
    <time>2010-09-09T13:21:59Z</time>
    </trkpt>
    <trkpt lat="46.639202" lon="10.020497">
    <ele>1646</ele>
    <time>2010-09-09T13:22:12Z</time>
    </trkpt>
    <trkpt lat="46.639115" lon="10.020413">
    <ele>1647</ele>
    <time>2010-09-09T13:22:22Z</time>
    </trkpt>
    <trkpt lat="46.639073" lon="10.020382">
    <ele>1647</ele>
    <time>2010-09-09T13:22:25Z</time>
    </trkpt>
    <trkpt lat="46.638869" lon="10.020136">
    <ele>1648</ele>
    <time>2010-09-09T13:22:38Z</time>
    </trkpt>
    <trkpt lat="46.638659" lon="10.01987">
    <ele>1649</ele>
    <time>2010-09-09T13:22:50Z</time>
    </trkpt>
    <trkpt lat="46.638281" lon="10.019589">
    <ele>1650</ele>
    <time>2010-09-09T13:23:06Z</time>
    </trkpt>
    <trkpt lat="46.638025" lon="10.019359">
    <ele>1652</ele>
    <time>2010-09-09T13:23:18Z</time>
    </trkpt>
    <trkpt lat="46.637823" lon="10.019179">
    <ele>1653</ele>
    <time>2010-09-09T13:23:28Z</time>
    </trkpt>
    <trkpt lat="46.637626" lon="10.018991">
    <ele>1654</ele>
    <time>2010-09-09T13:23:39Z</time>
    </trkpt>
    <trkpt lat="46.637459" lon="10.018667">
    <ele>1655</ele>
    <time>2010-09-09T13:23:52Z</time>
    </trkpt>
    <trkpt lat="46.637313" lon="10.0184">
    <ele>1657</ele>
    <time>2010-09-09T13:24:05Z</time>
    </trkpt>
    <trkpt lat="46.637075" lon="10.018121">
    <ele>1659</ele>
    <time>2010-09-09T13:24:18Z</time>
    </trkpt>
    <trkpt lat="46.636921" lon="10.017927">
    <ele>1661</ele>
    <time>2010-09-09T13:24:28Z</time>
    </trkpt>
    <trkpt lat="46.636637" lon="10.017534">
    <ele>1659</ele>
    <time>2010-09-09T13:24:38Z</time>
    </trkpt>
    <trkpt lat="46.63649" lon="10.017272">
    <ele>1658</ele>
    <time>2010-09-09T13:24:42Z</time>
    </trkpt>
    <trkpt lat="46.636318" lon="10.016861">
    <ele>1656</ele>
    <time>2010-09-09T13:24:47Z</time>
    </trkpt>
    <trkpt lat="46.636064" lon="10.016496">
    <ele>1657</ele>
    <time>2010-09-09T13:24:56Z</time>
    </trkpt>
    <trkpt lat="46.635852" lon="10.016287">
    <ele>1659</ele>
    <time>2010-09-09T13:25:06Z</time>
    </trkpt>
    <trkpt lat="46.63575" lon="10.016127">
    <ele>1659</ele>
    <time>2010-09-09T13:25:10Z</time>
    </trkpt>
    <trkpt lat="46.635689" lon="10.015996">
    <ele>1658</ele>
    <time>2010-09-09T13:25:12Z</time>
    </trkpt>
    <trkpt lat="46.635631" lon="10.015849">
    <ele>1657</ele>
    <time>2010-09-09T13:25:14Z</time>
    </trkpt>
    <trkpt lat="46.635427" lon="10.015325">
    <ele>1655</ele>
    <time>2010-09-09T13:25:20Z</time>
    </trkpt>
    <trkpt lat="46.635402" lon="10.01523">
    <ele>1655</ele>
    <time>2010-09-09T13:25:21Z</time>
    </trkpt>
    <trkpt lat="46.635375" lon="10.015153">
    <ele>1654</ele>
    <time>2010-09-09T13:25:22Z</time>
    </trkpt>
    <trkpt lat="46.635338" lon="10.015087">
    <ele>1654</ele>
    <time>2010-09-09T13:25:23Z</time>
    </trkpt>
    <trkpt lat="46.635298" lon="10.015012">
    <ele>1653</ele>
    <time>2010-09-09T13:25:24Z</time>
    </trkpt>
    <trkpt lat="46.635231" lon="10.014849">
    <ele>1652</ele>
    <time>2010-09-09T13:25:26Z</time>
    </trkpt>
    <trkpt lat="46.635197" lon="10.014776">
    <ele>1653</ele>
    <time>2010-09-09T13:25:27Z</time>
    </trkpt>
    <trkpt lat="46.635169" lon="10.014703">
    <ele>1652</ele>
    <time>2010-09-09T13:25:28Z</time>
    </trkpt>
    <trkpt lat="46.635146" lon="10.014625">
    <ele>1652</ele>
    <time>2010-09-09T13:25:29Z</time>
    </trkpt>
    <trkpt lat="46.635127" lon="10.014546">
    <ele>1651</ele>
    <time>2010-09-09T13:25:30Z</time>
    </trkpt>
    <trkpt lat="46.635111" lon="10.014468">
    <ele>1650</ele>
    <time>2010-09-09T13:25:31Z</time>
    </trkpt>
    <trkpt lat="46.635093" lon="10.014403">
    <ele>1650</ele>
    <time>2010-09-09T13:25:32Z</time>
    </trkpt>
    <trkpt lat="46.635055" lon="10.014291">
    <ele>1651</ele>
    <time>2010-09-09T13:25:34Z</time>
    </trkpt>
    <trkpt lat="46.634927" lon="10.013841">
    <ele>1651</ele>
    <time>2010-09-09T13:25:45Z</time>
    </trkpt>
    <trkpt lat="46.634914" lon="10.01336">
    <ele>1650</ele>
    <time>2010-09-09T13:25:56Z</time>
    </trkpt>
    <trkpt lat="46.63491" lon="10.013292">
    <ele>1649</ele>
    <time>2010-09-09T13:25:57Z</time>
    </trkpt>
    <trkpt lat="46.634879" lon="10.012985">
    <ele>1648</ele>
    <time>2010-09-09T13:26:01Z</time>
    </trkpt>
    <trkpt lat="46.634827" lon="10.012731">
    <ele>1648</ele>
    <time>2010-09-09T13:26:05Z</time>
    </trkpt>
    <trkpt lat="46.634703" lon="10.012359">
    <ele>1648</ele>
    <time>2010-09-09T13:26:14Z</time>
    </trkpt>
    <trkpt lat="46.634642" lon="10.01221">
    <ele>1649</ele>
    <time>2010-09-09T13:26:19Z</time>
    </trkpt>
    <trkpt lat="46.634249" lon="10.011964">
    <ele>1646</ele>
    <time>2010-09-09T13:26:29Z</time>
    </trkpt>
    <trkpt lat="46.634134" lon="10.011913">
    <ele>1645</ele>
    <time>2010-09-09T13:26:31Z</time>
    </trkpt>
    <trkpt lat="46.634024" lon="10.011839">
    <ele>1644</ele>
    <time>2010-09-09T13:26:33Z</time>
    </trkpt>
    <trkpt lat="46.633844" lon="10.011669">
    <ele>1643</ele>
    <time>2010-09-09T13:26:36Z</time>
    </trkpt>
    <trkpt lat="46.633788" lon="10.011599">
    <ele>1644</ele>
    <time>2010-09-09T13:26:37Z</time>
    </trkpt>
    <trkpt lat="46.633737" lon="10.011523">
    <ele>1643</ele>
    <time>2010-09-09T13:26:38Z</time>
    </trkpt>
    <trkpt lat="46.633687" lon="10.011449">
    <ele>1642</ele>
    <time>2010-09-09T13:26:39Z</time>
    </trkpt>
    <trkpt lat="46.633638" lon="10.011379">
    <ele>1643</ele>
    <time>2010-09-09T13:26:40Z</time>
    </trkpt>
    <trkpt lat="46.633544" lon="10.011228">
    <ele>1642</ele>
    <time>2010-09-09T13:26:42Z</time>
    </trkpt>
    <trkpt lat="46.633511" lon="10.011138">
    <ele>1642</ele>
    <time>2010-09-09T13:26:43Z</time>
    </trkpt>
    <trkpt lat="46.633485" lon="10.011043">
    <ele>1642</ele>
    <time>2010-09-09T13:26:44Z</time>
    </trkpt>
    <trkpt lat="46.633384" lon="10.010552">
    <ele>1639</ele>
    <time>2010-09-09T13:26:49Z</time>
    </trkpt>
    <trkpt lat="46.633368" lon="10.010455">
    <ele>1639</ele>
    <time>2010-09-09T13:26:50Z</time>
    </trkpt>
    <trkpt lat="46.63331" lon="10.010051">
    <ele>1638</ele>
    <time>2010-09-09T13:26:55Z</time>
    </trkpt>
    <trkpt lat="46.633299" lon="10.009926">
    <ele>1638</ele>
    <time>2010-09-09T13:26:57Z</time>
    </trkpt>
    <trkpt lat="46.63318" lon="10.009464">
    <ele>1638</ele>
    <time>2010-09-09T13:27:08Z</time>
    </trkpt>
    <trkpt lat="46.633096" lon="10.009108">
    <ele>1639</ele>
    <time>2010-09-09T13:27:19Z</time>
    </trkpt>
    <trkpt lat="46.633089" lon="10.009076">
    <ele>1639</ele>
    <time>2010-09-09T13:27:20Z</time>
    </trkpt>
    <trkpt lat="46.633081" lon="10.009047">
    <ele>1639</ele>
    <time>2010-09-09T13:27:21Z</time>
    </trkpt>
    <trkpt lat="46.63307" lon="10.009023">
    <ele>1639</ele>
    <time>2010-09-09T13:27:22Z</time>
    </trkpt>
    <trkpt lat="46.633064" lon="10.009001">
    <ele>1639</ele>
    <time>2010-09-09T13:27:23Z</time>
    </trkpt>
    <trkpt lat="46.633019" lon="10.008852">
    <ele>1639</ele>
    <time>2010-09-09T13:27:35Z</time>
    </trkpt>
    <trkpt lat="46.632995" lon="10.008678">
    <ele>1639</ele>
    <time>2010-09-09T13:27:50Z</time>
    </trkpt>
    <trkpt lat="46.632938" lon="10.008505">
    <ele>1639</ele>
    <time>2010-09-09T13:27:54Z</time>
    </trkpt>
    <trkpt lat="46.632907" lon="10.008456">
    <ele>1639</ele>
    <time>2010-09-09T13:27:55Z</time>
    </trkpt>
    <trkpt lat="46.632516" lon="10.008199">
    <ele>1637</ele>
    <time>2010-09-09T13:28:07Z</time>
    </trkpt>
    <trkpt lat="46.632477" lon="10.008206">
    <ele>1637</ele>
    <time>2010-09-09T13:28:08Z</time>
    </trkpt>
    <trkpt lat="46.632437" lon="10.008223">
    <ele>1637</ele>
    <time>2010-09-09T13:28:09Z</time>
    </trkpt>
    <trkpt lat="46.632398" lon="10.008245">
    <ele>1637</ele>
    <time>2010-09-09T13:28:10Z</time>
    </trkpt>
    <trkpt lat="46.631892" lon="10.008682">
    <ele>1638</ele>
    <time>2010-09-09T13:28:26Z</time>
    </trkpt>
    <trkpt lat="46.631615" lon="10.008869">
    <ele>1642</ele>
    <time>2010-09-09T13:28:40Z</time>
    </trkpt>
    <trkpt lat="46.631464" lon="10.008903">
    <ele>1642</ele>
    <time>2010-09-09T13:28:53Z</time>
    </trkpt>
    <trkpt lat="46.631465" lon="10.008905">
    <ele>1637</ele>
    <time>2010-09-09T13:31:12Z</time>
    </trkpt>
    <trkpt lat="46.631465" lon="10.008905">
    <ele>1644</ele>
    <time>2010-09-09T13:31:13Z</time>
    </trkpt>
    <trkpt lat="46.631465" lon="10.008905">
    <ele>1641</ele>
    <time>2010-09-09T13:31:17Z</time>
    </trkpt>
    <trkpt lat="46.631465" lon="10.008905">
    <ele>1644</ele>
    <time>2010-09-09T13:31:19Z</time>
    </trkpt>
    <trkpt lat="46.631362" lon="10.008905">
    <ele>1643</ele>
    <time>2010-09-09T13:33:02Z</time>
    </trkpt>
    <trkpt lat="46.631051" lon="10.008872">
    <ele>1644</ele>
    <time>2010-09-09T13:33:17Z</time>
    </trkpt>
    <trkpt lat="46.630737" lon="10.008692">
    <ele>1647</ele>
    <time>2010-09-09T13:33:36Z</time>
    </trkpt>
    <trkpt lat="46.630599" lon="10.008454">
    <ele>1649</ele>
    <time>2010-09-09T13:33:51Z</time>
    </trkpt>
    <trkpt lat="46.63049" lon="10.0083">
    <ele>1651</ele>
    <time>2010-09-09T13:34:01Z</time>
    </trkpt>
    <trkpt lat="46.630481" lon="10.008289">
    <ele>1651</ele>
    <time>2010-09-09T13:34:02Z</time>
    </trkpt>
    <trkpt lat="46.630327" lon="10.008116">
    <ele>1653</ele>
    <time>2010-09-09T13:34:16Z</time>
    </trkpt>
    <trkpt lat="46.630103" lon="10.007905">
    <ele>1655</ele>
    <time>2010-09-09T13:34:33Z</time>
    </trkpt>
    <trkpt lat="46.629927" lon="10.007811">
    <ele>1656</ele>
    <time>2010-09-09T13:34:45Z</time>
    </trkpt>
    <trkpt lat="46.629913" lon="10.0078">
    <ele>1656</ele>
    <time>2010-09-09T13:34:46Z</time>
    </trkpt>
    <trkpt lat="46.629904" lon="10.007781">
    <ele>1656</ele>
    <time>2010-09-09T13:34:47Z</time>
    </trkpt>
    <trkpt lat="46.629892" lon="10.007766">
    <ele>1656</ele>
    <time>2010-09-09T13:34:48Z</time>
    </trkpt>
    <trkpt lat="46.629879" lon="10.007754">
    <ele>1657</ele>
    <time>2010-09-09T13:34:49Z</time>
    </trkpt>
    <trkpt lat="46.629692" lon="10.007606">
    <ele>1659</ele>
    <time>2010-09-09T13:35:05Z</time>
    </trkpt>
    <trkpt lat="46.629471" lon="10.007606">
    <ele>1662</ele>
    <time>2010-09-09T13:35:21Z</time>
    </trkpt>
    <trkpt lat="46.629379" lon="10.007612">
    <ele>1662</ele>
    <time>2010-09-09T13:35:27Z</time>
    </trkpt>
    <trkpt lat="46.629362" lon="10.007601">
    <ele>1663</ele>
    <time>2010-09-09T13:35:28Z</time>
    </trkpt>
    <trkpt lat="46.629069" lon="10.007449">
    <ele>1664</ele>
    <time>2010-09-09T13:35:44Z</time>
    </trkpt>
    <trkpt lat="46.628607" lon="10.007259">
    <ele>1666</ele>
    <time>2010-09-09T13:36:04Z</time>
    </trkpt>
    <trkpt lat="46.6281" lon="10.007134">
    <ele>1666</ele>
    <time>2010-09-09T13:36:19Z</time>
    </trkpt>
    <trkpt lat="46.62759" lon="10.006992">
    <ele>1666</ele>
    <time>2010-09-09T13:36:33Z</time>
    </trkpt>
    <trkpt lat="46.627474" lon="10.006757">
    <ele>1668</ele>
    <time>2010-09-09T13:36:42Z</time>
    </trkpt>
    <trkpt lat="46.627392" lon="10.006517">
    <ele>1670</ele>
    <time>2010-09-09T13:36:56Z</time>
    </trkpt>
    <trkpt lat="46.627369" lon="10.006476">
    <ele>1670</ele>
    <time>2010-09-09T13:36:59Z</time>
    </trkpt>
    <trkpt lat="46.627342" lon="10.006449">
    <ele>1671</ele>
    <time>2010-09-09T13:37:02Z</time>
    </trkpt>
    <trkpt lat="46.627282" lon="10.006218">
    <ele>1673</ele>
    <time>2010-09-09T13:37:15Z</time>
    </trkpt>
    <trkpt lat="46.627273" lon="10.006119">
    <ele>1674</ele>
    <time>2010-09-09T13:37:20Z</time>
    </trkpt>
    <trkpt lat="46.627269" lon="10.0061">
    <ele>1674</ele>
    <time>2010-09-09T13:37:21Z</time>
    </trkpt>
    <trkpt lat="46.627144" lon="10.00579">
    <ele>1676</ele>
    <time>2010-09-09T13:37:36Z</time>
    </trkpt>
    <trkpt lat="46.627134" lon="10.005773">
    <ele>1677</ele>
    <time>2010-09-09T13:37:37Z</time>
    </trkpt>
    <trkpt lat="46.627068" lon="10.005622">
    <ele>1678</ele>
    <time>2010-09-09T13:37:46Z</time>
    </trkpt>
    <trkpt lat="46.627033" lon="10.005485">
    <ele>1679</ele>
    <time>2010-09-09T13:37:52Z</time>
    </trkpt>
    <trkpt lat="46.626964" lon="10.005234">
    <ele>1680</ele>
    <time>2010-09-09T13:38:03Z</time>
    </trkpt>
    <trkpt lat="46.626956" lon="10.005216">
    <ele>1680</ele>
    <time>2010-09-09T13:38:04Z</time>
    </trkpt>
    <trkpt lat="46.626817" lon="10.004906">
    <ele>1682</ele>
    <time>2010-09-09T13:38:18Z</time>
    </trkpt>
    <trkpt lat="46.626772" lon="10.004852">
    <ele>1682</ele>
    <time>2010-09-09T13:38:23Z</time>
    </trkpt>
    <trkpt lat="46.62676" lon="10.004846">
    <ele>1682</ele>
    <time>2010-09-09T13:38:24Z</time>
    </trkpt>
    <trkpt lat="46.626483" lon="10.004519">
    <ele>1684</ele>
    <time>2010-09-09T13:38:38Z</time>
    </trkpt>
    <trkpt lat="46.626309" lon="10.004287">
    <ele>1686</ele>
    <time>2010-09-09T13:38:51Z</time>
    </trkpt>
    <trkpt lat="46.626247" lon="10.004193">
    <ele>1687</ele>
    <time>2010-09-09T13:38:56Z</time>
    </trkpt>
    <trkpt lat="46.626027" lon="10.003911">
    <ele>1689</ele>
    <time>2010-09-09T13:39:10Z</time>
    </trkpt>
    <trkpt lat="46.625839" lon="10.003448">
    <ele>1690</ele>
    <time>2010-09-09T13:39:24Z</time>
    </trkpt>
    <trkpt lat="46.625651" lon="10.002903">
    <ele>1692</ele>
    <time>2010-09-09T13:39:41Z</time>
    </trkpt>
    <trkpt lat="46.62557" lon="10.00269">
    <ele>1693</ele>
    <time>2010-09-09T13:39:50Z</time>
    </trkpt>
    <trkpt lat="46.625514" lon="10.002536">
    <ele>1694</ele>
    <time>2010-09-09T13:39:56Z</time>
    </trkpt>
    <trkpt lat="46.625303" lon="10.002181">
    <ele>1697</ele>
    <time>2010-09-09T13:40:13Z</time>
    </trkpt>
    <trkpt lat="46.625089" lon="10.001898">
    <ele>1697</ele>
    <time>2010-09-09T13:40:27Z</time>
    </trkpt>
    <trkpt lat="46.624907" lon="10.001592">
    <ele>1700</ele>
    <time>2010-09-09T13:40:41Z</time>
    </trkpt>
    <trkpt lat="46.624813" lon="10.001331">
    <ele>1702</ele>
    <time>2010-09-09T13:40:53Z</time>
    </trkpt>
    <trkpt lat="46.624739" lon="10.001035">
    <ele>1704</ele>
    <time>2010-09-09T13:41:06Z</time>
    </trkpt>
    <trkpt lat="46.624678" lon="10.000663">
    <ele>1706</ele>
    <time>2010-09-09T13:41:20Z</time>
    </trkpt>
    <trkpt lat="46.624597" lon="10.000247">
    <ele>1708</ele>
    <time>2010-09-09T13:41:35Z</time>
    </trkpt>
    <trkpt lat="46.624577" lon="10.000157">
    <ele>1709</ele>
    <time>2010-09-09T13:41:39Z</time>
    </trkpt>
    <trkpt lat="46.62455" lon="10.000063">
    <ele>1710</ele>
    <time>2010-09-09T13:41:43Z</time>
    </trkpt>
    <trkpt lat="46.624467" lon="9.99982">
    <ele>1711</ele>
    <time>2010-09-09T13:41:51Z</time>
    </trkpt>
    <trkpt lat="46.624383" lon="9.999463">
    <ele>1714</ele>
    <time>2010-09-09T13:42:05Z</time>
    </trkpt>
    <trkpt lat="46.624371" lon="9.9994">
    <ele>1714</ele>
    <time>2010-09-09T13:42:08Z</time>
    </trkpt>
    <trkpt lat="46.624292" lon="9.999211">
    <ele>1716</ele>
    <time>2010-09-09T13:42:15Z</time>
    </trkpt>
    <trkpt lat="46.624235" lon="9.999049">
    <ele>1717</ele>
    <time>2010-09-09T13:42:23Z</time>
    </trkpt>
    <trkpt lat="46.624139" lon="9.998789">
    <ele>1719</ele>
    <time>2010-09-09T13:42:35Z</time>
    </trkpt>
    <trkpt lat="46.624114" lon="9.998545">
    <ele>1721</ele>
    <time>2010-09-09T13:42:44Z</time>
    </trkpt>
    <trkpt lat="46.62409" lon="9.998382">
    <ele>1723</ele>
    <time>2010-09-09T13:42:51Z</time>
    </trkpt>
    <trkpt lat="46.624029" lon="9.998301">
    <ele>1723</ele>
    <time>2010-09-09T13:43:02Z</time>
    </trkpt>
    <trkpt lat="46.624028" lon="9.998308">
    <ele>1723</ele>
    <time>2010-09-09T13:43:19Z</time>
    </trkpt>
    <trkpt lat="46.624015" lon="9.998295">
    <ele>1723</ele>
    <time>2010-09-09T13:45:55Z</time>
    </trkpt>
    <trkpt lat="46.623867" lon="9.998315">
    <ele>1722</ele>
    <time>2010-09-09T13:46:00Z</time>
    </trkpt>
    <trkpt lat="46.623771" lon="9.998332">
    <ele>1722</ele>
    <time>2010-09-09T13:46:02Z</time>
    </trkpt>
    <trkpt lat="46.62347" lon="9.998654">
    <ele>1719</ele>
    <time>2010-09-09T13:46:08Z</time>
    </trkpt>
    <trkpt lat="46.623352" lon="9.998921">
    <ele>1718</ele>
    <time>2010-09-09T13:46:11Z</time>
    </trkpt>
    <trkpt lat="46.623116" lon="9.999112">
    <ele>1716</ele>
    <time>2010-09-09T13:46:15Z</time>
    </trkpt>
    <trkpt lat="46.622891" lon="9.999133">
    <ele>1715</ele>
    <time>2010-09-09T13:46:18Z</time>
    </trkpt>
    <trkpt lat="46.622487" lon="9.9991">
    <ele>1711</ele>
    <time>2010-09-09T13:46:23Z</time>
    </trkpt>
    <trkpt lat="46.622174" lon="9.999101">
    <ele>1709</ele>
    <time>2010-09-09T13:46:27Z</time>
    </trkpt>
    <trkpt lat="46.621647" lon="9.998722">
    <ele>1706</ele>
    <time>2010-09-09T13:46:34Z</time>
    </trkpt>
    <trkpt lat="46.62157" lon="9.998664">
    <ele>1706</ele>
    <time>2010-09-09T13:46:35Z</time>
    </trkpt>
    <trkpt lat="46.621217" lon="9.998308">
    <ele>1703</ele>
    <time>2010-09-09T13:46:40Z</time>
    </trkpt>
    <trkpt lat="46.620869" lon="9.997916">
    <ele>1700</ele>
    <time>2010-09-09T13:46:45Z</time>
    </trkpt>
    <trkpt lat="46.620433" lon="9.997219">
    <ele>1696</ele>
    <time>2010-09-09T13:46:52Z</time>
    </trkpt>
    <trkpt lat="46.620164" lon="9.996856">
    <ele>1694</ele>
    <time>2010-09-09T13:46:56Z</time>
    </trkpt>
    <trkpt lat="46.620023" lon="9.996686">
    <ele>1693</ele>
    <time>2010-09-09T13:46:58Z</time>
    </trkpt>
    <trkpt lat="46.619958" lon="9.996587">
    <ele>1693</ele>
    <time>2010-09-09T13:46:59Z</time>
    </trkpt>
    <trkpt lat="46.619901" lon="9.996476">
    <ele>1693</ele>
    <time>2010-09-09T13:47:00Z</time>
    </trkpt>
    <trkpt lat="46.619671" lon="9.996023">
    <ele>1691</ele>
    <time>2010-09-09T13:47:04Z</time>
    </trkpt>
    <trkpt lat="46.619395" lon="9.995531">
    <ele>1689</ele>
    <time>2010-09-09T13:47:09Z</time>
    </trkpt>
    <trkpt lat="46.619215" lon="9.995245">
    <ele>1687</ele>
    <time>2010-09-09T13:47:13Z</time>
    </trkpt>
    <trkpt lat="46.619004" lon="9.994907">
    <ele>1684</ele>
    <time>2010-09-09T13:47:21Z</time>
    </trkpt>
    <trkpt lat="46.618993" lon="9.994891">
    <ele>1683</ele>
    <time>2010-09-09T13:47:33Z</time>
    </trkpt>
    <trkpt lat="46.618971" lon="9.994856">
    <ele>1683</ele>
    <time>2010-09-09T13:47:44Z</time>
    </trkpt>
    <trkpt lat="46.618931" lon="9.994816">
    <ele>1683</ele>
    <time>2010-09-09T13:47:50Z</time>
    </trkpt>
    <trkpt lat="46.618914" lon="9.994793">
    <ele>1683</ele>
    <time>2010-09-09T13:48:06Z</time>
    </trkpt>
    <trkpt lat="46.618911" lon="9.994779">
    <ele>1683</ele>
    <time>2010-09-09T13:48:07Z</time>
    </trkpt>
    <trkpt lat="46.618717" lon="9.994509">
    <ele>1682</ele>
    <time>2010-09-09T13:48:16Z</time>
    </trkpt>
    <trkpt lat="46.618239" lon="9.994003">
    <ele>1679</ele>
    <time>2010-09-09T13:48:28Z</time>
    </trkpt>
    <trkpt lat="46.617708" lon="9.993352">
    <ele>1676</ele>
    <time>2010-09-09T13:48:42Z</time>
    </trkpt>
    <trkpt lat="46.617061" lon="9.99256">
    <ele>1673</ele>
    <time>2010-09-09T13:48:55Z</time>
    </trkpt>
    <trkpt lat="46.61687" lon="9.992221">
    <ele>1672</ele>
    <time>2010-09-09T13:48:59Z</time>
    </trkpt>
    <trkpt lat="46.616835" lon="9.992125">
    <ele>1672</ele>
    <time>2010-09-09T13:49:00Z</time>
    </trkpt>
    <trkpt lat="46.616567" lon="9.991333">
    <ele>1669</ele>
    <time>2010-09-09T13:49:08Z</time>
    </trkpt>
    <trkpt lat="46.616533" lon="9.991255">
    <ele>1669</ele>
    <time>2010-09-09T13:49:09Z</time>
    </trkpt>
    <trkpt lat="46.616471" lon="9.991125">
    <ele>1668</ele>
    <time>2010-09-09T13:49:11Z</time>
    </trkpt>
    <trkpt lat="46.61644" lon="9.991077">
    <ele>1667</ele>
    <time>2010-09-09T13:49:12Z</time>
    </trkpt>
    <trkpt lat="46.616402" lon="9.991047">
    <ele>1667</ele>
    <time>2010-09-09T13:49:13Z</time>
    </trkpt>
    <trkpt lat="46.616358" lon="9.991035">
    <ele>1667</ele>
    <time>2010-09-09T13:49:14Z</time>
    </trkpt>
    <trkpt lat="46.61631" lon="9.991022">
    <ele>1667</ele>
    <time>2010-09-09T13:49:15Z</time>
    </trkpt>
    <trkpt lat="46.616267" lon="9.990989">
    <ele>1666</ele>
    <time>2010-09-09T13:49:16Z</time>
    </trkpt>
    <trkpt lat="46.616231" lon="9.990938">
    <ele>1666</ele>
    <time>2010-09-09T13:49:17Z</time>
    </trkpt>
    <trkpt lat="46.616196" lon="9.990886">
    <ele>1666</ele>
    <time>2010-09-09T13:49:18Z</time>
    </trkpt>
    <trkpt lat="46.616014" lon="9.990604">
    <ele>1665</ele>
    <time>2010-09-09T13:49:23Z</time>
    </trkpt>
    <trkpt lat="46.615884" lon="9.990356">
    <ele>1664</ele>
    <time>2010-09-09T13:49:27Z</time>
    </trkpt>
    <trkpt lat="46.615382" lon="9.98959">
    <ele>1665</ele>
    <time>2010-09-09T13:49:41Z</time>
    </trkpt>
    <trkpt lat="46.615346" lon="9.989546">
    <ele>1665</ele>
    <time>2010-09-09T13:49:42Z</time>
    </trkpt>
    <trkpt lat="46.615312" lon="9.989498">
    <ele>1665</ele>
    <time>2010-09-09T13:49:43Z</time>
    </trkpt>
    <trkpt lat="46.615218" lon="9.989356">
    <ele>1665</ele>
    <time>2010-09-09T13:49:46Z</time>
    </trkpt>
    <trkpt lat="46.615052" lon="9.989196">
    <ele>1666</ele>
    <time>2010-09-09T13:49:52Z</time>
    </trkpt>
    <trkpt lat="46.615025" lon="9.989199">
    <ele>1665</ele>
    <time>2010-09-09T13:49:53Z</time>
    </trkpt>
    <trkpt lat="46.614998" lon="9.989218">
    <ele>1665</ele>
    <time>2010-09-09T13:49:54Z</time>
    </trkpt>
    <trkpt lat="46.614819" lon="9.989353">
    <ele>1665</ele>
    <time>2010-09-09T13:50:04Z</time>
    </trkpt>
    <trkpt lat="46.614786" lon="9.989372">
    <ele>1664</ele>
    <time>2010-09-09T13:50:06Z</time>
    </trkpt>
    <trkpt lat="46.614761" lon="9.989374">
    <ele>1664</ele>
    <time>2010-09-09T13:50:07Z</time>
    </trkpt>
    <trkpt lat="46.614731" lon="9.989386">
    <ele>1664</ele>
    <time>2010-09-09T13:50:08Z</time>
    </trkpt>
    <trkpt lat="46.614186" lon="9.989555">
    <ele>1662</ele>
    <time>2010-09-09T13:50:19Z</time>
    </trkpt>
    <trkpt lat="46.613847" lon="9.989614">
    <ele>1660</ele>
    <time>2010-09-09T13:50:23Z</time>
    </trkpt>
    <trkpt lat="46.613759" lon="9.989601">
    <ele>1659</ele>
    <time>2010-09-09T13:50:24Z</time>
    </trkpt>
    <trkpt lat="46.613674" lon="9.989564">
    <ele>1659</ele>
    <time>2010-09-09T13:50:25Z</time>
    </trkpt>
    <trkpt lat="46.613597" lon="9.98951">
    <ele>1658</ele>
    <time>2010-09-09T13:50:26Z</time>
    </trkpt>
    <trkpt lat="46.613526" lon="9.989449">
    <ele>1659</ele>
    <time>2010-09-09T13:50:27Z</time>
    </trkpt>
    <trkpt lat="46.613272" lon="9.989256">
    <ele>1660</ele>
    <time>2010-09-09T13:50:31Z</time>
    </trkpt>
    <trkpt lat="46.613221" lon="9.989236">
    <ele>1659</ele>
    <time>2010-09-09T13:50:32Z</time>
    </trkpt>
    <trkpt lat="46.61317" lon="9.989231">
    <ele>1659</ele>
    <time>2010-09-09T13:50:33Z</time>
    </trkpt>
    <trkpt lat="46.613123" lon="9.989238">
    <ele>1659</ele>
    <time>2010-09-09T13:50:34Z</time>
    </trkpt>
    <trkpt lat="46.613081" lon="9.989257">
    <ele>1660</ele>
    <time>2010-09-09T13:50:35Z</time>
    </trkpt>
    <trkpt lat="46.613042" lon="9.989281">
    <ele>1659</ele>
    <time>2010-09-09T13:50:36Z</time>
    </trkpt>
    <trkpt lat="46.613002" lon="9.989328">
    <ele>1659</ele>
    <time>2010-09-09T13:50:37Z</time>
    </trkpt>
    <trkpt lat="46.612736" lon="9.989544">
    <ele>1660</ele>
    <time>2010-09-09T13:50:44Z</time>
    </trkpt>
    <trkpt lat="46.612701" lon="9.98958">
    <ele>1660</ele>
    <time>2010-09-09T13:50:45Z</time>
    </trkpt>
    <trkpt lat="46.612667" lon="9.989621">
    <ele>1659</ele>
    <time>2010-09-09T13:50:46Z</time>
    </trkpt>
    <trkpt lat="46.612639" lon="9.989667">
    <ele>1659</ele>
    <time>2010-09-09T13:50:47Z</time>
    </trkpt>
    <trkpt lat="46.612616" lon="9.989722">
    <ele>1659</ele>
    <time>2010-09-09T13:50:48Z</time>
    </trkpt>
    <trkpt lat="46.612602" lon="9.989779">
    <ele>1660</ele>
    <time>2010-09-09T13:50:49Z</time>
    </trkpt>
    <trkpt lat="46.612591" lon="9.989836">
    <ele>1659</ele>
    <time>2010-09-09T13:50:50Z</time>
    </trkpt>
    <trkpt lat="46.612586" lon="9.989894">
    <ele>1660</ele>
    <time>2010-09-09T13:50:51Z</time>
    </trkpt>
    <trkpt lat="46.612576" lon="9.990014">
    <ele>1659</ele>
    <time>2010-09-09T13:50:53Z</time>
    </trkpt>
    <trkpt lat="46.612573" lon="9.990075">
    <ele>1660</ele>
    <time>2010-09-09T13:50:54Z</time>
    </trkpt>
    <trkpt lat="46.612574" lon="9.990138">
    <ele>1660</ele>
    <time>2010-09-09T13:50:55Z</time>
    </trkpt>
    <trkpt lat="46.612583" lon="9.990521">
    <ele>1659</ele>
    <time>2010-09-09T13:51:01Z</time>
    </trkpt>
    <trkpt lat="46.612552" lon="9.990546">
    <ele>1660</ele>
    <time>2010-09-09T13:51:02Z</time>
    </trkpt>
    <trkpt lat="46.612514" lon="9.990544">
    <ele>1660</ele>
    <time>2010-09-09T13:51:03Z</time>
    </trkpt>
    <trkpt lat="46.612482" lon="9.990526">
    <ele>1660</ele>
    <time>2010-09-09T13:51:04Z</time>
    </trkpt>
    <trkpt lat="46.612455" lon="9.990501">
    <ele>1660</ele>
    <time>2010-09-09T13:51:05Z</time>
    </trkpt>
    <trkpt lat="46.61243" lon="9.990471">
    <ele>1661</ele>
    <time>2010-09-09T13:51:06Z</time>
    </trkpt>
    <trkpt lat="46.612407" lon="9.990438">
    <ele>1661</ele>
    <time>2010-09-09T13:51:07Z</time>
    </trkpt>
    <trkpt lat="46.612075" lon="9.989886">
    <ele>1664</ele>
    <time>2010-09-09T13:51:26Z</time>
    </trkpt>
    <trkpt lat="46.61171" lon="9.989231">
    <ele>1667</ele>
    <time>2010-09-09T13:51:47Z</time>
    </trkpt>
    <trkpt lat="46.611382" lon="9.988636">
    <ele>1669</ele>
    <time>2010-09-09T13:52:05Z</time>
    </trkpt>
    <trkpt lat="46.611048" lon="9.987931">
    <ele>1671</ele>
    <time>2010-09-09T13:52:25Z</time>
    </trkpt>
    <trkpt lat="46.610744" lon="9.987294">
    <ele>1672</ele>
    <time>2010-09-09T13:52:42Z</time>
    </trkpt>
    <trkpt lat="46.610373" lon="9.986476">
    <ele>1674</ele>
    <time>2010-09-09T13:53:01Z</time>
    </trkpt>
    <trkpt lat="46.610011" lon="9.985675">
    <ele>1673</ele>
    <time>2010-09-09T13:53:18Z</time>
    </trkpt>
    <trkpt lat="46.609558" lon="9.984588">
    <ele>1670</ele>
    <time>2010-09-09T13:53:33Z</time>
    </trkpt>
    <trkpt lat="46.609376" lon="9.984152">
    <ele>1668</ele>
    <time>2010-09-09T13:53:38Z</time>
    </trkpt>
    <trkpt lat="46.6088" lon="9.982945">
    <ele>1667</ele>
    <time>2010-09-09T13:53:53Z</time>
    </trkpt>
    <trkpt lat="46.608296" lon="9.98179">
    <ele>1667</ele>
    <time>2010-09-09T13:54:10Z</time>
    </trkpt>
    <trkpt lat="46.607939" lon="9.981122">
    <ele>1669</ele>
    <time>2010-09-09T13:54:22Z</time>
    </trkpt>
    <trkpt lat="46.607445" lon="9.980488">
    <ele>1670</ele>
    <time>2010-09-09T13:54:36Z</time>
    </trkpt>
    <trkpt lat="46.607287" lon="9.980187">
    <ele>1669</ele>
    <time>2010-09-09T13:54:41Z</time>
    </trkpt>
    <trkpt lat="46.607037" lon="9.979472">
    <ele>1671</ele>
    <time>2010-09-09T13:54:54Z</time>
    </trkpt>
    <trkpt lat="46.606754" lon="9.979121">
    <ele>1671</ele>
    <time>2010-09-09T13:55:06Z</time>
    </trkpt>
    <trkpt lat="46.606706" lon="9.979115">
    <ele>1672</ele>
    <time>2010-09-09T13:55:15Z</time>
    </trkpt>
    <trkpt lat="46.606712" lon="9.979108">
    <ele>1672</ele>
    <time>2010-09-09T13:55:25Z</time>
    </trkpt>
    <trkpt lat="46.60671" lon="9.979103">
    <ele>1672</ele>
    <time>2010-09-09T13:55:54Z</time>
    </trkpt>
    <trkpt lat="46.606712" lon="9.979092">
    <ele>1672</ele>
    <time>2010-09-09T13:56:06Z</time>
    </trkpt>
    <trkpt lat="46.606708" lon="9.979084">
    <ele>1671</ele>
    <time>2010-09-09T13:56:20Z</time>
    </trkpt>
    <trkpt lat="46.6067" lon="9.979085">
    <ele>1672</ele>
    <time>2010-09-09T13:56:34Z</time>
    </trkpt>
    <trkpt lat="46.606703" lon="9.979089">
    <ele>1672</ele>
    <time>2010-09-09T13:56:48Z</time>
    </trkpt>
    <trkpt lat="46.606703" lon="9.979089">
    <ele>1671</ele>
    <time>2010-09-09T13:57:22Z</time>
    </trkpt>
    <trkpt lat="46.606702" lon="9.979104">
    <ele>1671</ele>
    <time>2010-09-09T13:57:34Z</time>
    </trkpt>
    <trkpt lat="46.6067" lon="9.979096">
    <ele>1672</ele>
    <time>2010-09-09T13:57:48Z</time>
    </trkpt>
    <trkpt lat="46.606699" lon="9.979093">
    <ele>1672</ele>
    <time>2010-09-09T13:58:12Z</time>
    </trkpt>
    <trkpt lat="46.606691" lon="9.979114">
    <ele>1672</ele>
    <time>2010-09-09T13:58:26Z</time>
    </trkpt>
    <trkpt lat="46.606686" lon="9.979149">
    <ele>1672</ele>
    <time>2010-09-09T13:59:19Z</time>
    </trkpt>
    <trkpt lat="46.606694" lon="9.979156">
    <ele>1671</ele>
    <time>2010-09-09T13:59:32Z</time>
    </trkpt>
    <trkpt lat="46.606697" lon="9.979162">
    <ele>1671</ele>
    <time>2010-09-09T13:59:54Z</time>
    </trkpt>
    <trkpt lat="46.606697" lon="9.979177">
    <ele>1672</ele>
    <time>2010-09-09T14:00:24Z</time>
    </trkpt>
    <trkpt lat="46.606699" lon="9.979182">
    <ele>1672</ele>
    <time>2010-09-09T14:00:36Z</time>
    </trkpt>
    <trkpt lat="46.606686" lon="9.979198">
    <ele>1673</ele>
    <time>2010-09-09T14:00:57Z</time>
    </trkpt>
    <trkpt lat="46.606659" lon="9.979212">
    <ele>1673</ele>
    <time>2010-09-09T14:01:13Z</time>
    </trkpt>
    <trkpt lat="46.606578" lon="9.979634">
    <ele>1676</ele>
    <time>2010-09-09T14:01:29Z</time>
    </trkpt>
    <trkpt lat="46.606552" lon="9.980171">
    <ele>1678</ele>
    <time>2010-09-09T14:01:46Z</time>
    </trkpt>
    <trkpt lat="46.606405" lon="9.98035">
    <ele>1680</ele>
    <time>2010-09-09T14:01:57Z</time>
    </trkpt>
    <trkpt lat="46.606077" lon="9.980366">
    <ele>1682</ele>
    <time>2010-09-09T14:02:16Z</time>
    </trkpt>
    <trkpt lat="46.605835" lon="9.980375">
    <ele>1685</ele>
    <time>2010-09-09T14:02:32Z</time>
    </trkpt>
    <trkpt lat="46.605555" lon="9.980379">
    <ele>1689</ele>
    <time>2010-09-09T14:02:51Z</time>
    </trkpt>
    <trkpt lat="46.60533" lon="9.980395">
    <ele>1692</ele>
    <time>2010-09-09T14:03:06Z</time>
    </trkpt>
    <trkpt lat="46.60509" lon="9.980441">
    <ele>1695</ele>
    <time>2010-09-09T14:03:23Z</time>
    </trkpt>
    <trkpt lat="46.6049" lon="9.980467">
    <ele>1698</ele>
    <time>2010-09-09T14:03:37Z</time>
    </trkpt>
    <trkpt lat="46.604711" lon="9.980485">
    <ele>1702</ele>
    <time>2010-09-09T14:03:51Z</time>
    </trkpt>
    <trkpt lat="46.604507" lon="9.980473">
    <ele>1705</ele>
    <time>2010-09-09T14:04:06Z</time>
    </trkpt>
    <trkpt lat="46.604352" lon="9.980424">
    <ele>1708</ele>
    <time>2010-09-09T14:04:19Z</time>
    </trkpt>
    <trkpt lat="46.604155" lon="9.980387">
    <ele>1711</ele>
    <time>2010-09-09T14:04:36Z</time>
    </trkpt>
    <trkpt lat="46.603939" lon="9.980417">
    <ele>1714</ele>
    <time>2010-09-09T14:04:52Z</time>
    </trkpt>
    <trkpt lat="46.603808" lon="9.980439">
    <ele>1716</ele>
    <time>2010-09-09T14:05:02Z</time>
    </trkpt>
    <trkpt lat="46.603723" lon="9.980441">
    <ele>1717</ele>
    <time>2010-09-09T14:05:09Z</time>
    </trkpt>
    <trkpt lat="46.603627" lon="9.980479">
    <ele>1718</ele>
    <time>2010-09-09T14:05:19Z</time>
    </trkpt>
    <trkpt lat="46.603493" lon="9.980314">
    <ele>1719</ele>
    <time>2010-09-09T14:05:31Z</time>
    </trkpt>
    <trkpt lat="46.603446" lon="9.980117">
    <ele>1720</ele>
    <time>2010-09-09T14:05:43Z</time>
    </trkpt>
    <trkpt lat="46.603446" lon="9.980098">
    <ele>1720</ele>
    <time>2010-09-09T14:05:44Z</time>
    </trkpt>
    <trkpt lat="46.603416" lon="9.979903">
    <ele>1721</ele>
    <time>2010-09-09T14:05:53Z</time>
    </trkpt>
    <trkpt lat="46.603413" lon="9.97983">
    <ele>1722</ele>
    <time>2010-09-09T14:05:56Z</time>
    </trkpt>
    <trkpt lat="46.603233" lon="9.979572">
    <ele>1724</ele>
    <time>2010-09-09T14:06:13Z</time>
    </trkpt>
    <trkpt lat="46.603095" lon="9.979525">
    <ele>1725</ele>
    <time>2010-09-09T14:06:22Z</time>
    </trkpt>
    <trkpt lat="46.602931" lon="9.979352">
    <ele>1726</ele>
    <time>2010-09-09T14:06:35Z</time>
    </trkpt>
    <trkpt lat="46.602737" lon="9.979219">
    <ele>1726</ele>
    <time>2010-09-09T14:06:50Z</time>
    </trkpt>
    <trkpt lat="46.602512" lon="9.978821">
    <ele>1724</ele>
    <time>2010-09-09T14:07:01Z</time>
    </trkpt>
    <trkpt lat="46.60209" lon="9.978177">
    <ele>1722</ele>
    <time>2010-09-09T14:07:12Z</time>
    </trkpt>
    <trkpt lat="46.60184" lon="9.977749">
    <ele>1721</ele>
    <time>2010-09-09T14:07:19Z</time>
    </trkpt>
    <trkpt lat="46.60166" lon="9.977494">
    <ele>1720</ele>
    <time>2010-09-09T14:07:24Z</time>
    </trkpt>
    <trkpt lat="46.601422" lon="9.977136">
    <ele>1719</ele>
    <time>2010-09-09T14:07:30Z</time>
    </trkpt>
    <trkpt lat="46.600967" lon="9.976722">
    <ele>1718</ele>
    <time>2010-09-09T14:07:40Z</time>
    </trkpt>
    <trkpt lat="46.600739" lon="9.976551">
    <ele>1718</ele>
    <time>2010-09-09T14:07:45Z</time>
    </trkpt>
    <trkpt lat="46.600362" lon="9.976328">
    <ele>1720</ele>
    <time>2010-09-09T14:07:56Z</time>
    </trkpt>
    <trkpt lat="46.600067" lon="9.97622">
    <ele>1723</ele>
    <time>2010-09-09T14:08:08Z</time>
    </trkpt>
    <trkpt lat="46.5998" lon="9.976104">
    <ele>1725</ele>
    <time>2010-09-09T14:08:20Z</time>
    </trkpt>
    <trkpt lat="46.59964" lon="9.975897">
    <ele>1728</ele>
    <time>2010-09-09T14:08:33Z</time>
    </trkpt>
    <trkpt lat="46.599509" lon="9.975846">
    <ele>1729</ele>
    <time>2010-09-09T14:08:41Z</time>
    </trkpt>
    <trkpt lat="46.59931" lon="9.975543">
    <ele>1731</ele>
    <time>2010-09-09T14:08:54Z</time>
    </trkpt>
    <trkpt lat="46.599131" lon="9.975336">
    <ele>1733</ele>
    <time>2010-09-09T14:09:07Z</time>
    </trkpt>
    <trkpt lat="46.598874" lon="9.975126">
    <ele>1735</ele>
    <time>2010-09-09T14:09:21Z</time>
    </trkpt>
    <trkpt lat="46.598632" lon="9.974962">
    <ele>1738</ele>
    <time>2010-09-09T14:09:35Z</time>
    </trkpt>
    <trkpt lat="46.598374" lon="9.974813">
    <ele>1738</ele>
    <time>2010-09-09T14:09:47Z</time>
    </trkpt>
    <trkpt lat="46.598165" lon="9.974587">
    <ele>1739</ele>
    <time>2010-09-09T14:09:54Z</time>
    </trkpt>
    <trkpt lat="46.597946" lon="9.97415">
    <ele>1737</ele>
    <time>2010-09-09T14:10:02Z</time>
    </trkpt>
    <trkpt lat="46.59781" lon="9.973927">
    <ele>1736</ele>
    <time>2010-09-09T14:10:05Z</time>
    </trkpt>
    <trkpt lat="46.59759" lon="9.973633">
    <ele>1734</ele>
    <time>2010-09-09T14:10:09Z</time>
    </trkpt>
    <trkpt lat="46.597354" lon="9.973071">
    <ele>1730</ele>
    <time>2010-09-09T14:10:15Z</time>
    </trkpt>
    <trkpt lat="46.597189" lon="9.972644">
    <ele>1727</ele>
    <time>2010-09-09T14:10:19Z</time>
    </trkpt>
    <trkpt lat="46.597027" lon="9.972008">
    <ele>1723</ele>
    <time>2010-09-09T14:10:24Z</time>
    </trkpt>
    <trkpt lat="46.596996" lon="9.971771">
    <ele>1721</ele>
    <time>2010-09-09T14:10:26Z</time>
    </trkpt>
    <trkpt lat="46.596914" lon="9.971426">
    <ele>1718</ele>
    <time>2010-09-09T14:10:29Z</time>
    </trkpt>
    <trkpt lat="46.596645" lon="9.970955">
    <ele>1716</ele>
    <time>2010-09-09T14:10:34Z</time>
    </trkpt>
    <trkpt lat="46.596458" lon="9.970732">
    <ele>1714</ele>
    <time>2010-09-09T14:10:38Z</time>
    </trkpt>
    <trkpt lat="46.596021" lon="9.970356">
    <ele>1714</ele>
    <time>2010-09-09T14:10:52Z</time>
    </trkpt>
    <trkpt lat="46.595652" lon="9.969804">
    <ele>1715</ele>
    <time>2010-09-09T14:11:07Z</time>
    </trkpt>
    <trkpt lat="46.595471" lon="9.969251">
    <ele>1717</ele>
    <time>2010-09-09T14:11:20Z</time>
    </trkpt>
    <trkpt lat="46.595236" lon="9.968547">
    <ele>1717</ele>
    <time>2010-09-09T14:11:33Z</time>
    </trkpt>
    <trkpt lat="46.595214" lon="9.967742">
    <ele>1713</ele>
    <time>2010-09-09T14:11:40Z</time>
    </trkpt>
    <trkpt lat="46.595215" lon="9.967488">
    <ele>1710</ele>
    <time>2010-09-09T14:11:42Z</time>
    </trkpt>
    <trkpt lat="46.595083" lon="9.967192">
    <ele>1706</ele>
    <time>2010-09-09T14:11:48Z</time>
    </trkpt>
    <trkpt lat="46.594941" lon="9.96723">
    <ele>1710</ele>
    <time>2010-09-09T14:11:57Z</time>
    </trkpt>
    <trkpt lat="46.594832" lon="9.967064">
    <ele>1712</ele>
    <time>2010-09-09T14:12:09Z</time>
    </trkpt>
    <trkpt lat="46.594822" lon="9.967044">
    <ele>1712</ele>
    <time>2010-09-09T14:12:10Z</time>
    </trkpt>
    <trkpt lat="46.594667" lon="9.966804">
    <ele>1715</ele>
    <time>2010-09-09T14:12:24Z</time>
    </trkpt>
    <trkpt lat="46.594475" lon="9.966531">
    <ele>1718</ele>
    <time>2010-09-09T14:12:40Z</time>
    </trkpt>
    <trkpt lat="46.594334" lon="9.966346">
    <ele>1720</ele>
    <time>2010-09-09T14:12:52Z</time>
    </trkpt>
    <trkpt lat="46.594208" lon="9.966089">
    <ele>1723</ele>
    <time>2010-09-09T14:13:06Z</time>
    </trkpt>
    <trkpt lat="46.594189" lon="9.966074">
    <ele>1723</ele>
    <time>2010-09-09T14:13:07Z</time>
    </trkpt>
    <trkpt lat="46.594121" lon="9.966044">
    <ele>1724</ele>
    <time>2010-09-09T14:13:11Z</time>
    </trkpt>
    <trkpt lat="46.594082" lon="9.96603">
    <ele>1725</ele>
    <time>2010-09-09T14:13:13Z</time>
    </trkpt>
    <trkpt lat="46.594038" lon="9.966005">
    <ele>1725</ele>
    <time>2010-09-09T14:13:16Z</time>
    </trkpt>
    <trkpt lat="46.593854" lon="9.96606">
    <ele>1727</ele>
    <time>2010-09-09T14:13:28Z</time>
    </trkpt>
    <trkpt lat="46.593591" lon="9.966032">
    <ele>1730</ele>
    <time>2010-09-09T14:13:42Z</time>
    </trkpt>
    <trkpt lat="46.593466" lon="9.965924">
    <ele>1731</ele>
    <time>2010-09-09T14:13:51Z</time>
    </trkpt>
    <trkpt lat="46.593291" lon="9.965671">
    <ele>1733</ele>
    <time>2010-09-09T14:14:05Z</time>
    </trkpt>
    <trkpt lat="46.59312" lon="9.965478">
    <ele>1736</ele>
    <time>2010-09-09T14:14:18Z</time>
    </trkpt>
    <trkpt lat="46.592986" lon="9.9653">
    <ele>1739</ele>
    <time>2010-09-09T14:14:29Z</time>
    </trkpt>
    <trkpt lat="46.592969" lon="9.965287">
    <ele>1739</ele>
    <time>2010-09-09T14:14:30Z</time>
    </trkpt>
    <trkpt lat="46.592936" lon="9.965249">
    <ele>1738</ele>
    <time>2010-09-09T14:14:32Z</time>
    </trkpt>
    <trkpt lat="46.592915" lon="9.965169">
    <ele>1740</ele>
    <time>2010-09-09T14:14:36Z</time>
    </trkpt>
    <trkpt lat="46.592815" lon="9.964807">
    <ele>1743</ele>
    <time>2010-09-09T14:14:50Z</time>
    </trkpt>
    <trkpt lat="46.592706" lon="9.964511">
    <ele>1745</ele>
    <time>2010-09-09T14:15:04Z</time>
    </trkpt>
    <trkpt lat="46.592644" lon="9.964439">
    <ele>1746</ele>
    <time>2010-09-09T14:15:08Z</time>
    </trkpt>
    <trkpt lat="46.592434" lon="9.964384">
    <ele>1749</ele>
    <time>2010-09-09T14:15:21Z</time>
    </trkpt>
    <trkpt lat="46.592246" lon="9.964297">
    <ele>1751</ele>
    <time>2010-09-09T14:15:31Z</time>
    </trkpt>
    <trkpt lat="46.592188" lon="9.964255">
    <ele>1752</ele>
    <time>2010-09-09T14:15:35Z</time>
    </trkpt>
    <trkpt lat="46.592004" lon="9.964062">
    <ele>1755</ele>
    <time>2010-09-09T14:15:48Z</time>
    </trkpt>
    <trkpt lat="46.591782" lon="9.963906">
    <ele>1757</ele>
    <time>2010-09-09T14:16:01Z</time>
    </trkpt>
    <trkpt lat="46.591567" lon="9.963816">
    <ele>1759</ele>
    <time>2010-09-09T14:16:15Z</time>
    </trkpt>
    <trkpt lat="46.591439" lon="9.963744">
    <ele>1761</ele>
    <time>2010-09-09T14:16:25Z</time>
    </trkpt>
    <trkpt lat="46.591414" lon="9.963711">
    <ele>1761</ele>
    <time>2010-09-09T14:16:41Z</time>
    </trkpt>
    <trkpt lat="46.591411" lon="9.963655">
    <ele>1762</ele>
    <time>2010-09-09T14:16:58Z</time>
    </trkpt>
    <trkpt lat="46.591416" lon="9.963629">
    <ele>1762</ele>
    <time>2010-09-09T14:17:15Z</time>
    </trkpt>
    <trkpt lat="46.591394" lon="9.963574">
    <ele>1762</ele>
    <time>2010-09-09T14:20:09Z</time>
    </trkpt>
    <trkpt lat="46.591205" lon="9.963343">
    <ele>1762</ele>
    <time>2010-09-09T14:20:19Z</time>
    </trkpt>
    <trkpt lat="46.590829" lon="9.96324">
    <ele>1762</ele>
    <time>2010-09-09T14:20:30Z</time>
    </trkpt>
    <trkpt lat="46.590629" lon="9.963199">
    <ele>1763</ele>
    <time>2010-09-09T14:20:38Z</time>
    </trkpt>
    <trkpt lat="46.590392" lon="9.963007">
    <ele>1762</ele>
    <time>2010-09-09T14:20:47Z</time>
    </trkpt>
    <trkpt lat="46.59021" lon="9.962727">
    <ele>1764</ele>
    <time>2010-09-09T14:20:58Z</time>
    </trkpt>
    <trkpt lat="46.590166" lon="9.962485">
    <ele>1765</ele>
    <time>2010-09-09T14:21:07Z</time>
    </trkpt>
    <trkpt lat="46.590171" lon="9.962474">
    <ele>1765</ele>
    <time>2010-09-09T14:21:08Z</time>
    </trkpt>
    <trkpt lat="46.590188" lon="9.96244">
    <ele>1766</ele>
    <time>2010-09-09T14:21:10Z</time>
    </trkpt>
    <trkpt lat="46.590164" lon="9.9621">
    <ele>1767</ele>
    <time>2010-09-09T14:21:22Z</time>
    </trkpt>
    <trkpt lat="46.590051" lon="9.961994">
    <ele>1767</ele>
    <time>2010-09-09T14:21:27Z</time>
    </trkpt>
    <trkpt lat="46.58972" lon="9.961716">
    <ele>1765</ele>
    <time>2010-09-09T14:21:38Z</time>
    </trkpt>
    <trkpt lat="46.589566" lon="9.96164">
    <ele>1764</ele>
    <time>2010-09-09T14:21:41Z</time>
    </trkpt>
    <trkpt lat="46.589353" lon="9.961271">
    <ele>1764</ele>
    <time>2010-09-09T14:21:52Z</time>
    </trkpt>
    <trkpt lat="46.589334" lon="9.961227">
    <ele>1765</ele>
    <time>2010-09-09T14:21:54Z</time>
    </trkpt>
    <trkpt lat="46.589351" lon="9.96107">
    <ele>1765</ele>
    <time>2010-09-09T14:22:00Z</time>
    </trkpt>
    <trkpt lat="46.589353" lon="9.960943">
    <ele>1766</ele>
    <time>2010-09-09T14:22:05Z</time>
    </trkpt>
    <trkpt lat="46.58919" lon="9.960634">
    <ele>1767</ele>
    <time>2010-09-09T14:22:17Z</time>
    </trkpt>
    <trkpt lat="46.589136" lon="9.960491">
    <ele>1767</ele>
    <time>2010-09-09T14:22:21Z</time>
    </trkpt>
    <trkpt lat="46.588839" lon="9.960099">
    <ele>1765</ele>
    <time>2010-09-09T14:22:32Z</time>
    </trkpt>
    <trkpt lat="46.588808" lon="9.960067">
    <ele>1765</ele>
    <time>2010-09-09T14:22:33Z</time>
    </trkpt>
    <trkpt lat="46.588693" lon="9.959832">
    <ele>1765</ele>
    <time>2010-09-09T14:22:39Z</time>
    </trkpt>
    <trkpt lat="46.588586" lon="9.95974">
    <ele>1764</ele>
    <time>2010-09-09T14:22:50Z</time>
    </trkpt>
    <trkpt lat="46.588561" lon="9.959711">
    <ele>1764</ele>
    <time>2010-09-09T14:23:05Z</time>
    </trkpt>
    <trkpt lat="46.5884" lon="9.959584">
    <ele>1761</ele>
    <time>2010-09-09T14:23:11Z</time>
    </trkpt>
    <trkpt lat="46.588292" lon="9.959358">
    <ele>1762</ele>
    <time>2010-09-09T14:23:20Z</time>
    </trkpt>
    <trkpt lat="46.588228" lon="9.959273">
    <ele>1762</ele>
    <time>2010-09-09T14:23:25Z</time>
    </trkpt>
    <trkpt lat="46.588158" lon="9.959103">
    <ele>1763</ele>
    <time>2010-09-09T14:23:32Z</time>
    </trkpt>
    <trkpt lat="46.588169" lon="9.958849">
    <ele>1763</ele>
    <time>2010-09-09T14:23:41Z</time>
    </trkpt>
    <trkpt lat="46.588187" lon="9.958756">
    <ele>1763</ele>
    <time>2010-09-09T14:23:44Z</time>
    </trkpt>
    <trkpt lat="46.588091" lon="9.958404">
    <ele>1765</ele>
    <time>2010-09-09T14:23:56Z</time>
    </trkpt>
    <trkpt lat="46.587992" lon="9.958257">
    <ele>1765</ele>
    <time>2010-09-09T14:24:01Z</time>
    </trkpt>
    <trkpt lat="46.587753" lon="9.958257">
    <ele>1761</ele>
    <time>2010-09-09T14:24:08Z</time>
    </trkpt>
    <trkpt lat="46.587661" lon="9.958206">
    <ele>1761</ele>
    <time>2010-09-09T14:24:11Z</time>
    </trkpt>
    <trkpt lat="46.587616" lon="9.958182">
    <ele>1761</ele>
    <time>2010-09-09T14:24:13Z</time>
    </trkpt>
    <trkpt lat="46.58758" lon="9.958105">
    <ele>1762</ele>
    <time>2010-09-09T14:24:17Z</time>
    </trkpt>
    <trkpt lat="46.587588" lon="9.957654">
    <ele>1762</ele>
    <time>2010-09-09T14:24:27Z</time>
    </trkpt>
    <trkpt lat="46.587521" lon="9.957427">
    <ele>1761</ele>
    <time>2010-09-09T14:24:32Z</time>
    </trkpt>
    <trkpt lat="46.587214" lon="9.957231">
    <ele>1761</ele>
    <time>2010-09-09T14:24:42Z</time>
    </trkpt>
    <trkpt lat="46.587184" lon="9.956956">
    <ele>1760</ele>
    <time>2010-09-09T14:24:49Z</time>
    </trkpt>
    <trkpt lat="46.587165" lon="9.956474">
    <ele>1758</ele>
    <time>2010-09-09T14:24:57Z</time>
    </trkpt>
    <trkpt lat="46.58712" lon="9.956305">
    <ele>1755</ele>
    <time>2010-09-09T14:25:00Z</time>
    </trkpt>
    <trkpt lat="46.587028" lon="9.956202">
    <ele>1755</ele>
    <time>2010-09-09T14:25:03Z</time>
    </trkpt>
    <trkpt lat="46.586948" lon="9.956139">
    <ele>1753</ele>
    <time>2010-09-09T14:25:05Z</time>
    </trkpt>
    <trkpt lat="46.586851" lon="9.956096">
    <ele>1751</ele>
    <time>2010-09-09T14:25:07Z</time>
    </trkpt>
    <trkpt lat="46.586646" lon="9.955863">
    <ele>1749</ele>
    <time>2010-09-09T14:25:14Z</time>
    </trkpt>
    <trkpt lat="46.586492" lon="9.955757">
    <ele>1747</ele>
    <time>2010-09-09T14:25:23Z</time>
    </trkpt>
    <trkpt lat="46.586487" lon="9.955753">
    <ele>1744</ele>
    <time>2010-09-09T14:25:27Z</time>
    </trkpt>
    <trkpt lat="46.58646" lon="9.955711">
    <ele>1747</ele>
    <time>2010-09-09T14:25:29Z</time>
    </trkpt>
    <trkpt lat="46.586449" lon="9.95569">
    <ele>1747</ele>
    <time>2010-09-09T14:25:33Z</time>
    </trkpt>
    <trkpt lat="46.586425" lon="9.955582">
    <ele>1748</ele>
    <time>2010-09-09T14:25:44Z</time>
    </trkpt>
    <trkpt lat="46.586454" lon="9.955302">
    <ele>1746</ele>
    <time>2010-09-09T14:25:52Z</time>
    </trkpt>
    <trkpt lat="46.586449" lon="9.954988">
    <ele>1745</ele>
    <time>2010-09-09T14:26:04Z</time>
    </trkpt>
    <trkpt lat="46.586455" lon="9.954943">
    <ele>1746</ele>
    <time>2010-09-09T14:26:06Z</time>
    </trkpt>
    <trkpt lat="46.586415" lon="9.954587">
    <ele>1743</ele>
    <time>2010-09-09T14:26:17Z</time>
    </trkpt>
    <trkpt lat="46.58637" lon="9.954499">
    <ele>1742</ele>
    <time>2010-09-09T14:26:20Z</time>
    </trkpt>
    <trkpt lat="46.586282" lon="9.954399">
    <ele>1740</ele>
    <time>2010-09-09T14:26:24Z</time>
    </trkpt>
    <trkpt lat="46.586069" lon="9.954186">
    <ele>1738</ele>
    <time>2010-09-09T14:26:32Z</time>
    </trkpt>
    <trkpt lat="46.585977" lon="9.954051">
    <ele>1737</ele>
    <time>2010-09-09T14:26:35Z</time>
    </trkpt>
    <trkpt lat="46.585863" lon="9.953895">
    <ele>1735</ele>
    <time>2010-09-09T14:26:39Z</time>
    </trkpt>
    <trkpt lat="46.58584" lon="9.953757">
    <ele>1732</ele>
    <time>2010-09-09T14:26:43Z</time>
    </trkpt>
    <trkpt lat="46.585853" lon="9.953666">
    <ele>1731</ele>
    <time>2010-09-09T14:26:46Z</time>
    </trkpt>
    <trkpt lat="46.585871" lon="9.95355">
    <ele>1728</ele>
    <time>2010-09-09T14:26:49Z</time>
    </trkpt>
    <trkpt lat="46.585872" lon="9.953418">
    <ele>1726</ele>
    <time>2010-09-09T14:26:52Z</time>
    </trkpt>
    <trkpt lat="46.585882" lon="9.953303">
    <ele>1724</ele>
    <time>2010-09-09T14:26:55Z</time>
    </trkpt>
    <trkpt lat="46.585851" lon="9.953015">
    <ele>1722</ele>
    <time>2010-09-09T14:27:01Z</time>
    </trkpt>
    <trkpt lat="46.585839" lon="9.952768">
    <ele>1720</ele>
    <time>2010-09-09T14:27:05Z</time>
    </trkpt>
    <trkpt lat="46.585843" lon="9.95271">
    <ele>1719</ele>
    <time>2010-09-09T14:27:06Z</time>
    </trkpt>
    <trkpt lat="46.585956" lon="9.952231">
    <ele>1717</ele>
    <time>2010-09-09T14:27:13Z</time>
    </trkpt>
    <trkpt lat="46.586024" lon="9.952102">
    <ele>1717</ele>
    <time>2010-09-09T14:27:15Z</time>
    </trkpt>
    <trkpt lat="46.58645" lon="9.951679">
    <ele>1712</ele>
    <time>2010-09-09T14:27:23Z</time>
    </trkpt>
    <trkpt lat="46.586555" lon="9.951544">
    <ele>1711</ele>
    <time>2010-09-09T14:27:26Z</time>
    </trkpt>
    <trkpt lat="46.586531" lon="9.951414">
    <ele>1709</ele>
    <time>2010-09-09T14:27:35Z</time>
    </trkpt>
    <trkpt lat="46.586503" lon="9.951372">
    <ele>1710</ele>
    <time>2010-09-09T14:28:26Z</time>
    </trkpt>
    <trkpt lat="46.586316" lon="9.951123">
    <ele>1712</ele>
    <time>2010-09-09T14:28:40Z</time>
    </trkpt>
    <trkpt lat="46.586168" lon="9.950887">
    <ele>1714</ele>
    <time>2010-09-09T14:28:52Z</time>
    </trkpt>
    <trkpt lat="46.585905" lon="9.950514">
    <ele>1715</ele>
    <time>2010-09-09T14:29:08Z</time>
    </trkpt>
    <trkpt lat="46.585677" lon="9.950164">
    <ele>1718</ele>
    <time>2010-09-09T14:29:24Z</time>
    </trkpt>
    <trkpt lat="46.585501" lon="9.949912">
    <ele>1721</ele>
    <time>2010-09-09T14:29:39Z</time>
    </trkpt>
    <trkpt lat="46.585283" lon="9.949674">
    <ele>1725</ele>
    <time>2010-09-09T14:29:53Z</time>
    </trkpt>
    <trkpt lat="46.585084" lon="9.949433">
    <ele>1728</ele>
    <time>2010-09-09T14:30:05Z</time>
    </trkpt>
    <trkpt lat="46.584896" lon="9.949205">
    <ele>1731</ele>
    <time>2010-09-09T14:30:17Z</time>
    </trkpt>
    <trkpt lat="46.584703" lon="9.948884">
    <ele>1733</ele>
    <time>2010-09-09T14:30:29Z</time>
    </trkpt>
    <trkpt lat="46.584598" lon="9.948774">
    <ele>1732</ele>
    <time>2010-09-09T14:30:33Z</time>
    </trkpt>
    <trkpt lat="46.584317" lon="9.948532">
    <ele>1734</ele>
    <time>2010-09-09T14:30:44Z</time>
    </trkpt>
    <trkpt lat="46.58422" lon="9.948503">
    <ele>1734</ele>
    <time>2010-09-09T14:30:48Z</time>
    </trkpt>
    <trkpt lat="46.584076" lon="9.948425">
    <ele>1736</ele>
    <time>2010-09-09T14:30:55Z</time>
    </trkpt>
    <trkpt lat="46.583752" lon="9.948153">
    <ele>1738</ele>
    <time>2010-09-09T14:31:09Z</time>
    </trkpt>
    <trkpt lat="46.583444" lon="9.94794">
    <ele>1740</ele>
    <time>2010-09-09T14:31:19Z</time>
    </trkpt>
    <trkpt lat="46.583129" lon="9.947794">
    <ele>1741</ele>
    <time>2010-09-09T14:31:29Z</time>
    </trkpt>
    <trkpt lat="46.582771" lon="9.947537">
    <ele>1741</ele>
    <time>2010-09-09T14:31:40Z</time>
    </trkpt>
    <trkpt lat="46.582624" lon="9.947444">
    <ele>1741</ele>
    <time>2010-09-09T14:31:52Z</time>
    </trkpt>
    <trkpt lat="46.582562" lon="9.947347">
    <ele>1740</ele>
    <time>2010-09-09T14:32:04Z</time>
    </trkpt>
    <trkpt lat="46.582549" lon="9.947328">
    <ele>1739</ele>
    <time>2010-09-09T14:32:24Z</time>
    </trkpt>
    <trkpt lat="46.582259" lon="9.947168">
    <ele>1737</ele>
    <time>2010-09-09T14:32:32Z</time>
    </trkpt>
    <trkpt lat="46.5822" lon="9.947132">
    <ele>1736</ele>
    <time>2010-09-09T14:32:33Z</time>
    </trkpt>
    <trkpt lat="46.581751" lon="9.946899">
    <ele>1732</ele>
    <time>2010-09-09T14:32:39Z</time>
    </trkpt>
    <trkpt lat="46.581623" lon="9.946759">
    <ele>1731</ele>
    <time>2010-09-09T14:32:41Z</time>
    </trkpt>
    <trkpt lat="46.581522" lon="9.946605">
    <ele>1729</ele>
    <time>2010-09-09T14:32:43Z</time>
    </trkpt>
    <trkpt lat="46.581332" lon="9.946152">
    <ele>1725</ele>
    <time>2010-09-09T14:32:47Z</time>
    </trkpt>
    <trkpt lat="46.581252" lon="9.945902">
    <ele>1722</ele>
    <time>2010-09-09T14:32:49Z</time>
    </trkpt>
    <trkpt lat="46.581154" lon="9.945479">
    <ele>1718</ele>
    <time>2010-09-09T14:32:52Z</time>
    </trkpt>
    <trkpt lat="46.580941" lon="9.944986">
    <ele>1712</ele>
    <time>2010-09-09T14:32:56Z</time>
    </trkpt>
    <trkpt lat="46.58078" lon="9.944811">
    <ele>1711</ele>
    <time>2010-09-09T14:32:58Z</time>
    </trkpt>
    <trkpt lat="46.580631" lon="9.944508">
    <ele>1713</ele>
    <time>2010-09-09T14:33:02Z</time>
    </trkpt>
    <trkpt lat="46.58057" lon="9.944169">
    <ele>1718</ele>
    <time>2010-09-09T14:33:07Z</time>
    </trkpt>
    <trkpt lat="46.58056" lon="9.944067">
    <ele>1718</ele>
    <time>2010-09-09T14:33:09Z</time>
    </trkpt>
    <trkpt lat="46.580547" lon="9.943723">
    <ele>1718</ele>
    <time>2010-09-09T14:33:15Z</time>
    </trkpt>
    <trkpt lat="46.580592" lon="9.943334">
    <ele>1715</ele>
    <time>2010-09-09T14:33:20Z</time>
    </trkpt>
    <trkpt lat="46.580603" lon="9.943179">
    <ele>1714</ele>
    <time>2010-09-09T14:33:22Z</time>
    </trkpt>
    <trkpt lat="46.580705" lon="9.942814">
    <ele>1711</ele>
    <time>2010-09-09T14:33:26Z</time>
    </trkpt>
    <trkpt lat="46.580791" lon="9.942646">
    <ele>1709</ele>
    <time>2010-09-09T14:33:28Z</time>
    </trkpt>
    <trkpt lat="46.581048" lon="9.942393">
    <ele>1706</ele>
    <time>2010-09-09T14:33:32Z</time>
    </trkpt>
    <trkpt lat="46.5813" lon="9.942255">
    <ele>1703</ele>
    <time>2010-09-09T14:33:35Z</time>
    </trkpt>
    <trkpt lat="46.581504" lon="9.942022">
    <ele>1699</ele>
    <time>2010-09-09T14:33:39Z</time>
    </trkpt>
    <trkpt lat="46.581569" lon="9.941873">
    <ele>1698</ele>
    <time>2010-09-09T14:33:41Z</time>
    </trkpt>
    <trkpt lat="46.581595" lon="9.941803">
    <ele>1698</ele>
    <time>2010-09-09T14:33:42Z</time>
    </trkpt>
    <trkpt lat="46.581652" lon="9.941683">
    <ele>1697</ele>
    <time>2010-09-09T14:33:44Z</time>
    </trkpt>
    <trkpt lat="46.581705" lon="9.941571">
    <ele>1696</ele>
    <time>2010-09-09T14:33:46Z</time>
    </trkpt>
    <trkpt lat="46.581646" lon="9.941295">
    <ele>1694</ele>
    <time>2010-09-09T14:33:52Z</time>
    </trkpt>
    <trkpt lat="46.581321" lon="9.940985">
    <ele>1696</ele>
    <time>2010-09-09T14:34:04Z</time>
    </trkpt>
    <trkpt lat="46.581292" lon="9.940954">
    <ele>1696</ele>
    <time>2010-09-09T14:34:05Z</time>
    </trkpt>
    <trkpt lat="46.581169" lon="9.940799">
    <ele>1696</ele>
    <time>2010-09-09T14:34:10Z</time>
    </trkpt>
    <trkpt lat="46.580994" lon="9.940403">
    <ele>1697</ele>
    <time>2010-09-09T14:34:19Z</time>
    </trkpt>
    <trkpt lat="46.580886" lon="9.940167">
    <ele>1696</ele>
    <time>2010-09-09T14:34:23Z</time>
    </trkpt>
    <trkpt lat="46.580743" lon="9.940003">
    <ele>1697</ele>
    <time>2010-09-09T14:34:27Z</time>
    </trkpt>
    <trkpt lat="46.580253" lon="9.939343">
    <ele>1697</ele>
    <time>2010-09-09T14:34:41Z</time>
    </trkpt>
    <trkpt lat="46.57959" lon="9.938764">
    <ele>1699</ele>
    <time>2010-09-09T14:34:59Z</time>
    </trkpt>
    <trkpt lat="46.578988" lon="9.938256">
    <ele>1700</ele>
    <time>2010-09-09T14:35:17Z</time>
    </trkpt>
    <trkpt lat="46.578439" lon="9.938015">
    <ele>1701</ele>
    <time>2010-09-09T14:35:31Z</time>
    </trkpt>
    <trkpt lat="46.577787" lon="9.937827">
    <ele>1701</ele>
    <time>2010-09-09T14:35:46Z</time>
    </trkpt>
    <trkpt lat="46.577694" lon="9.937819">
    <ele>1701</ele>
    <time>2010-09-09T14:35:48Z</time>
    </trkpt>
    <trkpt lat="46.577081" lon="9.93784">
    <ele>1702</ele>
    <time>2010-09-09T14:36:02Z</time>
    </trkpt>
    <trkpt lat="46.576709" lon="9.937759">
    <ele>1703</ele>
    <time>2010-09-09T14:36:11Z</time>
    </trkpt>
    <trkpt lat="46.576583" lon="9.937713">
    <ele>1703</ele>
    <time>2010-09-09T14:36:14Z</time>
    </trkpt>
    <trkpt lat="46.576361" lon="9.937437">
    <ele>1705</ele>
    <time>2010-09-09T14:36:21Z</time>
    </trkpt>
    <trkpt lat="46.576273" lon="9.93698">
    <ele>1705</ele>
    <time>2010-09-09T14:36:29Z</time>
    </trkpt>
    <trkpt lat="46.576198" lon="9.936765">
    <ele>1704</ele>
    <time>2010-09-09T14:36:33Z</time>
    </trkpt>
    <trkpt lat="46.576071" lon="9.9366">
    <ele>1704</ele>
    <time>2010-09-09T14:36:37Z</time>
    </trkpt>
    <trkpt lat="46.5756" lon="9.936259">
    <ele>1704</ele>
    <time>2010-09-09T14:36:50Z</time>
    </trkpt>
    <trkpt lat="46.575434" lon="9.936123">
    <ele>1704</ele>
    <time>2010-09-09T14:37:00Z</time>
    </trkpt>
    <trkpt lat="46.575432" lon="9.936117">
    <ele>1703</ele>
    <time>2010-09-09T14:38:32Z</time>
    </trkpt>
    <trkpt lat="46.575418" lon="9.936115">
    <ele>1704</ele>
    <time>2010-09-09T14:39:06Z</time>
    </trkpt>
    <trkpt lat="46.575404" lon="9.936114">
    <ele>1704</ele>
    <time>2010-09-09T14:39:07Z</time>
    </trkpt>
    <trkpt lat="46.575359" lon="9.936104">
    <ele>1704</ele>
    <time>2010-09-09T14:39:09Z</time>
    </trkpt>
    <trkpt lat="46.575026" lon="9.935928">
    <ele>1706</ele>
    <time>2010-09-09T14:39:21Z</time>
    </trkpt>
    <trkpt lat="46.574656" lon="9.935814">
    <ele>1708</ele>
    <time>2010-09-09T14:39:34Z</time>
    </trkpt>
    <trkpt lat="46.574286" lon="9.935629">
    <ele>1709</ele>
    <time>2010-09-09T14:39:48Z</time>
    </trkpt>
    <trkpt lat="46.573926" lon="9.935589">
    <ele>1710</ele>
    <time>2010-09-09T14:39:59Z</time>
    </trkpt>
    <trkpt lat="46.573677" lon="9.935531">
    <ele>1711</ele>
    <time>2010-09-09T14:40:09Z</time>
    </trkpt>
    <trkpt lat="46.573433" lon="9.93552">
    <ele>1712</ele>
    <time>2010-09-09T14:40:17Z</time>
    </trkpt>
    <trkpt lat="46.573073" lon="9.935307">
    <ele>1713</ele>
    <time>2010-09-09T14:40:29Z</time>
    </trkpt>
    <trkpt lat="46.573029" lon="9.935214">
    <ele>1712</ele>
    <time>2010-09-09T14:40:31Z</time>
    </trkpt>
    <trkpt lat="46.573017" lon="9.935155">
    <ele>1712</ele>
    <time>2010-09-09T14:40:32Z</time>
    </trkpt>
    <trkpt lat="46.573022" lon="9.935097">
    <ele>1712</ele>
    <time>2010-09-09T14:40:33Z</time>
    </trkpt>
    <trkpt lat="46.573062" lon="9.934978">
    <ele>1712</ele>
    <time>2010-09-09T14:40:35Z</time>
    </trkpt>
    <trkpt lat="46.573108" lon="9.934864">
    <ele>1711</ele>
    <time>2010-09-09T14:40:37Z</time>
    </trkpt>
    <trkpt lat="46.573115" lon="9.934802">
    <ele>1711</ele>
    <time>2010-09-09T14:40:38Z</time>
    </trkpt>
    <trkpt lat="46.573112" lon="9.934757">
    <ele>1711</ele>
    <time>2010-09-09T14:40:39Z</time>
    </trkpt>
    <trkpt lat="46.573108" lon="9.934716">
    <ele>1711</ele>
    <time>2010-09-09T14:40:40Z</time>
    </trkpt>
    <trkpt lat="46.573107" lon="9.934675">
    <ele>1711</ele>
    <time>2010-09-09T14:40:41Z</time>
    </trkpt>
    <trkpt lat="46.573106" lon="9.934634">
    <ele>1711</ele>
    <time>2010-09-09T14:40:42Z</time>
    </trkpt>
    <trkpt lat="46.573108" lon="9.934592">
    <ele>1711</ele>
    <time>2010-09-09T14:40:43Z</time>
    </trkpt>
    <trkpt lat="46.573114" lon="9.934552">
    <ele>1711</ele>
    <time>2010-09-09T14:40:44Z</time>
    </trkpt>
    <trkpt lat="46.573126" lon="9.934514">
    <ele>1711</ele>
    <time>2010-09-09T14:40:45Z</time>
    </trkpt>
    <trkpt lat="46.573139" lon="9.93448">
    <ele>1711</ele>
    <time>2010-09-09T14:40:46Z</time>
    </trkpt>
    <trkpt lat="46.573147" lon="9.934439">
    <ele>1711</ele>
    <time>2010-09-09T14:40:47Z</time>
    </trkpt>
    <trkpt lat="46.573153" lon="9.934389">
    <ele>1711</ele>
    <time>2010-09-09T14:40:48Z</time>
    </trkpt>
    <trkpt lat="46.573163" lon="9.93433">
    <ele>1711</ele>
    <time>2010-09-09T14:40:49Z</time>
    </trkpt>
    <trkpt lat="46.573178" lon="9.934273">
    <ele>1711</ele>
    <time>2010-09-09T14:40:50Z</time>
    </trkpt>
    <trkpt lat="46.573199" lon="9.934224">
    <ele>1711</ele>
    <time>2010-09-09T14:40:51Z</time>
    </trkpt>
    <trkpt lat="46.573224" lon="9.934176">
    <ele>1711</ele>
    <time>2010-09-09T14:40:52Z</time>
    </trkpt>
    <trkpt lat="46.573252" lon="9.934128">
    <ele>1711</ele>
    <time>2010-09-09T14:40:53Z</time>
    </trkpt>
    <trkpt lat="46.573693" lon="9.933367">
    <ele>1711</ele>
    <time>2010-09-09T14:41:06Z</time>
    </trkpt>
    <trkpt lat="46.574082" lon="9.93266">
    <ele>1707</ele>
    <time>2010-09-09T14:41:16Z</time>
    </trkpt>
    <trkpt lat="46.574505" lon="9.931967">
    <ele>1706</ele>
    <time>2010-09-09T14:41:26Z</time>
    </trkpt>
    <trkpt lat="46.574599" lon="9.931869">
    <ele>1706</ele>
    <time>2010-09-09T14:41:28Z</time>
    </trkpt>
    <trkpt lat="46.574635" lon="9.931814">
    <ele>1706</ele>
    <time>2010-09-09T14:41:29Z</time>
    </trkpt>
    <trkpt lat="46.575119" lon="9.930916">
    <ele>1705</ele>
    <time>2010-09-09T14:41:42Z</time>
    </trkpt>
    <trkpt lat="46.575141" lon="9.930834">
    <ele>1704</ele>
    <time>2010-09-09T14:41:43Z</time>
    </trkpt>
    <trkpt lat="46.575158" lon="9.930751">
    <ele>1704</ele>
    <time>2010-09-09T14:41:44Z</time>
    </trkpt>
    <trkpt lat="46.575183" lon="9.930677">
    <ele>1704</ele>
    <time>2010-09-09T14:41:45Z</time>
    </trkpt>
    <trkpt lat="46.575216" lon="9.930608">
    <ele>1704</ele>
    <time>2010-09-09T14:41:46Z</time>
    </trkpt>
    <trkpt lat="46.575497" lon="9.930052">
    <ele>1702</ele>
    <time>2010-09-09T14:41:54Z</time>
    </trkpt>
    <trkpt lat="46.575954" lon="9.929148">
    <ele>1700</ele>
    <time>2010-09-09T14:42:07Z</time>
    </trkpt>
    <trkpt lat="46.576478" lon="9.928125">
    <ele>1697</ele>
    <time>2010-09-09T14:42:21Z</time>
    </trkpt>
    <trkpt lat="46.576792" lon="9.927506">
    <ele>1696</ele>
    <time>2010-09-09T14:42:30Z</time>
    </trkpt>
    <trkpt lat="46.576866" lon="9.927364">
    <ele>1696</ele>
    <time>2010-09-09T14:42:32Z</time>
    </trkpt>
    <trkpt lat="46.576971" lon="9.927151">
    <ele>1695</ele>
    <time>2010-09-09T14:42:35Z</time>
    </trkpt>
    <trkpt lat="46.577598" lon="9.925932">
    <ele>1692</ele>
    <time>2010-09-09T14:42:53Z</time>
    </trkpt>
    <trkpt lat="46.577682" lon="9.925786">
    <ele>1691</ele>
    <time>2010-09-09T14:43:02Z</time>
    </trkpt>
    <trkpt lat="46.577346" lon="9.925483">
    <ele>1690</ele>
    <time>2010-09-09T14:49:17Z</time>
    </trkpt>
    <trkpt lat="46.57723" lon="9.925432">
    <ele>1689</ele>
    <time>2010-09-09T14:49:19Z</time>
    </trkpt>
    <trkpt lat="46.577035" lon="9.925121">
    <ele>1689</ele>
    <time>2010-09-09T14:49:25Z</time>
    </trkpt>
    <trkpt lat="46.577046" lon="9.92483">
    <ele>1689</ele>
    <time>2010-09-09T14:49:29Z</time>
    </trkpt>
    <trkpt lat="46.577031" lon="9.924695">
    <ele>1689</ele>
    <time>2010-09-09T14:49:31Z</time>
    </trkpt>
    <trkpt lat="46.577012" lon="9.924631">
    <ele>1689</ele>
    <time>2010-09-09T14:49:32Z</time>
    </trkpt>
    <trkpt lat="46.576987" lon="9.924571">
    <ele>1689</ele>
    <time>2010-09-09T14:49:33Z</time>
    </trkpt>
    <trkpt lat="46.576955" lon="9.924516">
    <ele>1689</ele>
    <time>2010-09-09T14:49:34Z</time>
    </trkpt>
    <trkpt lat="46.576921" lon="9.924472">
    <ele>1689</ele>
    <time>2010-09-09T14:49:35Z</time>
    </trkpt>
    <trkpt lat="46.576883" lon="9.924433">
    <ele>1688</ele>
    <time>2010-09-09T14:49:36Z</time>
    </trkpt>
    <trkpt lat="46.576841" lon="9.924396">
    <ele>1688</ele>
    <time>2010-09-09T14:49:37Z</time>
    </trkpt>
    <trkpt lat="46.576798" lon="9.92436">
    <ele>1689</ele>
    <time>2010-09-09T14:49:38Z</time>
    </trkpt>
    <trkpt lat="46.576755" lon="9.924322">
    <ele>1689</ele>
    <time>2010-09-09T14:49:39Z</time>
    </trkpt>
    <trkpt lat="46.576717" lon="9.924283">
    <ele>1689</ele>
    <time>2010-09-09T14:49:40Z</time>
    </trkpt>
    <trkpt lat="46.576225" lon="9.923702">
    <ele>1689</ele>
    <time>2010-09-09T14:49:53Z</time>
    </trkpt>
    <trkpt lat="46.575626" lon="9.922882">
    <ele>1689</ele>
    <time>2010-09-09T14:50:10Z</time>
    </trkpt>
    <trkpt lat="46.575257" lon="9.922298">
    <ele>1689</ele>
    <time>2010-09-09T14:50:21Z</time>
    </trkpt>
    <trkpt lat="46.575002" lon="9.921933">
    <ele>1689</ele>
    <time>2010-09-09T14:50:28Z</time>
    </trkpt>
    <trkpt lat="46.574964" lon="9.921887">
    <ele>1689</ele>
    <time>2010-09-09T14:50:29Z</time>
    </trkpt>
    <trkpt lat="46.574416" lon="9.921236">
    <ele>1689</ele>
    <time>2010-09-09T14:50:43Z</time>
    </trkpt>
    <trkpt lat="46.573926" lon="9.920641">
    <ele>1690</ele>
    <time>2010-09-09T14:50:55Z</time>
    </trkpt>
    <trkpt lat="46.57369" lon="9.920359">
    <ele>1690</ele>
    <time>2010-09-09T14:51:01Z</time>
    </trkpt>
    <trkpt lat="46.573611" lon="9.920275">
    <ele>1690</ele>
    <time>2010-09-09T14:51:03Z</time>
    </trkpt>
    <trkpt lat="46.573577" lon="9.920226">
    <ele>1689</ele>
    <time>2010-09-09T14:51:04Z</time>
    </trkpt>
    <trkpt lat="46.573355" lon="9.919958">
    <ele>1689</ele>
    <time>2010-09-09T14:51:10Z</time>
    </trkpt>
    <trkpt lat="46.57298" lon="9.919492">
    <ele>1690</ele>
    <time>2010-09-09T14:51:20Z</time>
    </trkpt>
    <trkpt lat="46.572946" lon="9.919443">
    <ele>1689</ele>
    <time>2010-09-09T14:51:21Z</time>
    </trkpt>
    <trkpt lat="46.572629" lon="9.919056">
    <ele>1690</ele>
    <time>2010-09-09T14:51:29Z</time>
    </trkpt>
    <trkpt lat="46.572587" lon="9.919012">
    <ele>1689</ele>
    <time>2010-09-09T14:51:30Z</time>
    </trkpt>
    <trkpt lat="46.572548" lon="9.918965">
    <ele>1689</ele>
    <time>2010-09-09T14:51:31Z</time>
    </trkpt>
    <trkpt lat="46.57247" lon="9.918866">
    <ele>1689</ele>
    <time>2010-09-09T14:51:33Z</time>
    </trkpt>
    <trkpt lat="46.57243" lon="9.918822">
    <ele>1689</ele>
    <time>2010-09-09T14:51:34Z</time>
    </trkpt>
    <trkpt lat="46.571867" lon="9.918139">
    <ele>1690</ele>
    <time>2010-09-09T14:51:49Z</time>
    </trkpt>
    <trkpt lat="46.571827" lon="9.918092">
    <ele>1690</ele>
    <time>2010-09-09T14:51:50Z</time>
    </trkpt>
    <trkpt lat="46.571546" lon="9.917771">
    <ele>1690</ele>
    <time>2010-09-09T14:51:57Z</time>
    </trkpt>
    <trkpt lat="46.571499" lon="9.917729">
    <ele>1690</ele>
    <time>2010-09-09T14:51:58Z</time>
    </trkpt>
    <trkpt lat="46.571458" lon="9.917677">
    <ele>1690</ele>
    <time>2010-09-09T14:51:59Z</time>
    </trkpt>
    <trkpt lat="46.571118" lon="9.917225">
    <ele>1690</ele>
    <time>2010-09-09T14:52:08Z</time>
    </trkpt>
    <trkpt lat="46.571041" lon="9.917139">
    <ele>1690</ele>
    <time>2010-09-09T14:52:10Z</time>
    </trkpt>
    <trkpt lat="46.570785" lon="9.916807">
    <ele>1690</ele>
    <time>2010-09-09T14:52:17Z</time>
    </trkpt>
    <trkpt lat="46.570748" lon="9.916759">
    <ele>1691</ele>
    <time>2010-09-09T14:52:18Z</time>
    </trkpt>
    <trkpt lat="46.57071" lon="9.916715">
    <ele>1691</ele>
    <time>2010-09-09T14:52:19Z</time>
    </trkpt>
    <trkpt lat="46.57025" lon="9.916167">
    <ele>1690</ele>
    <time>2010-09-09T14:52:31Z</time>
    </trkpt>
    <trkpt lat="46.570106" lon="9.915982">
    <ele>1690</ele>
    <time>2010-09-09T14:52:35Z</time>
    </trkpt>
    <trkpt lat="46.570034" lon="9.915893">
    <ele>1690</ele>
    <time>2010-09-09T14:52:37Z</time>
    </trkpt>
    <trkpt lat="46.569998" lon="9.915845">
    <ele>1690</ele>
    <time>2010-09-09T14:52:38Z</time>
    </trkpt>
    <trkpt lat="46.569436" lon="9.91515">
    <ele>1691</ele>
    <time>2010-09-09T14:52:53Z</time>
    </trkpt>
    <trkpt lat="46.568911" lon="9.914487">
    <ele>1691</ele>
    <time>2010-09-09T14:53:07Z</time>
    </trkpt>
    <trkpt lat="46.568765" lon="9.914304">
    <ele>1691</ele>
    <time>2010-09-09T14:53:11Z</time>
    </trkpt>
    <trkpt lat="46.568732" lon="9.914264">
    <ele>1691</ele>
    <time>2010-09-09T14:53:12Z</time>
    </trkpt>
    <trkpt lat="46.568552" lon="9.914031">
    <ele>1691</ele>
    <time>2010-09-09T14:53:17Z</time>
    </trkpt>
    <trkpt lat="46.568475" lon="9.913939">
    <ele>1691</ele>
    <time>2010-09-09T14:53:19Z</time>
    </trkpt>
    <trkpt lat="46.567976" lon="9.91328">
    <ele>1692</ele>
    <time>2010-09-09T14:53:32Z</time>
    </trkpt>
    <trkpt lat="46.567894" lon="9.913186">
    <ele>1692</ele>
    <time>2010-09-09T14:53:34Z</time>
    </trkpt>
    <trkpt lat="46.567853" lon="9.913138">
    <ele>1692</ele>
    <time>2010-09-09T14:53:35Z</time>
    </trkpt>
    <trkpt lat="46.567239" lon="9.912366">
    <ele>1693</ele>
    <time>2010-09-09T14:53:50Z</time>
    </trkpt>
    <trkpt lat="46.56684" lon="9.911858">
    <ele>1692</ele>
    <time>2010-09-09T14:54:01Z</time>
    </trkpt>
    <trkpt lat="46.566736" lon="9.911717">
    <ele>1692</ele>
    <time>2010-09-09T14:54:04Z</time>
    </trkpt>
    <trkpt lat="46.566704" lon="9.911668">
    <ele>1693</ele>
    <time>2010-09-09T14:54:05Z</time>
    </trkpt>
    <trkpt lat="46.566423" lon="9.911318">
    <ele>1693</ele>
    <time>2010-09-09T14:54:13Z</time>
    </trkpt>
    <trkpt lat="46.566385" lon="9.911268">
    <ele>1694</ele>
    <time>2010-09-09T14:54:14Z</time>
    </trkpt>
    <trkpt lat="46.566302" lon="9.911172">
    <ele>1694</ele>
    <time>2010-09-09T14:54:16Z</time>
    </trkpt>
    <trkpt lat="46.56626" lon="9.911128">
    <ele>1694</ele>
    <time>2010-09-09T14:54:17Z</time>
    </trkpt>
    <trkpt lat="46.565961" lon="9.910794">
    <ele>1694</ele>
    <time>2010-09-09T14:54:24Z</time>
    </trkpt>
    <trkpt lat="46.565925" lon="9.910746">
    <ele>1694</ele>
    <time>2010-09-09T14:54:25Z</time>
    </trkpt>
    <trkpt lat="46.565885" lon="9.910704">
    <ele>1694</ele>
    <time>2010-09-09T14:54:26Z</time>
    </trkpt>
    <trkpt lat="46.56584" lon="9.91065">
    <ele>1694</ele>
    <time>2010-09-09T14:54:27Z</time>
    </trkpt>
    <trkpt lat="46.565794" lon="9.910598">
    <ele>1694</ele>
    <time>2010-09-09T14:54:28Z</time>
    </trkpt>
    <trkpt lat="46.565514" lon="9.910336">
    <ele>1694</ele>
    <time>2010-09-09T14:54:34Z</time>
    </trkpt>
    <trkpt lat="46.565469" lon="9.910293">
    <ele>1694</ele>
    <time>2010-09-09T14:54:35Z</time>
    </trkpt>
    <trkpt lat="46.565307" lon="9.910132">
    <ele>1695</ele>
    <time>2010-09-09T14:54:38Z</time>
    </trkpt>
    <trkpt lat="46.565196" lon="9.910019">
    <ele>1696</ele>
    <time>2010-09-09T14:54:40Z</time>
    </trkpt>
    <trkpt lat="46.565" lon="9.909776">
    <ele>1699</ele>
    <time>2010-09-09T14:54:44Z</time>
    </trkpt>
    <trkpt lat="46.564951" lon="9.909733">
    <ele>1698</ele>
    <time>2010-09-09T14:54:45Z</time>
    </trkpt>
    <trkpt lat="46.564297" lon="9.909255">
    <ele>1699</ele>
    <time>2010-09-09T14:54:58Z</time>
    </trkpt>
    <trkpt lat="46.564246" lon="9.909221">
    <ele>1698</ele>
    <time>2010-09-09T14:54:59Z</time>
    </trkpt>
    <trkpt lat="46.564192" lon="9.909186">
    <ele>1698</ele>
    <time>2010-09-09T14:55:00Z</time>
    </trkpt>
    <trkpt lat="46.563583" lon="9.908834">
    <ele>1699</ele>
    <time>2010-09-09T14:55:12Z</time>
    </trkpt>
    <trkpt lat="46.563025" lon="9.908556">
    <ele>1699</ele>
    <time>2010-09-09T14:55:24Z</time>
    </trkpt>
    <trkpt lat="46.562382" lon="9.908123">
    <ele>1699</ele>
    <time>2010-09-09T14:55:38Z</time>
    </trkpt>
    <trkpt lat="46.562084" lon="9.907903">
    <ele>1699</ele>
    <time>2010-09-09T14:55:45Z</time>
    </trkpt>
    <trkpt lat="46.562037" lon="9.907878">
    <ele>1699</ele>
    <time>2010-09-09T14:55:46Z</time>
    </trkpt>
    <trkpt lat="46.561667" lon="9.907661">
    <ele>1697</ele>
    <time>2010-09-09T14:55:52Z</time>
    </trkpt>
    <trkpt lat="46.561622" lon="9.90761">
    <ele>1697</ele>
    <time>2010-09-09T14:55:53Z</time>
    </trkpt>
    <trkpt lat="46.561585" lon="9.90757">
    <ele>1696</ele>
    <time>2010-09-09T14:55:54Z</time>
    </trkpt>
    <trkpt lat="46.561556" lon="9.907548">
    <ele>1696</ele>
    <time>2010-09-09T14:55:55Z</time>
    </trkpt>
    <trkpt lat="46.561503" lon="9.907537">
    <ele>1695</ele>
    <time>2010-09-09T14:55:57Z</time>
    </trkpt>
    <trkpt lat="46.561355" lon="9.907858">
    <ele>1695</ele>
    <time>2010-09-09T14:56:05Z</time>
    </trkpt>
    <trkpt lat="46.561319" lon="9.907916">
    <ele>1695</ele>
    <time>2010-09-09T14:56:07Z</time>
    </trkpt>
    <trkpt lat="46.561088" lon="9.908175">
    <ele>1696</ele>
    <time>2010-09-09T14:56:18Z</time>
    </trkpt>
    <trkpt lat="46.560853" lon="9.908423">
    <ele>1695</ele>
    <time>2010-09-09T14:56:30Z</time>
    </trkpt>
    <trkpt lat="46.560484" lon="9.908349">
    <ele>1695</ele>
    <time>2010-09-09T14:56:42Z</time>
    </trkpt>
    <trkpt lat="46.56013" lon="9.907692">
    <ele>1696</ele>
    <time>2010-09-09T14:56:56Z</time>
    </trkpt>
    <trkpt lat="46.559746" lon="9.907035">
    <ele>1698</ele>
    <time>2010-09-09T14:57:10Z</time>
    </trkpt>
    <trkpt lat="46.559285" lon="9.906268">
    <ele>1699</ele>
    <time>2010-09-09T14:57:27Z</time>
    </trkpt>
    <trkpt lat="46.558858" lon="9.905562">
    <ele>1700</ele>
    <time>2010-09-09T14:57:43Z</time>
    </trkpt>
    <trkpt lat="46.558397" lon="9.904902">
    <ele>1700</ele>
    <time>2010-09-09T14:57:59Z</time>
    </trkpt>
    <trkpt lat="46.557927" lon="9.904362">
    <ele>1699</ele>
    <time>2010-09-09T14:58:14Z</time>
    </trkpt>
    <trkpt lat="46.557508" lon="9.903891">
    <ele>1698</ele>
    <time>2010-09-09T14:58:27Z</time>
    </trkpt>
    <trkpt lat="46.556915" lon="9.903173">
    <ele>1699</ele>
    <time>2010-09-09T14:58:46Z</time>
    </trkpt>
    <trkpt lat="46.556579" lon="9.902799">
    <ele>1699</ele>
    <time>2010-09-09T14:58:56Z</time>
    </trkpt>
    <trkpt lat="46.556134" lon="9.902435">
    <ele>1700</ele>
    <time>2010-09-09T14:59:08Z</time>
    </trkpt>
    <trkpt lat="46.555403" lon="9.901948">
    <ele>1699</ele>
    <time>2010-09-09T14:59:27Z</time>
    </trkpt>
    <trkpt lat="46.554804" lon="9.901783">
    <ele>1699</ele>
    <time>2010-09-09T14:59:41Z</time>
    </trkpt>
    <trkpt lat="46.55423" lon="9.90215">
    <ele>1698</ele>
    <time>2010-09-09T14:59:55Z</time>
    </trkpt>
    <trkpt lat="46.553643" lon="9.902491">
    <ele>1698</ele>
    <time>2010-09-09T15:00:08Z</time>
    </trkpt>
    <trkpt lat="46.552794" lon="9.902649">
    <ele>1698</ele>
    <time>2010-09-09T15:00:25Z</time>
    </trkpt>
    <trkpt lat="46.552168" lon="9.902759">
    <ele>1699</ele>
    <time>2010-09-09T15:00:39Z</time>
    </trkpt>
    <trkpt lat="46.552014" lon="9.902766">
    <ele>1698</ele>
    <time>2010-09-09T15:00:50Z</time>
    </trkpt>
    <trkpt lat="46.551976" lon="9.902742">
    <ele>1698</ele>
    <time>2010-09-09T15:01:02Z</time>
    </trkpt>
    <trkpt lat="46.551963" lon="9.902733">
    <ele>1697</ele>
    <time>2010-09-09T15:01:11Z</time>
    </trkpt>
    <trkpt lat="46.551847" lon="9.902749">
    <ele>1697</ele>
    <time>2010-09-09T15:01:22Z</time>
    </trkpt>
    <trkpt lat="46.55182" lon="9.902736">
    <ele>1698</ele>
    <time>2010-09-09T15:01:32Z</time>
    </trkpt>
    <trkpt lat="46.551758" lon="9.902709">
    <ele>1698</ele>
    <time>2010-09-09T15:01:36Z</time>
    </trkpt>
    <trkpt lat="46.551389" lon="9.902694">
    <ele>1699</ele>
    <time>2010-09-09T15:01:49Z</time>
    </trkpt>
    <trkpt lat="46.551027" lon="9.902623">
    <ele>1700</ele>
    <time>2010-09-09T15:02:03Z</time>
    </trkpt>
    <trkpt lat="46.550608" lon="9.902403">
    <ele>1702</ele>
    <time>2010-09-09T15:02:18Z</time>
    </trkpt>
    <trkpt lat="46.550117" lon="9.902102">
    <ele>1703</ele>
    <time>2010-09-09T15:02:33Z</time>
    </trkpt>
    <trkpt lat="46.549568" lon="9.901713">
    <ele>1705</ele>
    <time>2010-09-09T15:02:49Z</time>
    </trkpt>
    <trkpt lat="46.54949" lon="9.90169">
    <ele>1704</ele>
    <time>2010-09-09T15:02:51Z</time>
    </trkpt>
    <trkpt lat="46.549373" lon="9.901641">
    <ele>1704</ele>
    <time>2010-09-09T15:02:54Z</time>
    </trkpt>
    <trkpt lat="46.549203" lon="9.901593">
    <ele>1704</ele>
    <time>2010-09-09T15:02:58Z</time>
    </trkpt>
    <trkpt lat="46.548692" lon="9.901264">
    <ele>1705</ele>
    <time>2010-09-09T15:03:12Z</time>
    </trkpt>
    <trkpt lat="46.548499" lon="9.90112">
    <ele>1704</ele>
    <time>2010-09-09T15:03:17Z</time>
    </trkpt>
    <trkpt lat="46.548327" lon="9.901043">
    <ele>1704</ele>
    <time>2010-09-09T15:03:21Z</time>
    </trkpt>
    <trkpt lat="46.548039" lon="9.901052">
    <ele>1704</ele>
    <time>2010-09-09T15:03:27Z</time>
    </trkpt>
    <trkpt lat="46.54788" lon="9.901018">
    <ele>1703</ele>
    <time>2010-09-09T15:03:30Z</time>
    </trkpt>
    <trkpt lat="46.547495" lon="9.900748">
    <ele>1701</ele>
    <time>2010-09-09T15:03:37Z</time>
    </trkpt>
    <trkpt lat="46.547376" lon="9.900763">
    <ele>1702</ele>
    <time>2010-09-09T15:03:39Z</time>
    </trkpt>
    <trkpt lat="46.547091" lon="9.900858">
    <ele>1701</ele>
    <time>2010-09-09T15:03:44Z</time>
    </trkpt>
    <trkpt lat="46.54677" lon="9.901023">
    <ele>1700</ele>
    <time>2010-09-09T15:03:50Z</time>
    </trkpt>
    <trkpt lat="46.54623" lon="9.901095">
    <ele>1700</ele>
    <time>2010-09-09T15:04:00Z</time>
    </trkpt>
    <trkpt lat="46.546081" lon="9.901093">
    <ele>1700</ele>
    <time>2010-09-09T15:04:03Z</time>
    </trkpt>
    <trkpt lat="46.54585" lon="9.901004">
    <ele>1701</ele>
    <time>2010-09-09T15:04:08Z</time>
    </trkpt>
    <trkpt lat="46.545617" lon="9.9009">
    <ele>1700</ele>
    <time>2010-09-09T15:04:13Z</time>
    </trkpt>
    <trkpt lat="46.544911" lon="9.900751">
    <ele>1700</ele>
    <time>2010-09-09T15:04:29Z</time>
    </trkpt>
    <trkpt lat="46.54468" lon="9.900422">
    <ele>1699</ele>
    <time>2010-09-09T15:04:38Z</time>
    </trkpt>
    <trkpt lat="46.544368" lon="9.900005">
    <ele>1700</ele>
    <time>2010-09-09T15:04:52Z</time>
    </trkpt>
    <trkpt lat="46.544099" lon="9.899644">
    <ele>1700</ele>
    <time>2010-09-09T15:05:03Z</time>
    </trkpt>
    <trkpt lat="46.543835" lon="9.899132">
    <ele>1700</ele>
    <time>2010-09-09T15:05:14Z</time>
    </trkpt>
    <trkpt lat="46.543711" lon="9.898937">
    <ele>1699</ele>
    <time>2010-09-09T15:05:18Z</time>
    </trkpt>
    <trkpt lat="46.543616" lon="9.898632">
    <ele>1700</ele>
    <time>2010-09-09T15:05:23Z</time>
    </trkpt>
    <trkpt lat="46.543566" lon="9.898386">
    <ele>1700</ele>
    <time>2010-09-09T15:05:27Z</time>
    </trkpt>
    <trkpt lat="46.543533" lon="9.898262">
    <ele>1701</ele>
    <time>2010-09-09T15:05:29Z</time>
    </trkpt>
    <trkpt lat="46.543517" lon="9.897984">
    <ele>1701</ele>
    <time>2010-09-09T15:05:34Z</time>
    </trkpt>
    <trkpt lat="46.543455" lon="9.897297">
    <ele>1703</ele>
    <time>2010-09-09T15:05:47Z</time>
    </trkpt>
    <trkpt lat="46.543488" lon="9.896574">
    <ele>1704</ele>
    <time>2010-09-09T15:06:00Z</time>
    </trkpt>
    <trkpt lat="46.543452" lon="9.896204">
    <ele>1705</ele>
    <time>2010-09-09T15:06:07Z</time>
    </trkpt>
    <trkpt lat="46.543413" lon="9.895939">
    <ele>1703</ele>
    <time>2010-09-09T15:06:11Z</time>
    </trkpt>
    <trkpt lat="46.543379" lon="9.895642">
    <ele>1703</ele>
    <time>2010-09-09T15:06:15Z</time>
    </trkpt>
    <trkpt lat="46.54334" lon="9.895396">
    <ele>1703</ele>
    <time>2010-09-09T15:06:19Z</time>
    </trkpt>
    <trkpt lat="46.543142" lon="9.894727">
    <ele>1701</ele>
    <time>2010-09-09T15:06:28Z</time>
    </trkpt>
    <trkpt lat="46.543091" lon="9.894566">
    <ele>1701</ele>
    <time>2010-09-09T15:06:30Z</time>
    </trkpt>
    <trkpt lat="46.542932" lon="9.894097">
    <ele>1701</ele>
    <time>2010-09-09T15:06:38Z</time>
    </trkpt>
    <trkpt lat="46.542811" lon="9.893782">
    <ele>1701</ele>
    <time>2010-09-09T15:06:44Z</time>
    </trkpt>
    <trkpt lat="46.542762" lon="9.893526">
    <ele>1701</ele>
    <time>2010-09-09T15:06:49Z</time>
    </trkpt>
    <trkpt lat="46.542726" lon="9.893252">
    <ele>1702</ele>
    <time>2010-09-09T15:06:53Z</time>
    </trkpt>
    <trkpt lat="46.542607" lon="9.892739">
    <ele>1704</ele>
    <time>2010-09-09T15:07:03Z</time>
    </trkpt>
    <trkpt lat="46.542445" lon="9.892455">
    <ele>1705</ele>
    <time>2010-09-09T15:07:13Z</time>
    </trkpt>
    <trkpt lat="46.542275" lon="9.892083">
    <ele>1707</ele>
    <time>2010-09-09T15:07:24Z</time>
    </trkpt>
    <trkpt lat="46.54227" lon="9.892045">
    <ele>1708</ele>
    <time>2010-09-09T15:07:25Z</time>
    </trkpt>
    <trkpt lat="46.542267" lon="9.891902">
    <ele>1706</ele>
    <time>2010-09-09T15:07:30Z</time>
    </trkpt>
    <trkpt lat="46.542292" lon="9.891677">
    <ele>1706</ele>
    <time>2010-09-09T15:07:36Z</time>
    </trkpt>
    <trkpt lat="46.542332" lon="9.890834">
    <ele>1704</ele>
    <time>2010-09-09T15:07:47Z</time>
    </trkpt>
    <trkpt lat="46.54236" lon="9.890568">
    <ele>1704</ele>
    <time>2010-09-09T15:07:50Z</time>
    </trkpt>
    <trkpt lat="46.542363" lon="9.890036">
    <ele>1704</ele>
    <time>2010-09-09T15:07:56Z</time>
    </trkpt>
    <trkpt lat="46.542341" lon="9.889473">
    <ele>1706</ele>
    <time>2010-09-09T15:08:05Z</time>
    </trkpt>
    <trkpt lat="46.542311" lon="9.889306">
    <ele>1707</ele>
    <time>2010-09-09T15:08:08Z</time>
    </trkpt>
    <trkpt lat="46.54238" lon="9.889176">
    <ele>1706</ele>
    <time>2010-09-09T15:08:12Z</time>
    </trkpt>
    <trkpt lat="46.54244" lon="9.889135">
    <ele>1707</ele>
    <time>2010-09-09T15:08:14Z</time>
    </trkpt>
    <trkpt lat="46.542488" lon="9.888933">
    <ele>1706</ele>
    <time>2010-09-09T15:08:18Z</time>
    </trkpt>
    <trkpt lat="46.542183" lon="9.888037">
    <ele>1708</ele>
    <time>2010-09-09T15:08:35Z</time>
    </trkpt>
    <trkpt lat="46.542039" lon="9.887587">
    <ele>1707</ele>
    <time>2010-09-09T15:08:44Z</time>
    </trkpt>
    <trkpt lat="46.541913" lon="9.887132">
    <ele>1706</ele>
    <time>2010-09-09T15:08:52Z</time>
    </trkpt>
    <trkpt lat="46.541897" lon="9.887061">
    <ele>1705</ele>
    <time>2010-09-09T15:08:53Z</time>
    </trkpt>
    <trkpt lat="46.541824" lon="9.886844">
    <ele>1704</ele>
    <time>2010-09-09T15:08:56Z</time>
    </trkpt>
    <trkpt lat="46.541702" lon="9.886612">
    <ele>1704</ele>
    <time>2010-09-09T15:09:00Z</time>
    </trkpt>
    <trkpt lat="46.541575" lon="9.886446">
    <ele>1705</ele>
    <time>2010-09-09T15:09:04Z</time>
    </trkpt>
    <trkpt lat="46.541538" lon="9.886412">
    <ele>1705</ele>
    <time>2010-09-09T15:09:05Z</time>
    </trkpt>
    <trkpt lat="46.541284" lon="9.886219">
    <ele>1706</ele>
    <time>2010-09-09T15:09:12Z</time>
    </trkpt>
    <trkpt lat="46.541072" lon="9.886086">
    <ele>1706</ele>
    <time>2010-09-09T15:09:17Z</time>
    </trkpt>
    <trkpt lat="46.540893" lon="9.885987">
    <ele>1706</ele>
    <time>2010-09-09T15:09:21Z</time>
    </trkpt>
    <trkpt lat="46.540853" lon="9.885946">
    <ele>1706</ele>
    <time>2010-09-09T15:09:22Z</time>
    </trkpt>
    <trkpt lat="46.540468" lon="9.885494">
    <ele>1706</ele>
    <time>2010-09-09T15:09:33Z</time>
    </trkpt>
    <trkpt lat="46.540012" lon="9.885037">
    <ele>1706</ele>
    <time>2010-09-09T15:09:44Z</time>
    </trkpt>
    <trkpt lat="46.539705" lon="9.884704">
    <ele>1706</ele>
    <time>2010-09-09T15:09:51Z</time>
    </trkpt>
    <trkpt lat="46.539666" lon="9.884663">
    <ele>1706</ele>
    <time>2010-09-09T15:09:52Z</time>
    </trkpt>
    <trkpt lat="46.539546" lon="9.884524">
    <ele>1706</ele>
    <time>2010-09-09T15:09:55Z</time>
    </trkpt>
    <trkpt lat="46.539503" lon="9.884483">
    <ele>1706</ele>
    <time>2010-09-09T15:09:56Z</time>
    </trkpt>
    <trkpt lat="46.539381" lon="9.884362">
    <ele>1707</ele>
    <time>2010-09-09T15:09:59Z</time>
    </trkpt>
    <trkpt lat="46.538849" lon="9.883745">
    <ele>1706</ele>
    <time>2010-09-09T15:10:13Z</time>
    </trkpt>
    <trkpt lat="46.538814" lon="9.883697">
    <ele>1706</ele>
    <time>2010-09-09T15:10:14Z</time>
    </trkpt>
    <trkpt lat="46.53857" lon="9.883397">
    <ele>1706</ele>
    <time>2010-09-09T15:10:21Z</time>
    </trkpt>
    <trkpt lat="46.538529" lon="9.883368">
    <ele>1706</ele>
    <time>2010-09-09T15:10:22Z</time>
    </trkpt>
    <trkpt lat="46.538489" lon="9.883338">
    <ele>1707</ele>
    <time>2010-09-09T15:10:23Z</time>
    </trkpt>
    <trkpt lat="46.53845" lon="9.883305">
    <ele>1707</ele>
    <time>2010-09-09T15:10:24Z</time>
    </trkpt>
    <trkpt lat="46.538414" lon="9.883268">
    <ele>1707</ele>
    <time>2010-09-09T15:10:25Z</time>
    </trkpt>
    <trkpt lat="46.537816" lon="9.882622">
    <ele>1707</ele>
    <time>2010-09-09T15:10:40Z</time>
    </trkpt>
    <trkpt lat="46.537176" lon="9.881824">
    <ele>1706</ele>
    <time>2010-09-09T15:10:57Z</time>
    </trkpt>
    <trkpt lat="46.536628" lon="9.881133">
    <ele>1707</ele>
    <time>2010-09-09T15:11:12Z</time>
    </trkpt>
    <trkpt lat="46.536228" lon="9.880614">
    <ele>1708</ele>
    <time>2010-09-09T15:11:23Z</time>
    </trkpt>
    <trkpt lat="46.536203" lon="9.880555">
    <ele>1708</ele>
    <time>2010-09-09T15:11:24Z</time>
    </trkpt>
    <trkpt lat="46.536184" lon="9.880485">
    <ele>1708</ele>
    <time>2010-09-09T15:11:25Z</time>
    </trkpt>
    <trkpt lat="46.536181" lon="9.880413">
    <ele>1708</ele>
    <time>2010-09-09T15:11:26Z</time>
    </trkpt>
    <trkpt lat="46.536177" lon="9.880336">
    <ele>1708</ele>
    <time>2010-09-09T15:11:27Z</time>
    </trkpt>
    <trkpt lat="46.536175" lon="9.880259">
    <ele>1709</ele>
    <time>2010-09-09T15:11:28Z</time>
    </trkpt>
    <trkpt lat="46.536156" lon="9.880035">
    <ele>1708</ele>
    <time>2010-09-09T15:11:31Z</time>
    </trkpt>
    <trkpt lat="46.53614" lon="9.879965">
    <ele>1708</ele>
    <time>2010-09-09T15:11:32Z</time>
    </trkpt>
    <trkpt lat="46.536118" lon="9.879899">
    <ele>1709</ele>
    <time>2010-09-09T15:11:33Z</time>
    </trkpt>
    <trkpt lat="46.536066" lon="9.879774">
    <ele>1708</ele>
    <time>2010-09-09T15:11:35Z</time>
    </trkpt>
    <trkpt lat="46.536031" lon="9.879729">
    <ele>1708</ele>
    <time>2010-09-09T15:11:36Z</time>
    </trkpt>
    <trkpt lat="46.535967" lon="9.879641">
    <ele>1708</ele>
    <time>2010-09-09T15:11:38Z</time>
    </trkpt>
    <trkpt lat="46.535744" lon="9.879278">
    <ele>1707</ele>
    <time>2010-09-09T15:11:51Z</time>
    </trkpt>
    <trkpt lat="46.535567" lon="9.879021">
    <ele>1707</ele>
    <time>2010-09-09T15:12:01Z</time>
    </trkpt>
    <trkpt lat="46.535335" lon="9.878693">
    <ele>1707</ele>
    <time>2010-09-09T15:12:14Z</time>
    </trkpt>
    <trkpt lat="46.535142" lon="9.87839">
    <ele>1707</ele>
    <time>2010-09-09T15:12:25Z</time>
    </trkpt>
    <trkpt lat="46.534917" lon="9.878063">
    <ele>1707</ele>
    <time>2010-09-09T15:12:36Z</time>
    </trkpt>
    <trkpt lat="46.534632" lon="9.877711">
    <ele>1707</ele>
    <time>2010-09-09T15:12:49Z</time>
    </trkpt>
    <trkpt lat="46.534451" lon="9.877345">
    <ele>1706</ele>
    <time>2010-09-09T15:13:00Z</time>
    </trkpt>
    <trkpt lat="46.534215" lon="9.877017">
    <ele>1707</ele>
    <time>2010-09-09T15:13:11Z</time>
    </trkpt>
    <trkpt lat="46.534044" lon="9.876705">
    <ele>1708</ele>
    <time>2010-09-09T15:13:19Z</time>
    </trkpt>
    <trkpt lat="46.534017" lon="9.87666">
    <ele>1708</ele>
    <time>2010-09-09T15:13:20Z</time>
    </trkpt>
    <trkpt lat="46.533705" lon="9.87624">
    <ele>1708</ele>
    <time>2010-09-09T15:13:32Z</time>
    </trkpt>
    <trkpt lat="46.533395" lon="9.875703">
    <ele>1708</ele>
    <time>2010-09-09T15:13:45Z</time>
    </trkpt>
    <trkpt lat="46.533144" lon="9.87539">
    <ele>1708</ele>
    <time>2010-09-09T15:13:56Z</time>
    </trkpt>
    <trkpt lat="46.532883" lon="9.874981">
    <ele>1708</ele>
    <time>2010-09-09T15:14:09Z</time>
    </trkpt>
    <trkpt lat="46.532702" lon="9.874673">
    <ele>1708</ele>
    <time>2010-09-09T15:14:20Z</time>
    </trkpt>
    <trkpt lat="46.532383" lon="9.874245">
    <ele>1708</ele>
    <time>2010-09-09T15:14:32Z</time>
    </trkpt>
    <trkpt lat="46.532162" lon="9.873835">
    <ele>1708</ele>
    <time>2010-09-09T15:14:41Z</time>
    </trkpt>
    <trkpt lat="46.532066" lon="9.873699">
    <ele>1708</ele>
    <time>2010-09-09T15:14:44Z</time>
    </trkpt>
    <trkpt lat="46.532039" lon="9.87365">
    <ele>1709</ele>
    <time>2010-09-09T15:14:45Z</time>
    </trkpt>
    <trkpt lat="46.53199" lon="9.873553">
    <ele>1708</ele>
    <time>2010-09-09T15:14:47Z</time>
    </trkpt>
    <trkpt lat="46.531796" lon="9.873132">
    <ele>1709</ele>
    <time>2010-09-09T15:14:56Z</time>
    </trkpt>
    <trkpt lat="46.531768" lon="9.873074">
    <ele>1709</ele>
    <time>2010-09-09T15:14:57Z</time>
    </trkpt>
    <trkpt lat="46.531747" lon="9.873015">
    <ele>1709</ele>
    <time>2010-09-09T15:14:58Z</time>
    </trkpt>
    <trkpt lat="46.531631" lon="9.872709">
    <ele>1709</ele>
    <time>2010-09-09T15:15:04Z</time>
    </trkpt>
    <trkpt lat="46.531604" lon="9.872657">
    <ele>1709</ele>
    <time>2010-09-09T15:15:05Z</time>
    </trkpt>
    <trkpt lat="46.531576" lon="9.872611">
    <ele>1709</ele>
    <time>2010-09-09T15:15:06Z</time>
    </trkpt>
    <trkpt lat="46.531338" lon="9.872005">
    <ele>1710</ele>
    <time>2010-09-09T15:15:18Z</time>
    </trkpt>
    <trkpt lat="46.531112" lon="9.871541">
    <ele>1707</ele>
    <time>2010-09-09T15:15:29Z</time>
    </trkpt>
    <trkpt lat="46.531111" lon="9.871519">
    <ele>1707</ele>
    <time>2010-09-09T15:15:30Z</time>
    </trkpt>
    <trkpt lat="46.531106" lon="9.871498">
    <ele>1707</ele>
    <time>2010-09-09T15:15:31Z</time>
    </trkpt>
    <trkpt lat="46.530989" lon="9.871226">
    <ele>1708</ele>
    <time>2010-09-09T15:15:42Z</time>
    </trkpt>
    <trkpt lat="46.530882" lon="9.870879">
    <ele>1711</ele>
    <time>2010-09-09T15:15:52Z</time>
    </trkpt>
    <trkpt lat="46.530537" lon="9.870191">
    <ele>1712</ele>
    <time>2010-09-09T15:16:08Z</time>
    </trkpt>
    <trkpt lat="46.530022" lon="9.86933">
    <ele>1712</ele>
    <time>2010-09-09T15:16:27Z</time>
    </trkpt>
    <trkpt lat="46.52988" lon="9.869105">
    <ele>1712</ele>
    <time>2010-09-09T15:16:32Z</time>
    </trkpt>
    <trkpt lat="46.52945" lon="9.868566">
    <ele>1712</ele>
    <time>2010-09-09T15:16:46Z</time>
    </trkpt>
    <trkpt lat="46.529312" lon="9.868421">
    <ele>1712</ele>
    <time>2010-09-09T15:16:50Z</time>
    </trkpt>
    <trkpt lat="46.528861" lon="9.867991">
    <ele>1711</ele>
    <time>2010-09-09T15:17:01Z</time>
    </trkpt>
    <trkpt lat="46.528462" lon="9.867615">
    <ele>1712</ele>
    <time>2010-09-09T15:17:10Z</time>
    </trkpt>
    <trkpt lat="46.528346" lon="9.867531">
    <ele>1712</ele>
    <time>2010-09-09T15:17:13Z</time>
    </trkpt>
    <trkpt lat="46.528221" lon="9.867442">
    <ele>1712</ele>
    <time>2010-09-09T15:17:16Z</time>
    </trkpt>
    <trkpt lat="46.528179" lon="9.867409">
    <ele>1712</ele>
    <time>2010-09-09T15:17:17Z</time>
    </trkpt>
    <trkpt lat="46.528137" lon="9.867383">
    <ele>1713</ele>
    <time>2010-09-09T15:17:18Z</time>
    </trkpt>
    <trkpt lat="46.528054" lon="9.867339">
    <ele>1712</ele>
    <time>2010-09-09T15:17:20Z</time>
    </trkpt>
    <trkpt lat="46.527432" lon="9.866887">
    <ele>1713</ele>
    <time>2010-09-09T15:17:35Z</time>
    </trkpt>
    <trkpt lat="46.527014" lon="9.866618">
    <ele>1713</ele>
    <time>2010-09-09T15:17:45Z</time>
    </trkpt>
    <trkpt lat="46.526456" lon="9.866307">
    <ele>1714</ele>
    <time>2010-09-09T15:17:58Z</time>
    </trkpt>
    <trkpt lat="46.526299" lon="9.866251">
    <ele>1713</ele>
    <time>2010-09-09T15:18:01Z</time>
    </trkpt>
    <trkpt lat="46.525635" lon="9.865901">
    <ele>1715</ele>
    <time>2010-09-09T15:18:15Z</time>
    </trkpt>
    <trkpt lat="46.525484" lon="9.865851">
    <ele>1714</ele>
    <time>2010-09-09T15:18:18Z</time>
    </trkpt>
    <trkpt lat="46.52487" lon="9.865355">
    <ele>1715</ele>
    <time>2010-09-09T15:18:32Z</time>
    </trkpt>
    <trkpt lat="46.524336" lon="9.86479">
    <ele>1714</ele>
    <time>2010-09-09T15:18:46Z</time>
    </trkpt>
    <trkpt lat="46.524281" lon="9.864285">
    <ele>1714</ele>
    <time>2010-09-09T15:18:55Z</time>
    </trkpt>
    <trkpt lat="46.524244" lon="9.864015">
    <ele>1714</ele>
    <time>2010-09-09T15:18:59Z</time>
    </trkpt>
    <trkpt lat="46.524226" lon="9.863953">
    <ele>1714</ele>
    <time>2010-09-09T15:19:00Z</time>
    </trkpt>
    <trkpt lat="46.524196" lon="9.863909">
    <ele>1714</ele>
    <time>2010-09-09T15:19:01Z</time>
    </trkpt>
    <trkpt lat="46.524159" lon="9.86388">
    <ele>1714</ele>
    <time>2010-09-09T15:19:02Z</time>
    </trkpt>
    <trkpt lat="46.524119" lon="9.863857">
    <ele>1715</ele>
    <time>2010-09-09T15:19:03Z</time>
    </trkpt>
    <trkpt lat="46.523722" lon="9.863513">
    <ele>1715</ele>
    <time>2010-09-09T15:19:16Z</time>
    </trkpt>
    <trkpt lat="46.523582" lon="9.863439">
    <ele>1715</ele>
    <time>2010-09-09T15:19:25Z</time>
    </trkpt>
    <trkpt lat="46.523511" lon="9.863417">
    <ele>1715</ele>
    <time>2010-09-09T15:19:30Z</time>
    </trkpt>
    <trkpt lat="46.523305" lon="9.863181">
    <ele>1715</ele>
    <time>2010-09-09T15:19:43Z</time>
    </trkpt>
    <trkpt lat="46.5233" lon="9.863167">
    <ele>1715</ele>
    <time>2010-09-09T15:19:44Z</time>
    </trkpt>
    <trkpt lat="46.523292" lon="9.863156">
    <ele>1716</ele>
    <time>2010-09-09T15:19:45Z</time>
    </trkpt>
    <trkpt lat="46.523288" lon="9.863141">
    <ele>1716</ele>
    <time>2010-09-09T15:19:46Z</time>
    </trkpt>
    <trkpt lat="46.523275" lon="9.863108">
    <ele>1716</ele>
    <time>2010-09-09T15:19:49Z</time>
    </trkpt>
    <trkpt lat="46.523261" lon="9.863106">
    <ele>1715</ele>
    <time>2010-09-09T15:19:50Z</time>
    </trkpt>
    <trkpt lat="46.523243" lon="9.863093">
    <ele>1715</ele>
    <time>2010-09-09T15:19:51Z</time>
    </trkpt>
    <trkpt lat="46.523228" lon="9.863079">
    <ele>1716</ele>
    <time>2010-09-09T15:19:52Z</time>
    </trkpt>
    <trkpt lat="46.523213" lon="9.863065">
    <ele>1715</ele>
    <time>2010-09-09T15:19:53Z</time>
    </trkpt>
    <trkpt lat="46.5232" lon="9.863056">
    <ele>1716</ele>
    <time>2010-09-09T15:19:54Z</time>
    </trkpt>
    <trkpt lat="46.523175" lon="9.863048">
    <ele>1715</ele>
    <time>2010-09-09T15:19:56Z</time>
    </trkpt>
    <trkpt lat="46.523163" lon="9.863038">
    <ele>1716</ele>
    <time>2010-09-09T15:19:57Z</time>
    </trkpt>
    <trkpt lat="46.523148" lon="9.863025">
    <ele>1716</ele>
    <time>2010-09-09T15:19:58Z</time>
    </trkpt>
    <trkpt lat="46.52271" lon="9.862767">
    <ele>1716</ele>
    <time>2010-09-09T15:20:13Z</time>
    </trkpt>
    <trkpt lat="46.522031" lon="9.862341">
    <ele>1716</ele>
    <time>2010-09-09T15:20:30Z</time>
    </trkpt>
    <trkpt lat="46.521401" lon="9.861937">
    <ele>1716</ele>
    <time>2010-09-09T15:20:45Z</time>
    </trkpt>
    <trkpt lat="46.520941" lon="9.861685">
    <ele>1716</ele>
    <time>2010-09-09T15:20:55Z</time>
    </trkpt>
    <trkpt lat="46.520893" lon="9.861666">
    <ele>1716</ele>
    <time>2010-09-09T15:20:56Z</time>
    </trkpt>
    <trkpt lat="46.520105" lon="9.861439">
    <ele>1716</ele>
    <time>2010-09-09T15:21:12Z</time>
    </trkpt>
    <trkpt lat="46.519305" lon="9.861532">
    <ele>1716</ele>
    <time>2010-09-09T15:21:28Z</time>
    </trkpt>
    <trkpt lat="46.518408" lon="9.861803">
    <ele>1716</ele>
    <time>2010-09-09T15:21:46Z</time>
    </trkpt>
    <trkpt lat="46.517548" lon="9.862064">
    <ele>1717</ele>
    <time>2010-09-09T15:22:04Z</time>
    </trkpt>
    <trkpt lat="46.516698" lon="9.862209">
    <ele>1717</ele>
    <time>2010-09-09T15:22:23Z</time>
    </trkpt>
    <trkpt lat="46.516348" lon="9.862164">
    <ele>1717</ele>
    <time>2010-09-09T15:22:34Z</time>
    </trkpt>
    <trkpt lat="46.516309" lon="9.862149">
    <ele>1717</ele>
    <time>2010-09-09T15:22:35Z</time>
    </trkpt>
    <trkpt lat="46.516263" lon="9.86214">
    <ele>1718</ele>
    <time>2010-09-09T15:22:36Z</time>
    </trkpt>
    <trkpt lat="46.515385" lon="9.862057">
    <ele>1717</ele>
    <time>2010-09-09T15:22:54Z</time>
    </trkpt>
    <trkpt lat="46.514857" lon="9.862038">
    <ele>1718</ele>
    <time>2010-09-09T15:23:06Z</time>
    </trkpt>
    <trkpt lat="46.51481" lon="9.862018">
    <ele>1718</ele>
    <time>2010-09-09T15:23:07Z</time>
    </trkpt>
    <trkpt lat="46.51475" lon="9.861996">
    <ele>1718</ele>
    <time>2010-09-09T15:23:08Z</time>
    </trkpt>
    <trkpt lat="46.514439" lon="9.861974">
    <ele>1717</ele>
    <time>2010-09-09T15:23:14Z</time>
    </trkpt>
    <trkpt lat="46.514388" lon="9.861967">
    <ele>1717</ele>
    <time>2010-09-09T15:23:15Z</time>
    </trkpt>
    <trkpt lat="46.514336" lon="9.861958">
    <ele>1717</ele>
    <time>2010-09-09T15:23:16Z</time>
    </trkpt>
    <trkpt lat="46.514284" lon="9.861942">
    <ele>1717</ele>
    <time>2010-09-09T15:23:17Z</time>
    </trkpt>
    <trkpt lat="46.514228" lon="9.861926">
    <ele>1717</ele>
    <time>2010-09-09T15:23:18Z</time>
    </trkpt>
    <trkpt lat="46.514174" lon="9.861919">
    <ele>1717</ele>
    <time>2010-09-09T15:23:19Z</time>
    </trkpt>
    <trkpt lat="46.514117" lon="9.861912">
    <ele>1717</ele>
    <time>2010-09-09T15:23:20Z</time>
    </trkpt>
    <trkpt lat="46.513819" lon="9.861892">
    <ele>1717</ele>
    <time>2010-09-09T15:23:25Z</time>
    </trkpt>
    <trkpt lat="46.513764" lon="9.861911">
    <ele>1717</ele>
    <time>2010-09-09T15:23:26Z</time>
    </trkpt>
    <trkpt lat="46.513715" lon="9.86193">
    <ele>1717</ele>
    <time>2010-09-09T15:23:27Z</time>
    </trkpt>
    <trkpt lat="46.513659" lon="9.861935">
    <ele>1717</ele>
    <time>2010-09-09T15:23:28Z</time>
    </trkpt>
    <trkpt lat="46.513606" lon="9.861926">
    <ele>1716</ele>
    <time>2010-09-09T15:23:29Z</time>
    </trkpt>
    <trkpt lat="46.513554" lon="9.8619">
    <ele>1716</ele>
    <time>2010-09-09T15:23:30Z</time>
    </trkpt>
    <trkpt lat="46.513501" lon="9.861861">
    <ele>1716</ele>
    <time>2010-09-09T15:23:31Z</time>
    </trkpt>
    <trkpt lat="46.513314" lon="9.861699">
    <ele>1716</ele>
    <time>2010-09-09T15:23:35Z</time>
    </trkpt>
    <trkpt lat="46.513274" lon="9.861657">
    <ele>1716</ele>
    <time>2010-09-09T15:23:36Z</time>
    </trkpt>
    <trkpt lat="46.513231" lon="9.861614">
    <ele>1716</ele>
    <time>2010-09-09T15:23:37Z</time>
    </trkpt>
    <trkpt lat="46.513178" lon="9.861572">
    <ele>1716</ele>
    <time>2010-09-09T15:23:38Z</time>
    </trkpt>
    <trkpt lat="46.513141" lon="9.861514">
    <ele>1716</ele>
    <time>2010-09-09T15:23:39Z</time>
    </trkpt>
    <trkpt lat="46.51311" lon="9.861455">
    <ele>1716</ele>
    <time>2010-09-09T15:23:40Z</time>
    </trkpt>
    <trkpt lat="46.513058" lon="9.861339">
    <ele>1716</ele>
    <time>2010-09-09T15:23:42Z</time>
    </trkpt>
    <trkpt lat="46.513021" lon="9.861226">
    <ele>1717</ele>
    <time>2010-09-09T15:23:44Z</time>
    </trkpt>
    <trkpt lat="46.512998" lon="9.861168">
    <ele>1717</ele>
    <time>2010-09-09T15:23:45Z</time>
    </trkpt>
    <trkpt lat="46.51298" lon="9.861108">
    <ele>1717</ele>
    <time>2010-09-09T15:23:46Z</time>
    </trkpt>
    <trkpt lat="46.512887" lon="9.860692">
    <ele>1718</ele>
    <time>2010-09-09T15:23:54Z</time>
    </trkpt>
    <trkpt lat="46.512851" lon="9.860641">
    <ele>1718</ele>
    <time>2010-09-09T15:23:55Z</time>
    </trkpt>
    <trkpt lat="46.512819" lon="9.860595">
    <ele>1718</ele>
    <time>2010-09-09T15:23:56Z</time>
    </trkpt>
    <trkpt lat="46.512792" lon="9.860545">
    <ele>1718</ele>
    <time>2010-09-09T15:23:57Z</time>
    </trkpt>
    <trkpt lat="46.512766" lon="9.8605">
    <ele>1718</ele>
    <time>2010-09-09T15:23:58Z</time>
    </trkpt>
    <trkpt lat="46.512739" lon="9.86046">
    <ele>1718</ele>
    <time>2010-09-09T15:23:59Z</time>
    </trkpt>
    <trkpt lat="46.512723" lon="9.860415">
    <ele>1719</ele>
    <time>2010-09-09T15:24:00Z</time>
    </trkpt>
    <trkpt lat="46.512604" lon="9.860138">
    <ele>1719</ele>
    <time>2010-09-09T15:24:06Z</time>
    </trkpt>
    <trkpt lat="46.512596" lon="9.860088">
    <ele>1720</ele>
    <time>2010-09-09T15:24:07Z</time>
    </trkpt>
    <trkpt lat="46.512583" lon="9.860037">
    <ele>1720</ele>
    <time>2010-09-09T15:24:08Z</time>
    </trkpt>
    <trkpt lat="46.512439" lon="9.859411">
    <ele>1722</ele>
    <time>2010-09-09T15:24:20Z</time>
    </trkpt>
    <trkpt lat="46.512295" lon="9.858845">
    <ele>1724</ele>
    <time>2010-09-09T15:24:33Z</time>
    </trkpt>
    <trkpt lat="46.511988" lon="9.858327">
    <ele>1723</ele>
    <time>2010-09-09T15:24:46Z</time>
    </trkpt>
    <trkpt lat="46.511639" lon="9.85769">
    <ele>1723</ele>
    <time>2010-09-09T15:25:02Z</time>
    </trkpt>
    <trkpt lat="46.511364" lon="9.857104">
    <ele>1723</ele>
    <time>2010-09-09T15:25:15Z</time>
    </trkpt>
    <trkpt lat="46.511177" lon="9.856655">
    <ele>1726</ele>
    <time>2010-09-09T15:25:27Z</time>
    </trkpt>
    <trkpt lat="46.510898" lon="9.856374">
    <ele>1727</ele>
    <time>2010-09-09T15:25:39Z</time>
    </trkpt>
    <trkpt lat="46.51064" lon="9.856197">
    <ele>1726</ele>
    <time>2010-09-09T15:25:50Z</time>
    </trkpt>
    <trkpt lat="46.510619" lon="9.856204">
    <ele>1726</ele>
    <time>2010-09-09T15:26:38Z</time>
    </trkpt>
    <trkpt lat="46.51063" lon="9.85616">
    <ele>1726</ele>
    <time>2010-09-09T15:26:48Z</time>
    </trkpt>
    <trkpt lat="46.510622" lon="9.856138">
    <ele>1726</ele>
    <time>2010-09-09T15:26:53Z</time>
    </trkpt>
    <trkpt lat="46.510628" lon="9.856172">
    <ele>1726</ele>
    <time>2010-09-09T15:27:06Z</time>
    </trkpt>
    <trkpt lat="46.510635" lon="9.856171">
    <ele>1726</ele>
    <time>2010-09-09T15:27:28Z</time>
    </trkpt>
    <trkpt lat="46.510631" lon="9.85619">
    <ele>1727</ele>
    <time>2010-09-09T15:27:54Z</time>
    </trkpt>
    <trkpt lat="46.510627" lon="9.856202">
    <ele>1726</ele>
    <time>2010-09-09T15:28:32Z</time>
    </trkpt>
    <trkpt lat="46.510635" lon="9.8562">
    <ele>1726</ele>
    <time>2010-09-09T15:28:51Z</time>
    </trkpt>
    <trkpt lat="46.510635" lon="9.856155">
    <ele>1726</ele>
    <time>2010-09-09T15:28:54Z</time>
    </trkpt>
    <trkpt lat="46.510679" lon="9.856184">
    <ele>1726</ele>
    <time>2010-09-09T15:29:00Z</time>
    </trkpt>
    <trkpt lat="46.510802" lon="9.856299">
    <ele>1730</ele>
    <time>2010-09-09T15:29:11Z</time>
    </trkpt>
    <trkpt lat="46.510812" lon="9.856312">
    <ele>1728</ele>
    <time>2010-09-09T15:29:12Z</time>
    </trkpt>
    <trkpt lat="46.51082" lon="9.856354">
    <ele>1723</ele>
    <time>2010-09-09T15:29:15Z</time>
    </trkpt>
    <trkpt lat="46.51082" lon="9.856354">
    <ele>1727</ele>
    <time>2010-09-09T15:29:16Z</time>
    </trkpt>
    <trkpt lat="46.51082" lon="9.856374">
    <ele>1728</ele>
    <time>2010-09-09T15:29:18Z</time>
    </trkpt>
    <trkpt lat="46.510819" lon="9.856393">
    <ele>1723</ele>
    <time>2010-09-09T15:29:20Z</time>
    </trkpt>
    <trkpt lat="46.510814" lon="9.8564">
    <ele>1727</ele>
    <time>2010-09-09T15:29:21Z</time>
    </trkpt>
    <trkpt lat="46.510814" lon="9.8564">
    <ele>1728</ele>
    <time>2010-09-09T15:29:23Z</time>
    </trkpt>
    <trkpt lat="46.510809" lon="9.856444">
    <ele>1724</ele>
    <time>2010-09-09T15:29:35Z</time>
    </trkpt>
  </trkseg>
</trk>
<extensions>
</extensions>
</gpx>
